<?xml version="1.0" encoding="UTF-8" standalone="no" ?>
<gpx xmlns="http://www.topografix.com/GPX/1/1" xmlns:xsi="http://www.w3.org/2001/XMLSchema-instance" xsi:schemaLocation="http://www.topografix.com/GPX/1/1 http://www.topografix.com/GPX/1/1/gpx.xsd" version="1.1" creator="VisuGPX - https://www.visugpx.com">
  <metadata>
    <name>randonnée du 10 04 2011</name>
    <desc><![CDATA[Marche pour la santé organisée par \"Spicheren Loisirs\"]]></desc>
  </metadata>
  <trk>
    <name><![CDATA[randonnée du 10 04 2011_1]]></name>
    <trkseg>
      <trkpt lat="49.18157" lon="6.97946">
        <ele>326</ele>
        <time>2011-04-10T06:39:15Z</time>
      </trkpt>
      <trkpt lat="49.18144" lon="6.97983">
        <ele>327</ele>
        <time>2011-04-10T06:39:42Z</time>
      </trkpt>
      <trkpt lat="49.18144" lon="6.97985">
        <ele>327</ele>
        <time>2011-04-10T06:39:43Z</time>
      </trkpt>
      <trkpt lat="49.18144" lon="6.97987">
        <ele>327</ele>
        <time>2011-04-10T06:39:44Z</time>
      </trkpt>
      <trkpt lat="49.18144" lon="6.97989">
        <ele>326</ele>
        <time>2011-04-10T06:39:45Z</time>
      </trkpt>
      <trkpt lat="49.18144" lon="6.97991">
        <ele>326</ele>
        <time>2011-04-10T06:39:46Z</time>
      </trkpt>
      <trkpt lat="49.18144" lon="6.97993">
        <ele>326</ele>
        <time>2011-04-10T06:39:47Z</time>
      </trkpt>
      <trkpt lat="49.18144" lon="6.97996">
        <ele>325</ele>
        <time>2011-04-10T06:39:49Z</time>
      </trkpt>
      <trkpt lat="49.18144" lon="6.97999">
        <ele>325</ele>
        <time>2011-04-10T06:39:51Z</time>
      </trkpt>
      <trkpt lat="49.18144" lon="6.98001">
        <ele>325</ele>
        <time>2011-04-10T06:39:52Z</time>
      </trkpt>
      <trkpt lat="49.18144" lon="6.98003">
        <ele>325</ele>
        <time>2011-04-10T06:39:53Z</time>
      </trkpt>
      <trkpt lat="49.18144" lon="6.98005">
        <ele>325</ele>
        <time>2011-04-10T06:39:55Z</time>
      </trkpt>
      <trkpt lat="49.18143" lon="6.98007">
        <ele>325</ele>
        <time>2011-04-10T06:39:56Z</time>
      </trkpt>
      <trkpt lat="49.18143" lon="6.98009">
        <ele>325</ele>
        <time>2011-04-10T06:39:57Z</time>
      </trkpt>
      <trkpt lat="49.18142" lon="6.98011">
        <ele>325</ele>
        <time>2011-04-10T06:39:58Z</time>
      </trkpt>
      <trkpt lat="49.18142" lon="6.98013">
        <ele>325</ele>
        <time>2011-04-10T06:39:59Z</time>
      </trkpt>
      <trkpt lat="49.18142" lon="6.98015">
        <ele>325</ele>
        <time>2011-04-10T06:40:00Z</time>
      </trkpt>
      <trkpt lat="49.18142" lon="6.98017">
        <ele>325</ele>
        <time>2011-04-10T06:40:01Z</time>
      </trkpt>
      <trkpt lat="49.18141" lon="6.98021">
        <ele>325</ele>
        <time>2011-04-10T06:40:03Z</time>
      </trkpt>
      <trkpt lat="49.18141" lon="6.98023">
        <ele>325</ele>
        <time>2011-04-10T06:40:04Z</time>
      </trkpt>
      <trkpt lat="49.1814" lon="6.98025">
        <ele>325</ele>
        <time>2011-04-10T06:40:05Z</time>
      </trkpt>
      <trkpt lat="49.1814" lon="6.98027">
        <ele>325</ele>
        <time>2011-04-10T06:40:06Z</time>
      </trkpt>
      <trkpt lat="49.1814" lon="6.98029">
        <ele>325</ele>
        <time>2011-04-10T06:40:07Z</time>
      </trkpt>
      <trkpt lat="49.1814" lon="6.9803">
        <ele>325</ele>
        <time>2011-04-10T06:40:08Z</time>
      </trkpt>
      <trkpt lat="49.18139" lon="6.98033">
        <ele>325</ele>
        <time>2011-04-10T06:40:09Z</time>
      </trkpt>
      <trkpt lat="49.18137" lon="6.98036">
        <ele>325</ele>
        <time>2011-04-10T06:40:12Z</time>
      </trkpt>
      <trkpt lat="49.18137" lon="6.98038">
        <ele>325</ele>
        <time>2011-04-10T06:40:13Z</time>
      </trkpt>
      <trkpt lat="49.18137" lon="6.9804">
        <ele>325</ele>
        <time>2011-04-10T06:40:14Z</time>
      </trkpt>
      <trkpt lat="49.18137" lon="6.98044">
        <ele>325</ele>
        <time>2011-04-10T06:40:16Z</time>
      </trkpt>
      <trkpt lat="49.18135" lon="6.98048">
        <ele>325</ele>
        <time>2011-04-10T06:40:18Z</time>
      </trkpt>
      <trkpt lat="49.18134" lon="6.98051">
        <ele>325</ele>
        <time>2011-04-10T06:40:19Z</time>
      </trkpt>
      <trkpt lat="49.18133" lon="6.98053">
        <ele>325</ele>
        <time>2011-04-10T06:40:20Z</time>
      </trkpt>
      <trkpt lat="49.18133" lon="6.98055">
        <ele>325</ele>
        <time>2011-04-10T06:40:22Z</time>
      </trkpt>
      <trkpt lat="49.18132" lon="6.98058">
        <ele>325</ele>
        <time>2011-04-10T06:40:24Z</time>
      </trkpt>
      <trkpt lat="49.18131" lon="6.9806">
        <ele>325</ele>
        <time>2011-04-10T06:40:25Z</time>
      </trkpt>
      <trkpt lat="49.18129" lon="6.98063">
        <ele>325</ele>
        <time>2011-04-10T06:40:27Z</time>
      </trkpt>
      <trkpt lat="49.18129" lon="6.98065">
        <ele>325</ele>
        <time>2011-04-10T06:40:28Z</time>
      </trkpt>
      <trkpt lat="49.18129" lon="6.98067">
        <ele>325</ele>
        <time>2011-04-10T06:40:30Z</time>
      </trkpt>
      <trkpt lat="49.18128" lon="6.98069">
        <ele>325</ele>
        <time>2011-04-10T06:40:31Z</time>
      </trkpt>
      <trkpt lat="49.18128" lon="6.9807">
        <ele>325</ele>
        <time>2011-04-10T06:40:32Z</time>
      </trkpt>
      <trkpt lat="49.18128" lon="6.98073">
        <ele>325</ele>
        <time>2011-04-10T06:40:33Z</time>
      </trkpt>
      <trkpt lat="49.18127" lon="6.98074">
        <ele>325</ele>
        <time>2011-04-10T06:40:34Z</time>
      </trkpt>
      <trkpt lat="49.18126" lon="6.98077">
        <ele>325</ele>
        <time>2011-04-10T06:40:36Z</time>
      </trkpt>
      <trkpt lat="49.18125" lon="6.9808">
        <ele>325</ele>
        <time>2011-04-10T06:40:37Z</time>
      </trkpt>
      <trkpt lat="49.18124" lon="6.98083">
        <ele>325</ele>
        <time>2011-04-10T06:40:38Z</time>
      </trkpt>
      <trkpt lat="49.18123" lon="6.98085">
        <ele>325</ele>
        <time>2011-04-10T06:40:40Z</time>
      </trkpt>
      <trkpt lat="49.18123" lon="6.98088">
        <ele>325</ele>
        <time>2011-04-10T06:40:42Z</time>
      </trkpt>
      <trkpt lat="49.18122" lon="6.98091">
        <ele>325</ele>
        <time>2011-04-10T06:40:44Z</time>
      </trkpt>
      <trkpt lat="49.18121" lon="6.98093">
        <ele>325</ele>
        <time>2011-04-10T06:40:45Z</time>
      </trkpt>
      <trkpt lat="49.1812" lon="6.98094">
        <ele>325</ele>
        <time>2011-04-10T06:40:46Z</time>
      </trkpt>
      <trkpt lat="49.1812" lon="6.98096">
        <ele>325</ele>
        <time>2011-04-10T06:40:47Z</time>
      </trkpt>
      <trkpt lat="49.18119" lon="6.98098">
        <ele>325</ele>
        <time>2011-04-10T06:40:48Z</time>
      </trkpt>
      <trkpt lat="49.18119" lon="6.98101">
        <ele>325</ele>
        <time>2011-04-10T06:40:50Z</time>
      </trkpt>
      <trkpt lat="49.18119" lon="6.98104">
        <ele>325</ele>
        <time>2011-04-10T06:40:52Z</time>
      </trkpt>
      <trkpt lat="49.18118" lon="6.98107">
        <ele>325</ele>
        <time>2011-04-10T06:40:53Z</time>
      </trkpt>
      <trkpt lat="49.18118" lon="6.9811">
        <ele>325</ele>
        <time>2011-04-10T06:40:54Z</time>
      </trkpt>
      <trkpt lat="49.18116" lon="6.98113">
        <ele>325</ele>
        <time>2011-04-10T06:40:55Z</time>
      </trkpt>
      <trkpt lat="49.18116" lon="6.98115">
        <ele>325</ele>
        <time>2011-04-10T06:40:56Z</time>
      </trkpt>
      <trkpt lat="49.18115" lon="6.98119">
        <ele>325</ele>
        <time>2011-04-10T06:40:57Z</time>
      </trkpt>
      <trkpt lat="49.18115" lon="6.98122">
        <ele>325</ele>
        <time>2011-04-10T06:40:58Z</time>
      </trkpt>
      <trkpt lat="49.18114" lon="6.98124">
        <ele>325</ele>
        <time>2011-04-10T06:40:59Z</time>
      </trkpt>
      <trkpt lat="49.18114" lon="6.98125">
        <ele>325</ele>
        <time>2011-04-10T06:41:00Z</time>
      </trkpt>
      <trkpt lat="49.18113" lon="6.98128">
        <ele>325</ele>
        <time>2011-04-10T06:41:02Z</time>
      </trkpt>
      <trkpt lat="49.18112" lon="6.98132">
        <ele>325</ele>
        <time>2011-04-10T06:41:04Z</time>
      </trkpt>
      <trkpt lat="49.18111" lon="6.98134">
        <ele>325</ele>
        <time>2011-04-10T06:41:05Z</time>
      </trkpt>
      <trkpt lat="49.18111" lon="6.98136">
        <ele>325</ele>
        <time>2011-04-10T06:41:07Z</time>
      </trkpt>
      <trkpt lat="49.18111" lon="6.98138">
        <ele>325</ele>
        <time>2011-04-10T06:41:09Z</time>
      </trkpt>
      <trkpt lat="49.1811" lon="6.98139">
        <ele>325</ele>
        <time>2011-04-10T06:41:10Z</time>
      </trkpt>
      <trkpt lat="49.1811" lon="6.98141">
        <ele>325</ele>
        <time>2011-04-10T06:41:11Z</time>
      </trkpt>
      <trkpt lat="49.18109" lon="6.98143">
        <ele>325</ele>
        <time>2011-04-10T06:41:12Z</time>
      </trkpt>
      <trkpt lat="49.18108" lon="6.98146">
        <ele>325</ele>
        <time>2011-04-10T06:41:13Z</time>
      </trkpt>
      <trkpt lat="49.18108" lon="6.98149">
        <ele>325</ele>
        <time>2011-04-10T06:41:15Z</time>
      </trkpt>
      <trkpt lat="49.18107" lon="6.98151">
        <ele>325</ele>
        <time>2011-04-10T06:41:17Z</time>
      </trkpt>
      <trkpt lat="49.18106" lon="6.98155">
        <ele>325</ele>
        <time>2011-04-10T06:41:19Z</time>
      </trkpt>
      <trkpt lat="49.18104" lon="6.98158">
        <ele>325</ele>
        <time>2011-04-10T06:41:21Z</time>
      </trkpt>
      <trkpt lat="49.18104" lon="6.9816">
        <ele>325</ele>
        <time>2011-04-10T06:41:22Z</time>
      </trkpt>
      <trkpt lat="49.18103" lon="6.98163">
        <ele>325</ele>
        <time>2011-04-10T06:41:24Z</time>
      </trkpt>
      <trkpt lat="49.18102" lon="6.98166">
        <ele>325</ele>
        <time>2011-04-10T06:41:26Z</time>
      </trkpt>
      <trkpt lat="49.18101" lon="6.98169">
        <ele>325</ele>
        <time>2011-04-10T06:41:28Z</time>
      </trkpt>
      <trkpt lat="49.181" lon="6.98171">
        <ele>325</ele>
        <time>2011-04-10T06:41:29Z</time>
      </trkpt>
      <trkpt lat="49.181" lon="6.98174">
        <ele>325</ele>
        <time>2011-04-10T06:41:31Z</time>
      </trkpt>
      <trkpt lat="49.18099" lon="6.98176">
        <ele>325</ele>
        <time>2011-04-10T06:41:32Z</time>
      </trkpt>
      <trkpt lat="49.18099" lon="6.98178">
        <ele>325</ele>
        <time>2011-04-10T06:41:33Z</time>
      </trkpt>
      <trkpt lat="49.181" lon="6.9818">
        <ele>325</ele>
        <time>2011-04-10T06:41:36Z</time>
      </trkpt>
      <trkpt lat="49.181" lon="6.98182">
        <ele>325</ele>
        <time>2011-04-10T06:41:37Z</time>
      </trkpt>
      <trkpt lat="49.181" lon="6.98184">
        <ele>325</ele>
        <time>2011-04-10T06:41:38Z</time>
      </trkpt>
      <trkpt lat="49.18099" lon="6.98186">
        <ele>325</ele>
        <time>2011-04-10T06:41:40Z</time>
      </trkpt>
      <trkpt lat="49.18099" lon="6.98189">
        <ele>325</ele>
        <time>2011-04-10T06:41:42Z</time>
      </trkpt>
      <trkpt lat="49.18098" lon="6.9819">
        <ele>325</ele>
        <time>2011-04-10T06:41:43Z</time>
      </trkpt>
      <trkpt lat="49.18098" lon="6.98192">
        <ele>325</ele>
        <time>2011-04-10T06:41:44Z</time>
      </trkpt>
      <trkpt lat="49.18097" lon="6.98195">
        <ele>325</ele>
        <time>2011-04-10T06:41:46Z</time>
      </trkpt>
      <trkpt lat="49.18097" lon="6.98197">
        <ele>325</ele>
        <time>2011-04-10T06:41:47Z</time>
      </trkpt>
      <trkpt lat="49.18097" lon="6.98198">
        <ele>325</ele>
        <time>2011-04-10T06:41:48Z</time>
      </trkpt>
      <trkpt lat="49.18096" lon="6.98201">
        <ele>325</ele>
        <time>2011-04-10T06:41:50Z</time>
      </trkpt>
      <trkpt lat="49.18095" lon="6.98204">
        <ele>325</ele>
        <time>2011-04-10T06:41:52Z</time>
      </trkpt>
      <trkpt lat="49.18095" lon="6.98207">
        <ele>325</ele>
        <time>2011-04-10T06:41:54Z</time>
      </trkpt>
      <trkpt lat="49.18095" lon="6.98208">
        <ele>325</ele>
        <time>2011-04-10T06:41:55Z</time>
      </trkpt>
      <trkpt lat="49.18095" lon="6.9821">
        <ele>325</ele>
        <time>2011-04-10T06:41:56Z</time>
      </trkpt>
      <trkpt lat="49.18095" lon="6.98213">
        <ele>325</ele>
        <time>2011-04-10T06:41:57Z</time>
      </trkpt>
      <trkpt lat="49.18095" lon="6.98215">
        <ele>325</ele>
        <time>2011-04-10T06:41:58Z</time>
      </trkpt>
      <trkpt lat="49.18095" lon="6.9822">
        <ele>325</ele>
        <time>2011-04-10T06:42:00Z</time>
      </trkpt>
      <trkpt lat="49.18095" lon="6.98222">
        <ele>325</ele>
        <time>2011-04-10T06:42:01Z</time>
      </trkpt>
      <trkpt lat="49.18095" lon="6.98224">
        <ele>325</ele>
        <time>2011-04-10T06:42:03Z</time>
      </trkpt>
      <trkpt lat="49.18094" lon="6.98226">
        <ele>325</ele>
        <time>2011-04-10T06:42:04Z</time>
      </trkpt>
      <trkpt lat="49.18095" lon="6.98228">
        <ele>325</ele>
        <time>2011-04-10T06:42:05Z</time>
      </trkpt>
      <trkpt lat="49.18094" lon="6.9823">
        <ele>325</ele>
        <time>2011-04-10T06:42:06Z</time>
      </trkpt>
      <trkpt lat="49.18095" lon="6.98233">
        <ele>325</ele>
        <time>2011-04-10T06:42:08Z</time>
      </trkpt>
      <trkpt lat="49.18095" lon="6.98234">
        <ele>325</ele>
        <time>2011-04-10T06:42:09Z</time>
      </trkpt>
      <trkpt lat="49.18095" lon="6.98236">
        <ele>325</ele>
        <time>2011-04-10T06:42:10Z</time>
      </trkpt>
      <trkpt lat="49.18095" lon="6.98238">
        <ele>325</ele>
        <time>2011-04-10T06:42:11Z</time>
      </trkpt>
      <trkpt lat="49.18094" lon="6.98241">
        <ele>325</ele>
        <time>2011-04-10T06:42:13Z</time>
      </trkpt>
      <trkpt lat="49.18094" lon="6.98244">
        <ele>325</ele>
        <time>2011-04-10T06:42:15Z</time>
      </trkpt>
      <trkpt lat="49.18094" lon="6.98246">
        <ele>325</ele>
        <time>2011-04-10T06:42:16Z</time>
      </trkpt>
      <trkpt lat="49.18093" lon="6.98248">
        <ele>325</ele>
        <time>2011-04-10T06:42:17Z</time>
      </trkpt>
      <trkpt lat="49.18093" lon="6.98251">
        <ele>325</ele>
        <time>2011-04-10T06:42:18Z</time>
      </trkpt>
      <trkpt lat="49.18093" lon="6.98254">
        <ele>325</ele>
        <time>2011-04-10T06:42:19Z</time>
      </trkpt>
      <trkpt lat="49.18093" lon="6.98255">
        <ele>325</ele>
        <time>2011-04-10T06:42:20Z</time>
      </trkpt>
      <trkpt lat="49.18092" lon="6.98258">
        <ele>325</ele>
        <time>2011-04-10T06:42:21Z</time>
      </trkpt>
      <trkpt lat="49.18092" lon="6.98259">
        <ele>325</ele>
        <time>2011-04-10T06:42:22Z</time>
      </trkpt>
      <trkpt lat="49.18092" lon="6.98261">
        <ele>325</ele>
        <time>2011-04-10T06:42:23Z</time>
      </trkpt>
      <trkpt lat="49.18092" lon="6.98264">
        <ele>325</ele>
        <time>2011-04-10T06:42:24Z</time>
      </trkpt>
      <trkpt lat="49.18092" lon="6.98265">
        <ele>325</ele>
        <time>2011-04-10T06:42:25Z</time>
      </trkpt>
      <trkpt lat="49.18092" lon="6.98267">
        <ele>325</ele>
        <time>2011-04-10T06:42:26Z</time>
      </trkpt>
      <trkpt lat="49.18093" lon="6.98269">
        <ele>325</ele>
        <time>2011-04-10T06:42:27Z</time>
      </trkpt>
      <trkpt lat="49.18093" lon="6.98271">
        <ele>325</ele>
        <time>2011-04-10T06:42:28Z</time>
      </trkpt>
      <trkpt lat="49.18093" lon="6.98272">
        <ele>325</ele>
        <time>2011-04-10T06:42:29Z</time>
      </trkpt>
      <trkpt lat="49.18093" lon="6.98275">
        <ele>325</ele>
        <time>2011-04-10T06:42:31Z</time>
      </trkpt>
      <trkpt lat="49.18094" lon="6.98278">
        <ele>325</ele>
        <time>2011-04-10T06:42:33Z</time>
      </trkpt>
      <trkpt lat="49.18094" lon="6.98279">
        <ele>325</ele>
        <time>2011-04-10T06:42:34Z</time>
      </trkpt>
      <trkpt lat="49.18094" lon="6.98281">
        <ele>325</ele>
        <time>2011-04-10T06:42:35Z</time>
      </trkpt>
      <trkpt lat="49.18093" lon="6.98283">
        <ele>325</ele>
        <time>2011-04-10T06:42:36Z</time>
      </trkpt>
      <trkpt lat="49.18093" lon="6.98284">
        <ele>325</ele>
        <time>2011-04-10T06:42:37Z</time>
      </trkpt>
      <trkpt lat="49.18094" lon="6.98286">
        <ele>325</ele>
        <time>2011-04-10T06:42:38Z</time>
      </trkpt>
      <trkpt lat="49.18094" lon="6.98288">
        <ele>325</ele>
        <time>2011-04-10T06:42:39Z</time>
      </trkpt>
      <trkpt lat="49.18095" lon="6.9829">
        <ele>325</ele>
        <time>2011-04-10T06:42:41Z</time>
      </trkpt>
      <trkpt lat="49.18095" lon="6.98293">
        <ele>325</ele>
        <time>2011-04-10T06:42:43Z</time>
      </trkpt>
      <trkpt lat="49.18095" lon="6.98295">
        <ele>324</ele>
        <time>2011-04-10T06:42:44Z</time>
      </trkpt>
      <trkpt lat="49.18093" lon="6.98298">
        <ele>324</ele>
        <time>2011-04-10T06:42:46Z</time>
      </trkpt>
      <trkpt lat="49.18093" lon="6.983">
        <ele>324</ele>
        <time>2011-04-10T06:42:47Z</time>
      </trkpt>
      <trkpt lat="49.18093" lon="6.98302">
        <ele>323</ele>
        <time>2011-04-10T06:42:48Z</time>
      </trkpt>
      <trkpt lat="49.18093" lon="6.98304">
        <ele>323</ele>
        <time>2011-04-10T06:42:49Z</time>
      </trkpt>
      <trkpt lat="49.18092" lon="6.98307">
        <ele>323</ele>
        <time>2011-04-10T06:42:50Z</time>
      </trkpt>
      <trkpt lat="49.18092" lon="6.98308">
        <ele>323</ele>
        <time>2011-04-10T06:42:51Z</time>
      </trkpt>
      <trkpt lat="49.18092" lon="6.98311">
        <ele>323</ele>
        <time>2011-04-10T06:42:52Z</time>
      </trkpt>
      <trkpt lat="49.18091" lon="6.98313">
        <ele>323</ele>
        <time>2011-04-10T06:42:53Z</time>
      </trkpt>
      <trkpt lat="49.18091" lon="6.98315">
        <ele>323</ele>
        <time>2011-04-10T06:42:54Z</time>
      </trkpt>
      <trkpt lat="49.18091" lon="6.98316">
        <ele>323</ele>
        <time>2011-04-10T06:42:55Z</time>
      </trkpt>
      <trkpt lat="49.18091" lon="6.98318">
        <ele>323</ele>
        <time>2011-04-10T06:42:56Z</time>
      </trkpt>
      <trkpt lat="49.1809" lon="6.9832">
        <ele>323</ele>
        <time>2011-04-10T06:42:57Z</time>
      </trkpt>
      <trkpt lat="49.1809" lon="6.98323">
        <ele>323</ele>
        <time>2011-04-10T06:42:58Z</time>
      </trkpt>
      <trkpt lat="49.1809" lon="6.98326">
        <ele>323</ele>
        <time>2011-04-10T06:42:59Z</time>
      </trkpt>
      <trkpt lat="49.1809" lon="6.98328">
        <ele>323</ele>
        <time>2011-04-10T06:43:00Z</time>
      </trkpt>
      <trkpt lat="49.1809" lon="6.9833">
        <ele>323</ele>
        <time>2011-04-10T06:43:01Z</time>
      </trkpt>
      <trkpt lat="49.18089" lon="6.98332">
        <ele>323</ele>
        <time>2011-04-10T06:43:02Z</time>
      </trkpt>
      <trkpt lat="49.18089" lon="6.98334">
        <ele>323</ele>
        <time>2011-04-10T06:43:03Z</time>
      </trkpt>
      <trkpt lat="49.18089" lon="6.98336">
        <ele>323</ele>
        <time>2011-04-10T06:43:04Z</time>
      </trkpt>
      <trkpt lat="49.18088" lon="6.98339">
        <ele>323</ele>
        <time>2011-04-10T06:43:05Z</time>
      </trkpt>
      <trkpt lat="49.18087" lon="6.98341">
        <ele>323</ele>
        <time>2011-04-10T06:43:06Z</time>
      </trkpt>
      <trkpt lat="49.18087" lon="6.98343">
        <ele>323</ele>
        <time>2011-04-10T06:43:07Z</time>
      </trkpt>
      <trkpt lat="49.18087" lon="6.98346">
        <ele>323</ele>
        <time>2011-04-10T06:43:09Z</time>
      </trkpt>
      <trkpt lat="49.18086" lon="6.98349">
        <ele>323</ele>
        <time>2011-04-10T06:43:11Z</time>
      </trkpt>
      <trkpt lat="49.18086" lon="6.98351">
        <ele>323</ele>
        <time>2011-04-10T06:43:12Z</time>
      </trkpt>
      <trkpt lat="49.18085" lon="6.98353">
        <ele>323</ele>
        <time>2011-04-10T06:43:13Z</time>
      </trkpt>
      <trkpt lat="49.18084" lon="6.98355">
        <ele>323</ele>
        <time>2011-04-10T06:43:14Z</time>
      </trkpt>
      <trkpt lat="49.18084" lon="6.98357">
        <ele>323</ele>
        <time>2011-04-10T06:43:15Z</time>
      </trkpt>
      <trkpt lat="49.18084" lon="6.98359">
        <ele>323</ele>
        <time>2011-04-10T06:43:16Z</time>
      </trkpt>
      <trkpt lat="49.18084" lon="6.98362">
        <ele>323</ele>
        <time>2011-04-10T06:43:17Z</time>
      </trkpt>
      <trkpt lat="49.18084" lon="6.98364">
        <ele>323</ele>
        <time>2011-04-10T06:43:18Z</time>
      </trkpt>
      <trkpt lat="49.18083" lon="6.98367">
        <ele>323</ele>
        <time>2011-04-10T06:43:20Z</time>
      </trkpt>
      <trkpt lat="49.18083" lon="6.98369">
        <ele>323</ele>
        <time>2011-04-10T06:43:21Z</time>
      </trkpt>
      <trkpt lat="49.18082" lon="6.98372">
        <ele>323</ele>
        <time>2011-04-10T06:43:23Z</time>
      </trkpt>
      <trkpt lat="49.18082" lon="6.98375">
        <ele>323</ele>
        <time>2011-04-10T06:43:25Z</time>
      </trkpt>
      <trkpt lat="49.18081" lon="6.98378">
        <ele>323</ele>
        <time>2011-04-10T06:43:27Z</time>
      </trkpt>
      <trkpt lat="49.18079" lon="6.98381">
        <ele>323</ele>
        <time>2011-04-10T06:43:29Z</time>
      </trkpt>
      <trkpt lat="49.18079" lon="6.98383">
        <ele>323</ele>
        <time>2011-04-10T06:43:30Z</time>
      </trkpt>
      <trkpt lat="49.18077" lon="6.98386">
        <ele>323</ele>
        <time>2011-04-10T06:43:32Z</time>
      </trkpt>
      <trkpt lat="49.18077" lon="6.98388">
        <ele>323</ele>
        <time>2011-04-10T06:43:33Z</time>
      </trkpt>
      <trkpt lat="49.18076" lon="6.98391">
        <ele>323</ele>
        <time>2011-04-10T06:43:34Z</time>
      </trkpt>
      <trkpt lat="49.18076" lon="6.98393">
        <ele>323</ele>
        <time>2011-04-10T06:43:35Z</time>
      </trkpt>
      <trkpt lat="49.18075" lon="6.98395">
        <ele>323</ele>
        <time>2011-04-10T06:43:36Z</time>
      </trkpt>
      <trkpt lat="49.18074" lon="6.98398">
        <ele>323</ele>
        <time>2011-04-10T06:43:38Z</time>
      </trkpt>
      <trkpt lat="49.18074" lon="6.984">
        <ele>323</ele>
        <time>2011-04-10T06:43:39Z</time>
      </trkpt>
      <trkpt lat="49.18073" lon="6.98403">
        <ele>323</ele>
        <time>2011-04-10T06:43:41Z</time>
      </trkpt>
      <trkpt lat="49.18073" lon="6.98406">
        <ele>323</ele>
        <time>2011-04-10T06:43:43Z</time>
      </trkpt>
      <trkpt lat="49.18072" lon="6.98409">
        <ele>323</ele>
        <time>2011-04-10T06:43:45Z</time>
      </trkpt>
      <trkpt lat="49.18071" lon="6.98411">
        <ele>323</ele>
        <time>2011-04-10T06:43:46Z</time>
      </trkpt>
      <trkpt lat="49.1807" lon="6.98413">
        <ele>323</ele>
        <time>2011-04-10T06:43:47Z</time>
      </trkpt>
      <trkpt lat="49.18069" lon="6.98415">
        <ele>323</ele>
        <time>2011-04-10T06:43:49Z</time>
      </trkpt>
      <trkpt lat="49.18068" lon="6.98417">
        <ele>323</ele>
        <time>2011-04-10T06:43:51Z</time>
      </trkpt>
      <trkpt lat="49.18067" lon="6.98419">
        <ele>323</ele>
        <time>2011-04-10T06:43:52Z</time>
      </trkpt>
      <trkpt lat="49.18066" lon="6.9842">
        <ele>323</ele>
        <time>2011-04-10T06:43:53Z</time>
      </trkpt>
      <trkpt lat="49.18065" lon="6.98422">
        <ele>323</ele>
        <time>2011-04-10T06:43:54Z</time>
      </trkpt>
      <trkpt lat="49.18063" lon="6.98424">
        <ele>323</ele>
        <time>2011-04-10T06:43:55Z</time>
      </trkpt>
      <trkpt lat="49.18062" lon="6.98427">
        <ele>323</ele>
        <time>2011-04-10T06:43:56Z</time>
      </trkpt>
      <trkpt lat="49.18061" lon="6.9843">
        <ele>323</ele>
        <time>2011-04-10T06:43:57Z</time>
      </trkpt>
      <trkpt lat="49.18058" lon="6.98433">
        <ele>323</ele>
        <time>2011-04-10T06:43:59Z</time>
      </trkpt>
      <trkpt lat="49.18056" lon="6.98434">
        <ele>323</ele>
        <time>2011-04-10T06:44:01Z</time>
      </trkpt>
      <trkpt lat="49.18055" lon="6.98437">
        <ele>323</ele>
        <time>2011-04-10T06:44:03Z</time>
      </trkpt>
      <trkpt lat="49.18053" lon="6.98439">
        <ele>323</ele>
        <time>2011-04-10T06:44:05Z</time>
      </trkpt>
      <trkpt lat="49.18052" lon="6.98442">
        <ele>323</ele>
        <time>2011-04-10T06:44:07Z</time>
      </trkpt>
      <trkpt lat="49.1805" lon="6.98444">
        <ele>323</ele>
        <time>2011-04-10T06:44:08Z</time>
      </trkpt>
      <trkpt lat="49.18049" lon="6.98447">
        <ele>323</ele>
        <time>2011-04-10T06:44:10Z</time>
      </trkpt>
      <trkpt lat="49.18048" lon="6.98449">
        <ele>323</ele>
        <time>2011-04-10T06:44:11Z</time>
      </trkpt>
      <trkpt lat="49.18047" lon="6.98451">
        <ele>323</ele>
        <time>2011-04-10T06:44:12Z</time>
      </trkpt>
      <trkpt lat="49.18045" lon="6.98453">
        <ele>323</ele>
        <time>2011-04-10T06:44:14Z</time>
      </trkpt>
      <trkpt lat="49.18043" lon="6.98455">
        <ele>323</ele>
        <time>2011-04-10T06:44:16Z</time>
      </trkpt>
      <trkpt lat="49.18042" lon="6.98458">
        <ele>323</ele>
        <time>2011-04-10T06:44:18Z</time>
      </trkpt>
      <trkpt lat="49.1804" lon="6.98461">
        <ele>323</ele>
        <time>2011-04-10T06:44:20Z</time>
      </trkpt>
      <trkpt lat="49.18038" lon="6.98463">
        <ele>323</ele>
        <time>2011-04-10T06:44:22Z</time>
      </trkpt>
      <trkpt lat="49.18037" lon="6.98466">
        <ele>323</ele>
        <time>2011-04-10T06:44:24Z</time>
      </trkpt>
      <trkpt lat="49.18036" lon="6.98467">
        <ele>323</ele>
        <time>2011-04-10T06:44:25Z</time>
      </trkpt>
      <trkpt lat="49.18034" lon="6.9847">
        <ele>323</ele>
        <time>2011-04-10T06:44:27Z</time>
      </trkpt>
      <trkpt lat="49.18033" lon="6.98472">
        <ele>323</ele>
        <time>2011-04-10T06:44:28Z</time>
      </trkpt>
      <trkpt lat="49.18032" lon="6.98475">
        <ele>323</ele>
        <time>2011-04-10T06:44:30Z</time>
      </trkpt>
      <trkpt lat="49.1803" lon="6.98478">
        <ele>323</ele>
        <time>2011-04-10T06:44:32Z</time>
      </trkpt>
      <trkpt lat="49.18029" lon="6.98481">
        <ele>323</ele>
        <time>2011-04-10T06:44:34Z</time>
      </trkpt>
      <trkpt lat="49.18027" lon="6.98483">
        <ele>323</ele>
        <time>2011-04-10T06:44:36Z</time>
      </trkpt>
      <trkpt lat="49.18027" lon="6.98485">
        <ele>323</ele>
        <time>2011-04-10T06:44:38Z</time>
      </trkpt>
      <trkpt lat="49.18026" lon="6.98487">
        <ele>323</ele>
        <time>2011-04-10T06:44:39Z</time>
      </trkpt>
      <trkpt lat="49.18025" lon="6.9849">
        <ele>323</ele>
        <time>2011-04-10T06:44:40Z</time>
      </trkpt>
      <trkpt lat="49.18023" lon="6.98492">
        <ele>323</ele>
        <time>2011-04-10T06:44:42Z</time>
      </trkpt>
      <trkpt lat="49.18022" lon="6.98493">
        <ele>323</ele>
        <time>2011-04-10T06:44:43Z</time>
      </trkpt>
      <trkpt lat="49.1802" lon="6.98495">
        <ele>323</ele>
        <time>2011-04-10T06:44:45Z</time>
      </trkpt>
      <trkpt lat="49.18018" lon="6.98496">
        <ele>323</ele>
        <time>2011-04-10T06:44:47Z</time>
      </trkpt>
      <trkpt lat="49.18018" lon="6.98498">
        <ele>323</ele>
        <time>2011-04-10T06:44:48Z</time>
      </trkpt>
      <trkpt lat="49.18016" lon="6.985">
        <ele>323</ele>
        <time>2011-04-10T06:44:50Z</time>
      </trkpt>
      <trkpt lat="49.18015" lon="6.98503">
        <ele>323</ele>
        <time>2011-04-10T06:44:51Z</time>
      </trkpt>
      <trkpt lat="49.18013" lon="6.98506">
        <ele>323</ele>
        <time>2011-04-10T06:44:53Z</time>
      </trkpt>
      <trkpt lat="49.18011" lon="6.98509">
        <ele>323</ele>
        <time>2011-04-10T06:44:55Z</time>
      </trkpt>
      <trkpt lat="49.18009" lon="6.98512">
        <ele>323</ele>
        <time>2011-04-10T06:44:57Z</time>
      </trkpt>
      <trkpt lat="49.18008" lon="6.98514">
        <ele>323</ele>
        <time>2011-04-10T06:44:59Z</time>
      </trkpt>
      <trkpt lat="49.18007" lon="6.98516">
        <ele>323</ele>
        <time>2011-04-10T06:45:00Z</time>
      </trkpt>
      <trkpt lat="49.18005" lon="6.98519">
        <ele>323</ele>
        <time>2011-04-10T06:45:02Z</time>
      </trkpt>
      <trkpt lat="49.18004" lon="6.98521">
        <ele>323</ele>
        <time>2011-04-10T06:45:03Z</time>
      </trkpt>
      <trkpt lat="49.18003" lon="6.98524">
        <ele>323</ele>
        <time>2011-04-10T06:45:05Z</time>
      </trkpt>
      <trkpt lat="49.18002" lon="6.98526">
        <ele>323</ele>
        <time>2011-04-10T06:45:07Z</time>
      </trkpt>
      <trkpt lat="49.18001" lon="6.98528">
        <ele>323</ele>
        <time>2011-04-10T06:45:08Z</time>
      </trkpt>
      <trkpt lat="49.17999" lon="6.9853">
        <ele>323</ele>
        <time>2011-04-10T06:45:10Z</time>
      </trkpt>
      <trkpt lat="49.17998" lon="6.98531">
        <ele>323</ele>
        <time>2011-04-10T06:45:12Z</time>
      </trkpt>
      <trkpt lat="49.17996" lon="6.98533">
        <ele>323</ele>
        <time>2011-04-10T06:45:14Z</time>
      </trkpt>
      <trkpt lat="49.17995" lon="6.98536">
        <ele>323</ele>
        <time>2011-04-10T06:45:16Z</time>
      </trkpt>
      <trkpt lat="49.17993" lon="6.9854">
        <ele>323</ele>
        <time>2011-04-10T06:45:18Z</time>
      </trkpt>
      <trkpt lat="49.17992" lon="6.98542">
        <ele>323</ele>
        <time>2011-04-10T06:45:20Z</time>
      </trkpt>
      <trkpt lat="49.1799" lon="6.98544">
        <ele>323</ele>
        <time>2011-04-10T06:45:22Z</time>
      </trkpt>
      <trkpt lat="49.17989" lon="6.98545">
        <ele>322</ele>
        <time>2011-04-10T06:45:24Z</time>
      </trkpt>
      <trkpt lat="49.17987" lon="6.98547">
        <ele>322</ele>
        <time>2011-04-10T06:45:25Z</time>
      </trkpt>
      <trkpt lat="49.17986" lon="6.98549">
        <ele>321</ele>
        <time>2011-04-10T06:45:27Z</time>
      </trkpt>
      <trkpt lat="49.17984" lon="6.98552">
        <ele>320</ele>
        <time>2011-04-10T06:45:29Z</time>
      </trkpt>
      <trkpt lat="49.17983" lon="6.98554">
        <ele>320</ele>
        <time>2011-04-10T06:45:31Z</time>
      </trkpt>
      <trkpt lat="49.17982" lon="6.98556">
        <ele>320</ele>
        <time>2011-04-10T06:45:33Z</time>
      </trkpt>
      <trkpt lat="49.1798" lon="6.98559">
        <ele>320</ele>
        <time>2011-04-10T06:45:35Z</time>
      </trkpt>
      <trkpt lat="49.17979" lon="6.98561">
        <ele>320</ele>
        <time>2011-04-10T06:45:36Z</time>
      </trkpt>
      <trkpt lat="49.17978" lon="6.98563">
        <ele>320</ele>
        <time>2011-04-10T06:45:38Z</time>
      </trkpt>
      <trkpt lat="49.17976" lon="6.98566">
        <ele>320</ele>
        <time>2011-04-10T06:45:40Z</time>
      </trkpt>
      <trkpt lat="49.17974" lon="6.98569">
        <ele>320</ele>
        <time>2011-04-10T06:45:42Z</time>
      </trkpt>
      <trkpt lat="49.17972" lon="6.98572">
        <ele>320</ele>
        <time>2011-04-10T06:45:44Z</time>
      </trkpt>
      <trkpt lat="49.1797" lon="6.98576">
        <ele>320</ele>
        <time>2011-04-10T06:45:45Z</time>
      </trkpt>
      <trkpt lat="49.17968" lon="6.98578">
        <ele>320</ele>
        <time>2011-04-10T06:45:47Z</time>
      </trkpt>
      <trkpt lat="49.17967" lon="6.9858">
        <ele>320</ele>
        <time>2011-04-10T06:45:49Z</time>
      </trkpt>
      <trkpt lat="49.17965" lon="6.98583">
        <ele>320</ele>
        <time>2011-04-10T06:45:51Z</time>
      </trkpt>
      <trkpt lat="49.17963" lon="6.98586">
        <ele>320</ele>
        <time>2011-04-10T06:45:52Z</time>
      </trkpt>
      <trkpt lat="49.17962" lon="6.98588">
        <ele>320</ele>
        <time>2011-04-10T06:45:54Z</time>
      </trkpt>
      <trkpt lat="49.17961" lon="6.9859">
        <ele>320</ele>
        <time>2011-04-10T06:45:55Z</time>
      </trkpt>
      <trkpt lat="49.17959" lon="6.98592">
        <ele>320</ele>
        <time>2011-04-10T06:45:57Z</time>
      </trkpt>
      <trkpt lat="49.17957" lon="6.98594">
        <ele>320</ele>
        <time>2011-04-10T06:45:59Z</time>
      </trkpt>
      <trkpt lat="49.17956" lon="6.98595">
        <ele>320</ele>
        <time>2011-04-10T06:46:01Z</time>
      </trkpt>
      <trkpt lat="49.17955" lon="6.98598">
        <ele>320</ele>
        <time>2011-04-10T06:46:02Z</time>
      </trkpt>
      <trkpt lat="49.17953" lon="6.986">
        <ele>320</ele>
        <time>2011-04-10T06:46:04Z</time>
      </trkpt>
      <trkpt lat="49.17952" lon="6.98603">
        <ele>320</ele>
        <time>2011-04-10T06:46:06Z</time>
      </trkpt>
      <trkpt lat="49.17952" lon="6.98606">
        <ele>320</ele>
        <time>2011-04-10T06:46:08Z</time>
      </trkpt>
      <trkpt lat="49.17951" lon="6.98609">
        <ele>320</ele>
        <time>2011-04-10T06:46:10Z</time>
      </trkpt>
      <trkpt lat="49.17951" lon="6.9861">
        <ele>320</ele>
        <time>2011-04-10T06:46:11Z</time>
      </trkpt>
      <trkpt lat="49.17951" lon="6.98614">
        <ele>320</ele>
        <time>2011-04-10T06:46:13Z</time>
      </trkpt>
      <trkpt lat="49.1795" lon="6.98615">
        <ele>320</ele>
        <time>2011-04-10T06:46:14Z</time>
      </trkpt>
      <trkpt lat="49.17949" lon="6.98619">
        <ele>320</ele>
        <time>2011-04-10T06:46:16Z</time>
      </trkpt>
      <trkpt lat="49.17947" lon="6.98621">
        <ele>320</ele>
        <time>2011-04-10T06:46:18Z</time>
      </trkpt>
      <trkpt lat="49.17946" lon="6.98624">
        <ele>320</ele>
        <time>2011-04-10T06:46:20Z</time>
      </trkpt>
      <trkpt lat="49.17945" lon="6.98626">
        <ele>320</ele>
        <time>2011-04-10T06:46:21Z</time>
      </trkpt>
      <trkpt lat="49.17945" lon="6.98629">
        <ele>320</ele>
        <time>2011-04-10T06:46:23Z</time>
      </trkpt>
      <trkpt lat="49.17945" lon="6.98631">
        <ele>320</ele>
        <time>2011-04-10T06:46:24Z</time>
      </trkpt>
      <trkpt lat="49.17944" lon="6.98634">
        <ele>320</ele>
        <time>2011-04-10T06:46:26Z</time>
      </trkpt>
      <trkpt lat="49.17944" lon="6.98636">
        <ele>320</ele>
        <time>2011-04-10T06:46:27Z</time>
      </trkpt>
      <trkpt lat="49.17942" lon="6.98638">
        <ele>320</ele>
        <time>2011-04-10T06:46:29Z</time>
      </trkpt>
      <trkpt lat="49.17942" lon="6.98641">
        <ele>320</ele>
        <time>2011-04-10T06:46:30Z</time>
      </trkpt>
      <trkpt lat="49.17942" lon="6.98643">
        <ele>320</ele>
        <time>2011-04-10T06:46:31Z</time>
      </trkpt>
      <trkpt lat="49.17942" lon="6.98645">
        <ele>320</ele>
        <time>2011-04-10T06:46:32Z</time>
      </trkpt>
      <trkpt lat="49.17941" lon="6.98647">
        <ele>320</ele>
        <time>2011-04-10T06:46:33Z</time>
      </trkpt>
      <trkpt lat="49.17941" lon="6.9865">
        <ele>320</ele>
        <time>2011-04-10T06:46:35Z</time>
      </trkpt>
      <trkpt lat="49.1794" lon="6.98653">
        <ele>320</ele>
        <time>2011-04-10T06:46:37Z</time>
      </trkpt>
      <trkpt lat="49.17939" lon="6.98656">
        <ele>320</ele>
        <time>2011-04-10T06:46:39Z</time>
      </trkpt>
      <trkpt lat="49.17939" lon="6.98657">
        <ele>320</ele>
        <time>2011-04-10T06:46:40Z</time>
      </trkpt>
      <trkpt lat="49.17938" lon="6.98659">
        <ele>320</ele>
        <time>2011-04-10T06:46:41Z</time>
      </trkpt>
      <trkpt lat="49.17937" lon="6.98662">
        <ele>320</ele>
        <time>2011-04-10T06:46:43Z</time>
      </trkpt>
      <trkpt lat="49.17937" lon="6.98664">
        <ele>320</ele>
        <time>2011-04-10T06:46:44Z</time>
      </trkpt>
      <trkpt lat="49.17936" lon="6.98666">
        <ele>320</ele>
        <time>2011-04-10T06:46:45Z</time>
      </trkpt>
      <trkpt lat="49.17936" lon="6.98668">
        <ele>320</ele>
        <time>2011-04-10T06:46:46Z</time>
      </trkpt>
      <trkpt lat="49.17936" lon="6.9867">
        <ele>320</ele>
        <time>2011-04-10T06:46:47Z</time>
      </trkpt>
      <trkpt lat="49.17936" lon="6.98672">
        <ele>320</ele>
        <time>2011-04-10T06:46:49Z</time>
      </trkpt>
      <trkpt lat="49.17935" lon="6.98674">
        <ele>320</ele>
        <time>2011-04-10T06:46:51Z</time>
      </trkpt>
      <trkpt lat="49.17935" lon="6.98675">
        <ele>320</ele>
        <time>2011-04-10T06:46:52Z</time>
      </trkpt>
      <trkpt lat="49.17934" lon="6.98678">
        <ele>320</ele>
        <time>2011-04-10T06:46:53Z</time>
      </trkpt>
      <trkpt lat="49.17934" lon="6.9868">
        <ele>320</ele>
        <time>2011-04-10T06:46:54Z</time>
      </trkpt>
      <trkpt lat="49.17933" lon="6.98682">
        <ele>320</ele>
        <time>2011-04-10T06:46:55Z</time>
      </trkpt>
      <trkpt lat="49.17932" lon="6.98685">
        <ele>320</ele>
        <time>2011-04-10T06:46:57Z</time>
      </trkpt>
      <trkpt lat="49.17932" lon="6.98687">
        <ele>320</ele>
        <time>2011-04-10T06:46:59Z</time>
      </trkpt>
      <trkpt lat="49.17931" lon="6.98689">
        <ele>320</ele>
        <time>2011-04-10T06:47:00Z</time>
      </trkpt>
      <trkpt lat="49.1793" lon="6.98691">
        <ele>320</ele>
        <time>2011-04-10T06:47:01Z</time>
      </trkpt>
      <trkpt lat="49.17929" lon="6.98693">
        <ele>320</ele>
        <time>2011-04-10T06:47:03Z</time>
      </trkpt>
      <trkpt lat="49.17927" lon="6.98696">
        <ele>320</ele>
        <time>2011-04-10T06:47:05Z</time>
      </trkpt>
      <trkpt lat="49.17926" lon="6.98699">
        <ele>320</ele>
        <time>2011-04-10T06:47:07Z</time>
      </trkpt>
      <trkpt lat="49.17925" lon="6.98701">
        <ele>320</ele>
        <time>2011-04-10T06:47:09Z</time>
      </trkpt>
      <trkpt lat="49.17925" lon="6.98703">
        <ele>320</ele>
        <time>2011-04-10T06:47:11Z</time>
      </trkpt>
      <trkpt lat="49.17924" lon="6.98706">
        <ele>320</ele>
        <time>2011-04-10T06:47:13Z</time>
      </trkpt>
      <trkpt lat="49.17923" lon="6.98709">
        <ele>320</ele>
        <time>2011-04-10T06:47:15Z</time>
      </trkpt>
      <trkpt lat="49.17923" lon="6.98711">
        <ele>319</ele>
        <time>2011-04-10T06:47:17Z</time>
      </trkpt>
      <trkpt lat="49.17924" lon="6.98714">
        <ele>319</ele>
        <time>2011-04-10T06:47:19Z</time>
      </trkpt>
      <trkpt lat="49.17924" lon="6.98716">
        <ele>319</ele>
        <time>2011-04-10T06:47:20Z</time>
      </trkpt>
      <trkpt lat="49.17922" lon="6.98719">
        <ele>319</ele>
        <time>2011-04-10T06:47:22Z</time>
      </trkpt>
      <trkpt lat="49.17921" lon="6.98721">
        <ele>319</ele>
        <time>2011-04-10T06:47:23Z</time>
      </trkpt>
      <trkpt lat="49.17921" lon="6.98723">
        <ele>319</ele>
        <time>2011-04-10T06:47:24Z</time>
      </trkpt>
      <trkpt lat="49.1792" lon="6.98725">
        <ele>319</ele>
        <time>2011-04-10T06:47:25Z</time>
      </trkpt>
      <trkpt lat="49.1792" lon="6.98727">
        <ele>319</ele>
        <time>2011-04-10T06:47:26Z</time>
      </trkpt>
      <trkpt lat="49.1792" lon="6.98729">
        <ele>319</ele>
        <time>2011-04-10T06:47:27Z</time>
      </trkpt>
      <trkpt lat="49.17919" lon="6.98731">
        <ele>319</ele>
        <time>2011-04-10T06:47:28Z</time>
      </trkpt>
      <trkpt lat="49.17919" lon="6.98733">
        <ele>319</ele>
        <time>2011-04-10T06:47:30Z</time>
      </trkpt>
      <trkpt lat="49.17919" lon="6.98735">
        <ele>319</ele>
        <time>2011-04-10T06:47:31Z</time>
      </trkpt>
      <trkpt lat="49.17918" lon="6.98736">
        <ele>319</ele>
        <time>2011-04-10T06:47:32Z</time>
      </trkpt>
      <trkpt lat="49.17917" lon="6.9874">
        <ele>319</ele>
        <time>2011-04-10T06:47:34Z</time>
      </trkpt>
      <trkpt lat="49.17916" lon="6.98742">
        <ele>319</ele>
        <time>2011-04-10T06:47:35Z</time>
      </trkpt>
      <trkpt lat="49.17916" lon="6.98744">
        <ele>319</ele>
        <time>2011-04-10T06:47:36Z</time>
      </trkpt>
      <trkpt lat="49.17915" lon="6.98746">
        <ele>319</ele>
        <time>2011-04-10T06:47:37Z</time>
      </trkpt>
      <trkpt lat="49.17915" lon="6.98749">
        <ele>319</ele>
        <time>2011-04-10T06:47:38Z</time>
      </trkpt>
      <trkpt lat="49.17914" lon="6.98751">
        <ele>319</ele>
        <time>2011-04-10T06:47:39Z</time>
      </trkpt>
      <trkpt lat="49.17914" lon="6.98754">
        <ele>319</ele>
        <time>2011-04-10T06:47:41Z</time>
      </trkpt>
      <trkpt lat="49.17913" lon="6.98757">
        <ele>319</ele>
        <time>2011-04-10T06:47:43Z</time>
      </trkpt>
      <trkpt lat="49.17913" lon="6.9876">
        <ele>319</ele>
        <time>2011-04-10T06:47:45Z</time>
      </trkpt>
      <trkpt lat="49.17912" lon="6.98762">
        <ele>319</ele>
        <time>2011-04-10T06:47:47Z</time>
      </trkpt>
      <trkpt lat="49.17911" lon="6.98764">
        <ele>319</ele>
        <time>2011-04-10T06:47:49Z</time>
      </trkpt>
      <trkpt lat="49.1791" lon="6.98766">
        <ele>319</ele>
        <time>2011-04-10T06:47:51Z</time>
      </trkpt>
      <trkpt lat="49.1791" lon="6.98769">
        <ele>319</ele>
        <time>2011-04-10T06:47:53Z</time>
      </trkpt>
      <trkpt lat="49.1791" lon="6.98772">
        <ele>319</ele>
        <time>2011-04-10T06:47:55Z</time>
      </trkpt>
      <trkpt lat="49.17909" lon="6.98774">
        <ele>319</ele>
        <time>2011-04-10T06:47:56Z</time>
      </trkpt>
      <trkpt lat="49.17909" lon="6.98777">
        <ele>319</ele>
        <time>2011-04-10T06:47:58Z</time>
      </trkpt>
      <trkpt lat="49.17907" lon="6.98781">
        <ele>319</ele>
        <time>2011-04-10T06:48:00Z</time>
      </trkpt>
      <trkpt lat="49.17907" lon="6.98783">
        <ele>319</ele>
        <time>2011-04-10T06:48:01Z</time>
      </trkpt>
      <trkpt lat="49.17906" lon="6.98786">
        <ele>319</ele>
        <time>2011-04-10T06:48:02Z</time>
      </trkpt>
      <trkpt lat="49.17906" lon="6.98788">
        <ele>319</ele>
        <time>2011-04-10T06:48:03Z</time>
      </trkpt>
      <trkpt lat="49.17905" lon="6.98791">
        <ele>319</ele>
        <time>2011-04-10T06:48:05Z</time>
      </trkpt>
      <trkpt lat="49.17905" lon="6.98792">
        <ele>319</ele>
        <time>2011-04-10T06:48:06Z</time>
      </trkpt>
      <trkpt lat="49.17905" lon="6.98794">
        <ele>319</ele>
        <time>2011-04-10T06:48:07Z</time>
      </trkpt>
      <trkpt lat="49.17904" lon="6.98797">
        <ele>319</ele>
        <time>2011-04-10T06:48:08Z</time>
      </trkpt>
      <trkpt lat="49.17904" lon="6.98799">
        <ele>319</ele>
        <time>2011-04-10T06:48:09Z</time>
      </trkpt>
      <trkpt lat="49.17904" lon="6.98801">
        <ele>319</ele>
        <time>2011-04-10T06:48:10Z</time>
      </trkpt>
      <trkpt lat="49.17904" lon="6.98803">
        <ele>319</ele>
        <time>2011-04-10T06:48:11Z</time>
      </trkpt>
      <trkpt lat="49.17904" lon="6.98804">
        <ele>319</ele>
        <time>2011-04-10T06:48:12Z</time>
      </trkpt>
      <trkpt lat="49.17904" lon="6.98806">
        <ele>319</ele>
        <time>2011-04-10T06:48:13Z</time>
      </trkpt>
      <trkpt lat="49.17904" lon="6.98808">
        <ele>319</ele>
        <time>2011-04-10T06:48:14Z</time>
      </trkpt>
      <trkpt lat="49.17904" lon="6.98809">
        <ele>319</ele>
        <time>2011-04-10T06:48:15Z</time>
      </trkpt>
      <trkpt lat="49.17904" lon="6.98812">
        <ele>319</ele>
        <time>2011-04-10T06:48:17Z</time>
      </trkpt>
      <trkpt lat="49.17904" lon="6.98815">
        <ele>319</ele>
        <time>2011-04-10T06:48:19Z</time>
      </trkpt>
      <trkpt lat="49.17904" lon="6.98818">
        <ele>318</ele>
        <time>2011-04-10T06:48:21Z</time>
      </trkpt>
      <trkpt lat="49.17904" lon="6.98821">
        <ele>318</ele>
        <time>2011-04-10T06:48:22Z</time>
      </trkpt>
      <trkpt lat="49.17904" lon="6.98822">
        <ele>318</ele>
        <time>2011-04-10T06:48:23Z</time>
      </trkpt>
      <trkpt lat="49.17904" lon="6.98824">
        <ele>318</ele>
        <time>2011-04-10T06:48:24Z</time>
      </trkpt>
      <trkpt lat="49.17904" lon="6.98826">
        <ele>318</ele>
        <time>2011-04-10T06:48:25Z</time>
      </trkpt>
      <trkpt lat="49.17904" lon="6.98828">
        <ele>317</ele>
        <time>2011-04-10T06:48:26Z</time>
      </trkpt>
      <trkpt lat="49.17903" lon="6.9883">
        <ele>317</ele>
        <time>2011-04-10T06:48:27Z</time>
      </trkpt>
      <trkpt lat="49.17904" lon="6.98832">
        <ele>317</ele>
        <time>2011-04-10T06:48:28Z</time>
      </trkpt>
      <trkpt lat="49.17904" lon="6.98835">
        <ele>317</ele>
        <time>2011-04-10T06:48:29Z</time>
      </trkpt>
      <trkpt lat="49.17903" lon="6.98837">
        <ele>317</ele>
        <time>2011-04-10T06:48:30Z</time>
      </trkpt>
      <trkpt lat="49.17903" lon="6.98839">
        <ele>317</ele>
        <time>2011-04-10T06:48:31Z</time>
      </trkpt>
      <trkpt lat="49.17902" lon="6.98842">
        <ele>317</ele>
        <time>2011-04-10T06:48:32Z</time>
      </trkpt>
      <trkpt lat="49.17901" lon="6.98845">
        <ele>317</ele>
        <time>2011-04-10T06:48:34Z</time>
      </trkpt>
      <trkpt lat="49.179" lon="6.98848">
        <ele>317</ele>
        <time>2011-04-10T06:48:36Z</time>
      </trkpt>
      <trkpt lat="49.17901" lon="6.98852">
        <ele>317</ele>
        <time>2011-04-10T06:48:38Z</time>
      </trkpt>
      <trkpt lat="49.17901" lon="6.98855">
        <ele>317</ele>
        <time>2011-04-10T06:48:40Z</time>
      </trkpt>
      <trkpt lat="49.179" lon="6.98858">
        <ele>317</ele>
        <time>2011-04-10T06:48:42Z</time>
      </trkpt>
      <trkpt lat="49.17899" lon="6.9886">
        <ele>317</ele>
        <time>2011-04-10T06:48:43Z</time>
      </trkpt>
      <trkpt lat="49.17899" lon="6.98862">
        <ele>317</ele>
        <time>2011-04-10T06:48:44Z</time>
      </trkpt>
      <trkpt lat="49.17899" lon="6.98864">
        <ele>317</ele>
        <time>2011-04-10T06:48:45Z</time>
      </trkpt>
      <trkpt lat="49.17898" lon="6.98868">
        <ele>317</ele>
        <time>2011-04-10T06:48:47Z</time>
      </trkpt>
      <trkpt lat="49.17898" lon="6.9887">
        <ele>317</ele>
        <time>2011-04-10T06:48:49Z</time>
      </trkpt>
      <trkpt lat="49.17898" lon="6.98874">
        <ele>317</ele>
        <time>2011-04-10T06:48:51Z</time>
      </trkpt>
      <trkpt lat="49.17898" lon="6.98876">
        <ele>317</ele>
        <time>2011-04-10T06:48:52Z</time>
      </trkpt>
      <trkpt lat="49.17898" lon="6.98878">
        <ele>317</ele>
        <time>2011-04-10T06:48:53Z</time>
      </trkpt>
      <trkpt lat="49.17898" lon="6.9888">
        <ele>317</ele>
        <time>2011-04-10T06:48:54Z</time>
      </trkpt>
      <trkpt lat="49.17898" lon="6.98883">
        <ele>317</ele>
        <time>2011-04-10T06:48:55Z</time>
      </trkpt>
      <trkpt lat="49.17898" lon="6.98885">
        <ele>317</ele>
        <time>2011-04-10T06:48:56Z</time>
      </trkpt>
      <trkpt lat="49.17898" lon="6.98887">
        <ele>317</ele>
        <time>2011-04-10T06:48:57Z</time>
      </trkpt>
      <trkpt lat="49.17898" lon="6.98889">
        <ele>317</ele>
        <time>2011-04-10T06:48:58Z</time>
      </trkpt>
      <trkpt lat="49.17899" lon="6.98891">
        <ele>317</ele>
        <time>2011-04-10T06:48:59Z</time>
      </trkpt>
      <trkpt lat="49.17899" lon="6.98892">
        <ele>317</ele>
        <time>2011-04-10T06:49:00Z</time>
      </trkpt>
      <trkpt lat="49.17899" lon="6.98894">
        <ele>317</ele>
        <time>2011-04-10T06:49:01Z</time>
      </trkpt>
      <trkpt lat="49.179" lon="6.98896">
        <ele>317</ele>
        <time>2011-04-10T06:49:02Z</time>
      </trkpt>
      <trkpt lat="49.179" lon="6.98898">
        <ele>317</ele>
        <time>2011-04-10T06:49:03Z</time>
      </trkpt>
      <trkpt lat="49.179" lon="6.989">
        <ele>317</ele>
        <time>2011-04-10T06:49:04Z</time>
      </trkpt>
      <trkpt lat="49.17901" lon="6.98902">
        <ele>317</ele>
        <time>2011-04-10T06:49:05Z</time>
      </trkpt>
      <trkpt lat="49.17901" lon="6.98904">
        <ele>317</ele>
        <time>2011-04-10T06:49:06Z</time>
      </trkpt>
      <trkpt lat="49.179" lon="6.98906">
        <ele>317</ele>
        <time>2011-04-10T06:49:07Z</time>
      </trkpt>
      <trkpt lat="49.17899" lon="6.98909">
        <ele>317</ele>
        <time>2011-04-10T06:49:09Z</time>
      </trkpt>
      <trkpt lat="49.17898" lon="6.98911">
        <ele>317</ele>
        <time>2011-04-10T06:49:10Z</time>
      </trkpt>
      <trkpt lat="49.17898" lon="6.98912">
        <ele>317</ele>
        <time>2011-04-10T06:49:11Z</time>
      </trkpt>
      <trkpt lat="49.17897" lon="6.98914">
        <ele>317</ele>
        <time>2011-04-10T06:49:12Z</time>
      </trkpt>
      <trkpt lat="49.17897" lon="6.98916">
        <ele>317</ele>
        <time>2011-04-10T06:49:13Z</time>
      </trkpt>
      <trkpt lat="49.17896" lon="6.98918">
        <ele>317</ele>
        <time>2011-04-10T06:49:15Z</time>
      </trkpt>
      <trkpt lat="49.17896" lon="6.9892">
        <ele>317</ele>
        <time>2011-04-10T06:49:16Z</time>
      </trkpt>
      <trkpt lat="49.17896" lon="6.98922">
        <ele>317</ele>
        <time>2011-04-10T06:49:17Z</time>
      </trkpt>
      <trkpt lat="49.17896" lon="6.98926">
        <ele>317</ele>
        <time>2011-04-10T06:49:19Z</time>
      </trkpt>
      <trkpt lat="49.17896" lon="6.98929">
        <ele>317</ele>
        <time>2011-04-10T06:49:21Z</time>
      </trkpt>
      <trkpt lat="49.17897" lon="6.98932">
        <ele>317</ele>
        <time>2011-04-10T06:49:23Z</time>
      </trkpt>
      <trkpt lat="49.17896" lon="6.98935">
        <ele>317</ele>
        <time>2011-04-10T06:49:25Z</time>
      </trkpt>
      <trkpt lat="49.17896" lon="6.98937">
        <ele>317</ele>
        <time>2011-04-10T06:49:26Z</time>
      </trkpt>
      <trkpt lat="49.17896" lon="6.9894">
        <ele>317</ele>
        <time>2011-04-10T06:49:28Z</time>
      </trkpt>
      <trkpt lat="49.17895" lon="6.98943">
        <ele>317</ele>
        <time>2011-04-10T06:49:30Z</time>
      </trkpt>
      <trkpt lat="49.17894" lon="6.98945">
        <ele>317</ele>
        <time>2011-04-10T06:49:31Z</time>
      </trkpt>
      <trkpt lat="49.17894" lon="6.98946">
        <ele>317</ele>
        <time>2011-04-10T06:49:32Z</time>
      </trkpt>
      <trkpt lat="49.17893" lon="6.98949">
        <ele>317</ele>
        <time>2011-04-10T06:49:34Z</time>
      </trkpt>
      <trkpt lat="49.17893" lon="6.98952">
        <ele>317</ele>
        <time>2011-04-10T06:49:36Z</time>
      </trkpt>
      <trkpt lat="49.17892" lon="6.98955">
        <ele>317</ele>
        <time>2011-04-10T06:49:38Z</time>
      </trkpt>
      <trkpt lat="49.17892" lon="6.98957">
        <ele>317</ele>
        <time>2011-04-10T06:49:39Z</time>
      </trkpt>
      <trkpt lat="49.17892" lon="6.98959">
        <ele>317</ele>
        <time>2011-04-10T06:49:41Z</time>
      </trkpt>
      <trkpt lat="49.17892" lon="6.98961">
        <ele>317</ele>
        <time>2011-04-10T06:49:42Z</time>
      </trkpt>
      <trkpt lat="49.17893" lon="6.98964">
        <ele>317</ele>
        <time>2011-04-10T06:49:44Z</time>
      </trkpt>
      <trkpt lat="49.17893" lon="6.98966">
        <ele>317</ele>
        <time>2011-04-10T06:49:45Z</time>
      </trkpt>
      <trkpt lat="49.17893" lon="6.98967">
        <ele>317</ele>
        <time>2011-04-10T06:49:46Z</time>
      </trkpt>
      <trkpt lat="49.17893" lon="6.98969">
        <ele>317</ele>
        <time>2011-04-10T06:49:47Z</time>
      </trkpt>
      <trkpt lat="49.17893" lon="6.98971">
        <ele>317</ele>
        <time>2011-04-10T06:49:48Z</time>
      </trkpt>
      <trkpt lat="49.17893" lon="6.98974">
        <ele>317</ele>
        <time>2011-04-10T06:49:49Z</time>
      </trkpt>
      <trkpt lat="49.17894" lon="6.98976">
        <ele>317</ele>
        <time>2011-04-10T06:49:50Z</time>
      </trkpt>
      <trkpt lat="49.17894" lon="6.98977">
        <ele>317</ele>
        <time>2011-04-10T06:49:51Z</time>
      </trkpt>
      <trkpt lat="49.17895" lon="6.98981">
        <ele>317</ele>
        <time>2011-04-10T06:49:53Z</time>
      </trkpt>
      <trkpt lat="49.17895" lon="6.98983">
        <ele>317</ele>
        <time>2011-04-10T06:49:54Z</time>
      </trkpt>
      <trkpt lat="49.17895" lon="6.98985">
        <ele>317</ele>
        <time>2011-04-10T06:49:55Z</time>
      </trkpt>
      <trkpt lat="49.17896" lon="6.98986">
        <ele>317</ele>
        <time>2011-04-10T06:49:56Z</time>
      </trkpt>
      <trkpt lat="49.17895" lon="6.98988">
        <ele>317</ele>
        <time>2011-04-10T06:49:57Z</time>
      </trkpt>
      <trkpt lat="49.17895" lon="6.9899">
        <ele>317</ele>
        <time>2011-04-10T06:49:58Z</time>
      </trkpt>
      <trkpt lat="49.17895" lon="6.98992">
        <ele>317</ele>
        <time>2011-04-10T06:49:59Z</time>
      </trkpt>
      <trkpt lat="49.17897" lon="6.98993">
        <ele>317</ele>
        <time>2011-04-10T06:50:00Z</time>
      </trkpt>
      <trkpt lat="49.17897" lon="6.98995">
        <ele>317</ele>
        <time>2011-04-10T06:50:01Z</time>
      </trkpt>
      <trkpt lat="49.17899" lon="6.98997">
        <ele>317</ele>
        <time>2011-04-10T06:50:03Z</time>
      </trkpt>
      <trkpt lat="49.179" lon="6.99">
        <ele>317</ele>
        <time>2011-04-10T06:50:05Z</time>
      </trkpt>
      <trkpt lat="49.17901" lon="6.99002">
        <ele>317</ele>
        <time>2011-04-10T06:50:07Z</time>
      </trkpt>
      <trkpt lat="49.17901" lon="6.99003">
        <ele>317</ele>
        <time>2011-04-10T06:50:09Z</time>
      </trkpt>
      <trkpt lat="49.17901" lon="6.99006">
        <ele>317</ele>
        <time>2011-04-10T06:50:11Z</time>
      </trkpt>
      <trkpt lat="49.17901" lon="6.99009">
        <ele>317</ele>
        <time>2011-04-10T06:50:12Z</time>
      </trkpt>
      <trkpt lat="49.17901" lon="6.99011">
        <ele>317</ele>
        <time>2011-04-10T06:50:13Z</time>
      </trkpt>
      <trkpt lat="49.179" lon="6.99013">
        <ele>317</ele>
        <time>2011-04-10T06:50:14Z</time>
      </trkpt>
      <trkpt lat="49.179" lon="6.99015">
        <ele>317</ele>
        <time>2011-04-10T06:50:15Z</time>
      </trkpt>
      <trkpt lat="49.17899" lon="6.99018">
        <ele>317</ele>
        <time>2011-04-10T06:50:17Z</time>
      </trkpt>
      <trkpt lat="49.17899" lon="6.99021">
        <ele>317</ele>
        <time>2011-04-10T06:50:19Z</time>
      </trkpt>
      <trkpt lat="49.179" lon="6.99023">
        <ele>317</ele>
        <time>2011-04-10T06:50:21Z</time>
      </trkpt>
      <trkpt lat="49.179" lon="6.99025">
        <ele>317</ele>
        <time>2011-04-10T06:50:23Z</time>
      </trkpt>
      <trkpt lat="49.179" lon="6.99027">
        <ele>317</ele>
        <time>2011-04-10T06:50:25Z</time>
      </trkpt>
      <trkpt lat="49.179" lon="6.9903">
        <ele>317</ele>
        <time>2011-04-10T06:50:27Z</time>
      </trkpt>
      <trkpt lat="49.179" lon="6.99032">
        <ele>317</ele>
        <time>2011-04-10T06:50:29Z</time>
      </trkpt>
      <trkpt lat="49.179" lon="6.99034">
        <ele>317</ele>
        <time>2011-04-10T06:50:31Z</time>
      </trkpt>
      <trkpt lat="49.17899" lon="6.99037">
        <ele>317</ele>
        <time>2011-04-10T06:50:33Z</time>
      </trkpt>
      <trkpt lat="49.17899" lon="6.99039">
        <ele>317</ele>
        <time>2011-04-10T06:50:35Z</time>
      </trkpt>
      <trkpt lat="49.179" lon="6.99042">
        <ele>317</ele>
        <time>2011-04-10T06:50:37Z</time>
      </trkpt>
      <trkpt lat="49.17901" lon="6.99044">
        <ele>317</ele>
        <time>2011-04-10T06:50:39Z</time>
      </trkpt>
      <trkpt lat="49.17901" lon="6.99046">
        <ele>317</ele>
        <time>2011-04-10T06:50:40Z</time>
      </trkpt>
      <trkpt lat="49.17901" lon="6.99047">
        <ele>317</ele>
        <time>2011-04-10T06:50:41Z</time>
      </trkpt>
      <trkpt lat="49.17901" lon="6.9905">
        <ele>317</ele>
        <time>2011-04-10T06:50:42Z</time>
      </trkpt>
      <trkpt lat="49.179" lon="6.99052">
        <ele>317</ele>
        <time>2011-04-10T06:50:44Z</time>
      </trkpt>
      <trkpt lat="49.179" lon="6.99054">
        <ele>317</ele>
        <time>2011-04-10T06:50:45Z</time>
      </trkpt>
      <trkpt lat="49.179" lon="6.99056">
        <ele>317</ele>
        <time>2011-04-10T06:50:46Z</time>
      </trkpt>
      <trkpt lat="49.179" lon="6.99059">
        <ele>317</ele>
        <time>2011-04-10T06:50:47Z</time>
      </trkpt>
      <trkpt lat="49.179" lon="6.99061">
        <ele>317</ele>
        <time>2011-04-10T06:50:48Z</time>
      </trkpt>
      <trkpt lat="49.179" lon="6.99063">
        <ele>317</ele>
        <time>2011-04-10T06:50:49Z</time>
      </trkpt>
      <trkpt lat="49.17899" lon="6.99066">
        <ele>317</ele>
        <time>2011-04-10T06:50:51Z</time>
      </trkpt>
      <trkpt lat="49.17899" lon="6.99067">
        <ele>317</ele>
        <time>2011-04-10T06:50:52Z</time>
      </trkpt>
      <trkpt lat="49.179" lon="6.9907">
        <ele>317</ele>
        <time>2011-04-10T06:50:54Z</time>
      </trkpt>
      <trkpt lat="49.17901" lon="6.99073">
        <ele>317</ele>
        <time>2011-04-10T06:50:56Z</time>
      </trkpt>
      <trkpt lat="49.17903" lon="6.99074">
        <ele>317</ele>
        <time>2011-04-10T06:50:58Z</time>
      </trkpt>
      <trkpt lat="49.17904" lon="6.99076">
        <ele>317</ele>
        <time>2011-04-10T06:51:01Z</time>
      </trkpt>
      <trkpt lat="49.17905" lon="6.99079">
        <ele>317</ele>
        <time>2011-04-10T06:51:03Z</time>
      </trkpt>
      <trkpt lat="49.17904" lon="6.99081">
        <ele>317</ele>
        <time>2011-04-10T06:51:04Z</time>
      </trkpt>
      <trkpt lat="49.17905" lon="6.99083">
        <ele>317</ele>
        <time>2011-04-10T06:51:06Z</time>
      </trkpt>
      <trkpt lat="49.17906" lon="6.99085">
        <ele>317</ele>
        <time>2011-04-10T06:51:07Z</time>
      </trkpt>
      <trkpt lat="49.17906" lon="6.99088">
        <ele>317</ele>
        <time>2011-04-10T06:51:09Z</time>
      </trkpt>
      <trkpt lat="49.17906" lon="6.9909">
        <ele>317</ele>
        <time>2011-04-10T06:51:10Z</time>
      </trkpt>
      <trkpt lat="49.17906" lon="6.99092">
        <ele>317</ele>
        <time>2011-04-10T06:51:11Z</time>
      </trkpt>
      <trkpt lat="49.17906" lon="6.99094">
        <ele>317</ele>
        <time>2011-04-10T06:51:12Z</time>
      </trkpt>
      <trkpt lat="49.17907" lon="6.99097">
        <ele>317</ele>
        <time>2011-04-10T06:51:14Z</time>
      </trkpt>
      <trkpt lat="49.17908" lon="6.991">
        <ele>317</ele>
        <time>2011-04-10T06:51:16Z</time>
      </trkpt>
      <trkpt lat="49.17908" lon="6.99102">
        <ele>317</ele>
        <time>2011-04-10T06:51:17Z</time>
      </trkpt>
      <trkpt lat="49.17908" lon="6.99106">
        <ele>317</ele>
        <time>2011-04-10T06:51:19Z</time>
      </trkpt>
      <trkpt lat="49.17909" lon="6.99108">
        <ele>317</ele>
        <time>2011-04-10T06:51:21Z</time>
      </trkpt>
      <trkpt lat="49.1791" lon="6.9911">
        <ele>317</ele>
        <time>2011-04-10T06:51:23Z</time>
      </trkpt>
      <trkpt lat="49.17911" lon="6.99112">
        <ele>317</ele>
        <time>2011-04-10T06:51:24Z</time>
      </trkpt>
      <trkpt lat="49.17911" lon="6.99114">
        <ele>317</ele>
        <time>2011-04-10T06:51:25Z</time>
      </trkpt>
      <trkpt lat="49.17911" lon="6.99116">
        <ele>317</ele>
        <time>2011-04-10T06:51:26Z</time>
      </trkpt>
      <trkpt lat="49.17912" lon="6.99119">
        <ele>317</ele>
        <time>2011-04-10T06:51:28Z</time>
      </trkpt>
      <trkpt lat="49.17912" lon="6.99122">
        <ele>316</ele>
        <time>2011-04-10T06:51:30Z</time>
      </trkpt>
      <trkpt lat="49.17912" lon="6.99123">
        <ele>315</ele>
        <time>2011-04-10T06:51:31Z</time>
      </trkpt>
      <trkpt lat="49.17912" lon="6.99126">
        <ele>315</ele>
        <time>2011-04-10T06:51:32Z</time>
      </trkpt>
      <trkpt lat="49.17912" lon="6.99128">
        <ele>315</ele>
        <time>2011-04-10T06:51:33Z</time>
      </trkpt>
      <trkpt lat="49.17912" lon="6.99131">
        <ele>315</ele>
        <time>2011-04-10T06:51:34Z</time>
      </trkpt>
      <trkpt lat="49.17912" lon="6.99133">
        <ele>315</ele>
        <time>2011-04-10T06:51:35Z</time>
      </trkpt>
      <trkpt lat="49.17911" lon="6.99135">
        <ele>315</ele>
        <time>2011-04-10T06:51:36Z</time>
      </trkpt>
      <trkpt lat="49.17911" lon="6.99136">
        <ele>315</ele>
        <time>2011-04-10T06:51:37Z</time>
      </trkpt>
      <trkpt lat="49.17911" lon="6.99138">
        <ele>315</ele>
        <time>2011-04-10T06:51:38Z</time>
      </trkpt>
      <trkpt lat="49.17911" lon="6.99141">
        <ele>315</ele>
        <time>2011-04-10T06:51:39Z</time>
      </trkpt>
      <trkpt lat="49.17912" lon="6.99142">
        <ele>315</ele>
        <time>2011-04-10T06:51:40Z</time>
      </trkpt>
      <trkpt lat="49.17912" lon="6.99144">
        <ele>315</ele>
        <time>2011-04-10T06:51:41Z</time>
      </trkpt>
      <trkpt lat="49.17912" lon="6.99146">
        <ele>315</ele>
        <time>2011-04-10T06:51:43Z</time>
      </trkpt>
      <trkpt lat="49.17912" lon="6.99148">
        <ele>315</ele>
        <time>2011-04-10T06:51:45Z</time>
      </trkpt>
      <trkpt lat="49.17912" lon="6.9915">
        <ele>315</ele>
        <time>2011-04-10T06:51:48Z</time>
      </trkpt>
      <trkpt lat="49.17913" lon="6.99151">
        <ele>315</ele>
        <time>2011-04-10T06:51:51Z</time>
      </trkpt>
      <trkpt lat="49.17913" lon="6.99153">
        <ele>315</ele>
        <time>2011-04-10T06:51:53Z</time>
      </trkpt>
      <trkpt lat="49.17913" lon="6.99155">
        <ele>315</ele>
        <time>2011-04-10T06:51:55Z</time>
      </trkpt>
      <trkpt lat="49.17915" lon="6.99157">
        <ele>315</ele>
        <time>2011-04-10T06:51:58Z</time>
      </trkpt>
      <trkpt lat="49.17916" lon="6.99158">
        <ele>314</ele>
        <time>2011-04-10T06:52:02Z</time>
      </trkpt>
      <trkpt lat="49.17917" lon="6.9916">
        <ele>312</ele>
        <time>2011-04-10T06:52:05Z</time>
      </trkpt>
      <trkpt lat="49.17918" lon="6.99162">
        <ele>310</ele>
        <time>2011-04-10T06:52:08Z</time>
      </trkpt>
      <trkpt lat="49.1792" lon="6.99164">
        <ele>310</ele>
        <time>2011-04-10T06:52:10Z</time>
      </trkpt>
      <trkpt lat="49.17921" lon="6.99167">
        <ele>309</ele>
        <time>2011-04-10T06:52:12Z</time>
      </trkpt>
      <trkpt lat="49.17921" lon="6.99169">
        <ele>309</ele>
        <time>2011-04-10T06:52:13Z</time>
      </trkpt>
      <trkpt lat="49.17921" lon="6.99171">
        <ele>309</ele>
        <time>2011-04-10T06:52:14Z</time>
      </trkpt>
      <trkpt lat="49.17921" lon="6.99173">
        <ele>308</ele>
        <time>2011-04-10T06:52:15Z</time>
      </trkpt>
      <trkpt lat="49.17921" lon="6.99175">
        <ele>308</ele>
        <time>2011-04-10T06:52:16Z</time>
      </trkpt>
      <trkpt lat="49.17921" lon="6.99177">
        <ele>308</ele>
        <time>2011-04-10T06:52:17Z</time>
      </trkpt>
      <trkpt lat="49.17921" lon="6.99179">
        <ele>308</ele>
        <time>2011-04-10T06:52:18Z</time>
      </trkpt>
      <trkpt lat="49.17921" lon="6.9918">
        <ele>307</ele>
        <time>2011-04-10T06:52:19Z</time>
      </trkpt>
      <trkpt lat="49.17921" lon="6.99182">
        <ele>307</ele>
        <time>2011-04-10T06:52:21Z</time>
      </trkpt>
      <trkpt lat="49.17921" lon="6.99185">
        <ele>306</ele>
        <time>2011-04-10T06:52:24Z</time>
      </trkpt>
      <trkpt lat="49.17923" lon="6.99188">
        <ele>306</ele>
        <time>2011-04-10T06:52:26Z</time>
      </trkpt>
      <trkpt lat="49.17923" lon="6.9919">
        <ele>306</ele>
        <time>2011-04-10T06:52:27Z</time>
      </trkpt>
      <trkpt lat="49.17921" lon="6.99192">
        <ele>306</ele>
        <time>2011-04-10T06:52:29Z</time>
      </trkpt>
      <trkpt lat="49.1792" lon="6.99194">
        <ele>306</ele>
        <time>2011-04-10T06:52:32Z</time>
      </trkpt>
      <trkpt lat="49.1792" lon="6.99196">
        <ele>306</ele>
        <time>2011-04-10T06:52:33Z</time>
      </trkpt>
      <trkpt lat="49.1792" lon="6.99198">
        <ele>306</ele>
        <time>2011-04-10T06:52:35Z</time>
      </trkpt>
      <trkpt lat="49.17919" lon="6.992">
        <ele>306</ele>
        <time>2011-04-10T06:52:36Z</time>
      </trkpt>
      <trkpt lat="49.17918" lon="6.99203">
        <ele>306</ele>
        <time>2011-04-10T06:52:38Z</time>
      </trkpt>
      <trkpt lat="49.17916" lon="6.99205">
        <ele>306</ele>
        <time>2011-04-10T06:52:40Z</time>
      </trkpt>
      <trkpt lat="49.17915" lon="6.99207">
        <ele>306</ele>
        <time>2011-04-10T06:52:42Z</time>
      </trkpt>
      <trkpt lat="49.17913" lon="6.9921">
        <ele>306</ele>
        <time>2011-04-10T06:52:44Z</time>
      </trkpt>
      <trkpt lat="49.17912" lon="6.99212">
        <ele>306</ele>
        <time>2011-04-10T06:52:46Z</time>
      </trkpt>
      <trkpt lat="49.17911" lon="6.99214">
        <ele>306</ele>
        <time>2011-04-10T06:52:48Z</time>
      </trkpt>
      <trkpt lat="49.1791" lon="6.99216">
        <ele>307</ele>
        <time>2011-04-10T06:52:50Z</time>
      </trkpt>
      <trkpt lat="49.17909" lon="6.99218">
        <ele>307</ele>
        <time>2011-04-10T06:52:52Z</time>
      </trkpt>
      <trkpt lat="49.17907" lon="6.9922">
        <ele>307</ele>
        <time>2011-04-10T06:52:54Z</time>
      </trkpt>
      <trkpt lat="49.17906" lon="6.99222">
        <ele>308</ele>
        <time>2011-04-10T06:52:56Z</time>
      </trkpt>
      <trkpt lat="49.17905" lon="6.99224">
        <ele>308</ele>
        <time>2011-04-10T06:52:58Z</time>
      </trkpt>
      <trkpt lat="49.17903" lon="6.99226">
        <ele>309</ele>
        <time>2011-04-10T06:53:00Z</time>
      </trkpt>
      <trkpt lat="49.17902" lon="6.99228">
        <ele>309</ele>
        <time>2011-04-10T06:53:02Z</time>
      </trkpt>
      <trkpt lat="49.17901" lon="6.9923">
        <ele>310</ele>
        <time>2011-04-10T06:53:04Z</time>
      </trkpt>
      <trkpt lat="49.179" lon="6.99233">
        <ele>310</ele>
        <time>2011-04-10T06:53:06Z</time>
      </trkpt>
      <trkpt lat="49.17898" lon="6.99235">
        <ele>310</ele>
        <time>2011-04-10T06:53:08Z</time>
      </trkpt>
      <trkpt lat="49.17897" lon="6.99237">
        <ele>311</ele>
        <time>2011-04-10T06:53:10Z</time>
      </trkpt>
      <trkpt lat="49.17895" lon="6.99239">
        <ele>311</ele>
        <time>2011-04-10T06:53:12Z</time>
      </trkpt>
      <trkpt lat="49.17894" lon="6.99241">
        <ele>311</ele>
        <time>2011-04-10T06:53:14Z</time>
      </trkpt>
      <trkpt lat="49.17892" lon="6.99243">
        <ele>312</ele>
        <time>2011-04-10T06:53:16Z</time>
      </trkpt>
      <trkpt lat="49.17891" lon="6.99245">
        <ele>312</ele>
        <time>2011-04-10T06:53:18Z</time>
      </trkpt>
      <trkpt lat="49.17889" lon="6.99247">
        <ele>312</ele>
        <time>2011-04-10T06:53:20Z</time>
      </trkpt>
      <trkpt lat="49.17887" lon="6.99248">
        <ele>313</ele>
        <time>2011-04-10T06:53:22Z</time>
      </trkpt>
      <trkpt lat="49.17886" lon="6.9925">
        <ele>313</ele>
        <time>2011-04-10T06:53:24Z</time>
      </trkpt>
      <trkpt lat="49.17885" lon="6.99252">
        <ele>313</ele>
        <time>2011-04-10T06:53:26Z</time>
      </trkpt>
      <trkpt lat="49.17883" lon="6.99253">
        <ele>314</ele>
        <time>2011-04-10T06:53:28Z</time>
      </trkpt>
      <trkpt lat="49.17881" lon="6.99254">
        <ele>314</ele>
        <time>2011-04-10T06:53:30Z</time>
      </trkpt>
      <trkpt lat="49.1788" lon="6.99255">
        <ele>314</ele>
        <time>2011-04-10T06:53:32Z</time>
      </trkpt>
      <trkpt lat="49.17879" lon="6.99256">
        <ele>314</ele>
        <time>2011-04-10T06:53:34Z</time>
      </trkpt>
      <trkpt lat="49.17878" lon="6.99258">
        <ele>314</ele>
        <time>2011-04-10T06:53:36Z</time>
      </trkpt>
      <trkpt lat="49.17876" lon="6.99259">
        <ele>314</ele>
        <time>2011-04-10T06:53:38Z</time>
      </trkpt>
      <trkpt lat="49.17874" lon="6.9926">
        <ele>315</ele>
        <time>2011-04-10T06:53:40Z</time>
      </trkpt>
      <trkpt lat="49.17873" lon="6.99262">
        <ele>315</ele>
        <time>2011-04-10T06:53:42Z</time>
      </trkpt>
      <trkpt lat="49.17871" lon="6.99263">
        <ele>315</ele>
        <time>2011-04-10T06:53:44Z</time>
      </trkpt>
      <trkpt lat="49.1787" lon="6.99264">
        <ele>316</ele>
        <time>2011-04-10T06:53:46Z</time>
      </trkpt>
      <trkpt lat="49.17868" lon="6.99266">
        <ele>316</ele>
        <time>2011-04-10T06:53:48Z</time>
      </trkpt>
      <trkpt lat="49.17866" lon="6.99267">
        <ele>316</ele>
        <time>2011-04-10T06:53:50Z</time>
      </trkpt>
      <trkpt lat="49.17865" lon="6.99268">
        <ele>316</ele>
        <time>2011-04-10T06:53:51Z</time>
      </trkpt>
      <trkpt lat="49.17863" lon="6.99269">
        <ele>317</ele>
        <time>2011-04-10T06:53:53Z</time>
      </trkpt>
      <trkpt lat="49.17861" lon="6.99271">
        <ele>317</ele>
        <time>2011-04-10T06:53:55Z</time>
      </trkpt>
      <trkpt lat="49.17859" lon="6.99273">
        <ele>317</ele>
        <time>2011-04-10T06:53:57Z</time>
      </trkpt>
      <trkpt lat="49.17857" lon="6.99274">
        <ele>318</ele>
        <time>2011-04-10T06:53:59Z</time>
      </trkpt>
      <trkpt lat="49.17855" lon="6.99276">
        <ele>318</ele>
        <time>2011-04-10T06:54:01Z</time>
      </trkpt>
      <trkpt lat="49.17853" lon="6.99277">
        <ele>319</ele>
        <time>2011-04-10T06:54:03Z</time>
      </trkpt>
      <trkpt lat="49.17852" lon="6.99278">
        <ele>319</ele>
        <time>2011-04-10T06:54:04Z</time>
      </trkpt>
      <trkpt lat="49.1785" lon="6.99279">
        <ele>319</ele>
        <time>2011-04-10T06:54:05Z</time>
      </trkpt>
      <trkpt lat="49.17849" lon="6.99281">
        <ele>319</ele>
        <time>2011-04-10T06:54:07Z</time>
      </trkpt>
      <trkpt lat="49.17847" lon="6.99282">
        <ele>320</ele>
        <time>2011-04-10T06:54:09Z</time>
      </trkpt>
      <trkpt lat="49.17845" lon="6.99284">
        <ele>320</ele>
        <time>2011-04-10T06:54:11Z</time>
      </trkpt>
      <trkpt lat="49.17843" lon="6.99284">
        <ele>320</ele>
        <time>2011-04-10T06:54:13Z</time>
      </trkpt>
      <trkpt lat="49.17841" lon="6.99285">
        <ele>321</ele>
        <time>2011-04-10T06:54:15Z</time>
      </trkpt>
      <trkpt lat="49.17839" lon="6.99287">
        <ele>321</ele>
        <time>2011-04-10T06:54:17Z</time>
      </trkpt>
      <trkpt lat="49.17838" lon="6.99289">
        <ele>321</ele>
        <time>2011-04-10T06:54:19Z</time>
      </trkpt>
      <trkpt lat="49.17836" lon="6.9929">
        <ele>321</ele>
        <time>2011-04-10T06:54:20Z</time>
      </trkpt>
      <trkpt lat="49.17834" lon="6.99291">
        <ele>321</ele>
        <time>2011-04-10T06:54:22Z</time>
      </trkpt>
      <trkpt lat="49.17833" lon="6.99293">
        <ele>322</ele>
        <time>2011-04-10T06:54:24Z</time>
      </trkpt>
      <trkpt lat="49.17831" lon="6.99294">
        <ele>322</ele>
        <time>2011-04-10T06:54:25Z</time>
      </trkpt>
      <trkpt lat="49.1783" lon="6.99296">
        <ele>322</ele>
        <time>2011-04-10T06:54:27Z</time>
      </trkpt>
      <trkpt lat="49.17828" lon="6.99296">
        <ele>322</ele>
        <time>2011-04-10T06:54:28Z</time>
      </trkpt>
      <trkpt lat="49.17827" lon="6.99297">
        <ele>322</ele>
        <time>2011-04-10T06:54:29Z</time>
      </trkpt>
      <trkpt lat="49.17826" lon="6.99298">
        <ele>322</ele>
        <time>2011-04-10T06:54:30Z</time>
      </trkpt>
      <trkpt lat="49.17824" lon="6.99299">
        <ele>322</ele>
        <time>2011-04-10T06:54:32Z</time>
      </trkpt>
      <trkpt lat="49.17822" lon="6.99301">
        <ele>322</ele>
        <time>2011-04-10T06:54:34Z</time>
      </trkpt>
      <trkpt lat="49.17821" lon="6.99302">
        <ele>322</ele>
        <time>2011-04-10T06:54:35Z</time>
      </trkpt>
      <trkpt lat="49.1782" lon="6.99302">
        <ele>322</ele>
        <time>2011-04-10T06:54:36Z</time>
      </trkpt>
      <trkpt lat="49.17818" lon="6.99303">
        <ele>322</ele>
        <time>2011-04-10T06:54:38Z</time>
      </trkpt>
      <trkpt lat="49.17817" lon="6.99304">
        <ele>323</ele>
        <time>2011-04-10T06:54:39Z</time>
      </trkpt>
      <trkpt lat="49.17816" lon="6.99305">
        <ele>323</ele>
        <time>2011-04-10T06:54:40Z</time>
      </trkpt>
      <trkpt lat="49.17815" lon="6.99306">
        <ele>323</ele>
        <time>2011-04-10T06:54:41Z</time>
      </trkpt>
      <trkpt lat="49.17813" lon="6.99306">
        <ele>323</ele>
        <time>2011-04-10T06:54:42Z</time>
      </trkpt>
      <trkpt lat="49.17812" lon="6.99307">
        <ele>323</ele>
        <time>2011-04-10T06:54:43Z</time>
      </trkpt>
      <trkpt lat="49.1781" lon="6.99308">
        <ele>323</ele>
        <time>2011-04-10T06:54:45Z</time>
      </trkpt>
      <trkpt lat="49.17808" lon="6.99309">
        <ele>324</ele>
        <time>2011-04-10T06:54:47Z</time>
      </trkpt>
      <trkpt lat="49.17806" lon="6.9931">
        <ele>324</ele>
        <time>2011-04-10T06:54:49Z</time>
      </trkpt>
      <trkpt lat="49.17804" lon="6.99311">
        <ele>324</ele>
        <time>2011-04-10T06:54:51Z</time>
      </trkpt>
      <trkpt lat="49.17802" lon="6.99313">
        <ele>324</ele>
        <time>2011-04-10T06:54:53Z</time>
      </trkpt>
      <trkpt lat="49.17801" lon="6.99314">
        <ele>324</ele>
        <time>2011-04-10T06:54:54Z</time>
      </trkpt>
      <trkpt lat="49.178" lon="6.99315">
        <ele>324</ele>
        <time>2011-04-10T06:54:55Z</time>
      </trkpt>
      <trkpt lat="49.17798" lon="6.99316">
        <ele>325</ele>
        <time>2011-04-10T06:54:57Z</time>
      </trkpt>
      <trkpt lat="49.17797" lon="6.99316">
        <ele>325</ele>
        <time>2011-04-10T06:54:58Z</time>
      </trkpt>
      <trkpt lat="49.17796" lon="6.99317">
        <ele>325</ele>
        <time>2011-04-10T06:54:59Z</time>
      </trkpt>
      <trkpt lat="49.17794" lon="6.99317">
        <ele>325</ele>
        <time>2011-04-10T06:55:00Z</time>
      </trkpt>
      <trkpt lat="49.17792" lon="6.99318">
        <ele>325</ele>
        <time>2011-04-10T06:55:02Z</time>
      </trkpt>
      <trkpt lat="49.1779" lon="6.99319">
        <ele>325</ele>
        <time>2011-04-10T06:55:04Z</time>
      </trkpt>
      <trkpt lat="49.17789" lon="6.99319">
        <ele>325</ele>
        <time>2011-04-10T06:55:05Z</time>
      </trkpt>
      <trkpt lat="49.17788" lon="6.9932">
        <ele>325</ele>
        <time>2011-04-10T06:55:06Z</time>
      </trkpt>
      <trkpt lat="49.17786" lon="6.99321">
        <ele>326</ele>
        <time>2011-04-10T06:55:08Z</time>
      </trkpt>
      <trkpt lat="49.17784" lon="6.99322">
        <ele>326</ele>
        <time>2011-04-10T06:55:10Z</time>
      </trkpt>
      <trkpt lat="49.17782" lon="6.99322">
        <ele>326</ele>
        <time>2011-04-10T06:55:11Z</time>
      </trkpt>
      <trkpt lat="49.17781" lon="6.99323">
        <ele>326</ele>
        <time>2011-04-10T06:55:12Z</time>
      </trkpt>
      <trkpt lat="49.17779" lon="6.99323">
        <ele>326</ele>
        <time>2011-04-10T06:55:14Z</time>
      </trkpt>
      <trkpt lat="49.17778" lon="6.99324">
        <ele>326</ele>
        <time>2011-04-10T06:55:15Z</time>
      </trkpt>
      <trkpt lat="49.17777" lon="6.99324">
        <ele>326</ele>
        <time>2011-04-10T06:55:16Z</time>
      </trkpt>
      <trkpt lat="49.17775" lon="6.99324">
        <ele>326</ele>
        <time>2011-04-10T06:55:17Z</time>
      </trkpt>
      <trkpt lat="49.17774" lon="6.99325">
        <ele>326</ele>
        <time>2011-04-10T06:55:18Z</time>
      </trkpt>
      <trkpt lat="49.17773" lon="6.99326">
        <ele>326</ele>
        <time>2011-04-10T06:55:19Z</time>
      </trkpt>
      <trkpt lat="49.17771" lon="6.99326">
        <ele>327</ele>
        <time>2011-04-10T06:55:21Z</time>
      </trkpt>
      <trkpt lat="49.1777" lon="6.99327">
        <ele>327</ele>
        <time>2011-04-10T06:55:22Z</time>
      </trkpt>
      <trkpt lat="49.17769" lon="6.99327">
        <ele>327</ele>
        <time>2011-04-10T06:55:23Z</time>
      </trkpt>
      <trkpt lat="49.17767" lon="6.99329">
        <ele>327</ele>
        <time>2011-04-10T06:55:25Z</time>
      </trkpt>
      <trkpt lat="49.17764" lon="6.9933">
        <ele>328</ele>
        <time>2011-04-10T06:55:27Z</time>
      </trkpt>
      <trkpt lat="49.17762" lon="6.99331">
        <ele>328</ele>
        <time>2011-04-10T06:55:29Z</time>
      </trkpt>
      <trkpt lat="49.17761" lon="6.99332">
        <ele>328</ele>
        <time>2011-04-10T06:55:30Z</time>
      </trkpt>
      <trkpt lat="49.17759" lon="6.99333">
        <ele>328</ele>
        <time>2011-04-10T06:55:31Z</time>
      </trkpt>
      <trkpt lat="49.17757" lon="6.99334">
        <ele>328</ele>
        <time>2011-04-10T06:55:33Z</time>
      </trkpt>
      <trkpt lat="49.17756" lon="6.99335">
        <ele>328</ele>
        <time>2011-04-10T06:55:35Z</time>
      </trkpt>
      <trkpt lat="49.17754" lon="6.99336">
        <ele>328</ele>
        <time>2011-04-10T06:55:36Z</time>
      </trkpt>
      <trkpt lat="49.17753" lon="6.99336">
        <ele>328</ele>
        <time>2011-04-10T06:55:37Z</time>
      </trkpt>
      <trkpt lat="49.17752" lon="6.99337">
        <ele>328</ele>
        <time>2011-04-10T06:55:38Z</time>
      </trkpt>
      <trkpt lat="49.17751" lon="6.99338">
        <ele>328</ele>
        <time>2011-04-10T06:55:39Z</time>
      </trkpt>
      <trkpt lat="49.17749" lon="6.99339">
        <ele>328</ele>
        <time>2011-04-10T06:55:41Z</time>
      </trkpt>
      <trkpt lat="49.17747" lon="6.9934">
        <ele>329</ele>
        <time>2011-04-10T06:55:42Z</time>
      </trkpt>
      <trkpt lat="49.17746" lon="6.9934">
        <ele>329</ele>
        <time>2011-04-10T06:55:43Z</time>
      </trkpt>
      <trkpt lat="49.17745" lon="6.9934">
        <ele>329</ele>
        <time>2011-04-10T06:55:44Z</time>
      </trkpt>
      <trkpt lat="49.17743" lon="6.99341">
        <ele>329</ele>
        <time>2011-04-10T06:55:46Z</time>
      </trkpt>
      <trkpt lat="49.17741" lon="6.99342">
        <ele>329</ele>
        <time>2011-04-10T06:55:48Z</time>
      </trkpt>
      <trkpt lat="49.17739" lon="6.99343">
        <ele>329</ele>
        <time>2011-04-10T06:55:50Z</time>
      </trkpt>
      <trkpt lat="49.17738" lon="6.99343">
        <ele>329</ele>
        <time>2011-04-10T06:55:51Z</time>
      </trkpt>
      <trkpt lat="49.17736" lon="6.99345">
        <ele>329</ele>
        <time>2011-04-10T06:55:53Z</time>
      </trkpt>
      <trkpt lat="49.17734" lon="6.99346">
        <ele>329</ele>
        <time>2011-04-10T06:55:54Z</time>
      </trkpt>
      <trkpt lat="49.17733" lon="6.99346">
        <ele>329</ele>
        <time>2011-04-10T06:55:55Z</time>
      </trkpt>
      <trkpt lat="49.17732" lon="6.99347">
        <ele>329</ele>
        <time>2011-04-10T06:55:56Z</time>
      </trkpt>
      <trkpt lat="49.17731" lon="6.99348">
        <ele>329</ele>
        <time>2011-04-10T06:55:57Z</time>
      </trkpt>
      <trkpt lat="49.1773" lon="6.99348">
        <ele>329</ele>
        <time>2011-04-10T06:55:58Z</time>
      </trkpt>
      <trkpt lat="49.17728" lon="6.99349">
        <ele>329</ele>
        <time>2011-04-10T06:55:59Z</time>
      </trkpt>
      <trkpt lat="49.17727" lon="6.99349">
        <ele>329</ele>
        <time>2011-04-10T06:56:00Z</time>
      </trkpt>
      <trkpt lat="49.17725" lon="6.99351">
        <ele>329</ele>
        <time>2011-04-10T06:56:02Z</time>
      </trkpt>
      <trkpt lat="49.17723" lon="6.99352">
        <ele>329</ele>
        <time>2011-04-10T06:56:04Z</time>
      </trkpt>
      <trkpt lat="49.17722" lon="6.99353">
        <ele>329</ele>
        <time>2011-04-10T06:56:05Z</time>
      </trkpt>
      <trkpt lat="49.1772" lon="6.99353">
        <ele>329</ele>
        <time>2011-04-10T06:56:06Z</time>
      </trkpt>
      <trkpt lat="49.17719" lon="6.99354">
        <ele>329</ele>
        <time>2011-04-10T06:56:07Z</time>
      </trkpt>
      <trkpt lat="49.17717" lon="6.99355">
        <ele>329</ele>
        <time>2011-04-10T06:56:09Z</time>
      </trkpt>
      <trkpt lat="49.17715" lon="6.99356">
        <ele>329</ele>
        <time>2011-04-10T06:56:11Z</time>
      </trkpt>
      <trkpt lat="49.17714" lon="6.99356">
        <ele>329</ele>
        <time>2011-04-10T06:56:12Z</time>
      </trkpt>
      <trkpt lat="49.17713" lon="6.99356">
        <ele>329</ele>
        <time>2011-04-10T06:56:13Z</time>
      </trkpt>
      <trkpt lat="49.17712" lon="6.99357">
        <ele>329</ele>
        <time>2011-04-10T06:56:14Z</time>
      </trkpt>
      <trkpt lat="49.17709" lon="6.99358">
        <ele>329</ele>
        <time>2011-04-10T06:56:16Z</time>
      </trkpt>
      <trkpt lat="49.17708" lon="6.99358">
        <ele>329</ele>
        <time>2011-04-10T06:56:17Z</time>
      </trkpt>
      <trkpt lat="49.17707" lon="6.99358">
        <ele>329</ele>
        <time>2011-04-10T06:56:18Z</time>
      </trkpt>
      <trkpt lat="49.17706" lon="6.99358">
        <ele>329</ele>
        <time>2011-04-10T06:56:19Z</time>
      </trkpt>
      <trkpt lat="49.17705" lon="6.99357">
        <ele>329</ele>
        <time>2011-04-10T06:56:20Z</time>
      </trkpt>
      <trkpt lat="49.17704" lon="6.99357">
        <ele>329</ele>
        <time>2011-04-10T06:56:21Z</time>
      </trkpt>
      <trkpt lat="49.17702" lon="6.99357">
        <ele>329</ele>
        <time>2011-04-10T06:56:22Z</time>
      </trkpt>
      <trkpt lat="49.17701" lon="6.99357">
        <ele>329</ele>
        <time>2011-04-10T06:56:23Z</time>
      </trkpt>
      <trkpt lat="49.177" lon="6.99357">
        <ele>329</ele>
        <time>2011-04-10T06:56:24Z</time>
      </trkpt>
      <trkpt lat="49.17698" lon="6.99355">
        <ele>329</ele>
        <time>2011-04-10T06:56:26Z</time>
      </trkpt>
      <trkpt lat="49.17697" lon="6.99354">
        <ele>329</ele>
        <time>2011-04-10T06:56:28Z</time>
      </trkpt>
      <trkpt lat="49.17695" lon="6.99354">
        <ele>329</ele>
        <time>2011-04-10T06:56:30Z</time>
      </trkpt>
      <trkpt lat="49.17694" lon="6.99354">
        <ele>329</ele>
        <time>2011-04-10T06:56:32Z</time>
      </trkpt>
      <trkpt lat="49.17692" lon="6.99354">
        <ele>329</ele>
        <time>2011-04-10T06:56:34Z</time>
      </trkpt>
      <trkpt lat="49.1769" lon="6.99355">
        <ele>329</ele>
        <time>2011-04-10T06:56:36Z</time>
      </trkpt>
      <trkpt lat="49.17689" lon="6.99356">
        <ele>329</ele>
        <time>2011-04-10T06:56:38Z</time>
      </trkpt>
      <trkpt lat="49.17688" lon="6.99357">
        <ele>329</ele>
        <time>2011-04-10T06:56:40Z</time>
      </trkpt>
      <trkpt lat="49.17686" lon="6.99357">
        <ele>329</ele>
        <time>2011-04-10T06:56:43Z</time>
      </trkpt>
      <trkpt lat="49.17685" lon="6.99359">
        <ele>329</ele>
        <time>2011-04-10T06:56:48Z</time>
      </trkpt>
      <trkpt lat="49.17685" lon="6.9936">
        <ele>329</ele>
        <time>2011-04-10T06:56:58Z</time>
      </trkpt>
      <trkpt lat="49.17685" lon="6.99362">
        <ele>332</ele>
        <time>2011-04-10T06:57:24Z</time>
      </trkpt>
      <trkpt lat="49.17685" lon="6.99364">
        <ele>332</ele>
        <time>2011-04-10T06:57:30Z</time>
      </trkpt>
      <trkpt lat="49.17685" lon="6.99362">
        <ele>332</ele>
        <time>2011-04-10T06:57:42Z</time>
      </trkpt>
      <trkpt lat="49.17684" lon="6.99361">
        <ele>332</ele>
        <time>2011-04-10T06:57:47Z</time>
      </trkpt>
      <trkpt lat="49.17683" lon="6.9936">
        <ele>332</ele>
        <time>2011-04-10T06:57:53Z</time>
      </trkpt>
      <trkpt lat="49.17681" lon="6.9936">
        <ele>332</ele>
        <time>2011-04-10T06:58:15Z</time>
      </trkpt>
      <trkpt lat="49.1768" lon="6.99362">
        <ele>333</ele>
        <time>2011-04-10T06:58:35Z</time>
      </trkpt>
      <trkpt lat="49.17679" lon="6.99364">
        <ele>333</ele>
        <time>2011-04-10T06:58:38Z</time>
      </trkpt>
      <trkpt lat="49.1768" lon="6.99363">
        <ele>334</ele>
        <time>2011-04-10T06:59:22Z</time>
      </trkpt>
      <trkpt lat="49.17681" lon="6.99364">
        <ele>334</ele>
        <time>2011-04-10T06:59:28Z</time>
      </trkpt>
      <trkpt lat="49.17679" lon="6.99363">
        <ele>334</ele>
        <time>2011-04-10T06:59:41Z</time>
      </trkpt>
      <trkpt lat="49.1768" lon="6.99363">
        <ele>334</ele>
        <time>2011-04-10T06:59:47Z</time>
      </trkpt>
      <trkpt lat="49.17681" lon="6.99364">
        <ele>335</ele>
        <time>2011-04-10T07:00:11Z</time>
      </trkpt>
      <trkpt lat="49.17682" lon="6.99366">
        <ele>335</ele>
        <time>2011-04-10T07:00:28Z</time>
      </trkpt>
      <trkpt lat="49.17681" lon="6.99364">
        <ele>334</ele>
        <time>2011-04-10T07:01:12Z</time>
      </trkpt>
      <trkpt lat="49.1768" lon="6.99364">
        <ele>334</ele>
        <time>2011-04-10T07:02:07Z</time>
      </trkpt>
      <trkpt lat="49.17682" lon="6.99365">
        <ele>334</ele>
        <time>2011-04-10T07:02:51Z</time>
      </trkpt>
      <trkpt lat="49.17683" lon="6.99367">
        <ele>334</ele>
        <time>2011-04-10T07:02:54Z</time>
      </trkpt>
      <trkpt lat="49.17683" lon="6.99369">
        <ele>334</ele>
        <time>2011-04-10T07:02:56Z</time>
      </trkpt>
      <trkpt lat="49.17685" lon="6.99371">
        <ele>334</ele>
        <time>2011-04-10T07:02:59Z</time>
      </trkpt>
      <trkpt lat="49.17685" lon="6.99374">
        <ele>334</ele>
        <time>2011-04-10T07:03:01Z</time>
      </trkpt>
      <trkpt lat="49.17686" lon="6.99376">
        <ele>334</ele>
        <time>2011-04-10T07:03:03Z</time>
      </trkpt>
      <trkpt lat="49.17687" lon="6.99377">
        <ele>334</ele>
        <time>2011-04-10T07:03:14Z</time>
      </trkpt>
      <trkpt lat="49.17688" lon="6.99379">
        <ele>334</ele>
        <time>2011-04-10T07:03:28Z</time>
      </trkpt>
      <trkpt lat="49.17688" lon="6.99377">
        <ele>333</ele>
        <time>2011-04-10T07:03:53Z</time>
      </trkpt>
      <trkpt lat="49.17687" lon="6.99375">
        <ele>333</ele>
        <time>2011-04-10T07:04:03Z</time>
      </trkpt>
      <trkpt lat="49.17687" lon="6.99377">
        <ele>333</ele>
        <time>2011-04-10T07:04:18Z</time>
      </trkpt>
      <trkpt lat="49.17687" lon="6.99378">
        <ele>331</ele>
        <time>2011-04-10T07:04:21Z</time>
      </trkpt>
      <trkpt lat="49.17685" lon="6.9938">
        <ele>329</ele>
        <time>2011-04-10T07:04:24Z</time>
      </trkpt>
      <trkpt lat="49.17684" lon="6.99381">
        <ele>328</ele>
        <time>2011-04-10T07:04:28Z</time>
      </trkpt>
      <trkpt lat="49.17683" lon="6.99382">
        <ele>328</ele>
        <time>2011-04-10T07:04:30Z</time>
      </trkpt>
      <trkpt lat="49.17682" lon="6.99381">
        <ele>328</ele>
        <time>2011-04-10T07:04:33Z</time>
      </trkpt>
      <trkpt lat="49.17681" lon="6.99383">
        <ele>328</ele>
        <time>2011-04-10T07:04:40Z</time>
      </trkpt>
      <trkpt lat="49.1768" lon="6.99384">
        <ele>328</ele>
        <time>2011-04-10T07:04:42Z</time>
      </trkpt>
      <trkpt lat="49.17681" lon="6.99385">
        <ele>328</ele>
        <time>2011-04-10T07:04:51Z</time>
      </trkpt>
      <trkpt lat="49.1768" lon="6.99383">
        <ele>328</ele>
        <time>2011-04-10T07:04:58Z</time>
      </trkpt>
      <trkpt lat="49.17678" lon="6.99385">
        <ele>328</ele>
        <time>2011-04-10T07:05:01Z</time>
      </trkpt>
      <trkpt lat="49.17677" lon="6.99387">
        <ele>328</ele>
        <time>2011-04-10T07:05:03Z</time>
      </trkpt>
      <trkpt lat="49.17675" lon="6.99388">
        <ele>328</ele>
        <time>2011-04-10T07:05:05Z</time>
      </trkpt>
      <trkpt lat="49.17673" lon="6.99389">
        <ele>328</ele>
        <time>2011-04-10T07:05:07Z</time>
      </trkpt>
      <trkpt lat="49.17672" lon="6.99391">
        <ele>328</ele>
        <time>2011-04-10T07:05:09Z</time>
      </trkpt>
      <trkpt lat="49.1767" lon="6.99392">
        <ele>328</ele>
        <time>2011-04-10T07:05:11Z</time>
      </trkpt>
      <trkpt lat="49.17668" lon="6.99393">
        <ele>328</ele>
        <time>2011-04-10T07:05:13Z</time>
      </trkpt>
      <trkpt lat="49.17667" lon="6.99395">
        <ele>328</ele>
        <time>2011-04-10T07:05:15Z</time>
      </trkpt>
      <trkpt lat="49.17665" lon="6.99397">
        <ele>328</ele>
        <time>2011-04-10T07:05:17Z</time>
      </trkpt>
      <trkpt lat="49.17663" lon="6.99398">
        <ele>328</ele>
        <time>2011-04-10T07:05:19Z</time>
      </trkpt>
      <trkpt lat="49.17661" lon="6.994">
        <ele>328</ele>
        <time>2011-04-10T07:05:21Z</time>
      </trkpt>
      <trkpt lat="49.1766" lon="6.99401">
        <ele>328</ele>
        <time>2011-04-10T07:05:23Z</time>
      </trkpt>
      <trkpt lat="49.17658" lon="6.99402">
        <ele>328</ele>
        <time>2011-04-10T07:05:25Z</time>
      </trkpt>
      <trkpt lat="49.17657" lon="6.99403">
        <ele>328</ele>
        <time>2011-04-10T07:05:26Z</time>
      </trkpt>
      <trkpt lat="49.17655" lon="6.99404">
        <ele>328</ele>
        <time>2011-04-10T07:05:28Z</time>
      </trkpt>
      <trkpt lat="49.17654" lon="6.99404">
        <ele>328</ele>
        <time>2011-04-10T07:05:29Z</time>
      </trkpt>
      <trkpt lat="49.17652" lon="6.99406">
        <ele>328</ele>
        <time>2011-04-10T07:05:31Z</time>
      </trkpt>
      <trkpt lat="49.1765" lon="6.99408">
        <ele>328</ele>
        <time>2011-04-10T07:05:33Z</time>
      </trkpt>
      <trkpt lat="49.17648" lon="6.99409">
        <ele>328</ele>
        <time>2011-04-10T07:05:35Z</time>
      </trkpt>
      <trkpt lat="49.17647" lon="6.9941">
        <ele>328</ele>
        <time>2011-04-10T07:05:36Z</time>
      </trkpt>
      <trkpt lat="49.17645" lon="6.99411">
        <ele>328</ele>
        <time>2011-04-10T07:05:38Z</time>
      </trkpt>
      <trkpt lat="49.17643" lon="6.99412">
        <ele>328</ele>
        <time>2011-04-10T07:05:39Z</time>
      </trkpt>
      <trkpt lat="49.17641" lon="6.99414">
        <ele>328</ele>
        <time>2011-04-10T07:05:41Z</time>
      </trkpt>
      <trkpt lat="49.1764" lon="6.99415">
        <ele>328</ele>
        <time>2011-04-10T07:05:43Z</time>
      </trkpt>
      <trkpt lat="49.17638" lon="6.99416">
        <ele>328</ele>
        <time>2011-04-10T07:05:44Z</time>
      </trkpt>
      <trkpt lat="49.17636" lon="6.99418">
        <ele>328</ele>
        <time>2011-04-10T07:05:46Z</time>
      </trkpt>
      <trkpt lat="49.17635" lon="6.9942">
        <ele>328</ele>
        <time>2011-04-10T07:05:47Z</time>
      </trkpt>
      <trkpt lat="49.17633" lon="6.99422">
        <ele>328</ele>
        <time>2011-04-10T07:05:49Z</time>
      </trkpt>
      <trkpt lat="49.17632" lon="6.99422">
        <ele>328</ele>
        <time>2011-04-10T07:05:50Z</time>
      </trkpt>
      <trkpt lat="49.17631" lon="6.99423">
        <ele>328</ele>
        <time>2011-04-10T07:05:51Z</time>
      </trkpt>
      <trkpt lat="49.17629" lon="6.99424">
        <ele>328</ele>
        <time>2011-04-10T07:05:53Z</time>
      </trkpt>
      <trkpt lat="49.17627" lon="6.99426">
        <ele>328</ele>
        <time>2011-04-10T07:05:55Z</time>
      </trkpt>
      <trkpt lat="49.17625" lon="6.99428">
        <ele>328</ele>
        <time>2011-04-10T07:05:57Z</time>
      </trkpt>
      <trkpt lat="49.17623" lon="6.99429">
        <ele>328</ele>
        <time>2011-04-10T07:05:58Z</time>
      </trkpt>
      <trkpt lat="49.17622" lon="6.9943">
        <ele>328</ele>
        <time>2011-04-10T07:05:59Z</time>
      </trkpt>
      <trkpt lat="49.17621" lon="6.99431">
        <ele>328</ele>
        <time>2011-04-10T07:06:00Z</time>
      </trkpt>
      <trkpt lat="49.1762" lon="6.99432">
        <ele>328</ele>
        <time>2011-04-10T07:06:01Z</time>
      </trkpt>
      <trkpt lat="49.17618" lon="6.99433">
        <ele>328</ele>
        <time>2011-04-10T07:06:03Z</time>
      </trkpt>
      <trkpt lat="49.17617" lon="6.99434">
        <ele>328</ele>
        <time>2011-04-10T07:06:04Z</time>
      </trkpt>
      <trkpt lat="49.17615" lon="6.99435">
        <ele>328</ele>
        <time>2011-04-10T07:06:05Z</time>
      </trkpt>
      <trkpt lat="49.17614" lon="6.99436">
        <ele>328</ele>
        <time>2011-04-10T07:06:06Z</time>
      </trkpt>
      <trkpt lat="49.17613" lon="6.99437">
        <ele>328</ele>
        <time>2011-04-10T07:06:07Z</time>
      </trkpt>
      <trkpt lat="49.17611" lon="6.99439">
        <ele>328</ele>
        <time>2011-04-10T07:06:09Z</time>
      </trkpt>
      <trkpt lat="49.1761" lon="6.99439">
        <ele>328</ele>
        <time>2011-04-10T07:06:10Z</time>
      </trkpt>
      <trkpt lat="49.17608" lon="6.99441">
        <ele>328</ele>
        <time>2011-04-10T07:06:12Z</time>
      </trkpt>
      <trkpt lat="49.17606" lon="6.99443">
        <ele>328</ele>
        <time>2011-04-10T07:06:14Z</time>
      </trkpt>
      <trkpt lat="49.17604" lon="6.99444">
        <ele>328</ele>
        <time>2011-04-10T07:06:15Z</time>
      </trkpt>
      <trkpt lat="49.17603" lon="6.99445">
        <ele>328</ele>
        <time>2011-04-10T07:06:16Z</time>
      </trkpt>
      <trkpt lat="49.17601" lon="6.99446">
        <ele>328</ele>
        <time>2011-04-10T07:06:18Z</time>
      </trkpt>
      <trkpt lat="49.17599" lon="6.99448">
        <ele>328</ele>
        <time>2011-04-10T07:06:20Z</time>
      </trkpt>
      <trkpt lat="49.17598" lon="6.99448">
        <ele>328</ele>
        <time>2011-04-10T07:06:21Z</time>
      </trkpt>
      <trkpt lat="49.17596" lon="6.99451">
        <ele>328</ele>
        <time>2011-04-10T07:06:23Z</time>
      </trkpt>
      <trkpt lat="49.17595" lon="6.99451">
        <ele>328</ele>
        <time>2011-04-10T07:06:24Z</time>
      </trkpt>
      <trkpt lat="49.17593" lon="6.99452">
        <ele>328</ele>
        <time>2011-04-10T07:06:25Z</time>
      </trkpt>
      <trkpt lat="49.17592" lon="6.99453">
        <ele>328</ele>
        <time>2011-04-10T07:06:26Z</time>
      </trkpt>
      <trkpt lat="49.1759" lon="6.99455">
        <ele>328</ele>
        <time>2011-04-10T07:06:28Z</time>
      </trkpt>
      <trkpt lat="49.17589" lon="6.99456">
        <ele>328</ele>
        <time>2011-04-10T07:06:29Z</time>
      </trkpt>
      <trkpt lat="49.17587" lon="6.99458">
        <ele>328</ele>
        <time>2011-04-10T07:06:31Z</time>
      </trkpt>
      <trkpt lat="49.17585" lon="6.9946">
        <ele>328</ele>
        <time>2011-04-10T07:06:33Z</time>
      </trkpt>
      <trkpt lat="49.17583" lon="6.99462">
        <ele>328</ele>
        <time>2011-04-10T07:06:35Z</time>
      </trkpt>
      <trkpt lat="49.17582" lon="6.99463">
        <ele>328</ele>
        <time>2011-04-10T07:06:36Z</time>
      </trkpt>
      <trkpt lat="49.17579" lon="6.99466">
        <ele>328</ele>
        <time>2011-04-10T07:06:38Z</time>
      </trkpt>
      <trkpt lat="49.17578" lon="6.99467">
        <ele>328</ele>
        <time>2011-04-10T07:06:39Z</time>
      </trkpt>
      <trkpt lat="49.17576" lon="6.9947">
        <ele>328</ele>
        <time>2011-04-10T07:06:41Z</time>
      </trkpt>
      <trkpt lat="49.17575" lon="6.99471">
        <ele>328</ele>
        <time>2011-04-10T07:06:42Z</time>
      </trkpt>
      <trkpt lat="49.17573" lon="6.99474">
        <ele>328</ele>
        <time>2011-04-10T07:06:44Z</time>
      </trkpt>
      <trkpt lat="49.17571" lon="6.99476">
        <ele>328</ele>
        <time>2011-04-10T07:06:46Z</time>
      </trkpt>
      <trkpt lat="49.17569" lon="6.99479">
        <ele>328</ele>
        <time>2011-04-10T07:06:48Z</time>
      </trkpt>
      <trkpt lat="49.17567" lon="6.99483">
        <ele>328</ele>
        <time>2011-04-10T07:06:50Z</time>
      </trkpt>
      <trkpt lat="49.17565" lon="6.99485">
        <ele>328</ele>
        <time>2011-04-10T07:06:52Z</time>
      </trkpt>
      <trkpt lat="49.17564" lon="6.99488">
        <ele>328</ele>
        <time>2011-04-10T07:06:54Z</time>
      </trkpt>
      <trkpt lat="49.17562" lon="6.99489">
        <ele>328</ele>
        <time>2011-04-10T07:06:55Z</time>
      </trkpt>
      <trkpt lat="49.17561" lon="6.99492">
        <ele>328</ele>
        <time>2011-04-10T07:06:56Z</time>
      </trkpt>
      <trkpt lat="49.17559" lon="6.99494">
        <ele>328</ele>
        <time>2011-04-10T07:06:58Z</time>
      </trkpt>
      <trkpt lat="49.17558" lon="6.99495">
        <ele>328</ele>
        <time>2011-04-10T07:06:59Z</time>
      </trkpt>
      <trkpt lat="49.17556" lon="6.99497">
        <ele>328</ele>
        <time>2011-04-10T07:07:00Z</time>
      </trkpt>
      <trkpt lat="49.17555" lon="6.99498">
        <ele>328</ele>
        <time>2011-04-10T07:07:01Z</time>
      </trkpt>
      <trkpt lat="49.17553" lon="6.995">
        <ele>328</ele>
        <time>2011-04-10T07:07:03Z</time>
      </trkpt>
      <trkpt lat="49.17552" lon="6.99501">
        <ele>328</ele>
        <time>2011-04-10T07:07:04Z</time>
      </trkpt>
      <trkpt lat="49.17551" lon="6.99502">
        <ele>328</ele>
        <time>2011-04-10T07:07:05Z</time>
      </trkpt>
      <trkpt lat="49.17549" lon="6.99503">
        <ele>328</ele>
        <time>2011-04-10T07:07:06Z</time>
      </trkpt>
      <trkpt lat="49.17548" lon="6.99504">
        <ele>328</ele>
        <time>2011-04-10T07:07:07Z</time>
      </trkpt>
      <trkpt lat="49.17547" lon="6.99505">
        <ele>328</ele>
        <time>2011-04-10T07:07:08Z</time>
      </trkpt>
      <trkpt lat="49.17545" lon="6.99506">
        <ele>328</ele>
        <time>2011-04-10T07:07:09Z</time>
      </trkpt>
      <trkpt lat="49.17544" lon="6.99506">
        <ele>328</ele>
        <time>2011-04-10T07:07:10Z</time>
      </trkpt>
      <trkpt lat="49.17543" lon="6.99507">
        <ele>328</ele>
        <time>2011-04-10T07:07:11Z</time>
      </trkpt>
      <trkpt lat="49.17542" lon="6.99508">
        <ele>328</ele>
        <time>2011-04-10T07:07:12Z</time>
      </trkpt>
      <trkpt lat="49.1754" lon="6.99509">
        <ele>328</ele>
        <time>2011-04-10T07:07:13Z</time>
      </trkpt>
      <trkpt lat="49.17539" lon="6.99509">
        <ele>328</ele>
        <time>2011-04-10T07:07:14Z</time>
      </trkpt>
      <trkpt lat="49.17538" lon="6.9951">
        <ele>328</ele>
        <time>2011-04-10T07:07:15Z</time>
      </trkpt>
      <trkpt lat="49.17537" lon="6.99511">
        <ele>328</ele>
        <time>2011-04-10T07:07:16Z</time>
      </trkpt>
      <trkpt lat="49.17535" lon="6.99512">
        <ele>328</ele>
        <time>2011-04-10T07:07:17Z</time>
      </trkpt>
      <trkpt lat="49.17534" lon="6.99513">
        <ele>328</ele>
        <time>2011-04-10T07:07:18Z</time>
      </trkpt>
      <trkpt lat="49.17533" lon="6.99514">
        <ele>328</ele>
        <time>2011-04-10T07:07:19Z</time>
      </trkpt>
      <trkpt lat="49.17532" lon="6.99514">
        <ele>328</ele>
        <time>2011-04-10T07:07:20Z</time>
      </trkpt>
      <trkpt lat="49.1753" lon="6.99515">
        <ele>328</ele>
        <time>2011-04-10T07:07:21Z</time>
      </trkpt>
      <trkpt lat="49.17529" lon="6.99516">
        <ele>328</ele>
        <time>2011-04-10T07:07:22Z</time>
      </trkpt>
      <trkpt lat="49.17528" lon="6.99517">
        <ele>328</ele>
        <time>2011-04-10T07:07:23Z</time>
      </trkpt>
      <trkpt lat="49.17527" lon="6.99518">
        <ele>328</ele>
        <time>2011-04-10T07:07:24Z</time>
      </trkpt>
      <trkpt lat="49.17525" lon="6.99519">
        <ele>328</ele>
        <time>2011-04-10T07:07:25Z</time>
      </trkpt>
      <trkpt lat="49.17524" lon="6.9952">
        <ele>328</ele>
        <time>2011-04-10T07:07:26Z</time>
      </trkpt>
      <trkpt lat="49.17523" lon="6.9952">
        <ele>328</ele>
        <time>2011-04-10T07:07:27Z</time>
      </trkpt>
      <trkpt lat="49.17522" lon="6.99521">
        <ele>328</ele>
        <time>2011-04-10T07:07:28Z</time>
      </trkpt>
      <trkpt lat="49.17521" lon="6.99522">
        <ele>328</ele>
        <time>2011-04-10T07:07:29Z</time>
      </trkpt>
      <trkpt lat="49.17519" lon="6.99523">
        <ele>328</ele>
        <time>2011-04-10T07:07:30Z</time>
      </trkpt>
      <trkpt lat="49.17518" lon="6.99524">
        <ele>328</ele>
        <time>2011-04-10T07:07:31Z</time>
      </trkpt>
      <trkpt lat="49.17517" lon="6.99525">
        <ele>328</ele>
        <time>2011-04-10T07:07:32Z</time>
      </trkpt>
      <trkpt lat="49.17515" lon="6.99526">
        <ele>328</ele>
        <time>2011-04-10T07:07:33Z</time>
      </trkpt>
      <trkpt lat="49.17514" lon="6.99527">
        <ele>328</ele>
        <time>2011-04-10T07:07:34Z</time>
      </trkpt>
      <trkpt lat="49.17513" lon="6.99528">
        <ele>328</ele>
        <time>2011-04-10T07:07:35Z</time>
      </trkpt>
      <trkpt lat="49.17512" lon="6.99529">
        <ele>328</ele>
        <time>2011-04-10T07:07:36Z</time>
      </trkpt>
      <trkpt lat="49.17511" lon="6.9953">
        <ele>328</ele>
        <time>2011-04-10T07:07:37Z</time>
      </trkpt>
      <trkpt lat="49.17509" lon="6.99531">
        <ele>328</ele>
        <time>2011-04-10T07:07:38Z</time>
      </trkpt>
      <trkpt lat="49.17508" lon="6.99532">
        <ele>328</ele>
        <time>2011-04-10T07:07:39Z</time>
      </trkpt>
      <trkpt lat="49.17506" lon="6.99534">
        <ele>328</ele>
        <time>2011-04-10T07:07:41Z</time>
      </trkpt>
      <trkpt lat="49.17505" lon="6.99534">
        <ele>328</ele>
        <time>2011-04-10T07:07:42Z</time>
      </trkpt>
      <trkpt lat="49.17503" lon="6.99535">
        <ele>328</ele>
        <time>2011-04-10T07:07:44Z</time>
      </trkpt>
      <trkpt lat="49.17501" lon="6.99536">
        <ele>328</ele>
        <time>2011-04-10T07:07:45Z</time>
      </trkpt>
      <trkpt lat="49.175" lon="6.99537">
        <ele>328</ele>
        <time>2011-04-10T07:07:46Z</time>
      </trkpt>
      <trkpt lat="49.17499" lon="6.99538">
        <ele>328</ele>
        <time>2011-04-10T07:07:47Z</time>
      </trkpt>
      <trkpt lat="49.17498" lon="6.99539">
        <ele>328</ele>
        <time>2011-04-10T07:07:48Z</time>
      </trkpt>
      <trkpt lat="49.17497" lon="6.9954">
        <ele>328</ele>
        <time>2011-04-10T07:07:49Z</time>
      </trkpt>
      <trkpt lat="49.17495" lon="6.99541">
        <ele>328</ele>
        <time>2011-04-10T07:07:50Z</time>
      </trkpt>
      <trkpt lat="49.17494" lon="6.99542">
        <ele>328</ele>
        <time>2011-04-10T07:07:51Z</time>
      </trkpt>
      <trkpt lat="49.17493" lon="6.99543">
        <ele>328</ele>
        <time>2011-04-10T07:07:52Z</time>
      </trkpt>
      <trkpt lat="49.17492" lon="6.99544">
        <ele>328</ele>
        <time>2011-04-10T07:07:53Z</time>
      </trkpt>
      <trkpt lat="49.1749" lon="6.99544">
        <ele>328</ele>
        <time>2011-04-10T07:07:54Z</time>
      </trkpt>
      <trkpt lat="49.17489" lon="6.99545">
        <ele>328</ele>
        <time>2011-04-10T07:07:55Z</time>
      </trkpt>
      <trkpt lat="49.17488" lon="6.99546">
        <ele>328</ele>
        <time>2011-04-10T07:07:56Z</time>
      </trkpt>
      <trkpt lat="49.17487" lon="6.99547">
        <ele>328</ele>
        <time>2011-04-10T07:07:57Z</time>
      </trkpt>
      <trkpt lat="49.17486" lon="6.99548">
        <ele>328</ele>
        <time>2011-04-10T07:07:58Z</time>
      </trkpt>
      <trkpt lat="49.17485" lon="6.99549">
        <ele>328</ele>
        <time>2011-04-10T07:07:59Z</time>
      </trkpt>
      <trkpt lat="49.17483" lon="6.9955">
        <ele>328</ele>
        <time>2011-04-10T07:08:00Z</time>
      </trkpt>
      <trkpt lat="49.17481" lon="6.99552">
        <ele>328</ele>
        <time>2011-04-10T07:08:02Z</time>
      </trkpt>
      <trkpt lat="49.1748" lon="6.99553">
        <ele>328</ele>
        <time>2011-04-10T07:08:03Z</time>
      </trkpt>
      <trkpt lat="49.17479" lon="6.99553">
        <ele>328</ele>
        <time>2011-04-10T07:08:04Z</time>
      </trkpt>
      <trkpt lat="49.17477" lon="6.99554">
        <ele>328</ele>
        <time>2011-04-10T07:08:05Z</time>
      </trkpt>
      <trkpt lat="49.17476" lon="6.99555">
        <ele>328</ele>
        <time>2011-04-10T07:08:06Z</time>
      </trkpt>
      <trkpt lat="49.17474" lon="6.99557">
        <ele>328</ele>
        <time>2011-04-10T07:08:08Z</time>
      </trkpt>
      <trkpt lat="49.17473" lon="6.99558">
        <ele>328</ele>
        <time>2011-04-10T07:08:09Z</time>
      </trkpt>
      <trkpt lat="49.17472" lon="6.99559">
        <ele>328</ele>
        <time>2011-04-10T07:08:10Z</time>
      </trkpt>
      <trkpt lat="49.17469" lon="6.99561">
        <ele>328</ele>
        <time>2011-04-10T07:08:12Z</time>
      </trkpt>
      <trkpt lat="49.17467" lon="6.99563">
        <ele>328</ele>
        <time>2011-04-10T07:08:14Z</time>
      </trkpt>
      <trkpt lat="49.17466" lon="6.99564">
        <ele>328</ele>
        <time>2011-04-10T07:08:15Z</time>
      </trkpt>
      <trkpt lat="49.17464" lon="6.99566">
        <ele>328</ele>
        <time>2011-04-10T07:08:17Z</time>
      </trkpt>
      <trkpt lat="49.17463" lon="6.99567">
        <ele>328</ele>
        <time>2011-04-10T07:08:18Z</time>
      </trkpt>
      <trkpt lat="49.17461" lon="6.99568">
        <ele>328</ele>
        <time>2011-04-10T07:08:19Z</time>
      </trkpt>
      <trkpt lat="49.1746" lon="6.99569">
        <ele>328</ele>
        <time>2011-04-10T07:08:20Z</time>
      </trkpt>
      <trkpt lat="49.17458" lon="6.99571">
        <ele>327</ele>
        <time>2011-04-10T07:08:22Z</time>
      </trkpt>
      <trkpt lat="49.17456" lon="6.99572">
        <ele>327</ele>
        <time>2011-04-10T07:08:24Z</time>
      </trkpt>
      <trkpt lat="49.17455" lon="6.99574">
        <ele>327</ele>
        <time>2011-04-10T07:08:25Z</time>
      </trkpt>
      <trkpt lat="49.17453" lon="6.99575">
        <ele>327</ele>
        <time>2011-04-10T07:08:26Z</time>
      </trkpt>
      <trkpt lat="49.17452" lon="6.99576">
        <ele>327</ele>
        <time>2011-04-10T07:08:27Z</time>
      </trkpt>
      <trkpt lat="49.17451" lon="6.99577">
        <ele>327</ele>
        <time>2011-04-10T07:08:28Z</time>
      </trkpt>
      <trkpt lat="49.1745" lon="6.99578">
        <ele>327</ele>
        <time>2011-04-10T07:08:29Z</time>
      </trkpt>
      <trkpt lat="49.17448" lon="6.99579">
        <ele>327</ele>
        <time>2011-04-10T07:08:30Z</time>
      </trkpt>
      <trkpt lat="49.17447" lon="6.9958">
        <ele>327</ele>
        <time>2011-04-10T07:08:31Z</time>
      </trkpt>
      <trkpt lat="49.17446" lon="6.9958">
        <ele>327</ele>
        <time>2011-04-10T07:08:32Z</time>
      </trkpt>
      <trkpt lat="49.17444" lon="6.99582">
        <ele>327</ele>
        <time>2011-04-10T07:08:33Z</time>
      </trkpt>
      <trkpt lat="49.17443" lon="6.99583">
        <ele>327</ele>
        <time>2011-04-10T07:08:34Z</time>
      </trkpt>
      <trkpt lat="49.17442" lon="6.99584">
        <ele>327</ele>
        <time>2011-04-10T07:08:35Z</time>
      </trkpt>
      <trkpt lat="49.17441" lon="6.99585">
        <ele>327</ele>
        <time>2011-04-10T07:08:36Z</time>
      </trkpt>
      <trkpt lat="49.1744" lon="6.99586">
        <ele>327</ele>
        <time>2011-04-10T07:08:37Z</time>
      </trkpt>
      <trkpt lat="49.17439" lon="6.99587">
        <ele>327</ele>
        <time>2011-04-10T07:08:38Z</time>
      </trkpt>
      <trkpt lat="49.17437" lon="6.99588">
        <ele>327</ele>
        <time>2011-04-10T07:08:39Z</time>
      </trkpt>
      <trkpt lat="49.17436" lon="6.99589">
        <ele>327</ele>
        <time>2011-04-10T07:08:40Z</time>
      </trkpt>
      <trkpt lat="49.17435" lon="6.99589">
        <ele>327</ele>
        <time>2011-04-10T07:08:41Z</time>
      </trkpt>
      <trkpt lat="49.17433" lon="6.9959">
        <ele>327</ele>
        <time>2011-04-10T07:08:42Z</time>
      </trkpt>
      <trkpt lat="49.17432" lon="6.99591">
        <ele>327</ele>
        <time>2011-04-10T07:08:43Z</time>
      </trkpt>
      <trkpt lat="49.17431" lon="6.99592">
        <ele>327</ele>
        <time>2011-04-10T07:08:44Z</time>
      </trkpt>
      <trkpt lat="49.17429" lon="6.99592">
        <ele>327</ele>
        <time>2011-04-10T07:08:45Z</time>
      </trkpt>
      <trkpt lat="49.17428" lon="6.99593">
        <ele>327</ele>
        <time>2011-04-10T07:08:46Z</time>
      </trkpt>
      <trkpt lat="49.17427" lon="6.99593">
        <ele>327</ele>
        <time>2011-04-10T07:08:47Z</time>
      </trkpt>
      <trkpt lat="49.17426" lon="6.99594">
        <ele>327</ele>
        <time>2011-04-10T07:08:48Z</time>
      </trkpt>
      <trkpt lat="49.17424" lon="6.99595">
        <ele>327</ele>
        <time>2011-04-10T07:08:49Z</time>
      </trkpt>
      <trkpt lat="49.17423" lon="6.99595">
        <ele>327</ele>
        <time>2011-04-10T07:08:50Z</time>
      </trkpt>
      <trkpt lat="49.17422" lon="6.99596">
        <ele>327</ele>
        <time>2011-04-10T07:08:51Z</time>
      </trkpt>
      <trkpt lat="49.1742" lon="6.99597">
        <ele>327</ele>
        <time>2011-04-10T07:08:52Z</time>
      </trkpt>
      <trkpt lat="49.17419" lon="6.99597">
        <ele>327</ele>
        <time>2011-04-10T07:08:53Z</time>
      </trkpt>
      <trkpt lat="49.17417" lon="6.99598">
        <ele>327</ele>
        <time>2011-04-10T07:08:54Z</time>
      </trkpt>
      <trkpt lat="49.17416" lon="6.99598">
        <ele>327</ele>
        <time>2011-04-10T07:08:55Z</time>
      </trkpt>
      <trkpt lat="49.17415" lon="6.99599">
        <ele>327</ele>
        <time>2011-04-10T07:08:56Z</time>
      </trkpt>
      <trkpt lat="49.17413" lon="6.99599">
        <ele>327</ele>
        <time>2011-04-10T07:08:57Z</time>
      </trkpt>
      <trkpt lat="49.17412" lon="6.996">
        <ele>327</ele>
        <time>2011-04-10T07:08:58Z</time>
      </trkpt>
      <trkpt lat="49.17411" lon="6.99601">
        <ele>327</ele>
        <time>2011-04-10T07:08:59Z</time>
      </trkpt>
      <trkpt lat="49.1741" lon="6.99602">
        <ele>327</ele>
        <time>2011-04-10T07:09:00Z</time>
      </trkpt>
      <trkpt lat="49.17408" lon="6.99603">
        <ele>327</ele>
        <time>2011-04-10T07:09:01Z</time>
      </trkpt>
      <trkpt lat="49.17407" lon="6.99603">
        <ele>327</ele>
        <time>2011-04-10T07:09:02Z</time>
      </trkpt>
      <trkpt lat="49.17406" lon="6.99604">
        <ele>327</ele>
        <time>2011-04-10T07:09:03Z</time>
      </trkpt>
      <trkpt lat="49.17405" lon="6.99606">
        <ele>327</ele>
        <time>2011-04-10T07:09:04Z</time>
      </trkpt>
      <trkpt lat="49.17403" lon="6.99607">
        <ele>327</ele>
        <time>2011-04-10T07:09:05Z</time>
      </trkpt>
      <trkpt lat="49.17401" lon="6.99609">
        <ele>327</ele>
        <time>2011-04-10T07:09:07Z</time>
      </trkpt>
      <trkpt lat="49.17399" lon="6.99612">
        <ele>327</ele>
        <time>2011-04-10T07:09:09Z</time>
      </trkpt>
      <trkpt lat="49.17397" lon="6.99614">
        <ele>327</ele>
        <time>2011-04-10T07:09:11Z</time>
      </trkpt>
      <trkpt lat="49.17396" lon="6.99615">
        <ele>327</ele>
        <time>2011-04-10T07:09:12Z</time>
      </trkpt>
      <trkpt lat="49.17395" lon="6.99616">
        <ele>327</ele>
        <time>2011-04-10T07:09:13Z</time>
      </trkpt>
      <trkpt lat="49.17393" lon="6.99619">
        <ele>327</ele>
        <time>2011-04-10T07:09:15Z</time>
      </trkpt>
      <trkpt lat="49.17392" lon="6.99621">
        <ele>327</ele>
        <time>2011-04-10T07:09:16Z</time>
      </trkpt>
      <trkpt lat="49.1739" lon="6.99624">
        <ele>327</ele>
        <time>2011-04-10T07:09:18Z</time>
      </trkpt>
      <trkpt lat="49.17389" lon="6.99626">
        <ele>327</ele>
        <time>2011-04-10T07:09:20Z</time>
      </trkpt>
      <trkpt lat="49.17387" lon="6.99629">
        <ele>327</ele>
        <time>2011-04-10T07:09:22Z</time>
      </trkpt>
      <trkpt lat="49.17385" lon="6.99632">
        <ele>327</ele>
        <time>2011-04-10T07:09:24Z</time>
      </trkpt>
      <trkpt lat="49.17383" lon="6.99634">
        <ele>327</ele>
        <time>2011-04-10T07:09:26Z</time>
      </trkpt>
      <trkpt lat="49.17381" lon="6.99637">
        <ele>327</ele>
        <time>2011-04-10T07:09:28Z</time>
      </trkpt>
      <trkpt lat="49.17379" lon="6.99639">
        <ele>327</ele>
        <time>2011-04-10T07:09:30Z</time>
      </trkpt>
      <trkpt lat="49.17378" lon="6.99642">
        <ele>327</ele>
        <time>2011-04-10T07:09:32Z</time>
      </trkpt>
      <trkpt lat="49.17377" lon="6.99644">
        <ele>327</ele>
        <time>2011-04-10T07:09:33Z</time>
      </trkpt>
      <trkpt lat="49.17375" lon="6.99647">
        <ele>327</ele>
        <time>2011-04-10T07:09:35Z</time>
      </trkpt>
      <trkpt lat="49.17373" lon="6.99649">
        <ele>327</ele>
        <time>2011-04-10T07:09:37Z</time>
      </trkpt>
      <trkpt lat="49.17371" lon="6.99651">
        <ele>327</ele>
        <time>2011-04-10T07:09:39Z</time>
      </trkpt>
      <trkpt lat="49.17369" lon="6.99654">
        <ele>327</ele>
        <time>2011-04-10T07:09:41Z</time>
      </trkpt>
      <trkpt lat="49.17368" lon="6.99656">
        <ele>327</ele>
        <time>2011-04-10T07:09:42Z</time>
      </trkpt>
      <trkpt lat="49.17367" lon="6.99658">
        <ele>327</ele>
        <time>2011-04-10T07:09:44Z</time>
      </trkpt>
      <trkpt lat="49.17365" lon="6.99661">
        <ele>327</ele>
        <time>2011-04-10T07:09:46Z</time>
      </trkpt>
      <trkpt lat="49.17364" lon="6.99663">
        <ele>327</ele>
        <time>2011-04-10T07:09:47Z</time>
      </trkpt>
      <trkpt lat="49.17362" lon="6.99666">
        <ele>327</ele>
        <time>2011-04-10T07:09:49Z</time>
      </trkpt>
      <trkpt lat="49.17361" lon="6.99668">
        <ele>327</ele>
        <time>2011-04-10T07:09:50Z</time>
      </trkpt>
      <trkpt lat="49.17359" lon="6.99671">
        <ele>327</ele>
        <time>2011-04-10T07:09:52Z</time>
      </trkpt>
      <trkpt lat="49.17358" lon="6.99673">
        <ele>327</ele>
        <time>2011-04-10T07:09:53Z</time>
      </trkpt>
      <trkpt lat="49.17357" lon="6.99676">
        <ele>327</ele>
        <time>2011-04-10T07:09:55Z</time>
      </trkpt>
      <trkpt lat="49.17357" lon="6.99678">
        <ele>327</ele>
        <time>2011-04-10T07:09:56Z</time>
      </trkpt>
      <trkpt lat="49.17357" lon="6.9968">
        <ele>327</ele>
        <time>2011-04-10T07:09:57Z</time>
      </trkpt>
      <trkpt lat="49.17357" lon="6.99681">
        <ele>327</ele>
        <time>2011-04-10T07:09:58Z</time>
      </trkpt>
      <trkpt lat="49.17357" lon="6.99683">
        <ele>327</ele>
        <time>2011-04-10T07:09:59Z</time>
      </trkpt>
      <trkpt lat="49.17358" lon="6.99685">
        <ele>327</ele>
        <time>2011-04-10T07:10:00Z</time>
      </trkpt>
      <trkpt lat="49.17359" lon="6.99688">
        <ele>327</ele>
        <time>2011-04-10T07:10:02Z</time>
      </trkpt>
      <trkpt lat="49.1736" lon="6.9969">
        <ele>327</ele>
        <time>2011-04-10T07:10:04Z</time>
      </trkpt>
      <trkpt lat="49.17362" lon="6.99693">
        <ele>327</ele>
        <time>2011-04-10T07:10:06Z</time>
      </trkpt>
      <trkpt lat="49.17363" lon="6.99696">
        <ele>327</ele>
        <time>2011-04-10T07:10:08Z</time>
      </trkpt>
      <trkpt lat="49.17364" lon="6.99699">
        <ele>327</ele>
        <time>2011-04-10T07:10:10Z</time>
      </trkpt>
      <trkpt lat="49.17366" lon="6.99702">
        <ele>327</ele>
        <time>2011-04-10T07:10:12Z</time>
      </trkpt>
      <trkpt lat="49.17367" lon="6.99705">
        <ele>327</ele>
        <time>2011-04-10T07:10:14Z</time>
      </trkpt>
      <trkpt lat="49.17368" lon="6.99707">
        <ele>327</ele>
        <time>2011-04-10T07:10:16Z</time>
      </trkpt>
      <trkpt lat="49.17369" lon="6.99709">
        <ele>327</ele>
        <time>2011-04-10T07:10:18Z</time>
      </trkpt>
      <trkpt lat="49.17371" lon="6.99712">
        <ele>326</ele>
        <time>2011-04-10T07:10:20Z</time>
      </trkpt>
      <trkpt lat="49.17372" lon="6.99715">
        <ele>326</ele>
        <time>2011-04-10T07:10:22Z</time>
      </trkpt>
      <trkpt lat="49.17374" lon="6.99716">
        <ele>326</ele>
        <time>2011-04-10T07:10:23Z</time>
      </trkpt>
      <trkpt lat="49.17375" lon="6.99719">
        <ele>326</ele>
        <time>2011-04-10T07:10:25Z</time>
      </trkpt>
      <trkpt lat="49.17377" lon="6.9972">
        <ele>325</ele>
        <time>2011-04-10T07:10:27Z</time>
      </trkpt>
      <trkpt lat="49.17377" lon="6.99722">
        <ele>324</ele>
        <time>2011-04-10T07:10:28Z</time>
      </trkpt>
      <trkpt lat="49.17378" lon="6.99724">
        <ele>324</ele>
        <time>2011-04-10T07:10:29Z</time>
      </trkpt>
      <trkpt lat="49.17379" lon="6.99726">
        <ele>324</ele>
        <time>2011-04-10T07:10:30Z</time>
      </trkpt>
      <trkpt lat="49.17379" lon="6.99727">
        <ele>324</ele>
        <time>2011-04-10T07:10:31Z</time>
      </trkpt>
      <trkpt lat="49.17381" lon="6.99729">
        <ele>324</ele>
        <time>2011-04-10T07:10:32Z</time>
      </trkpt>
      <trkpt lat="49.17382" lon="6.99732">
        <ele>323</ele>
        <time>2011-04-10T07:10:34Z</time>
      </trkpt>
      <trkpt lat="49.17382" lon="6.99734">
        <ele>323</ele>
        <time>2011-04-10T07:10:35Z</time>
      </trkpt>
      <trkpt lat="49.17384" lon="6.99737">
        <ele>323</ele>
        <time>2011-04-10T07:10:37Z</time>
      </trkpt>
      <trkpt lat="49.17384" lon="6.99738">
        <ele>323</ele>
        <time>2011-04-10T07:10:38Z</time>
      </trkpt>
      <trkpt lat="49.17385" lon="6.9974">
        <ele>323</ele>
        <time>2011-04-10T07:10:39Z</time>
      </trkpt>
      <trkpt lat="49.17386" lon="6.99742">
        <ele>323</ele>
        <time>2011-04-10T07:10:40Z</time>
      </trkpt>
      <trkpt lat="49.17387" lon="6.99745">
        <ele>322</ele>
        <time>2011-04-10T07:10:42Z</time>
      </trkpt>
      <trkpt lat="49.17389" lon="6.99746">
        <ele>321</ele>
        <time>2011-04-10T07:10:44Z</time>
      </trkpt>
      <trkpt lat="49.17391" lon="6.99749">
        <ele>321</ele>
        <time>2011-04-10T07:10:46Z</time>
      </trkpt>
      <trkpt lat="49.17392" lon="6.99751">
        <ele>320</ele>
        <time>2011-04-10T07:10:47Z</time>
      </trkpt>
      <trkpt lat="49.17392" lon="6.99752">
        <ele>320</ele>
        <time>2011-04-10T07:10:48Z</time>
      </trkpt>
      <trkpt lat="49.17393" lon="6.99754">
        <ele>320</ele>
        <time>2011-04-10T07:10:49Z</time>
      </trkpt>
      <trkpt lat="49.17393" lon="6.99756">
        <ele>320</ele>
        <time>2011-04-10T07:10:50Z</time>
      </trkpt>
      <trkpt lat="49.17394" lon="6.99757">
        <ele>319</ele>
        <time>2011-04-10T07:10:51Z</time>
      </trkpt>
      <trkpt lat="49.17395" lon="6.99759">
        <ele>319</ele>
        <time>2011-04-10T07:10:52Z</time>
      </trkpt>
      <trkpt lat="49.17395" lon="6.99761">
        <ele>319</ele>
        <time>2011-04-10T07:10:53Z</time>
      </trkpt>
      <trkpt lat="49.17396" lon="6.99763">
        <ele>319</ele>
        <time>2011-04-10T07:10:54Z</time>
      </trkpt>
      <trkpt lat="49.17396" lon="6.99764">
        <ele>319</ele>
        <time>2011-04-10T07:10:55Z</time>
      </trkpt>
      <trkpt lat="49.17397" lon="6.99766">
        <ele>319</ele>
        <time>2011-04-10T07:10:56Z</time>
      </trkpt>
      <trkpt lat="49.17397" lon="6.99768">
        <ele>319</ele>
        <time>2011-04-10T07:10:57Z</time>
      </trkpt>
      <trkpt lat="49.17398" lon="6.9977">
        <ele>319</ele>
        <time>2011-04-10T07:10:58Z</time>
      </trkpt>
      <trkpt lat="49.17398" lon="6.99771">
        <ele>319</ele>
        <time>2011-04-10T07:10:59Z</time>
      </trkpt>
      <trkpt lat="49.17399" lon="6.99773">
        <ele>318</ele>
        <time>2011-04-10T07:11:00Z</time>
      </trkpt>
      <trkpt lat="49.174" lon="6.99776">
        <ele>318</ele>
        <time>2011-04-10T07:11:02Z</time>
      </trkpt>
      <trkpt lat="49.174" lon="6.99778">
        <ele>318</ele>
        <time>2011-04-10T07:11:03Z</time>
      </trkpt>
      <trkpt lat="49.17401" lon="6.9978">
        <ele>318</ele>
        <time>2011-04-10T07:11:04Z</time>
      </trkpt>
      <trkpt lat="49.17401" lon="6.99782">
        <ele>317</ele>
        <time>2011-04-10T07:11:05Z</time>
      </trkpt>
      <trkpt lat="49.17401" lon="6.99783">
        <ele>317</ele>
        <time>2011-04-10T07:11:06Z</time>
      </trkpt>
      <trkpt lat="49.17402" lon="6.99787">
        <ele>317</ele>
        <time>2011-04-10T07:11:08Z</time>
      </trkpt>
      <trkpt lat="49.17402" lon="6.99788">
        <ele>316</ele>
        <time>2011-04-10T07:11:09Z</time>
      </trkpt>
      <trkpt lat="49.17402" lon="6.9979">
        <ele>316</ele>
        <time>2011-04-10T07:11:10Z</time>
      </trkpt>
      <trkpt lat="49.17403" lon="6.99792">
        <ele>316</ele>
        <time>2011-04-10T07:11:11Z</time>
      </trkpt>
      <trkpt lat="49.17403" lon="6.99794">
        <ele>316</ele>
        <time>2011-04-10T07:11:12Z</time>
      </trkpt>
      <trkpt lat="49.17404" lon="6.99796">
        <ele>316</ele>
        <time>2011-04-10T07:11:13Z</time>
      </trkpt>
      <trkpt lat="49.17404" lon="6.99797">
        <ele>316</ele>
        <time>2011-04-10T07:11:14Z</time>
      </trkpt>
      <trkpt lat="49.17405" lon="6.99799">
        <ele>316</ele>
        <time>2011-04-10T07:11:15Z</time>
      </trkpt>
      <trkpt lat="49.17405" lon="6.99801">
        <ele>316</ele>
        <time>2011-04-10T07:11:16Z</time>
      </trkpt>
      <trkpt lat="49.17405" lon="6.99803">
        <ele>316</ele>
        <time>2011-04-10T07:11:17Z</time>
      </trkpt>
      <trkpt lat="49.17406" lon="6.99805">
        <ele>316</ele>
        <time>2011-04-10T07:11:18Z</time>
      </trkpt>
      <trkpt lat="49.17406" lon="6.99807">
        <ele>315</ele>
        <time>2011-04-10T07:11:19Z</time>
      </trkpt>
      <trkpt lat="49.17406" lon="6.99809">
        <ele>315</ele>
        <time>2011-04-10T07:11:20Z</time>
      </trkpt>
      <trkpt lat="49.17406" lon="6.99811">
        <ele>315</ele>
        <time>2011-04-10T07:11:21Z</time>
      </trkpt>
      <trkpt lat="49.17407" lon="6.99814">
        <ele>314</ele>
        <time>2011-04-10T07:11:23Z</time>
      </trkpt>
      <trkpt lat="49.17408" lon="6.99817">
        <ele>314</ele>
        <time>2011-04-10T07:11:25Z</time>
      </trkpt>
      <trkpt lat="49.17408" lon="6.99819">
        <ele>314</ele>
        <time>2011-04-10T07:11:26Z</time>
      </trkpt>
      <trkpt lat="49.17409" lon="6.9982">
        <ele>314</ele>
        <time>2011-04-10T07:11:27Z</time>
      </trkpt>
      <trkpt lat="49.1741" lon="6.99822">
        <ele>314</ele>
        <time>2011-04-10T07:11:28Z</time>
      </trkpt>
      <trkpt lat="49.1741" lon="6.99824">
        <ele>314</ele>
        <time>2011-04-10T07:11:29Z</time>
      </trkpt>
      <trkpt lat="49.1741" lon="6.99825">
        <ele>313</ele>
        <time>2011-04-10T07:11:30Z</time>
      </trkpt>
      <trkpt lat="49.17411" lon="6.99827">
        <ele>313</ele>
        <time>2011-04-10T07:11:31Z</time>
      </trkpt>
      <trkpt lat="49.17411" lon="6.99829">
        <ele>313</ele>
        <time>2011-04-10T07:11:32Z</time>
      </trkpt>
      <trkpt lat="49.17411" lon="6.99831">
        <ele>313</ele>
        <time>2011-04-10T07:11:33Z</time>
      </trkpt>
      <trkpt lat="49.17412" lon="6.99832">
        <ele>313</ele>
        <time>2011-04-10T07:11:34Z</time>
      </trkpt>
      <trkpt lat="49.17412" lon="6.99834">
        <ele>313</ele>
        <time>2011-04-10T07:11:35Z</time>
      </trkpt>
      <trkpt lat="49.17413" lon="6.99836">
        <ele>313</ele>
        <time>2011-04-10T07:11:36Z</time>
      </trkpt>
      <trkpt lat="49.17414" lon="6.99839">
        <ele>312</ele>
        <time>2011-04-10T07:11:38Z</time>
      </trkpt>
      <trkpt lat="49.17414" lon="6.99841">
        <ele>312</ele>
        <time>2011-04-10T07:11:39Z</time>
      </trkpt>
      <trkpt lat="49.17415" lon="6.99843">
        <ele>312</ele>
        <time>2011-04-10T07:11:40Z</time>
      </trkpt>
      <trkpt lat="49.17415" lon="6.99845">
        <ele>312</ele>
        <time>2011-04-10T07:11:41Z</time>
      </trkpt>
      <trkpt lat="49.17416" lon="6.99846">
        <ele>312</ele>
        <time>2011-04-10T07:11:42Z</time>
      </trkpt>
      <trkpt lat="49.17416" lon="6.99848">
        <ele>311</ele>
        <time>2011-04-10T07:11:43Z</time>
      </trkpt>
      <trkpt lat="49.17417" lon="6.9985">
        <ele>311</ele>
        <time>2011-04-10T07:11:44Z</time>
      </trkpt>
      <trkpt lat="49.17417" lon="6.99851">
        <ele>311</ele>
        <time>2011-04-10T07:11:45Z</time>
      </trkpt>
      <trkpt lat="49.17419" lon="6.99854">
        <ele>310</ele>
        <time>2011-04-10T07:11:47Z</time>
      </trkpt>
      <trkpt lat="49.1742" lon="6.99857">
        <ele>310</ele>
        <time>2011-04-10T07:11:49Z</time>
      </trkpt>
      <trkpt lat="49.17422" lon="6.9986">
        <ele>310</ele>
        <time>2011-04-10T07:11:51Z</time>
      </trkpt>
      <trkpt lat="49.17423" lon="6.99863">
        <ele>309</ele>
        <time>2011-04-10T07:11:53Z</time>
      </trkpt>
      <trkpt lat="49.17424" lon="6.99865">
        <ele>309</ele>
        <time>2011-04-10T07:11:54Z</time>
      </trkpt>
      <trkpt lat="49.17425" lon="6.99866">
        <ele>309</ele>
        <time>2011-04-10T07:11:55Z</time>
      </trkpt>
      <trkpt lat="49.17427" lon="6.99869">
        <ele>309</ele>
        <time>2011-04-10T07:11:57Z</time>
      </trkpt>
      <trkpt lat="49.17429" lon="6.99871">
        <ele>308</ele>
        <time>2011-04-10T07:11:59Z</time>
      </trkpt>
      <trkpt lat="49.1743" lon="6.99874">
        <ele>308</ele>
        <time>2011-04-10T07:12:01Z</time>
      </trkpt>
      <trkpt lat="49.17432" lon="6.99876">
        <ele>307</ele>
        <time>2011-04-10T07:12:03Z</time>
      </trkpt>
      <trkpt lat="49.17433" lon="6.99879">
        <ele>307</ele>
        <time>2011-04-10T07:12:05Z</time>
      </trkpt>
      <trkpt lat="49.17435" lon="6.99882">
        <ele>306</ele>
        <time>2011-04-10T07:12:07Z</time>
      </trkpt>
      <trkpt lat="49.17437" lon="6.99884">
        <ele>306</ele>
        <time>2011-04-10T07:12:09Z</time>
      </trkpt>
      <trkpt lat="49.17438" lon="6.99886">
        <ele>305</ele>
        <time>2011-04-10T07:12:10Z</time>
      </trkpt>
      <trkpt lat="49.1744" lon="6.99888">
        <ele>305</ele>
        <time>2011-04-10T07:12:11Z</time>
      </trkpt>
      <trkpt lat="49.17441" lon="6.99891">
        <ele>304</ele>
        <time>2011-04-10T07:12:14Z</time>
      </trkpt>
      <trkpt lat="49.17443" lon="6.99894">
        <ele>304</ele>
        <time>2011-04-10T07:12:16Z</time>
      </trkpt>
      <trkpt lat="49.17445" lon="6.99896">
        <ele>303</ele>
        <time>2011-04-10T07:12:18Z</time>
      </trkpt>
      <trkpt lat="49.17447" lon="6.99899">
        <ele>303</ele>
        <time>2011-04-10T07:12:20Z</time>
      </trkpt>
      <trkpt lat="49.17448" lon="6.99901">
        <ele>302</ele>
        <time>2011-04-10T07:12:22Z</time>
      </trkpt>
      <trkpt lat="49.1745" lon="6.99904">
        <ele>302</ele>
        <time>2011-04-10T07:12:24Z</time>
      </trkpt>
      <trkpt lat="49.17452" lon="6.99906">
        <ele>301</ele>
        <time>2011-04-10T07:12:26Z</time>
      </trkpt>
      <trkpt lat="49.17453" lon="6.99909">
        <ele>301</ele>
        <time>2011-04-10T07:12:28Z</time>
      </trkpt>
      <trkpt lat="49.17455" lon="6.99912">
        <ele>301</ele>
        <time>2011-04-10T07:12:29Z</time>
      </trkpt>
      <trkpt lat="49.17456" lon="6.99914">
        <ele>300</ele>
        <time>2011-04-10T07:12:31Z</time>
      </trkpt>
      <trkpt lat="49.17458" lon="6.99916">
        <ele>300</ele>
        <time>2011-04-10T07:12:33Z</time>
      </trkpt>
      <trkpt lat="49.17459" lon="6.99919">
        <ele>299</ele>
        <time>2011-04-10T07:12:35Z</time>
      </trkpt>
      <trkpt lat="49.1746" lon="6.99921">
        <ele>299</ele>
        <time>2011-04-10T07:12:36Z</time>
      </trkpt>
      <trkpt lat="49.17462" lon="6.99923">
        <ele>299</ele>
        <time>2011-04-10T07:12:38Z</time>
      </trkpt>
      <trkpt lat="49.17464" lon="6.99926">
        <ele>298</ele>
        <time>2011-04-10T07:12:40Z</time>
      </trkpt>
      <trkpt lat="49.17465" lon="6.99927">
        <ele>298</ele>
        <time>2011-04-10T07:12:40Z</time>
      </trkpt>
      <trkpt lat="49.17466" lon="6.9993">
        <ele>298</ele>
        <time>2011-04-10T07:12:42Z</time>
      </trkpt>
      <trkpt lat="49.17468" lon="6.99933">
        <ele>297</ele>
        <time>2011-04-10T07:12:45Z</time>
      </trkpt>
      <trkpt lat="49.17469" lon="6.99934">
        <ele>297</ele>
        <time>2011-04-10T07:12:46Z</time>
      </trkpt>
      <trkpt lat="49.17471" lon="6.99937">
        <ele>297</ele>
        <time>2011-04-10T07:12:47Z</time>
      </trkpt>
      <trkpt lat="49.17472" lon="6.9994">
        <ele>297</ele>
        <time>2011-04-10T07:12:49Z</time>
      </trkpt>
      <trkpt lat="49.17474" lon="6.99943">
        <ele>297</ele>
        <time>2011-04-10T07:12:52Z</time>
      </trkpt>
      <trkpt lat="49.17475" lon="6.99945">
        <ele>297</ele>
        <time>2011-04-10T07:12:53Z</time>
      </trkpt>
      <trkpt lat="49.17476" lon="6.99947">
        <ele>297</ele>
        <time>2011-04-10T07:12:53Z</time>
      </trkpt>
      <trkpt lat="49.17477" lon="6.99948">
        <ele>297</ele>
        <time>2011-04-10T07:12:55Z</time>
      </trkpt>
      <trkpt lat="49.17477" lon="6.9995">
        <ele>297</ele>
        <time>2011-04-10T07:12:56Z</time>
      </trkpt>
      <trkpt lat="49.17478" lon="6.99952">
        <ele>297</ele>
        <time>2011-04-10T07:12:57Z</time>
      </trkpt>
      <trkpt lat="49.1748" lon="6.99955">
        <ele>296</ele>
        <time>2011-04-10T07:12:59Z</time>
      </trkpt>
      <trkpt lat="49.17481" lon="6.99957">
        <ele>296</ele>
        <time>2011-04-10T07:13:00Z</time>
      </trkpt>
      <trkpt lat="49.17482" lon="6.99959">
        <ele>296</ele>
        <time>2011-04-10T07:13:01Z</time>
      </trkpt>
      <trkpt lat="49.17482" lon="6.9996">
        <ele>296</ele>
        <time>2011-04-10T07:13:02Z</time>
      </trkpt>
      <trkpt lat="49.17482" lon="6.99962">
        <ele>296</ele>
        <time>2011-04-10T07:13:03Z</time>
      </trkpt>
      <trkpt lat="49.17484" lon="6.99965">
        <ele>296</ele>
        <time>2011-04-10T07:13:04Z</time>
      </trkpt>
      <trkpt lat="49.17485" lon="6.99968">
        <ele>295</ele>
        <time>2011-04-10T07:13:07Z</time>
      </trkpt>
      <trkpt lat="49.17486" lon="6.9997">
        <ele>295</ele>
        <time>2011-04-10T07:13:08Z</time>
      </trkpt>
      <trkpt lat="49.17487" lon="6.99971">
        <ele>295</ele>
        <time>2011-04-10T07:13:09Z</time>
      </trkpt>
      <trkpt lat="49.17488" lon="6.99973">
        <ele>295</ele>
        <time>2011-04-10T07:13:10Z</time>
      </trkpt>
      <trkpt lat="49.17488" lon="6.99975">
        <ele>295</ele>
        <time>2011-04-10T07:13:11Z</time>
      </trkpt>
      <trkpt lat="49.17489" lon="6.99977">
        <ele>295</ele>
        <time>2011-04-10T07:13:12Z</time>
      </trkpt>
      <trkpt lat="49.17491" lon="6.9998">
        <ele>294</ele>
        <time>2011-04-10T07:13:14Z</time>
      </trkpt>
      <trkpt lat="49.17491" lon="6.99982">
        <ele>294</ele>
        <time>2011-04-10T07:13:15Z</time>
      </trkpt>
      <trkpt lat="49.17492" lon="6.99983">
        <ele>294</ele>
        <time>2011-04-10T07:13:16Z</time>
      </trkpt>
      <trkpt lat="49.17494" lon="6.99986">
        <ele>293</ele>
        <time>2011-04-10T07:13:18Z</time>
      </trkpt>
      <trkpt lat="49.17495" lon="6.9999">
        <ele>293</ele>
        <time>2011-04-10T07:13:20Z</time>
      </trkpt>
      <trkpt lat="49.17496" lon="6.99992">
        <ele>292</ele>
        <time>2011-04-10T07:13:22Z</time>
      </trkpt>
      <trkpt lat="49.17497" lon="6.99995">
        <ele>292</ele>
        <time>2011-04-10T07:13:24Z</time>
      </trkpt>
      <trkpt lat="49.17498" lon="6.99998">
        <ele>291</ele>
        <time>2011-04-10T07:13:26Z</time>
      </trkpt>
      <trkpt lat="49.175" lon="6.99999">
        <ele>290</ele>
        <time>2011-04-10T07:13:27Z</time>
      </trkpt>
      <trkpt lat="49.175" lon="7.00001">
        <ele>290</ele>
        <time>2011-04-10T07:13:28Z</time>
      </trkpt>
      <trkpt lat="49.17501" lon="7.00004">
        <ele>290</ele>
        <time>2011-04-10T07:13:30Z</time>
      </trkpt>
      <trkpt lat="49.17502" lon="7.00006">
        <ele>290</ele>
        <time>2011-04-10T07:13:31Z</time>
      </trkpt>
      <trkpt lat="49.17503" lon="7.00008">
        <ele>290</ele>
        <time>2011-04-10T07:13:32Z</time>
      </trkpt>
      <trkpt lat="49.17503" lon="7.0001">
        <ele>290</ele>
        <time>2011-04-10T07:13:33Z</time>
      </trkpt>
      <trkpt lat="49.17504" lon="7.00012">
        <ele>289</ele>
        <time>2011-04-10T07:13:34Z</time>
      </trkpt>
      <trkpt lat="49.17505" lon="7.00013">
        <ele>289</ele>
        <time>2011-04-10T07:13:35Z</time>
      </trkpt>
      <trkpt lat="49.17506" lon="7.00015">
        <ele>289</ele>
        <time>2011-04-10T07:13:36Z</time>
      </trkpt>
      <trkpt lat="49.17507" lon="7.00018">
        <ele>288</ele>
        <time>2011-04-10T07:13:37Z</time>
      </trkpt>
      <trkpt lat="49.17508" lon="7.0002">
        <ele>288</ele>
        <time>2011-04-10T07:13:39Z</time>
      </trkpt>
      <trkpt lat="49.17509" lon="7.00022">
        <ele>288</ele>
        <time>2011-04-10T07:13:39Z</time>
      </trkpt>
      <trkpt lat="49.1751" lon="7.00024">
        <ele>287</ele>
        <time>2011-04-10T07:13:42Z</time>
      </trkpt>
      <trkpt lat="49.17511" lon="7.00026">
        <ele>287</ele>
        <time>2011-04-10T07:13:43Z</time>
      </trkpt>
      <trkpt lat="49.17512" lon="7.00028">
        <ele>287</ele>
        <time>2011-04-10T07:13:44Z</time>
      </trkpt>
      <trkpt lat="49.17513" lon="7.00031">
        <ele>287</ele>
        <time>2011-04-10T07:13:45Z</time>
      </trkpt>
      <trkpt lat="49.17514" lon="7.00033">
        <ele>287</ele>
        <time>2011-04-10T07:13:47Z</time>
      </trkpt>
      <trkpt lat="49.17514" lon="7.00035">
        <ele>287</ele>
        <time>2011-04-10T07:13:48Z</time>
      </trkpt>
      <trkpt lat="49.17515" lon="7.00037">
        <ele>286</ele>
        <time>2011-04-10T07:13:49Z</time>
      </trkpt>
      <trkpt lat="49.17515" lon="7.00039">
        <ele>286</ele>
        <time>2011-04-10T07:13:50Z</time>
      </trkpt>
      <trkpt lat="49.17516" lon="7.00041">
        <ele>286</ele>
        <time>2011-04-10T07:13:51Z</time>
      </trkpt>
      <trkpt lat="49.17517" lon="7.00044">
        <ele>286</ele>
        <time>2011-04-10T07:13:53Z</time>
      </trkpt>
      <trkpt lat="49.17518" lon="7.00047">
        <ele>285</ele>
        <time>2011-04-10T07:13:54Z</time>
      </trkpt>
      <trkpt lat="49.17519" lon="7.00048">
        <ele>285</ele>
        <time>2011-04-10T07:13:55Z</time>
      </trkpt>
      <trkpt lat="49.17521" lon="7.00051">
        <ele>285</ele>
        <time>2011-04-10T07:13:58Z</time>
      </trkpt>
      <trkpt lat="49.17522" lon="7.00054">
        <ele>284</ele>
        <time>2011-04-10T07:13:59Z</time>
      </trkpt>
      <trkpt lat="49.17523" lon="7.00056">
        <ele>284</ele>
        <time>2011-04-10T07:14:00Z</time>
      </trkpt>
      <trkpt lat="49.17524" lon="7.00059">
        <ele>284</ele>
        <time>2011-04-10T07:14:03Z</time>
      </trkpt>
      <trkpt lat="49.17525" lon="7.00061">
        <ele>284</ele>
        <time>2011-04-10T07:14:03Z</time>
      </trkpt>
      <trkpt lat="49.17526" lon="7.00064">
        <ele>283</ele>
        <time>2011-04-10T07:14:06Z</time>
      </trkpt>
      <trkpt lat="49.17528" lon="7.00067">
        <ele>283</ele>
        <time>2011-04-10T07:14:08Z</time>
      </trkpt>
      <trkpt lat="49.17529" lon="7.00069">
        <ele>282</ele>
        <time>2011-04-10T07:14:08Z</time>
      </trkpt>
      <trkpt lat="49.1753" lon="7.00072">
        <ele>281</ele>
        <time>2011-04-10T07:14:10Z</time>
      </trkpt>
      <trkpt lat="49.17531" lon="7.00075">
        <ele>281</ele>
        <time>2011-04-10T07:14:13Z</time>
      </trkpt>
      <trkpt lat="49.17532" lon="7.00077">
        <ele>280</ele>
        <time>2011-04-10T07:14:14Z</time>
      </trkpt>
      <trkpt lat="49.17533" lon="7.00079">
        <ele>280</ele>
        <time>2011-04-10T07:14:16Z</time>
      </trkpt>
      <trkpt lat="49.17533" lon="7.00081">
        <ele>279</ele>
        <time>2011-04-10T07:14:16Z</time>
      </trkpt>
      <trkpt lat="49.17533" lon="7.00083">
        <ele>278</ele>
        <time>2011-04-10T07:14:18Z</time>
      </trkpt>
      <trkpt lat="49.17534" lon="7.00085">
        <ele>278</ele>
        <time>2011-04-10T07:14:19Z</time>
      </trkpt>
      <trkpt lat="49.17534" lon="7.00086">
        <ele>278</ele>
        <time>2011-04-10T07:14:19Z</time>
      </trkpt>
      <trkpt lat="49.17535" lon="7.00088">
        <ele>277</ele>
        <time>2011-04-10T07:14:20Z</time>
      </trkpt>
      <trkpt lat="49.17535" lon="7.0009">
        <ele>277</ele>
        <time>2011-04-10T07:14:21Z</time>
      </trkpt>
      <trkpt lat="49.17535" lon="7.00092">
        <ele>277</ele>
        <time>2011-04-10T07:14:23Z</time>
      </trkpt>
      <trkpt lat="49.17535" lon="7.00094">
        <ele>277</ele>
        <time>2011-04-10T07:14:24Z</time>
      </trkpt>
      <trkpt lat="49.17536" lon="7.00096">
        <ele>277</ele>
        <time>2011-04-10T07:14:24Z</time>
      </trkpt>
      <trkpt lat="49.17536" lon="7.00098">
        <ele>276</ele>
        <time>2011-04-10T07:14:26Z</time>
      </trkpt>
      <trkpt lat="49.17536" lon="7.001">
        <ele>276</ele>
        <time>2011-04-10T07:14:27Z</time>
      </trkpt>
      <trkpt lat="49.17537" lon="7.00102">
        <ele>276</ele>
        <time>2011-04-10T07:14:27Z</time>
      </trkpt>
      <trkpt lat="49.17538" lon="7.00103">
        <ele>276</ele>
        <time>2011-04-10T07:14:29Z</time>
      </trkpt>
      <trkpt lat="49.17538" lon="7.00105">
        <ele>276</ele>
        <time>2011-04-10T07:14:30Z</time>
      </trkpt>
      <trkpt lat="49.17539" lon="7.00107">
        <ele>276</ele>
        <time>2011-04-10T07:14:31Z</time>
      </trkpt>
      <trkpt lat="49.17539" lon="7.00109">
        <ele>276</ele>
        <time>2011-04-10T07:14:31Z</time>
      </trkpt>
      <trkpt lat="49.17539" lon="7.00111">
        <ele>275</ele>
        <time>2011-04-10T07:14:32Z</time>
      </trkpt>
      <trkpt lat="49.17539" lon="7.00113">
        <ele>275</ele>
        <time>2011-04-10T07:14:33Z</time>
      </trkpt>
      <trkpt lat="49.17539" lon="7.00115">
        <ele>275</ele>
        <time>2011-04-10T07:14:35Z</time>
      </trkpt>
      <trkpt lat="49.1754" lon="7.00117">
        <ele>275</ele>
        <time>2011-04-10T07:14:35Z</time>
      </trkpt>
      <trkpt lat="49.1754" lon="7.00119">
        <ele>275</ele>
        <time>2011-04-10T07:14:36Z</time>
      </trkpt>
      <trkpt lat="49.1754" lon="7.0012">
        <ele>275</ele>
        <time>2011-04-10T07:14:38Z</time>
      </trkpt>
      <trkpt lat="49.1754" lon="7.00122">
        <ele>274</ele>
        <time>2011-04-10T07:14:38Z</time>
      </trkpt>
      <trkpt lat="49.1754" lon="7.00124">
        <ele>274</ele>
        <time>2011-04-10T07:14:39Z</time>
      </trkpt>
      <trkpt lat="49.17541" lon="7.00126">
        <ele>274</ele>
        <time>2011-04-10T07:14:41Z</time>
      </trkpt>
      <trkpt lat="49.17541" lon="7.00128">
        <ele>274</ele>
        <time>2011-04-10T07:14:42Z</time>
      </trkpt>
      <trkpt lat="49.17541" lon="7.0013">
        <ele>273</ele>
        <time>2011-04-10T07:14:43Z</time>
      </trkpt>
      <trkpt lat="49.17541" lon="7.00132">
        <ele>273</ele>
        <time>2011-04-10T07:14:44Z</time>
      </trkpt>
      <trkpt lat="49.17542" lon="7.00134">
        <ele>273</ele>
        <time>2011-04-10T07:14:44Z</time>
      </trkpt>
      <trkpt lat="49.17542" lon="7.00135">
        <ele>273</ele>
        <time>2011-04-10T07:14:46Z</time>
      </trkpt>
      <trkpt lat="49.17542" lon="7.00137">
        <ele>273</ele>
        <time>2011-04-10T07:14:47Z</time>
      </trkpt>
      <trkpt lat="49.17542" lon="7.00139">
        <ele>273</ele>
        <time>2011-04-10T07:14:47Z</time>
      </trkpt>
      <trkpt lat="49.17542" lon="7.00141">
        <ele>273</ele>
        <time>2011-04-10T07:14:48Z</time>
      </trkpt>
      <trkpt lat="49.17543" lon="7.00143">
        <ele>273</ele>
        <time>2011-04-10T07:14:50Z</time>
      </trkpt>
      <trkpt lat="49.17543" lon="7.00145">
        <ele>273</ele>
        <time>2011-04-10T07:14:52Z</time>
      </trkpt>
      <trkpt lat="49.17544" lon="7.00146">
        <ele>273</ele>
        <time>2011-04-10T07:14:56Z</time>
      </trkpt>
      <trkpt lat="49.17545" lon="7.00149">
        <ele>273</ele>
        <time>2011-04-10T07:14:58Z</time>
      </trkpt>
      <trkpt lat="49.17545" lon="7.00151">
        <ele>273</ele>
        <time>2011-04-10T07:14:58Z</time>
      </trkpt>
      <trkpt lat="49.17545" lon="7.00153">
        <ele>273</ele>
        <time>2011-04-10T07:14:59Z</time>
      </trkpt>
      <trkpt lat="49.17546" lon="7.00155">
        <ele>273</ele>
        <time>2011-04-10T07:15:00Z</time>
      </trkpt>
      <trkpt lat="49.17546" lon="7.00157">
        <ele>273</ele>
        <time>2011-04-10T07:15:01Z</time>
      </trkpt>
      <trkpt lat="49.17546" lon="7.00159">
        <ele>273</ele>
        <time>2011-04-10T07:15:02Z</time>
      </trkpt>
      <trkpt lat="49.17547" lon="7.00161">
        <ele>273</ele>
        <time>2011-04-10T07:15:04Z</time>
      </trkpt>
      <trkpt lat="49.17548" lon="7.00162">
        <ele>272</ele>
        <time>2011-04-10T07:15:04Z</time>
      </trkpt>
      <trkpt lat="49.17548" lon="7.00164">
        <ele>272</ele>
        <time>2011-04-10T07:15:05Z</time>
      </trkpt>
      <trkpt lat="49.17549" lon="7.00166">
        <ele>272</ele>
        <time>2011-04-10T07:15:06Z</time>
      </trkpt>
      <trkpt lat="49.1755" lon="7.00168">
        <ele>272</ele>
        <time>2011-04-10T07:15:07Z</time>
      </trkpt>
      <trkpt lat="49.1755" lon="7.0017">
        <ele>271</ele>
        <time>2011-04-10T07:15:09Z</time>
      </trkpt>
      <trkpt lat="49.17551" lon="7.00172">
        <ele>271</ele>
        <time>2011-04-10T07:15:09Z</time>
      </trkpt>
      <trkpt lat="49.17551" lon="7.00173">
        <ele>271</ele>
        <time>2011-04-10T07:15:10Z</time>
      </trkpt>
      <trkpt lat="49.17551" lon="7.00175">
        <ele>271</ele>
        <time>2011-04-10T07:15:11Z</time>
      </trkpt>
      <trkpt lat="49.17552" lon="7.00178">
        <ele>270</ele>
        <time>2011-04-10T07:15:14Z</time>
      </trkpt>
      <trkpt lat="49.17553" lon="7.0018">
        <ele>270</ele>
        <time>2011-04-10T07:15:14Z</time>
      </trkpt>
      <trkpt lat="49.17553" lon="7.00182">
        <ele>270</ele>
        <time>2011-04-10T07:15:16Z</time>
      </trkpt>
      <trkpt lat="49.17554" lon="7.00184">
        <ele>270</ele>
        <time>2011-04-10T07:15:16Z</time>
      </trkpt>
      <trkpt lat="49.17554" lon="7.00186">
        <ele>270</ele>
        <time>2011-04-10T07:15:17Z</time>
      </trkpt>
      <trkpt lat="49.17555" lon="7.00188">
        <ele>270</ele>
        <time>2011-04-10T07:15:18Z</time>
      </trkpt>
      <trkpt lat="49.17555" lon="7.0019">
        <ele>270</ele>
        <time>2011-04-10T07:15:20Z</time>
      </trkpt>
      <trkpt lat="49.17556" lon="7.00193">
        <ele>269</ele>
        <time>2011-04-10T07:15:21Z</time>
      </trkpt>
      <trkpt lat="49.17557" lon="7.00197">
        <ele>269</ele>
        <time>2011-04-10T07:15:23Z</time>
      </trkpt>
      <trkpt lat="49.17558" lon="7.00199">
        <ele>268</ele>
        <time>2011-04-10T07:15:26Z</time>
      </trkpt>
      <trkpt lat="49.17559" lon="7.00201">
        <ele>268</ele>
        <time>2011-04-10T07:15:26Z</time>
      </trkpt>
      <trkpt lat="49.17559" lon="7.00205">
        <ele>267</ele>
        <time>2011-04-10T07:15:28Z</time>
      </trkpt>
      <trkpt lat="49.1756" lon="7.00206">
        <ele>266</ele>
        <time>2011-04-10T07:15:29Z</time>
      </trkpt>
      <trkpt lat="49.1756" lon="7.00208">
        <ele>266</ele>
        <time>2011-04-10T07:15:31Z</time>
      </trkpt>
      <trkpt lat="49.17561" lon="7.0021">
        <ele>266</ele>
        <time>2011-04-10T07:15:32Z</time>
      </trkpt>
      <trkpt lat="49.17561" lon="7.00212">
        <ele>266</ele>
        <time>2011-04-10T07:15:32Z</time>
      </trkpt>
      <trkpt lat="49.17562" lon="7.00213">
        <ele>266</ele>
        <time>2011-04-10T07:15:33Z</time>
      </trkpt>
      <trkpt lat="49.17564" lon="7.00215">
        <ele>266</ele>
        <time>2011-04-10T07:15:34Z</time>
      </trkpt>
      <trkpt lat="49.17565" lon="7.00216">
        <ele>266</ele>
        <time>2011-04-10T07:15:36Z</time>
      </trkpt>
      <trkpt lat="49.17565" lon="7.00218">
        <ele>266</ele>
        <time>2011-04-10T07:15:36Z</time>
      </trkpt>
      <trkpt lat="49.17566" lon="7.0022">
        <ele>266</ele>
        <time>2011-04-10T07:15:37Z</time>
      </trkpt>
      <trkpt lat="49.17566" lon="7.00222">
        <ele>266</ele>
        <time>2011-04-10T07:15:39Z</time>
      </trkpt>
      <trkpt lat="49.17567" lon="7.00224">
        <ele>266</ele>
        <time>2011-04-10T07:15:39Z</time>
      </trkpt>
      <trkpt lat="49.17568" lon="7.00226">
        <ele>266</ele>
        <time>2011-04-10T07:15:41Z</time>
      </trkpt>
      <trkpt lat="49.17569" lon="7.00229">
        <ele>265</ele>
        <time>2011-04-10T07:15:42Z</time>
      </trkpt>
      <trkpt lat="49.1757" lon="7.00231">
        <ele>265</ele>
        <time>2011-04-10T07:15:43Z</time>
      </trkpt>
      <trkpt lat="49.1757" lon="7.00232">
        <ele>265</ele>
        <time>2011-04-10T07:15:44Z</time>
      </trkpt>
      <trkpt lat="49.17571" lon="7.00234">
        <ele>265</ele>
        <time>2011-04-10T07:15:46Z</time>
      </trkpt>
      <trkpt lat="49.17572" lon="7.00236">
        <ele>264</ele>
        <time>2011-04-10T07:15:46Z</time>
      </trkpt>
      <trkpt lat="49.17572" lon="7.00237">
        <ele>264</ele>
        <time>2011-04-10T07:15:47Z</time>
      </trkpt>
      <trkpt lat="49.17574" lon="7.00241">
        <ele>264</ele>
        <time>2011-04-10T07:15:49Z</time>
      </trkpt>
      <trkpt lat="49.17575" lon="7.00243">
        <ele>264</ele>
        <time>2011-04-10T07:15:51Z</time>
      </trkpt>
      <trkpt lat="49.17575" lon="7.00245">
        <ele>264</ele>
        <time>2011-04-10T07:15:51Z</time>
      </trkpt>
      <trkpt lat="49.17576" lon="7.00247">
        <ele>264</ele>
        <time>2011-04-10T07:15:52Z</time>
      </trkpt>
      <trkpt lat="49.17578" lon="7.0025">
        <ele>264</ele>
        <time>2011-04-10T07:15:54Z</time>
      </trkpt>
      <trkpt lat="49.17579" lon="7.00251">
        <ele>264</ele>
        <time>2011-04-10T07:15:56Z</time>
      </trkpt>
      <trkpt lat="49.17581" lon="7.00254">
        <ele>264</ele>
        <time>2011-04-10T07:15:57Z</time>
      </trkpt>
      <trkpt lat="49.17582" lon="7.00257">
        <ele>264</ele>
        <time>2011-04-10T07:15:59Z</time>
      </trkpt>
      <trkpt lat="49.17584" lon="7.0026">
        <ele>263</ele>
        <time>2011-04-10T07:16:02Z</time>
      </trkpt>
      <trkpt lat="49.17586" lon="7.00263">
        <ele>263</ele>
        <time>2011-04-10T07:16:03Z</time>
      </trkpt>
      <trkpt lat="49.17588" lon="7.00266">
        <ele>263</ele>
        <time>2011-04-10T07:16:05Z</time>
      </trkpt>
      <trkpt lat="49.1759" lon="7.00268">
        <ele>263</ele>
        <time>2011-04-10T07:16:08Z</time>
      </trkpt>
      <trkpt lat="49.17591" lon="7.0027">
        <ele>263</ele>
        <time>2011-04-10T07:16:08Z</time>
      </trkpt>
      <trkpt lat="49.17592" lon="7.00271">
        <ele>263</ele>
        <time>2011-04-10T07:16:09Z</time>
      </trkpt>
      <trkpt lat="49.17593" lon="7.00273">
        <ele>262</ele>
        <time>2011-04-10T07:16:10Z</time>
      </trkpt>
      <trkpt lat="49.17595" lon="7.00275">
        <ele>262</ele>
        <time>2011-04-10T07:16:13Z</time>
      </trkpt>
      <trkpt lat="49.17596" lon="7.00276">
        <ele>262</ele>
        <time>2011-04-10T07:16:13Z</time>
      </trkpt>
      <trkpt lat="49.17598" lon="7.00277">
        <ele>261</ele>
        <time>2011-04-10T07:16:14Z</time>
      </trkpt>
      <trkpt lat="49.17599" lon="7.00278">
        <ele>261</ele>
        <time>2011-04-10T07:16:15Z</time>
      </trkpt>
      <trkpt lat="49.17601" lon="7.00279">
        <ele>261</ele>
        <time>2011-04-10T07:16:16Z</time>
      </trkpt>
      <trkpt lat="49.17602" lon="7.0028">
        <ele>260</ele>
        <time>2011-04-10T07:16:18Z</time>
      </trkpt>
      <trkpt lat="49.17603" lon="7.00281">
        <ele>260</ele>
        <time>2011-04-10T07:16:18Z</time>
      </trkpt>
      <trkpt lat="49.17605" lon="7.00282">
        <ele>260</ele>
        <time>2011-04-10T07:16:20Z</time>
      </trkpt>
      <trkpt lat="49.17606" lon="7.00282">
        <ele>260</ele>
        <time>2011-04-10T07:16:20Z</time>
      </trkpt>
      <trkpt lat="49.17608" lon="7.00282">
        <ele>260</ele>
        <time>2011-04-10T07:16:23Z</time>
      </trkpt>
      <trkpt lat="49.17609" lon="7.00281">
        <ele>260</ele>
        <time>2011-04-10T07:16:23Z</time>
      </trkpt>
      <trkpt lat="49.1761" lon="7.00281">
        <ele>260</ele>
        <time>2011-04-10T07:16:24Z</time>
      </trkpt>
      <trkpt lat="49.17612" lon="7.00281">
        <ele>260</ele>
        <time>2011-04-10T07:16:25Z</time>
      </trkpt>
      <trkpt lat="49.17613" lon="7.0028">
        <ele>260</ele>
        <time>2011-04-10T07:16:26Z</time>
      </trkpt>
      <trkpt lat="49.17614" lon="7.00279">
        <ele>260</ele>
        <time>2011-04-10T07:16:28Z</time>
      </trkpt>
      <trkpt lat="49.17616" lon="7.00279">
        <ele>260</ele>
        <time>2011-04-10T07:16:28Z</time>
      </trkpt>
      <trkpt lat="49.17617" lon="7.00278">
        <ele>260</ele>
        <time>2011-04-10T07:16:29Z</time>
      </trkpt>
      <trkpt lat="49.1762" lon="7.00277">
        <ele>260</ele>
        <time>2011-04-10T07:16:30Z</time>
      </trkpt>
      <trkpt lat="49.17621" lon="7.00276">
        <ele>260</ele>
        <time>2011-04-10T07:16:31Z</time>
      </trkpt>
      <trkpt lat="49.17623" lon="7.00276">
        <ele>260</ele>
        <time>2011-04-10T07:16:32Z</time>
      </trkpt>
      <trkpt lat="49.17624" lon="7.00275">
        <ele>260</ele>
        <time>2011-04-10T07:16:33Z</time>
      </trkpt>
      <trkpt lat="49.17626" lon="7.00274">
        <ele>260</ele>
        <time>2011-04-10T07:16:35Z</time>
      </trkpt>
      <trkpt lat="49.17628" lon="7.00273">
        <ele>260</ele>
        <time>2011-04-10T07:16:38Z</time>
      </trkpt>
      <trkpt lat="49.17629" lon="7.00273">
        <ele>260</ele>
        <time>2011-04-10T07:16:38Z</time>
      </trkpt>
      <trkpt lat="49.1763" lon="7.00272">
        <ele>260</ele>
        <time>2011-04-10T07:16:39Z</time>
      </trkpt>
      <trkpt lat="49.17632" lon="7.00271">
        <ele>260</ele>
        <time>2011-04-10T07:16:41Z</time>
      </trkpt>
      <trkpt lat="49.17633" lon="7.00271">
        <ele>260</ele>
        <time>2011-04-10T07:16:43Z</time>
      </trkpt>
      <trkpt lat="49.17635" lon="7.0027">
        <ele>260</ele>
        <time>2011-04-10T07:16:43Z</time>
      </trkpt>
      <trkpt lat="49.17636" lon="7.00269">
        <ele>260</ele>
        <time>2011-04-10T07:16:44Z</time>
      </trkpt>
      <trkpt lat="49.17638" lon="7.00268">
        <ele>260</ele>
        <time>2011-04-10T07:16:46Z</time>
      </trkpt>
      <trkpt lat="49.1764" lon="7.00268">
        <ele>260</ele>
        <time>2011-04-10T07:16:48Z</time>
      </trkpt>
      <trkpt lat="49.17641" lon="7.00268">
        <ele>260</ele>
        <time>2011-04-10T07:16:48Z</time>
      </trkpt>
      <trkpt lat="49.17643" lon="7.00271">
        <ele>260</ele>
        <time>2011-04-10T07:16:50Z</time>
      </trkpt>
      <trkpt lat="49.17644" lon="7.00273">
        <ele>260</ele>
        <time>2011-04-10T07:16:53Z</time>
      </trkpt>
      <trkpt lat="49.17646" lon="7.00274">
        <ele>260</ele>
        <time>2011-04-10T07:16:53Z</time>
      </trkpt>
      <trkpt lat="49.17647" lon="7.00274">
        <ele>260</ele>
        <time>2011-04-10T07:16:54Z</time>
      </trkpt>
      <trkpt lat="49.17648" lon="7.00274">
        <ele>260</ele>
        <time>2011-04-10T07:16:55Z</time>
      </trkpt>
      <trkpt lat="49.17649" lon="7.00274">
        <ele>260</ele>
        <time>2011-04-10T07:16:56Z</time>
      </trkpt>
      <trkpt lat="49.17651" lon="7.00274">
        <ele>260</ele>
        <time>2011-04-10T07:16:58Z</time>
      </trkpt>
      <trkpt lat="49.17652" lon="7.00275">
        <ele>260</ele>
        <time>2011-04-10T07:16:58Z</time>
      </trkpt>
      <trkpt lat="49.17653" lon="7.00276">
        <ele>260</ele>
        <time>2011-04-10T07:16:59Z</time>
      </trkpt>
      <trkpt lat="49.17654" lon="7.00278">
        <ele>260</ele>
        <time>2011-04-10T07:17:00Z</time>
      </trkpt>
      <trkpt lat="49.17655" lon="7.0028">
        <ele>260</ele>
        <time>2011-04-10T07:17:01Z</time>
      </trkpt>
      <trkpt lat="49.17655" lon="7.00282">
        <ele>260</ele>
        <time>2011-04-10T07:17:03Z</time>
      </trkpt>
      <trkpt lat="49.17657" lon="7.00285">
        <ele>260</ele>
        <time>2011-04-10T07:17:04Z</time>
      </trkpt>
      <trkpt lat="49.17658" lon="7.00287">
        <ele>260</ele>
        <time>2011-04-10T07:17:05Z</time>
      </trkpt>
      <trkpt lat="49.17659" lon="7.00289">
        <ele>260</ele>
        <time>2011-04-10T07:17:06Z</time>
      </trkpt>
      <trkpt lat="49.17661" lon="7.00291">
        <ele>260</ele>
        <time>2011-04-10T07:17:09Z</time>
      </trkpt>
      <trkpt lat="49.17662" lon="7.00293">
        <ele>260</ele>
        <time>2011-04-10T07:17:09Z</time>
      </trkpt>
      <trkpt lat="49.17663" lon="7.00296">
        <ele>260</ele>
        <time>2011-04-10T07:17:11Z</time>
      </trkpt>
      <trkpt lat="49.17664" lon="7.00298">
        <ele>260</ele>
        <time>2011-04-10T07:17:12Z</time>
      </trkpt>
      <trkpt lat="49.17666" lon="7.00301">
        <ele>260</ele>
        <time>2011-04-10T07:17:15Z</time>
      </trkpt>
      <trkpt lat="49.17667" lon="7.00304">
        <ele>260</ele>
        <time>2011-04-10T07:17:16Z</time>
      </trkpt>
      <trkpt lat="49.17669" lon="7.00307">
        <ele>260</ele>
        <time>2011-04-10T07:17:18Z</time>
      </trkpt>
      <trkpt lat="49.17671" lon="7.0031">
        <ele>260</ele>
        <time>2011-04-10T07:17:20Z</time>
      </trkpt>
      <trkpt lat="49.17672" lon="7.00311">
        <ele>260</ele>
        <time>2011-04-10T07:17:21Z</time>
      </trkpt>
      <trkpt lat="49.17674" lon="7.00311">
        <ele>260</ele>
        <time>2011-04-10T07:17:23Z</time>
      </trkpt>
      <trkpt lat="49.17677" lon="7.0031">
        <ele>260</ele>
        <time>2011-04-10T07:17:26Z</time>
      </trkpt>
      <trkpt lat="49.17678" lon="7.00309">
        <ele>260</ele>
        <time>2011-04-10T07:17:26Z</time>
      </trkpt>
      <trkpt lat="49.17679" lon="7.00308">
        <ele>260</ele>
        <time>2011-04-10T07:17:27Z</time>
      </trkpt>
      <trkpt lat="49.17681" lon="7.00307">
        <ele>260</ele>
        <time>2011-04-10T07:17:28Z</time>
      </trkpt>
      <trkpt lat="49.17682" lon="7.00306">
        <ele>260</ele>
        <time>2011-04-10T07:17:29Z</time>
      </trkpt>
      <trkpt lat="49.17683" lon="7.00305">
        <ele>260</ele>
        <time>2011-04-10T07:17:31Z</time>
      </trkpt>
      <trkpt lat="49.17684" lon="7.00304">
        <ele>260</ele>
        <time>2011-04-10T07:17:31Z</time>
      </trkpt>
      <trkpt lat="49.17686" lon="7.00303">
        <ele>260</ele>
        <time>2011-04-10T07:17:32Z</time>
      </trkpt>
      <trkpt lat="49.17687" lon="7.00302">
        <ele>260</ele>
        <time>2011-04-10T07:17:33Z</time>
      </trkpt>
      <trkpt lat="49.17689" lon="7.003">
        <ele>260</ele>
        <time>2011-04-10T07:17:36Z</time>
      </trkpt>
      <trkpt lat="49.1769" lon="7.003">
        <ele>260</ele>
        <time>2011-04-10T07:17:36Z</time>
      </trkpt>
      <trkpt lat="49.17691" lon="7.00299">
        <ele>260</ele>
        <time>2011-04-10T07:17:37Z</time>
      </trkpt>
      <trkpt lat="49.17693" lon="7.00298">
        <ele>260</ele>
        <time>2011-04-10T07:17:39Z</time>
      </trkpt>
      <trkpt lat="49.17695" lon="7.00297">
        <ele>260</ele>
        <time>2011-04-10T07:17:41Z</time>
      </trkpt>
      <trkpt lat="49.17697" lon="7.00296">
        <ele>260</ele>
        <time>2011-04-10T07:17:41Z</time>
      </trkpt>
      <trkpt lat="49.17698" lon="7.00296">
        <ele>260</ele>
        <time>2011-04-10T07:17:42Z</time>
      </trkpt>
      <trkpt lat="49.177" lon="7.00295">
        <ele>260</ele>
        <time>2011-04-10T07:17:43Z</time>
      </trkpt>
      <trkpt lat="49.17701" lon="7.00295">
        <ele>260</ele>
        <time>2011-04-10T07:17:44Z</time>
      </trkpt>
      <trkpt lat="49.17702" lon="7.00295">
        <ele>260</ele>
        <time>2011-04-10T07:17:46Z</time>
      </trkpt>
      <trkpt lat="49.17704" lon="7.00295">
        <ele>260</ele>
        <time>2011-04-10T07:17:46Z</time>
      </trkpt>
      <trkpt lat="49.17706" lon="7.00295">
        <ele>260</ele>
        <time>2011-04-10T07:17:48Z</time>
      </trkpt>
      <trkpt lat="49.17707" lon="7.00296">
        <ele>260</ele>
        <time>2011-04-10T07:17:49Z</time>
      </trkpt>
      <trkpt lat="49.17708" lon="7.00296">
        <ele>260</ele>
        <time>2011-04-10T07:17:51Z</time>
      </trkpt>
      <trkpt lat="49.17709" lon="7.00297">
        <ele>260</ele>
        <time>2011-04-10T07:17:51Z</time>
      </trkpt>
      <trkpt lat="49.17712" lon="7.00298">
        <ele>260</ele>
        <time>2011-04-10T07:17:53Z</time>
      </trkpt>
      <trkpt lat="49.17714" lon="7.00299">
        <ele>260</ele>
        <time>2011-04-10T07:17:56Z</time>
      </trkpt>
      <trkpt lat="49.17715" lon="7.003">
        <ele>260</ele>
        <time>2011-04-10T07:17:57Z</time>
      </trkpt>
      <trkpt lat="49.17717" lon="7.00302">
        <ele>260</ele>
        <time>2011-04-10T07:17:59Z</time>
      </trkpt>
      <trkpt lat="49.17719" lon="7.00302">
        <ele>260</ele>
        <time>2011-04-10T07:18:01Z</time>
      </trkpt>
      <trkpt lat="49.1772" lon="7.00302">
        <ele>260</ele>
        <time>2011-04-10T07:18:01Z</time>
      </trkpt>
      <trkpt lat="49.17722" lon="7.00303">
        <ele>260</ele>
        <time>2011-04-10T07:18:02Z</time>
      </trkpt>
      <trkpt lat="49.17723" lon="7.00304">
        <ele>260</ele>
        <time>2011-04-10T07:18:03Z</time>
      </trkpt>
      <trkpt lat="49.17724" lon="7.00304">
        <ele>259</ele>
        <time>2011-04-10T07:18:04Z</time>
      </trkpt>
      <trkpt lat="49.17726" lon="7.00305">
        <ele>259</ele>
        <time>2011-04-10T07:18:07Z</time>
      </trkpt>
      <trkpt lat="49.17728" lon="7.00306">
        <ele>259</ele>
        <time>2011-04-10T07:18:07Z</time>
      </trkpt>
      <trkpt lat="49.17729" lon="7.00307">
        <ele>259</ele>
        <time>2011-04-10T07:18:08Z</time>
      </trkpt>
      <trkpt lat="49.17731" lon="7.00308">
        <ele>259</ele>
        <time>2011-04-10T07:18:10Z</time>
      </trkpt>
      <trkpt lat="49.17733" lon="7.00309">
        <ele>259</ele>
        <time>2011-04-10T07:18:12Z</time>
      </trkpt>
      <trkpt lat="49.17735" lon="7.0031">
        <ele>259</ele>
        <time>2011-04-10T07:18:12Z</time>
      </trkpt>
      <trkpt lat="49.17735" lon="7.00313">
        <ele>259</ele>
        <time>2011-04-10T07:18:14Z</time>
      </trkpt>
      <trkpt lat="49.17736" lon="7.00315">
        <ele>259</ele>
        <time>2011-04-10T07:18:17Z</time>
      </trkpt>
      <trkpt lat="49.17738" lon="7.00316">
        <ele>259</ele>
        <time>2011-04-10T07:18:18Z</time>
      </trkpt>
      <trkpt lat="49.1774" lon="7.00316">
        <ele>259</ele>
        <time>2011-04-10T07:18:19Z</time>
      </trkpt>
      <trkpt lat="49.17742" lon="7.00316">
        <ele>259</ele>
        <time>2011-04-10T07:18:20Z</time>
      </trkpt>
      <trkpt lat="49.17743" lon="7.00317">
        <ele>259</ele>
        <time>2011-04-10T07:18:21Z</time>
      </trkpt>
      <trkpt lat="49.17745" lon="7.00317">
        <ele>259</ele>
        <time>2011-04-10T07:18:22Z</time>
      </trkpt>
      <trkpt lat="49.17747" lon="7.00317">
        <ele>259</ele>
        <time>2011-04-10T07:18:23Z</time>
      </trkpt>
      <trkpt lat="49.17749" lon="7.00317">
        <ele>259</ele>
        <time>2011-04-10T07:18:24Z</time>
      </trkpt>
      <trkpt lat="49.1775" lon="7.00317">
        <ele>259</ele>
        <time>2011-04-10T07:18:25Z</time>
      </trkpt>
      <trkpt lat="49.17752" lon="7.00316">
        <ele>259</ele>
        <time>2011-04-10T07:18:27Z</time>
      </trkpt>
      <trkpt lat="49.17754" lon="7.00316">
        <ele>259</ele>
        <time>2011-04-10T07:18:27Z</time>
      </trkpt>
      <trkpt lat="49.17755" lon="7.00316">
        <ele>259</ele>
        <time>2011-04-10T07:18:28Z</time>
      </trkpt>
      <trkpt lat="49.17757" lon="7.00316">
        <ele>259</ele>
        <time>2011-04-10T07:18:29Z</time>
      </trkpt>
      <trkpt lat="49.17758" lon="7.00315">
        <ele>259</ele>
        <time>2011-04-10T07:18:30Z</time>
      </trkpt>
      <trkpt lat="49.17759" lon="7.00315">
        <ele>259</ele>
        <time>2011-04-10T07:18:32Z</time>
      </trkpt>
      <trkpt lat="49.17761" lon="7.00315">
        <ele>259</ele>
        <time>2011-04-10T07:18:33Z</time>
      </trkpt>
      <trkpt lat="49.17764" lon="7.00314">
        <ele>259</ele>
        <time>2011-04-10T07:18:35Z</time>
      </trkpt>
      <trkpt lat="49.17765" lon="7.00314">
        <ele>259</ele>
        <time>2011-04-10T07:18:36Z</time>
      </trkpt>
      <trkpt lat="49.17766" lon="7.00314">
        <ele>259</ele>
        <time>2011-04-10T07:18:37Z</time>
      </trkpt>
      <trkpt lat="49.17767" lon="7.00315">
        <ele>259</ele>
        <time>2011-04-10T07:18:38Z</time>
      </trkpt>
      <trkpt lat="49.17769" lon="7.00314">
        <ele>259</ele>
        <time>2011-04-10T07:18:39Z</time>
      </trkpt>
      <trkpt lat="49.1777" lon="7.00314">
        <ele>258</ele>
        <time>2011-04-10T07:18:40Z</time>
      </trkpt>
      <trkpt lat="49.17771" lon="7.00314">
        <ele>258</ele>
        <time>2011-04-10T07:18:42Z</time>
      </trkpt>
      <trkpt lat="49.17773" lon="7.00314">
        <ele>257</ele>
        <time>2011-04-10T07:18:43Z</time>
      </trkpt>
      <trkpt lat="49.17775" lon="7.00315">
        <ele>257</ele>
        <time>2011-04-10T07:18:45Z</time>
      </trkpt>
      <trkpt lat="49.17776" lon="7.00315">
        <ele>256</ele>
        <time>2011-04-10T07:18:48Z</time>
      </trkpt>
      <trkpt lat="49.17778" lon="7.00316">
        <ele>256</ele>
        <time>2011-04-10T07:18:49Z</time>
      </trkpt>
      <trkpt lat="49.1778" lon="7.00316">
        <ele>256</ele>
        <time>2011-04-10T07:18:50Z</time>
      </trkpt>
      <trkpt lat="49.17781" lon="7.00316">
        <ele>256</ele>
        <time>2011-04-10T07:18:51Z</time>
      </trkpt>
      <trkpt lat="49.17783" lon="7.00317">
        <ele>256</ele>
        <time>2011-04-10T07:18:52Z</time>
      </trkpt>
      <trkpt lat="49.17784" lon="7.00317">
        <ele>255</ele>
        <time>2011-04-10T07:18:53Z</time>
      </trkpt>
      <trkpt lat="49.17786" lon="7.00318">
        <ele>255</ele>
        <time>2011-04-10T07:18:56Z</time>
      </trkpt>
      <trkpt lat="49.17788" lon="7.00319">
        <ele>254</ele>
        <time>2011-04-10T07:18:58Z</time>
      </trkpt>
      <trkpt lat="49.17789" lon="7.0032">
        <ele>254</ele>
        <time>2011-04-10T07:18:59Z</time>
      </trkpt>
      <trkpt lat="49.1779" lon="7.00321">
        <ele>254</ele>
        <time>2011-04-10T07:19:00Z</time>
      </trkpt>
      <trkpt lat="49.17792" lon="7.00322">
        <ele>253</ele>
        <time>2011-04-10T07:19:03Z</time>
      </trkpt>
      <trkpt lat="49.17794" lon="7.00324">
        <ele>253</ele>
        <time>2011-04-10T07:19:04Z</time>
      </trkpt>
      <trkpt lat="49.17796" lon="7.00325">
        <ele>253</ele>
        <time>2011-04-10T07:19:06Z</time>
      </trkpt>
      <trkpt lat="49.17798" lon="7.00326">
        <ele>253</ele>
        <time>2011-04-10T07:19:09Z</time>
      </trkpt>
      <trkpt lat="49.178" lon="7.00328">
        <ele>252</ele>
        <time>2011-04-10T07:19:10Z</time>
      </trkpt>
      <trkpt lat="49.17802" lon="7.00328">
        <ele>252</ele>
        <time>2011-04-10T07:19:12Z</time>
      </trkpt>
      <trkpt lat="49.17804" lon="7.00329">
        <ele>252</ele>
        <time>2011-04-10T07:19:15Z</time>
      </trkpt>
      <trkpt lat="49.17805" lon="7.0033">
        <ele>252</ele>
        <time>2011-04-10T07:19:16Z</time>
      </trkpt>
      <trkpt lat="49.17807" lon="7.00331">
        <ele>252</ele>
        <time>2011-04-10T07:19:18Z</time>
      </trkpt>
      <trkpt lat="49.17808" lon="7.00331">
        <ele>251</ele>
        <time>2011-04-10T07:19:21Z</time>
      </trkpt>
      <trkpt lat="49.1781" lon="7.00332">
        <ele>251</ele>
        <time>2011-04-10T07:19:22Z</time>
      </trkpt>
      <trkpt lat="49.17812" lon="7.00333">
        <ele>250</ele>
        <time>2011-04-10T07:19:24Z</time>
      </trkpt>
      <trkpt lat="49.17814" lon="7.00334">
        <ele>250</ele>
        <time>2011-04-10T07:19:27Z</time>
      </trkpt>
      <trkpt lat="49.17815" lon="7.00335">
        <ele>249</ele>
        <time>2011-04-10T07:19:28Z</time>
      </trkpt>
      <trkpt lat="49.17817" lon="7.00336">
        <ele>249</ele>
        <time>2011-04-10T07:19:30Z</time>
      </trkpt>
      <trkpt lat="49.17818" lon="7.00337">
        <ele>249</ele>
        <time>2011-04-10T07:19:32Z</time>
      </trkpt>
      <trkpt lat="49.1782" lon="7.00338">
        <ele>248</ele>
        <time>2011-04-10T07:19:33Z</time>
      </trkpt>
      <trkpt lat="49.17822" lon="7.0034">
        <ele>248</ele>
        <time>2011-04-10T07:19:35Z</time>
      </trkpt>
      <trkpt lat="49.17824" lon="7.00341">
        <ele>248</ele>
        <time>2011-04-10T07:19:38Z</time>
      </trkpt>
      <trkpt lat="49.17826" lon="7.00342">
        <ele>247</ele>
        <time>2011-04-10T07:19:39Z</time>
      </trkpt>
      <trkpt lat="49.17828" lon="7.00343">
        <ele>247</ele>
        <time>2011-04-10T07:19:41Z</time>
      </trkpt>
      <trkpt lat="49.1783" lon="7.00345">
        <ele>246</ele>
        <time>2011-04-10T07:19:44Z</time>
      </trkpt>
      <trkpt lat="49.17831" lon="7.00346">
        <ele>246</ele>
        <time>2011-04-10T07:19:45Z</time>
      </trkpt>
      <trkpt lat="49.17832" lon="7.00347">
        <ele>246</ele>
        <time>2011-04-10T07:19:46Z</time>
      </trkpt>
      <trkpt lat="49.17834" lon="7.00348">
        <ele>245</ele>
        <time>2011-04-10T07:19:49Z</time>
      </trkpt>
      <trkpt lat="49.17836" lon="7.0035">
        <ele>245</ele>
        <time>2011-04-10T07:19:50Z</time>
      </trkpt>
      <trkpt lat="49.17838" lon="7.00351">
        <ele>245</ele>
        <time>2011-04-10T07:19:52Z</time>
      </trkpt>
      <trkpt lat="49.17839" lon="7.00352">
        <ele>244</ele>
        <time>2011-04-10T07:19:54Z</time>
      </trkpt>
      <trkpt lat="49.17841" lon="7.00353">
        <ele>244</ele>
        <time>2011-04-10T07:19:55Z</time>
      </trkpt>
      <trkpt lat="49.17842" lon="7.00353">
        <ele>244</ele>
        <time>2011-04-10T07:19:56Z</time>
      </trkpt>
      <trkpt lat="49.17845" lon="7.00354">
        <ele>243</ele>
        <time>2011-04-10T07:19:59Z</time>
      </trkpt>
      <trkpt lat="49.17846" lon="7.00355">
        <ele>243</ele>
        <time>2011-04-10T07:19:59Z</time>
      </trkpt>
      <trkpt lat="49.17848" lon="7.00356">
        <ele>243</ele>
        <time>2011-04-10T07:20:01Z</time>
      </trkpt>
      <trkpt lat="49.17849" lon="7.00356">
        <ele>243</ele>
        <time>2011-04-10T07:20:02Z</time>
      </trkpt>
      <trkpt lat="49.17851" lon="7.00357">
        <ele>243</ele>
        <time>2011-04-10T07:20:04Z</time>
      </trkpt>
      <trkpt lat="49.17852" lon="7.00357">
        <ele>243</ele>
        <time>2011-04-10T07:20:04Z</time>
      </trkpt>
      <trkpt lat="49.17854" lon="7.00359">
        <ele>243</ele>
        <time>2011-04-10T07:20:06Z</time>
      </trkpt>
      <trkpt lat="49.17856" lon="7.0036">
        <ele>243</ele>
        <time>2011-04-10T07:20:08Z</time>
      </trkpt>
      <trkpt lat="49.17857" lon="7.00361">
        <ele>243</ele>
        <time>2011-04-10T07:20:09Z</time>
      </trkpt>
      <trkpt lat="49.17859" lon="7.00362">
        <ele>242</ele>
        <time>2011-04-10T07:20:10Z</time>
      </trkpt>
      <trkpt lat="49.1786" lon="7.00363">
        <ele>242</ele>
        <time>2011-04-10T07:20:11Z</time>
      </trkpt>
      <trkpt lat="49.17862" lon="7.00363">
        <ele>242</ele>
        <time>2011-04-10T07:20:12Z</time>
      </trkpt>
      <trkpt lat="49.17864" lon="7.00365">
        <ele>242</ele>
        <time>2011-04-10T07:20:15Z</time>
      </trkpt>
      <trkpt lat="49.17865" lon="7.00366">
        <ele>242</ele>
        <time>2011-04-10T07:20:15Z</time>
      </trkpt>
      <trkpt lat="49.17867" lon="7.00366">
        <ele>242</ele>
        <time>2011-04-10T07:20:16Z</time>
      </trkpt>
      <trkpt lat="49.17868" lon="7.00367">
        <ele>242</ele>
        <time>2011-04-10T07:20:17Z</time>
      </trkpt>
      <trkpt lat="49.17869" lon="7.00368">
        <ele>242</ele>
        <time>2011-04-10T07:20:18Z</time>
      </trkpt>
      <trkpt lat="49.17871" lon="7.00369">
        <ele>242</ele>
        <time>2011-04-10T07:20:20Z</time>
      </trkpt>
      <trkpt lat="49.17872" lon="7.0037">
        <ele>242</ele>
        <time>2011-04-10T07:20:20Z</time>
      </trkpt>
      <trkpt lat="49.17874" lon="7.00371">
        <ele>241</ele>
        <time>2011-04-10T07:20:22Z</time>
      </trkpt>
      <trkpt lat="49.17875" lon="7.00372">
        <ele>241</ele>
        <time>2011-04-10T07:20:23Z</time>
      </trkpt>
      <trkpt lat="49.17876" lon="7.00374">
        <ele>241</ele>
        <time>2011-04-10T07:20:26Z</time>
      </trkpt>
      <trkpt lat="49.17878" lon="7.00374">
        <ele>241</ele>
        <time>2011-04-10T07:20:27Z</time>
      </trkpt>
      <trkpt lat="49.17881" lon="7.00376">
        <ele>241</ele>
        <time>2011-04-10T07:20:29Z</time>
      </trkpt>
      <trkpt lat="49.17882" lon="7.00376">
        <ele>241</ele>
        <time>2011-04-10T07:20:31Z</time>
      </trkpt>
      <trkpt lat="49.17883" lon="7.00377">
        <ele>241</ele>
        <time>2011-04-10T07:20:31Z</time>
      </trkpt>
      <trkpt lat="49.17886" lon="7.00379">
        <ele>241</ele>
        <time>2011-04-10T07:20:33Z</time>
      </trkpt>
      <trkpt lat="49.17887" lon="7.0038">
        <ele>241</ele>
        <time>2011-04-10T07:20:34Z</time>
      </trkpt>
      <trkpt lat="49.17889" lon="7.00381">
        <ele>240</ele>
        <time>2011-04-10T07:20:36Z</time>
      </trkpt>
      <trkpt lat="49.17891" lon="7.00383">
        <ele>240</ele>
        <time>2011-04-10T07:20:38Z</time>
      </trkpt>
      <trkpt lat="49.17892" lon="7.00384">
        <ele>240</ele>
        <time>2011-04-10T07:20:39Z</time>
      </trkpt>
      <trkpt lat="49.17894" lon="7.00385">
        <ele>240</ele>
        <time>2011-04-10T07:20:40Z</time>
      </trkpt>
      <trkpt lat="49.17895" lon="7.00385">
        <ele>240</ele>
        <time>2011-04-10T07:20:42Z</time>
      </trkpt>
      <trkpt lat="49.17897" lon="7.00386">
        <ele>240</ele>
        <time>2011-04-10T07:20:42Z</time>
      </trkpt>
      <trkpt lat="49.17898" lon="7.00386">
        <ele>239</ele>
        <time>2011-04-10T07:20:43Z</time>
      </trkpt>
      <trkpt lat="49.17899" lon="7.00387">
        <ele>239</ele>
        <time>2011-04-10T07:20:44Z</time>
      </trkpt>
      <trkpt lat="49.179" lon="7.00387">
        <ele>239</ele>
        <time>2011-04-10T07:20:45Z</time>
      </trkpt>
      <trkpt lat="49.17901" lon="7.00389">
        <ele>239</ele>
        <time>2011-04-10T07:20:46Z</time>
      </trkpt>
      <trkpt lat="49.17903" lon="7.0039">
        <ele>238</ele>
        <time>2011-04-10T07:20:47Z</time>
      </trkpt>
      <trkpt lat="49.17904" lon="7.00391">
        <ele>238</ele>
        <time>2011-04-10T07:20:48Z</time>
      </trkpt>
      <trkpt lat="49.17905" lon="7.00391">
        <ele>238</ele>
        <time>2011-04-10T07:20:49Z</time>
      </trkpt>
      <trkpt lat="49.17907" lon="7.00392">
        <ele>238</ele>
        <time>2011-04-10T07:20:50Z</time>
      </trkpt>
      <trkpt lat="49.17908" lon="7.00394">
        <ele>238</ele>
        <time>2011-04-10T07:20:51Z</time>
      </trkpt>
      <trkpt lat="49.17909" lon="7.00395">
        <ele>238</ele>
        <time>2011-04-10T07:20:52Z</time>
      </trkpt>
      <trkpt lat="49.1791" lon="7.00396">
        <ele>238</ele>
        <time>2011-04-10T07:20:53Z</time>
      </trkpt>
      <trkpt lat="49.17912" lon="7.00398">
        <ele>237</ele>
        <time>2011-04-10T07:20:55Z</time>
      </trkpt>
      <trkpt lat="49.17913" lon="7.00399">
        <ele>237</ele>
        <time>2011-04-10T07:20:56Z</time>
      </trkpt>
      <trkpt lat="49.17915" lon="7.004">
        <ele>237</ele>
        <time>2011-04-10T07:20:57Z</time>
      </trkpt>
      <trkpt lat="49.17916" lon="7.00402">
        <ele>237</ele>
        <time>2011-04-10T07:20:59Z</time>
      </trkpt>
      <trkpt lat="49.17919" lon="7.00404">
        <ele>237</ele>
        <time>2011-04-10T07:21:02Z</time>
      </trkpt>
      <trkpt lat="49.1792" lon="7.00404">
        <ele>237</ele>
        <time>2011-04-10T07:21:02Z</time>
      </trkpt>
      <trkpt lat="49.17923" lon="7.00406">
        <ele>237</ele>
        <time>2011-04-10T07:21:04Z</time>
      </trkpt>
      <trkpt lat="49.17925" lon="7.00407">
        <ele>236</ele>
        <time>2011-04-10T07:21:06Z</time>
      </trkpt>
      <trkpt lat="49.17926" lon="7.00408">
        <ele>236</ele>
        <time>2011-04-10T07:21:07Z</time>
      </trkpt>
      <trkpt lat="49.17927" lon="7.00408">
        <ele>236</ele>
        <time>2011-04-10T07:21:08Z</time>
      </trkpt>
      <trkpt lat="49.17928" lon="7.00409">
        <ele>236</ele>
        <time>2011-04-10T07:21:09Z</time>
      </trkpt>
      <trkpt lat="49.1793" lon="7.0041">
        <ele>235</ele>
        <time>2011-04-10T07:21:11Z</time>
      </trkpt>
      <trkpt lat="49.17932" lon="7.00412">
        <ele>235</ele>
        <time>2011-04-10T07:21:13Z</time>
      </trkpt>
      <trkpt lat="49.17934" lon="7.00413">
        <ele>234</ele>
        <time>2011-04-10T07:21:14Z</time>
      </trkpt>
      <trkpt lat="49.17935" lon="7.00414">
        <ele>234</ele>
        <time>2011-04-10T07:21:15Z</time>
      </trkpt>
      <trkpt lat="49.17937" lon="7.00416">
        <ele>234</ele>
        <time>2011-04-10T07:21:18Z</time>
      </trkpt>
      <trkpt lat="49.17938" lon="7.00416">
        <ele>234</ele>
        <time>2011-04-10T07:21:18Z</time>
      </trkpt>
      <trkpt lat="49.17939" lon="7.00417">
        <ele>233</ele>
        <time>2011-04-10T07:21:19Z</time>
      </trkpt>
      <trkpt lat="49.17941" lon="7.00417">
        <ele>233</ele>
        <time>2011-04-10T07:21:20Z</time>
      </trkpt>
      <trkpt lat="49.17942" lon="7.00417">
        <ele>233</ele>
        <time>2011-04-10T07:21:21Z</time>
      </trkpt>
      <trkpt lat="49.17944" lon="7.00418">
        <ele>233</ele>
        <time>2011-04-10T07:21:23Z</time>
      </trkpt>
      <trkpt lat="49.17946" lon="7.00419">
        <ele>233</ele>
        <time>2011-04-10T07:21:24Z</time>
      </trkpt>
      <trkpt lat="49.17948" lon="7.0042">
        <ele>233</ele>
        <time>2011-04-10T07:21:26Z</time>
      </trkpt>
      <trkpt lat="49.17949" lon="7.0042">
        <ele>233</ele>
        <time>2011-04-10T07:21:27Z</time>
      </trkpt>
      <trkpt lat="49.17951" lon="7.00421">
        <ele>233</ele>
        <time>2011-04-10T07:21:28Z</time>
      </trkpt>
      <trkpt lat="49.17952" lon="7.00421">
        <ele>233</ele>
        <time>2011-04-10T07:21:29Z</time>
      </trkpt>
      <trkpt lat="49.17953" lon="7.00422">
        <ele>233</ele>
        <time>2011-04-10T07:21:30Z</time>
      </trkpt>
      <trkpt lat="49.17955" lon="7.00423">
        <ele>233</ele>
        <time>2011-04-10T07:21:32Z</time>
      </trkpt>
      <trkpt lat="49.17957" lon="7.00424">
        <ele>233</ele>
        <time>2011-04-10T07:21:34Z</time>
      </trkpt>
      <trkpt lat="49.17959" lon="7.00425">
        <ele>232</ele>
        <time>2011-04-10T07:21:36Z</time>
      </trkpt>
      <trkpt lat="49.17961" lon="7.00427">
        <ele>232</ele>
        <time>2011-04-10T07:21:38Z</time>
      </trkpt>
      <trkpt lat="49.17962" lon="7.00427">
        <ele>232</ele>
        <time>2011-04-10T07:21:39Z</time>
      </trkpt>
      <trkpt lat="49.17963" lon="7.00428">
        <ele>231</ele>
        <time>2011-04-10T07:21:40Z</time>
      </trkpt>
      <trkpt lat="49.17965" lon="7.00428">
        <ele>231</ele>
        <time>2011-04-10T07:21:41Z</time>
      </trkpt>
      <trkpt lat="49.17967" lon="7.00429">
        <ele>231</ele>
        <time>2011-04-10T07:21:43Z</time>
      </trkpt>
      <trkpt lat="49.17968" lon="7.00429">
        <ele>231</ele>
        <time>2011-04-10T07:21:44Z</time>
      </trkpt>
      <trkpt lat="49.1797" lon="7.0043">
        <ele>230</ele>
        <time>2011-04-10T07:21:45Z</time>
      </trkpt>
      <trkpt lat="49.17971" lon="7.0043">
        <ele>230</ele>
        <time>2011-04-10T07:21:46Z</time>
      </trkpt>
      <trkpt lat="49.17972" lon="7.0043">
        <ele>230</ele>
        <time>2011-04-10T07:21:47Z</time>
      </trkpt>
      <trkpt lat="49.17974" lon="7.0043">
        <ele>230</ele>
        <time>2011-04-10T07:21:49Z</time>
      </trkpt>
      <trkpt lat="49.17976" lon="7.00431">
        <ele>230</ele>
        <time>2011-04-10T07:21:50Z</time>
      </trkpt>
      <trkpt lat="49.17977" lon="7.00431">
        <ele>230</ele>
        <time>2011-04-10T07:21:51Z</time>
      </trkpt>
      <trkpt lat="49.17978" lon="7.0043">
        <ele>230</ele>
        <time>2011-04-10T07:21:52Z</time>
      </trkpt>
      <trkpt lat="49.17979" lon="7.0043">
        <ele>230</ele>
        <time>2011-04-10T07:21:53Z</time>
      </trkpt>
      <trkpt lat="49.17981" lon="7.00428">
        <ele>229</ele>
        <time>2011-04-10T07:21:55Z</time>
      </trkpt>
      <trkpt lat="49.17982" lon="7.00426">
        <ele>229</ele>
        <time>2011-04-10T07:21:56Z</time>
      </trkpt>
      <trkpt lat="49.17982" lon="7.00424">
        <ele>229</ele>
        <time>2011-04-10T07:21:57Z</time>
      </trkpt>
      <trkpt lat="49.17983" lon="7.00422">
        <ele>229</ele>
        <time>2011-04-10T07:21:58Z</time>
      </trkpt>
      <trkpt lat="49.17983" lon="7.00421">
        <ele>229</ele>
        <time>2011-04-10T07:21:59Z</time>
      </trkpt>
      <trkpt lat="49.17982" lon="7.00419">
        <ele>229</ele>
        <time>2011-04-10T07:22:01Z</time>
      </trkpt>
      <trkpt lat="49.17982" lon="7.00417">
        <ele>229</ele>
        <time>2011-04-10T07:22:01Z</time>
      </trkpt>
      <trkpt lat="49.17982" lon="7.00414">
        <ele>229</ele>
        <time>2011-04-10T07:22:02Z</time>
      </trkpt>
      <trkpt lat="49.17982" lon="7.00413">
        <ele>229</ele>
        <time>2011-04-10T07:22:03Z</time>
      </trkpt>
      <trkpt lat="49.17982" lon="7.00409">
        <ele>229</ele>
        <time>2011-04-10T07:22:06Z</time>
      </trkpt>
      <trkpt lat="49.17981" lon="7.00407">
        <ele>229</ele>
        <time>2011-04-10T07:22:06Z</time>
      </trkpt>
      <trkpt lat="49.17981" lon="7.00405">
        <ele>229</ele>
        <time>2011-04-10T07:22:07Z</time>
      </trkpt>
      <trkpt lat="49.17981" lon="7.00403">
        <ele>229</ele>
        <time>2011-04-10T07:22:08Z</time>
      </trkpt>
      <trkpt lat="49.17981" lon="7.00401">
        <ele>229</ele>
        <time>2011-04-10T07:22:09Z</time>
      </trkpt>
      <trkpt lat="49.1798" lon="7.00399">
        <ele>229</ele>
        <time>2011-04-10T07:22:10Z</time>
      </trkpt>
      <trkpt lat="49.17979" lon="7.00397">
        <ele>229</ele>
        <time>2011-04-10T07:22:11Z</time>
      </trkpt>
      <trkpt lat="49.17979" lon="7.00395">
        <ele>229</ele>
        <time>2011-04-10T07:22:12Z</time>
      </trkpt>
      <trkpt lat="49.17978" lon="7.00394">
        <ele>229</ele>
        <time>2011-04-10T07:22:13Z</time>
      </trkpt>
      <trkpt lat="49.17977" lon="7.00392">
        <ele>229</ele>
        <time>2011-04-10T07:22:14Z</time>
      </trkpt>
      <trkpt lat="49.17976" lon="7.0039">
        <ele>229</ele>
        <time>2011-04-10T07:22:16Z</time>
      </trkpt>
      <trkpt lat="49.17974" lon="7.00387">
        <ele>229</ele>
        <time>2011-04-10T07:22:18Z</time>
      </trkpt>
      <trkpt lat="49.17972" lon="7.00385">
        <ele>229</ele>
        <time>2011-04-10T07:22:20Z</time>
      </trkpt>
      <trkpt lat="49.1797" lon="7.00382">
        <ele>229</ele>
        <time>2011-04-10T07:22:22Z</time>
      </trkpt>
      <trkpt lat="49.17968" lon="7.0038">
        <ele>229</ele>
        <time>2011-04-10T07:22:24Z</time>
      </trkpt>
      <trkpt lat="49.17967" lon="7.00378">
        <ele>229</ele>
        <time>2011-04-10T07:22:25Z</time>
      </trkpt>
      <trkpt lat="49.17965" lon="7.00376">
        <ele>229</ele>
        <time>2011-04-10T07:22:28Z</time>
      </trkpt>
      <trkpt lat="49.17964" lon="7.00375">
        <ele>229</ele>
        <time>2011-04-10T07:22:28Z</time>
      </trkpt>
      <trkpt lat="49.17963" lon="7.00375">
        <ele>229</ele>
        <time>2011-04-10T07:22:29Z</time>
      </trkpt>
      <trkpt lat="49.17961" lon="7.00373">
        <ele>229</ele>
        <time>2011-04-10T07:22:31Z</time>
      </trkpt>
      <trkpt lat="49.17959" lon="7.00371">
        <ele>229</ele>
        <time>2011-04-10T07:22:34Z</time>
      </trkpt>
      <trkpt lat="49.17958" lon="7.0037">
        <ele>229</ele>
        <time>2011-04-10T07:22:35Z</time>
      </trkpt>
      <trkpt lat="49.17955" lon="7.00367">
        <ele>229</ele>
        <time>2011-04-10T07:22:37Z</time>
      </trkpt>
      <trkpt lat="49.17953" lon="7.00366">
        <ele>229</ele>
        <time>2011-04-10T07:22:39Z</time>
      </trkpt>
      <trkpt lat="49.17952" lon="7.00364">
        <ele>229</ele>
        <time>2011-04-10T07:22:41Z</time>
      </trkpt>
      <trkpt lat="49.17949" lon="7.00361">
        <ele>229</ele>
        <time>2011-04-10T07:22:43Z</time>
      </trkpt>
      <trkpt lat="49.17947" lon="7.00359">
        <ele>229</ele>
        <time>2011-04-10T07:22:45Z</time>
      </trkpt>
      <trkpt lat="49.17946" lon="7.00359">
        <ele>229</ele>
        <time>2011-04-10T07:22:46Z</time>
      </trkpt>
      <trkpt lat="49.17945" lon="7.00358">
        <ele>229</ele>
        <time>2011-04-10T07:22:47Z</time>
      </trkpt>
      <trkpt lat="49.17943" lon="7.00356">
        <ele>229</ele>
        <time>2011-04-10T07:22:49Z</time>
      </trkpt>
      <trkpt lat="49.17941" lon="7.00354">
        <ele>229</ele>
        <time>2011-04-10T07:22:51Z</time>
      </trkpt>
      <trkpt lat="49.1794" lon="7.00352">
        <ele>229</ele>
        <time>2011-04-10T07:22:53Z</time>
      </trkpt>
      <trkpt lat="49.17938" lon="7.0035">
        <ele>229</ele>
        <time>2011-04-10T07:22:55Z</time>
      </trkpt>
      <trkpt lat="49.17936" lon="7.00348">
        <ele>229</ele>
        <time>2011-04-10T07:22:57Z</time>
      </trkpt>
      <trkpt lat="49.17934" lon="7.00345">
        <ele>229</ele>
        <time>2011-04-10T07:22:59Z</time>
      </trkpt>
      <trkpt lat="49.17933" lon="7.00343">
        <ele>229</ele>
        <time>2011-04-10T07:23:01Z</time>
      </trkpt>
      <trkpt lat="49.17931" lon="7.00341">
        <ele>229</ele>
        <time>2011-04-10T07:23:03Z</time>
      </trkpt>
      <trkpt lat="49.17929" lon="7.00338">
        <ele>229</ele>
        <time>2011-04-10T07:23:05Z</time>
      </trkpt>
      <trkpt lat="49.17927" lon="7.00336">
        <ele>230</ele>
        <time>2011-04-10T07:23:07Z</time>
      </trkpt>
      <trkpt lat="49.17925" lon="7.00334">
        <ele>230</ele>
        <time>2011-04-10T07:23:09Z</time>
      </trkpt>
      <trkpt lat="49.17923" lon="7.00332">
        <ele>230</ele>
        <time>2011-04-10T07:23:11Z</time>
      </trkpt>
      <trkpt lat="49.17921" lon="7.00329">
        <ele>230</ele>
        <time>2011-04-10T07:23:13Z</time>
      </trkpt>
      <trkpt lat="49.1792" lon="7.00327">
        <ele>230</ele>
        <time>2011-04-10T07:23:15Z</time>
      </trkpt>
      <trkpt lat="49.17918" lon="7.00325">
        <ele>230</ele>
        <time>2011-04-10T07:23:17Z</time>
      </trkpt>
      <trkpt lat="49.17916" lon="7.00323">
        <ele>230</ele>
        <time>2011-04-10T07:23:19Z</time>
      </trkpt>
      <trkpt lat="49.17914" lon="7.0032">
        <ele>230</ele>
        <time>2011-04-10T07:23:21Z</time>
      </trkpt>
      <trkpt lat="49.17912" lon="7.00318">
        <ele>230</ele>
        <time>2011-04-10T07:23:23Z</time>
      </trkpt>
      <trkpt lat="49.17911" lon="7.00317">
        <ele>230</ele>
        <time>2011-04-10T07:23:24Z</time>
      </trkpt>
      <trkpt lat="49.17909" lon="7.00315">
        <ele>230</ele>
        <time>2011-04-10T07:23:26Z</time>
      </trkpt>
      <trkpt lat="49.17907" lon="7.00313">
        <ele>230</ele>
        <time>2011-04-10T07:23:28Z</time>
      </trkpt>
      <trkpt lat="49.17905" lon="7.00311">
        <ele>230</ele>
        <time>2011-04-10T07:23:30Z</time>
      </trkpt>
      <trkpt lat="49.17903" lon="7.00309">
        <ele>230</ele>
        <time>2011-04-10T07:23:32Z</time>
      </trkpt>
      <trkpt lat="49.17902" lon="7.00306">
        <ele>230</ele>
        <time>2011-04-10T07:23:34Z</time>
      </trkpt>
      <trkpt lat="49.179" lon="7.00303">
        <ele>230</ele>
        <time>2011-04-10T07:23:36Z</time>
      </trkpt>
      <trkpt lat="49.17899" lon="7.00301">
        <ele>230</ele>
        <time>2011-04-10T07:23:38Z</time>
      </trkpt>
      <trkpt lat="49.17899" lon="7.00298">
        <ele>230</ele>
        <time>2011-04-10T07:23:40Z</time>
      </trkpt>
      <trkpt lat="49.17898" lon="7.00296">
        <ele>230</ele>
        <time>2011-04-10T07:23:41Z</time>
      </trkpt>
      <trkpt lat="49.17897" lon="7.00294">
        <ele>230</ele>
        <time>2011-04-10T07:23:42Z</time>
      </trkpt>
      <trkpt lat="49.17896" lon="7.00291">
        <ele>230</ele>
        <time>2011-04-10T07:23:44Z</time>
      </trkpt>
      <trkpt lat="49.17894" lon="7.00288">
        <ele>231</ele>
        <time>2011-04-10T07:23:46Z</time>
      </trkpt>
      <trkpt lat="49.17893" lon="7.00285">
        <ele>231</ele>
        <time>2011-04-10T07:23:48Z</time>
      </trkpt>
      <trkpt lat="49.17893" lon="7.00283">
        <ele>231</ele>
        <time>2011-04-10T07:23:49Z</time>
      </trkpt>
      <trkpt lat="49.17892" lon="7.00281">
        <ele>231</ele>
        <time>2011-04-10T07:23:51Z</time>
      </trkpt>
      <trkpt lat="49.17891" lon="7.00279">
        <ele>231</ele>
        <time>2011-04-10T07:23:52Z</time>
      </trkpt>
      <trkpt lat="49.17891" lon="7.00277">
        <ele>231</ele>
        <time>2011-04-10T07:23:53Z</time>
      </trkpt>
      <trkpt lat="49.1789" lon="7.00275">
        <ele>232</ele>
        <time>2011-04-10T07:23:54Z</time>
      </trkpt>
      <trkpt lat="49.17889" lon="7.00274">
        <ele>233</ele>
        <time>2011-04-10T07:23:55Z</time>
      </trkpt>
      <trkpt lat="49.17889" lon="7.00272">
        <ele>233</ele>
        <time>2011-04-10T07:23:56Z</time>
      </trkpt>
      <trkpt lat="49.17887" lon="7.00269">
        <ele>234</ele>
        <time>2011-04-10T07:23:58Z</time>
      </trkpt>
      <trkpt lat="49.17886" lon="7.00266">
        <ele>234</ele>
        <time>2011-04-10T07:24:00Z</time>
      </trkpt>
      <trkpt lat="49.17885" lon="7.00264">
        <ele>234</ele>
        <time>2011-04-10T07:24:01Z</time>
      </trkpt>
      <trkpt lat="49.17884" lon="7.00262">
        <ele>235</ele>
        <time>2011-04-10T07:24:02Z</time>
      </trkpt>
      <trkpt lat="49.17884" lon="7.0026">
        <ele>235</ele>
        <time>2011-04-10T07:24:03Z</time>
      </trkpt>
      <trkpt lat="49.17883" lon="7.00257">
        <ele>235</ele>
        <time>2011-04-10T07:24:05Z</time>
      </trkpt>
      <trkpt lat="49.17882" lon="7.00255">
        <ele>235</ele>
        <time>2011-04-10T07:24:06Z</time>
      </trkpt>
      <trkpt lat="49.17881" lon="7.00252">
        <ele>235</ele>
        <time>2011-04-10T07:24:08Z</time>
      </trkpt>
      <trkpt lat="49.17879" lon="7.00249">
        <ele>235</ele>
        <time>2011-04-10T07:24:10Z</time>
      </trkpt>
      <trkpt lat="49.17879" lon="7.00247">
        <ele>235</ele>
        <time>2011-04-10T07:24:11Z</time>
      </trkpt>
      <trkpt lat="49.17878" lon="7.00245">
        <ele>236</ele>
        <time>2011-04-10T07:24:12Z</time>
      </trkpt>
      <trkpt lat="49.17877" lon="7.00242">
        <ele>236</ele>
        <time>2011-04-10T07:24:14Z</time>
      </trkpt>
      <trkpt lat="49.17876" lon="7.00241">
        <ele>236</ele>
        <time>2011-04-10T07:24:15Z</time>
      </trkpt>
      <trkpt lat="49.17876" lon="7.00239">
        <ele>236</ele>
        <time>2011-04-10T07:24:16Z</time>
      </trkpt>
      <trkpt lat="49.17875" lon="7.00237">
        <ele>236</ele>
        <time>2011-04-10T07:24:17Z</time>
      </trkpt>
      <trkpt lat="49.17873" lon="7.00235">
        <ele>236</ele>
        <time>2011-04-10T07:24:18Z</time>
      </trkpt>
      <trkpt lat="49.17873" lon="7.00233">
        <ele>236</ele>
        <time>2011-04-10T07:24:19Z</time>
      </trkpt>
      <trkpt lat="49.17872" lon="7.0023">
        <ele>236</ele>
        <time>2011-04-10T07:24:21Z</time>
      </trkpt>
      <trkpt lat="49.17871" lon="7.00227">
        <ele>236</ele>
        <time>2011-04-10T07:24:23Z</time>
      </trkpt>
      <trkpt lat="49.1787" lon="7.00224">
        <ele>236</ele>
        <time>2011-04-10T07:24:25Z</time>
      </trkpt>
      <trkpt lat="49.17868" lon="7.00221">
        <ele>236</ele>
        <time>2011-04-10T07:24:27Z</time>
      </trkpt>
      <trkpt lat="49.17868" lon="7.00218">
        <ele>237</ele>
        <time>2011-04-10T07:24:29Z</time>
      </trkpt>
      <trkpt lat="49.17867" lon="7.00216">
        <ele>237</ele>
        <time>2011-04-10T07:24:30Z</time>
      </trkpt>
      <trkpt lat="49.17867" lon="7.00213">
        <ele>238</ele>
        <time>2011-04-10T07:24:32Z</time>
      </trkpt>
      <trkpt lat="49.17866" lon="7.0021">
        <ele>239</ele>
        <time>2011-04-10T07:24:34Z</time>
      </trkpt>
      <trkpt lat="49.17865" lon="7.00208">
        <ele>239</ele>
        <time>2011-04-10T07:24:35Z</time>
      </trkpt>
      <trkpt lat="49.17865" lon="7.00206">
        <ele>239</ele>
        <time>2011-04-10T07:24:36Z</time>
      </trkpt>
      <trkpt lat="49.17865" lon="7.00205">
        <ele>239</ele>
        <time>2011-04-10T07:24:38Z</time>
      </trkpt>
      <trkpt lat="49.17864" lon="7.00203">
        <ele>240</ele>
        <time>2011-04-10T07:24:38Z</time>
      </trkpt>
      <trkpt lat="49.17864" lon="7.00201">
        <ele>240</ele>
        <time>2011-04-10T07:24:39Z</time>
      </trkpt>
      <trkpt lat="49.17864" lon="7.002">
        <ele>240</ele>
        <time>2011-04-10T07:24:40Z</time>
      </trkpt>
      <trkpt lat="49.17863" lon="7.00198">
        <ele>240</ele>
        <time>2011-04-10T07:24:41Z</time>
      </trkpt>
      <trkpt lat="49.17863" lon="7.00196">
        <ele>241</ele>
        <time>2011-04-10T07:24:42Z</time>
      </trkpt>
      <trkpt lat="49.17863" lon="7.00194">
        <ele>241</ele>
        <time>2011-04-10T07:24:43Z</time>
      </trkpt>
      <trkpt lat="49.17862" lon="7.00192">
        <ele>241</ele>
        <time>2011-04-10T07:24:44Z</time>
      </trkpt>
      <trkpt lat="49.17862" lon="7.00189">
        <ele>241</ele>
        <time>2011-04-10T07:24:46Z</time>
      </trkpt>
      <trkpt lat="49.17861" lon="7.00186">
        <ele>241</ele>
        <time>2011-04-10T07:24:48Z</time>
      </trkpt>
      <trkpt lat="49.1786" lon="7.00183">
        <ele>241</ele>
        <time>2011-04-10T07:24:50Z</time>
      </trkpt>
      <trkpt lat="49.1786" lon="7.0018">
        <ele>241</ele>
        <time>2011-04-10T07:24:52Z</time>
      </trkpt>
      <trkpt lat="49.1786" lon="7.00178">
        <ele>241</ele>
        <time>2011-04-10T07:24:53Z</time>
      </trkpt>
      <trkpt lat="49.17859" lon="7.00176">
        <ele>241</ele>
        <time>2011-04-10T07:24:54Z</time>
      </trkpt>
      <trkpt lat="49.17859" lon="7.00175">
        <ele>241</ele>
        <time>2011-04-10T07:24:55Z</time>
      </trkpt>
      <trkpt lat="49.17859" lon="7.00173">
        <ele>241</ele>
        <time>2011-04-10T07:24:56Z</time>
      </trkpt>
      <trkpt lat="49.17858" lon="7.0017">
        <ele>241</ele>
        <time>2011-04-10T07:24:58Z</time>
      </trkpt>
      <trkpt lat="49.17858" lon="7.00168">
        <ele>241</ele>
        <time>2011-04-10T07:24:59Z</time>
      </trkpt>
      <trkpt lat="49.17858" lon="7.00166">
        <ele>241</ele>
        <time>2011-04-10T07:25:00Z</time>
      </trkpt>
      <trkpt lat="49.17857" lon="7.00164">
        <ele>241</ele>
        <time>2011-04-10T07:25:01Z</time>
      </trkpt>
      <trkpt lat="49.17857" lon="7.00162">
        <ele>241</ele>
        <time>2011-04-10T07:25:02Z</time>
      </trkpt>
      <trkpt lat="49.17857" lon="7.00161">
        <ele>241</ele>
        <time>2011-04-10T07:25:03Z</time>
      </trkpt>
      <trkpt lat="49.17857" lon="7.00159">
        <ele>241</ele>
        <time>2011-04-10T07:25:04Z</time>
      </trkpt>
      <trkpt lat="49.17856" lon="7.00157">
        <ele>241</ele>
        <time>2011-04-10T07:25:05Z</time>
      </trkpt>
      <trkpt lat="49.17856" lon="7.00155">
        <ele>241</ele>
        <time>2011-04-10T07:25:06Z</time>
      </trkpt>
      <trkpt lat="49.17856" lon="7.00154">
        <ele>241</ele>
        <time>2011-04-10T07:25:07Z</time>
      </trkpt>
      <trkpt lat="49.17856" lon="7.00152">
        <ele>241</ele>
        <time>2011-04-10T07:25:08Z</time>
      </trkpt>
      <trkpt lat="49.17857" lon="7.0015">
        <ele>241</ele>
        <time>2011-04-10T07:25:09Z</time>
      </trkpt>
      <trkpt lat="49.17857" lon="7.00148">
        <ele>241</ele>
        <time>2011-04-10T07:25:10Z</time>
      </trkpt>
      <trkpt lat="49.17857" lon="7.00147">
        <ele>241</ele>
        <time>2011-04-10T07:25:11Z</time>
      </trkpt>
      <trkpt lat="49.17859" lon="7.00144">
        <ele>242</ele>
        <time>2011-04-10T07:25:14Z</time>
      </trkpt>
      <trkpt lat="49.17861" lon="7.00142">
        <ele>242</ele>
        <time>2011-04-10T07:25:15Z</time>
      </trkpt>
      <trkpt lat="49.17862" lon="7.0014">
        <ele>242</ele>
        <time>2011-04-10T07:25:17Z</time>
      </trkpt>
      <trkpt lat="49.17864" lon="7.00137">
        <ele>243</ele>
        <time>2011-04-10T07:25:19Z</time>
      </trkpt>
      <trkpt lat="49.17866" lon="7.00135">
        <ele>243</ele>
        <time>2011-04-10T07:25:21Z</time>
      </trkpt>
      <trkpt lat="49.17867" lon="7.00132">
        <ele>244</ele>
        <time>2011-04-10T07:25:23Z</time>
      </trkpt>
      <trkpt lat="49.17868" lon="7.0013">
        <ele>244</ele>
        <time>2011-04-10T07:25:25Z</time>
      </trkpt>
      <trkpt lat="49.1787" lon="7.00128">
        <ele>244</ele>
        <time>2011-04-10T07:25:27Z</time>
      </trkpt>
      <trkpt lat="49.17872" lon="7.00126">
        <ele>244</ele>
        <time>2011-04-10T07:25:29Z</time>
      </trkpt>
      <trkpt lat="49.17874" lon="7.00123">
        <ele>244</ele>
        <time>2011-04-10T07:25:31Z</time>
      </trkpt>
      <trkpt lat="49.17875" lon="7.00121">
        <ele>244</ele>
        <time>2011-04-10T07:25:33Z</time>
      </trkpt>
      <trkpt lat="49.17877" lon="7.00119">
        <ele>244</ele>
        <time>2011-04-10T07:25:35Z</time>
      </trkpt>
      <trkpt lat="49.17879" lon="7.00117">
        <ele>245</ele>
        <time>2011-04-10T07:25:37Z</time>
      </trkpt>
      <trkpt lat="49.17881" lon="7.00115">
        <ele>245</ele>
        <time>2011-04-10T07:25:39Z</time>
      </trkpt>
      <trkpt lat="49.17883" lon="7.00113">
        <ele>246</ele>
        <time>2011-04-10T07:25:41Z</time>
      </trkpt>
      <trkpt lat="49.17885" lon="7.00111">
        <ele>246</ele>
        <time>2011-04-10T07:25:44Z</time>
      </trkpt>
      <trkpt lat="49.17887" lon="7.00108">
        <ele>246</ele>
        <time>2011-04-10T07:25:45Z</time>
      </trkpt>
      <trkpt lat="49.17889" lon="7.00107">
        <ele>247</ele>
        <time>2011-04-10T07:25:47Z</time>
      </trkpt>
      <trkpt lat="49.17891" lon="7.00105">
        <ele>247</ele>
        <time>2011-04-10T07:25:49Z</time>
      </trkpt>
      <trkpt lat="49.17892" lon="7.00105">
        <ele>247</ele>
        <time>2011-04-10T07:25:50Z</time>
      </trkpt>
      <trkpt lat="49.17894" lon="7.00105">
        <ele>247</ele>
        <time>2011-04-10T07:25:51Z</time>
      </trkpt>
      <trkpt lat="49.17895" lon="7.00104">
        <ele>247</ele>
        <time>2011-04-10T07:25:52Z</time>
      </trkpt>
      <trkpt lat="49.17897" lon="7.00103">
        <ele>247</ele>
        <time>2011-04-10T07:25:54Z</time>
      </trkpt>
      <trkpt lat="49.17899" lon="7.00101">
        <ele>247</ele>
        <time>2011-04-10T07:25:56Z</time>
      </trkpt>
      <trkpt lat="49.17901" lon="7.00101">
        <ele>247</ele>
        <time>2011-04-10T07:25:57Z</time>
      </trkpt>
      <trkpt lat="49.17902" lon="7.001">
        <ele>247</ele>
        <time>2011-04-10T07:25:58Z</time>
      </trkpt>
      <trkpt lat="49.17903" lon="7.00099">
        <ele>247</ele>
        <time>2011-04-10T07:25:59Z</time>
      </trkpt>
      <trkpt lat="49.17905" lon="7.00098">
        <ele>247</ele>
        <time>2011-04-10T07:26:01Z</time>
      </trkpt>
      <trkpt lat="49.17907" lon="7.00097">
        <ele>247</ele>
        <time>2011-04-10T07:26:03Z</time>
      </trkpt>
      <trkpt lat="49.17908" lon="7.00097">
        <ele>247</ele>
        <time>2011-04-10T07:26:04Z</time>
      </trkpt>
      <trkpt lat="49.1791" lon="7.00096">
        <ele>247</ele>
        <time>2011-04-10T07:26:06Z</time>
      </trkpt>
      <trkpt lat="49.17911" lon="7.00095">
        <ele>247</ele>
        <time>2011-04-10T07:26:07Z</time>
      </trkpt>
      <trkpt lat="49.17913" lon="7.00095">
        <ele>247</ele>
        <time>2011-04-10T07:26:08Z</time>
      </trkpt>
      <trkpt lat="49.17914" lon="7.00095">
        <ele>247</ele>
        <time>2011-04-10T07:26:09Z</time>
      </trkpt>
      <trkpt lat="49.17916" lon="7.00094">
        <ele>247</ele>
        <time>2011-04-10T07:26:11Z</time>
      </trkpt>
      <trkpt lat="49.17917" lon="7.00093">
        <ele>247</ele>
        <time>2011-04-10T07:26:12Z</time>
      </trkpt>
      <trkpt lat="49.17919" lon="7.00092">
        <ele>247</ele>
        <time>2011-04-10T07:26:13Z</time>
      </trkpt>
      <trkpt lat="49.1792" lon="7.00092">
        <ele>247</ele>
        <time>2011-04-10T07:26:14Z</time>
      </trkpt>
      <trkpt lat="49.17922" lon="7.00091">
        <ele>247</ele>
        <time>2011-04-10T07:26:15Z</time>
      </trkpt>
      <trkpt lat="49.17923" lon="7.00091">
        <ele>248</ele>
        <time>2011-04-10T07:26:16Z</time>
      </trkpt>
      <trkpt lat="49.17925" lon="7.0009">
        <ele>248</ele>
        <time>2011-04-10T07:26:17Z</time>
      </trkpt>
      <trkpt lat="49.17926" lon="7.00089">
        <ele>248</ele>
        <time>2011-04-10T07:26:18Z</time>
      </trkpt>
      <trkpt lat="49.17928" lon="7.00088">
        <ele>249</ele>
        <time>2011-04-10T07:26:20Z</time>
      </trkpt>
      <trkpt lat="49.17929" lon="7.00087">
        <ele>249</ele>
        <time>2011-04-10T07:26:21Z</time>
      </trkpt>
      <trkpt lat="49.17931" lon="7.00087">
        <ele>249</ele>
        <time>2011-04-10T07:26:22Z</time>
      </trkpt>
      <trkpt lat="49.17932" lon="7.00087">
        <ele>249</ele>
        <time>2011-04-10T07:26:23Z</time>
      </trkpt>
      <trkpt lat="49.17934" lon="7.00086">
        <ele>249</ele>
        <time>2011-04-10T07:26:24Z</time>
      </trkpt>
      <trkpt lat="49.17935" lon="7.00086">
        <ele>249</ele>
        <time>2011-04-10T07:26:25Z</time>
      </trkpt>
      <trkpt lat="49.17936" lon="7.00085">
        <ele>249</ele>
        <time>2011-04-10T07:26:26Z</time>
      </trkpt>
      <trkpt lat="49.17937" lon="7.00085">
        <ele>249</ele>
        <time>2011-04-10T07:26:27Z</time>
      </trkpt>
      <trkpt lat="49.17939" lon="7.00084">
        <ele>249</ele>
        <time>2011-04-10T07:26:29Z</time>
      </trkpt>
      <trkpt lat="49.17941" lon="7.00083">
        <ele>249</ele>
        <time>2011-04-10T07:26:31Z</time>
      </trkpt>
      <trkpt lat="49.17942" lon="7.00083">
        <ele>249</ele>
        <time>2011-04-10T07:26:32Z</time>
      </trkpt>
      <trkpt lat="49.17943" lon="7.00082">
        <ele>249</ele>
        <time>2011-04-10T07:26:33Z</time>
      </trkpt>
      <trkpt lat="49.17945" lon="7.00082">
        <ele>249</ele>
        <time>2011-04-10T07:26:34Z</time>
      </trkpt>
      <trkpt lat="49.17946" lon="7.00081">
        <ele>249</ele>
        <time>2011-04-10T07:26:35Z</time>
      </trkpt>
      <trkpt lat="49.17947" lon="7.00081">
        <ele>249</ele>
        <time>2011-04-10T07:26:36Z</time>
      </trkpt>
      <trkpt lat="49.17949" lon="7.00079">
        <ele>249</ele>
        <time>2011-04-10T07:26:38Z</time>
      </trkpt>
      <trkpt lat="49.1795" lon="7.00079">
        <ele>249</ele>
        <time>2011-04-10T07:26:39Z</time>
      </trkpt>
      <trkpt lat="49.17953" lon="7.00078">
        <ele>249</ele>
        <time>2011-04-10T07:26:41Z</time>
      </trkpt>
      <trkpt lat="49.17954" lon="7.00078">
        <ele>249</ele>
        <time>2011-04-10T07:26:42Z</time>
      </trkpt>
      <trkpt lat="49.17955" lon="7.00077">
        <ele>249</ele>
        <time>2011-04-10T07:26:43Z</time>
      </trkpt>
      <trkpt lat="49.17956" lon="7.00076">
        <ele>249</ele>
        <time>2011-04-10T07:26:44Z</time>
      </trkpt>
      <trkpt lat="49.17958" lon="7.00076">
        <ele>249</ele>
        <time>2011-04-10T07:26:45Z</time>
      </trkpt>
      <trkpt lat="49.1796" lon="7.00075">
        <ele>249</ele>
        <time>2011-04-10T07:26:47Z</time>
      </trkpt>
      <trkpt lat="49.17961" lon="7.00074">
        <ele>249</ele>
        <time>2011-04-10T07:26:48Z</time>
      </trkpt>
      <trkpt lat="49.17963" lon="7.00074">
        <ele>249</ele>
        <time>2011-04-10T07:26:49Z</time>
      </trkpt>
      <trkpt lat="49.17964" lon="7.00073">
        <ele>249</ele>
        <time>2011-04-10T07:26:50Z</time>
      </trkpt>
      <trkpt lat="49.17965" lon="7.00073">
        <ele>249</ele>
        <time>2011-04-10T07:26:51Z</time>
      </trkpt>
      <trkpt lat="49.17966" lon="7.00072">
        <ele>249</ele>
        <time>2011-04-10T07:26:52Z</time>
      </trkpt>
      <trkpt lat="49.17967" lon="7.00072">
        <ele>249</ele>
        <time>2011-04-10T07:26:53Z</time>
      </trkpt>
      <trkpt lat="49.17968" lon="7.00071">
        <ele>249</ele>
        <time>2011-04-10T07:26:54Z</time>
      </trkpt>
      <trkpt lat="49.1797" lon="7.0007">
        <ele>249</ele>
        <time>2011-04-10T07:26:55Z</time>
      </trkpt>
      <trkpt lat="49.17971" lon="7.0007">
        <ele>249</ele>
        <time>2011-04-10T07:26:56Z</time>
      </trkpt>
      <trkpt lat="49.17973" lon="7.00069">
        <ele>249</ele>
        <time>2011-04-10T07:26:58Z</time>
      </trkpt>
      <trkpt lat="49.17975" lon="7.00069">
        <ele>249</ele>
        <time>2011-04-10T07:26:59Z</time>
      </trkpt>
      <trkpt lat="49.17976" lon="7.00068">
        <ele>249</ele>
        <time>2011-04-10T07:27:00Z</time>
      </trkpt>
      <trkpt lat="49.17977" lon="7.00068">
        <ele>249</ele>
        <time>2011-04-10T07:27:01Z</time>
      </trkpt>
      <trkpt lat="49.17979" lon="7.00066">
        <ele>249</ele>
        <time>2011-04-10T07:27:03Z</time>
      </trkpt>
      <trkpt lat="49.17981" lon="7.00066">
        <ele>249</ele>
        <time>2011-04-10T07:27:04Z</time>
      </trkpt>
      <trkpt lat="49.17983" lon="7.00065">
        <ele>249</ele>
        <time>2011-04-10T07:27:05Z</time>
      </trkpt>
      <trkpt lat="49.17984" lon="7.00064">
        <ele>249</ele>
        <time>2011-04-10T07:27:06Z</time>
      </trkpt>
      <trkpt lat="49.17985" lon="7.00064">
        <ele>249</ele>
        <time>2011-04-10T07:27:07Z</time>
      </trkpt>
      <trkpt lat="49.17986" lon="7.00063">
        <ele>249</ele>
        <time>2011-04-10T07:27:08Z</time>
      </trkpt>
      <trkpt lat="49.17988" lon="7.00062">
        <ele>249</ele>
        <time>2011-04-10T07:27:10Z</time>
      </trkpt>
      <trkpt lat="49.17989" lon="7.00061">
        <ele>249</ele>
        <time>2011-04-10T07:27:11Z</time>
      </trkpt>
      <trkpt lat="49.1799" lon="7.00061">
        <ele>249</ele>
        <time>2011-04-10T07:27:12Z</time>
      </trkpt>
      <trkpt lat="49.17992" lon="7.0006">
        <ele>249</ele>
        <time>2011-04-10T07:27:13Z</time>
      </trkpt>
      <trkpt lat="49.17994" lon="7.00059">
        <ele>249</ele>
        <time>2011-04-10T07:27:15Z</time>
      </trkpt>
      <trkpt lat="49.17996" lon="7.00058">
        <ele>249</ele>
        <time>2011-04-10T07:27:17Z</time>
      </trkpt>
      <trkpt lat="49.17997" lon="7.00057">
        <ele>249</ele>
        <time>2011-04-10T07:27:18Z</time>
      </trkpt>
      <trkpt lat="49.17999" lon="7.00056">
        <ele>249</ele>
        <time>2011-04-10T07:27:19Z</time>
      </trkpt>
      <trkpt lat="49.18" lon="7.00055">
        <ele>249</ele>
        <time>2011-04-10T07:27:20Z</time>
      </trkpt>
      <trkpt lat="49.18001" lon="7.00054">
        <ele>249</ele>
        <time>2011-04-10T07:27:21Z</time>
      </trkpt>
      <trkpt lat="49.18003" lon="7.00051">
        <ele>249</ele>
        <time>2011-04-10T07:27:23Z</time>
      </trkpt>
      <trkpt lat="49.18005" lon="7.0005">
        <ele>249</ele>
        <time>2011-04-10T07:27:25Z</time>
      </trkpt>
      <trkpt lat="49.18007" lon="7.00047">
        <ele>249</ele>
        <time>2011-04-10T07:27:27Z</time>
      </trkpt>
      <trkpt lat="49.18009" lon="7.00044">
        <ele>249</ele>
        <time>2011-04-10T07:27:29Z</time>
      </trkpt>
      <trkpt lat="49.1801" lon="7.00042">
        <ele>249</ele>
        <time>2011-04-10T07:27:30Z</time>
      </trkpt>
      <trkpt lat="49.1801" lon="7.0004">
        <ele>249</ele>
        <time>2011-04-10T07:27:31Z</time>
      </trkpt>
      <trkpt lat="49.18011" lon="7.00038">
        <ele>249</ele>
        <time>2011-04-10T07:27:32Z</time>
      </trkpt>
      <trkpt lat="49.18011" lon="7.00036">
        <ele>249</ele>
        <time>2011-04-10T07:27:33Z</time>
      </trkpt>
      <trkpt lat="49.18011" lon="7.00034">
        <ele>249</ele>
        <time>2011-04-10T07:27:34Z</time>
      </trkpt>
      <trkpt lat="49.18011" lon="7.00033">
        <ele>249</ele>
        <time>2011-04-10T07:27:35Z</time>
      </trkpt>
      <trkpt lat="49.18011" lon="7.00031">
        <ele>249</ele>
        <time>2011-04-10T07:27:36Z</time>
      </trkpt>
      <trkpt lat="49.18011" lon="7.00029">
        <ele>249</ele>
        <time>2011-04-10T07:27:37Z</time>
      </trkpt>
      <trkpt lat="49.18011" lon="7.00026">
        <ele>249</ele>
        <time>2011-04-10T07:27:38Z</time>
      </trkpt>
      <trkpt lat="49.1801" lon="7.00025">
        <ele>249</ele>
        <time>2011-04-10T07:27:39Z</time>
      </trkpt>
      <trkpt lat="49.1801" lon="7.00023">
        <ele>249</ele>
        <time>2011-04-10T07:27:40Z</time>
      </trkpt>
      <trkpt lat="49.1801" lon="7.00021">
        <ele>249</ele>
        <time>2011-04-10T07:27:41Z</time>
      </trkpt>
      <trkpt lat="49.18009" lon="7.00019">
        <ele>249</ele>
        <time>2011-04-10T07:27:42Z</time>
      </trkpt>
      <trkpt lat="49.18009" lon="7.00017">
        <ele>249</ele>
        <time>2011-04-10T07:27:43Z</time>
      </trkpt>
      <trkpt lat="49.18008" lon="7.00014">
        <ele>249</ele>
        <time>2011-04-10T07:27:45Z</time>
      </trkpt>
      <trkpt lat="49.18007" lon="7.00011">
        <ele>249</ele>
        <time>2011-04-10T07:27:47Z</time>
      </trkpt>
      <trkpt lat="49.18006" lon="7.00008">
        <ele>249</ele>
        <time>2011-04-10T07:27:49Z</time>
      </trkpt>
      <trkpt lat="49.18005" lon="7.00005">
        <ele>249</ele>
        <time>2011-04-10T07:27:51Z</time>
      </trkpt>
      <trkpt lat="49.18003" lon="7.00002">
        <ele>249</ele>
        <time>2011-04-10T07:27:53Z</time>
      </trkpt>
      <trkpt lat="49.18002" lon="6.99999">
        <ele>249</ele>
        <time>2011-04-10T07:27:55Z</time>
      </trkpt>
      <trkpt lat="49.18002" lon="6.99997">
        <ele>249</ele>
        <time>2011-04-10T07:27:56Z</time>
      </trkpt>
      <trkpt lat="49.18001" lon="6.99996">
        <ele>249</ele>
        <time>2011-04-10T07:27:57Z</time>
      </trkpt>
      <trkpt lat="49.18001" lon="6.99994">
        <ele>249</ele>
        <time>2011-04-10T07:27:58Z</time>
      </trkpt>
      <trkpt lat="49.18001" lon="6.99992">
        <ele>249</ele>
        <time>2011-04-10T07:27:59Z</time>
      </trkpt>
      <trkpt lat="49.18003" lon="6.99992">
        <ele>249</ele>
        <time>2011-04-10T07:28:01Z</time>
      </trkpt>
      <trkpt lat="49.18004" lon="6.99992">
        <ele>249</ele>
        <time>2011-04-10T07:28:02Z</time>
      </trkpt>
      <trkpt lat="49.18006" lon="6.99995">
        <ele>249</ele>
        <time>2011-04-10T07:28:04Z</time>
      </trkpt>
      <trkpt lat="49.18007" lon="6.99998">
        <ele>249</ele>
        <time>2011-04-10T07:28:06Z</time>
      </trkpt>
      <trkpt lat="49.18009" lon="7">
        <ele>249</ele>
        <time>2011-04-10T07:28:08Z</time>
      </trkpt>
      <trkpt lat="49.18011" lon="7.00002">
        <ele>249</ele>
        <time>2011-04-10T07:28:10Z</time>
      </trkpt>
      <trkpt lat="49.18013" lon="7.00004">
        <ele>248</ele>
        <time>2011-04-10T07:28:12Z</time>
      </trkpt>
      <trkpt lat="49.18015" lon="7.00006">
        <ele>247</ele>
        <time>2011-04-10T07:28:14Z</time>
      </trkpt>
      <trkpt lat="49.18017" lon="7.00009">
        <ele>247</ele>
        <time>2011-04-10T07:28:16Z</time>
      </trkpt>
      <trkpt lat="49.18019" lon="7.00011">
        <ele>246</ele>
        <time>2011-04-10T07:28:18Z</time>
      </trkpt>
      <trkpt lat="49.1802" lon="7.00011">
        <ele>246</ele>
        <time>2011-04-10T07:28:19Z</time>
      </trkpt>
      <trkpt lat="49.18021" lon="7.00012">
        <ele>246</ele>
        <time>2011-04-10T07:28:20Z</time>
      </trkpt>
      <trkpt lat="49.18023" lon="7.00013">
        <ele>246</ele>
        <time>2011-04-10T07:28:21Z</time>
      </trkpt>
      <trkpt lat="49.18025" lon="7.00014">
        <ele>246</ele>
        <time>2011-04-10T07:28:23Z</time>
      </trkpt>
      <trkpt lat="49.18026" lon="7.00015">
        <ele>246</ele>
        <time>2011-04-10T07:28:24Z</time>
      </trkpt>
      <trkpt lat="49.18028" lon="7.00016">
        <ele>246</ele>
        <time>2011-04-10T07:28:26Z</time>
      </trkpt>
      <trkpt lat="49.18029" lon="7.00016">
        <ele>246</ele>
        <time>2011-04-10T07:28:27Z</time>
      </trkpt>
      <trkpt lat="49.18031" lon="7.00015">
        <ele>246</ele>
        <time>2011-04-10T07:28:29Z</time>
      </trkpt>
      <trkpt lat="49.18033" lon="7.00015">
        <ele>246</ele>
        <time>2011-04-10T07:28:30Z</time>
      </trkpt>
      <trkpt lat="49.18034" lon="7.00014">
        <ele>246</ele>
        <time>2011-04-10T07:28:31Z</time>
      </trkpt>
      <trkpt lat="49.18035" lon="7.00014">
        <ele>246</ele>
        <time>2011-04-10T07:28:32Z</time>
      </trkpt>
      <trkpt lat="49.18036" lon="7.00014">
        <ele>246</ele>
        <time>2011-04-10T07:28:33Z</time>
      </trkpt>
      <trkpt lat="49.18037" lon="7.00015">
        <ele>246</ele>
        <time>2011-04-10T07:28:34Z</time>
      </trkpt>
      <trkpt lat="49.18039" lon="7.00014">
        <ele>246</ele>
        <time>2011-04-10T07:28:35Z</time>
      </trkpt>
      <trkpt lat="49.18041" lon="7.00014">
        <ele>246</ele>
        <time>2011-04-10T07:28:37Z</time>
      </trkpt>
      <trkpt lat="49.18042" lon="7.00013">
        <ele>246</ele>
        <time>2011-04-10T07:28:39Z</time>
      </trkpt>
      <trkpt lat="49.18044" lon="7.00013">
        <ele>245</ele>
        <time>2011-04-10T07:28:41Z</time>
      </trkpt>
      <trkpt lat="49.18046" lon="7.00012">
        <ele>245</ele>
        <time>2011-04-10T07:28:42Z</time>
      </trkpt>
      <trkpt lat="49.18047" lon="7.00012">
        <ele>245</ele>
        <time>2011-04-10T07:28:43Z</time>
      </trkpt>
      <trkpt lat="49.18049" lon="7.00013">
        <ele>245</ele>
        <time>2011-04-10T07:28:44Z</time>
      </trkpt>
      <trkpt lat="49.1805" lon="7.00012">
        <ele>245</ele>
        <time>2011-04-10T07:28:45Z</time>
      </trkpt>
      <trkpt lat="49.18052" lon="7.00011">
        <ele>245</ele>
        <time>2011-04-10T07:28:47Z</time>
      </trkpt>
      <trkpt lat="49.18054" lon="7.0001">
        <ele>244</ele>
        <time>2011-04-10T07:28:49Z</time>
      </trkpt>
      <trkpt lat="49.18055" lon="7.0001">
        <ele>243</ele>
        <time>2011-04-10T07:28:50Z</time>
      </trkpt>
      <trkpt lat="49.18057" lon="7.0001">
        <ele>242</ele>
        <time>2011-04-10T07:28:52Z</time>
      </trkpt>
      <trkpt lat="49.1806" lon="7.00008">
        <ele>242</ele>
        <time>2011-04-10T07:28:54Z</time>
      </trkpt>
      <trkpt lat="49.18061" lon="7.00007">
        <ele>242</ele>
        <time>2011-04-10T07:28:55Z</time>
      </trkpt>
      <trkpt lat="49.18063" lon="7.00007">
        <ele>242</ele>
        <time>2011-04-10T07:28:56Z</time>
      </trkpt>
      <trkpt lat="49.18064" lon="7.00006">
        <ele>242</ele>
        <time>2011-04-10T07:28:57Z</time>
      </trkpt>
      <trkpt lat="49.18066" lon="7.00005">
        <ele>242</ele>
        <time>2011-04-10T07:28:58Z</time>
      </trkpt>
      <trkpt lat="49.18067" lon="7.00005">
        <ele>242</ele>
        <time>2011-04-10T07:28:59Z</time>
      </trkpt>
      <trkpt lat="49.18068" lon="7.00005">
        <ele>242</ele>
        <time>2011-04-10T07:29:00Z</time>
      </trkpt>
      <trkpt lat="49.18071" lon="7.00004">
        <ele>242</ele>
        <time>2011-04-10T07:29:02Z</time>
      </trkpt>
      <trkpt lat="49.18073" lon="7.00003">
        <ele>242</ele>
        <time>2011-04-10T07:29:04Z</time>
      </trkpt>
      <trkpt lat="49.18074" lon="7.00003">
        <ele>242</ele>
        <time>2011-04-10T07:29:05Z</time>
      </trkpt>
      <trkpt lat="49.18076" lon="7.00002">
        <ele>242</ele>
        <time>2011-04-10T07:29:07Z</time>
      </trkpt>
      <trkpt lat="49.18077" lon="7.00001">
        <ele>242</ele>
        <time>2011-04-10T07:29:08Z</time>
      </trkpt>
      <trkpt lat="49.18079" lon="7.00001">
        <ele>242</ele>
        <time>2011-04-10T07:29:10Z</time>
      </trkpt>
      <trkpt lat="49.18081" lon="7.00001">
        <ele>242</ele>
        <time>2011-04-10T07:29:11Z</time>
      </trkpt>
      <trkpt lat="49.18082" lon="7.00001">
        <ele>242</ele>
        <time>2011-04-10T07:29:12Z</time>
      </trkpt>
      <trkpt lat="49.18083" lon="7.00001">
        <ele>242</ele>
        <time>2011-04-10T07:29:13Z</time>
      </trkpt>
      <trkpt lat="49.18085" lon="7.00001">
        <ele>242</ele>
        <time>2011-04-10T07:29:14Z</time>
      </trkpt>
      <trkpt lat="49.18086" lon="7.00001">
        <ele>242</ele>
        <time>2011-04-10T07:29:15Z</time>
      </trkpt>
      <trkpt lat="49.18087" lon="7">
        <ele>242</ele>
        <time>2011-04-10T07:29:17Z</time>
      </trkpt>
      <trkpt lat="49.18089" lon="7">
        <ele>242</ele>
        <time>2011-04-10T07:29:19Z</time>
      </trkpt>
      <trkpt lat="49.1809" lon="7">
        <ele>242</ele>
        <time>2011-04-10T07:29:20Z</time>
      </trkpt>
      <trkpt lat="49.18091" lon="6.99999">
        <ele>242</ele>
        <time>2011-04-10T07:29:21Z</time>
      </trkpt>
      <trkpt lat="49.18092" lon="6.99999">
        <ele>242</ele>
        <time>2011-04-10T07:29:22Z</time>
      </trkpt>
      <trkpt lat="49.18094" lon="7">
        <ele>242</ele>
        <time>2011-04-10T07:29:23Z</time>
      </trkpt>
      <trkpt lat="49.18096" lon="7">
        <ele>242</ele>
        <time>2011-04-10T07:29:25Z</time>
      </trkpt>
      <trkpt lat="49.18097" lon="7">
        <ele>242</ele>
        <time>2011-04-10T07:29:26Z</time>
      </trkpt>
      <trkpt lat="49.18099" lon="7">
        <ele>242</ele>
        <time>2011-04-10T07:29:28Z</time>
      </trkpt>
      <trkpt lat="49.18102" lon="7">
        <ele>242</ele>
        <time>2011-04-10T07:29:30Z</time>
      </trkpt>
      <trkpt lat="49.18103" lon="7">
        <ele>242</ele>
        <time>2011-04-10T07:29:32Z</time>
      </trkpt>
      <trkpt lat="49.18105" lon="7">
        <ele>242</ele>
        <time>2011-04-10T07:29:34Z</time>
      </trkpt>
      <trkpt lat="49.18106" lon="7">
        <ele>241</ele>
        <time>2011-04-10T07:29:36Z</time>
      </trkpt>
      <trkpt lat="49.18108" lon="7">
        <ele>240</ele>
        <time>2011-04-10T07:29:38Z</time>
      </trkpt>
      <trkpt lat="49.1811" lon="7">
        <ele>240</ele>
        <time>2011-04-10T07:29:40Z</time>
      </trkpt>
      <trkpt lat="49.18112" lon="7">
        <ele>240</ele>
        <time>2011-04-10T07:29:42Z</time>
      </trkpt>
      <trkpt lat="49.18113" lon="7">
        <ele>240</ele>
        <time>2011-04-10T07:29:45Z</time>
      </trkpt>
      <trkpt lat="49.18115" lon="7">
        <ele>239</ele>
        <time>2011-04-10T07:29:55Z</time>
      </trkpt>
      <trkpt lat="49.18116" lon="7">
        <ele>238</ele>
        <time>2011-04-10T07:29:57Z</time>
      </trkpt>
      <trkpt lat="49.18117" lon="7">
        <ele>238</ele>
        <time>2011-04-10T07:29:59Z</time>
      </trkpt>
      <trkpt lat="49.18118" lon="6.99998">
        <ele>237</ele>
        <time>2011-04-10T07:30:02Z</time>
      </trkpt>
      <trkpt lat="49.1812" lon="6.99997">
        <ele>237</ele>
        <time>2011-04-10T07:30:12Z</time>
      </trkpt>
      <trkpt lat="49.18121" lon="6.99999">
        <ele>236</ele>
        <time>2011-04-10T07:30:14Z</time>
      </trkpt>
      <trkpt lat="49.18122" lon="7.00001">
        <ele>236</ele>
        <time>2011-04-10T07:30:17Z</time>
      </trkpt>
      <trkpt lat="49.18123" lon="7.00002">
        <ele>235</ele>
        <time>2011-04-10T07:30:20Z</time>
      </trkpt>
      <trkpt lat="49.18125" lon="7.00003">
        <ele>235</ele>
        <time>2011-04-10T07:30:22Z</time>
      </trkpt>
      <trkpt lat="49.18126" lon="7.00005">
        <ele>234</ele>
        <time>2011-04-10T07:30:25Z</time>
      </trkpt>
      <trkpt lat="49.18127" lon="7.00005">
        <ele>234</ele>
        <time>2011-04-10T07:30:28Z</time>
      </trkpt>
      <trkpt lat="49.18129" lon="7.00005">
        <ele>234</ele>
        <time>2011-04-10T07:30:30Z</time>
      </trkpt>
      <trkpt lat="49.1813" lon="7.00006">
        <ele>234</ele>
        <time>2011-04-10T07:30:33Z</time>
      </trkpt>
      <trkpt lat="49.18132" lon="7.00006">
        <ele>234</ele>
        <time>2011-04-10T07:30:38Z</time>
      </trkpt>
      <trkpt lat="49.18133" lon="7.00006">
        <ele>234</ele>
        <time>2011-04-10T07:30:39Z</time>
      </trkpt>
      <trkpt lat="49.18134" lon="7.00006">
        <ele>234</ele>
        <time>2011-04-10T07:30:40Z</time>
      </trkpt>
      <trkpt lat="49.18135" lon="7.00007">
        <ele>234</ele>
        <time>2011-04-10T07:30:41Z</time>
      </trkpt>
      <trkpt lat="49.18137" lon="7.00008">
        <ele>234</ele>
        <time>2011-04-10T07:30:43Z</time>
      </trkpt>
      <trkpt lat="49.18139" lon="7.0001">
        <ele>234</ele>
        <time>2011-04-10T07:30:45Z</time>
      </trkpt>
      <trkpt lat="49.1814" lon="7.0001">
        <ele>234</ele>
        <time>2011-04-10T07:30:46Z</time>
      </trkpt>
      <trkpt lat="49.18142" lon="7.00012">
        <ele>234</ele>
        <time>2011-04-10T07:30:48Z</time>
      </trkpt>
      <trkpt lat="49.18144" lon="7.00013">
        <ele>234</ele>
        <time>2011-04-10T07:30:50Z</time>
      </trkpt>
      <trkpt lat="49.18146" lon="7.00014">
        <ele>234</ele>
        <time>2011-04-10T07:30:52Z</time>
      </trkpt>
      <trkpt lat="49.18148" lon="7.00016">
        <ele>234</ele>
        <time>2011-04-10T07:30:54Z</time>
      </trkpt>
      <trkpt lat="49.18149" lon="7.00016">
        <ele>234</ele>
        <time>2011-04-10T07:30:55Z</time>
      </trkpt>
      <trkpt lat="49.18151" lon="7.00017">
        <ele>234</ele>
        <time>2011-04-10T07:30:57Z</time>
      </trkpt>
      <trkpt lat="49.18153" lon="7.00018">
        <ele>234</ele>
        <time>2011-04-10T07:30:59Z</time>
      </trkpt>
      <trkpt lat="49.18155" lon="7.0002">
        <ele>234</ele>
        <time>2011-04-10T07:31:01Z</time>
      </trkpt>
      <trkpt lat="49.18156" lon="7.00021">
        <ele>234</ele>
        <time>2011-04-10T07:31:02Z</time>
      </trkpt>
      <trkpt lat="49.18158" lon="7.00022">
        <ele>234</ele>
        <time>2011-04-10T07:31:04Z</time>
      </trkpt>
      <trkpt lat="49.18159" lon="7.00023">
        <ele>234</ele>
        <time>2011-04-10T07:31:05Z</time>
      </trkpt>
      <trkpt lat="49.18161" lon="7.00025">
        <ele>234</ele>
        <time>2011-04-10T07:31:07Z</time>
      </trkpt>
      <trkpt lat="49.18163" lon="7.00025">
        <ele>234</ele>
        <time>2011-04-10T07:31:08Z</time>
      </trkpt>
      <trkpt lat="49.18165" lon="7.00027">
        <ele>234</ele>
        <time>2011-04-10T07:31:10Z</time>
      </trkpt>
      <trkpt lat="49.18166" lon="7.00029">
        <ele>234</ele>
        <time>2011-04-10T07:31:11Z</time>
      </trkpt>
      <trkpt lat="49.18168" lon="7.0003">
        <ele>234</ele>
        <time>2011-04-10T07:31:13Z</time>
      </trkpt>
      <trkpt lat="49.1817" lon="7.00033">
        <ele>233</ele>
        <time>2011-04-10T07:31:15Z</time>
      </trkpt>
      <trkpt lat="49.18171" lon="7.00034">
        <ele>233</ele>
        <time>2011-04-10T07:31:16Z</time>
      </trkpt>
      <trkpt lat="49.18173" lon="7.00035">
        <ele>232</ele>
        <time>2011-04-10T07:31:18Z</time>
      </trkpt>
      <trkpt lat="49.18174" lon="7.00036">
        <ele>232</ele>
        <time>2011-04-10T07:31:19Z</time>
      </trkpt>
      <trkpt lat="49.18177" lon="7.00039">
        <ele>231</ele>
        <time>2011-04-10T07:31:21Z</time>
      </trkpt>
      <trkpt lat="49.18178" lon="7.00041">
        <ele>231</ele>
        <time>2011-04-10T07:31:23Z</time>
      </trkpt>
      <trkpt lat="49.1818" lon="7.00044">
        <ele>231</ele>
        <time>2011-04-10T07:31:25Z</time>
      </trkpt>
      <trkpt lat="49.18182" lon="7.00046">
        <ele>231</ele>
        <time>2011-04-10T07:31:27Z</time>
      </trkpt>
      <trkpt lat="49.18184" lon="7.00049">
        <ele>231</ele>
        <time>2011-04-10T07:31:29Z</time>
      </trkpt>
      <trkpt lat="49.18186" lon="7.00051">
        <ele>231</ele>
        <time>2011-04-10T07:31:31Z</time>
      </trkpt>
      <trkpt lat="49.18188" lon="7.00054">
        <ele>231</ele>
        <time>2011-04-10T07:31:33Z</time>
      </trkpt>
      <trkpt lat="49.18189" lon="7.00056">
        <ele>231</ele>
        <time>2011-04-10T07:31:35Z</time>
      </trkpt>
      <trkpt lat="49.18191" lon="7.00058">
        <ele>231</ele>
        <time>2011-04-10T07:31:37Z</time>
      </trkpt>
      <trkpt lat="49.18193" lon="7.0006">
        <ele>231</ele>
        <time>2011-04-10T07:31:39Z</time>
      </trkpt>
      <trkpt lat="49.18195" lon="7.00062">
        <ele>230</ele>
        <time>2011-04-10T07:31:41Z</time>
      </trkpt>
      <trkpt lat="49.18196" lon="7.00063">
        <ele>230</ele>
        <time>2011-04-10T07:31:42Z</time>
      </trkpt>
      <trkpt lat="49.18198" lon="7.00064">
        <ele>230</ele>
        <time>2011-04-10T07:31:43Z</time>
      </trkpt>
      <trkpt lat="49.18199" lon="7.00064">
        <ele>230</ele>
        <time>2011-04-10T07:31:44Z</time>
      </trkpt>
      <trkpt lat="49.182" lon="7.00065">
        <ele>230</ele>
        <time>2011-04-10T07:31:45Z</time>
      </trkpt>
      <trkpt lat="49.18201" lon="7.00066">
        <ele>230</ele>
        <time>2011-04-10T07:31:46Z</time>
      </trkpt>
      <trkpt lat="49.18203" lon="7.00067">
        <ele>229</ele>
        <time>2011-04-10T07:31:48Z</time>
      </trkpt>
      <trkpt lat="49.18205" lon="7.00068">
        <ele>229</ele>
        <time>2011-04-10T07:31:49Z</time>
      </trkpt>
      <trkpt lat="49.18207" lon="7.0007">
        <ele>229</ele>
        <time>2011-04-10T07:31:51Z</time>
      </trkpt>
      <trkpt lat="49.18209" lon="7.00071">
        <ele>228</ele>
        <time>2011-04-10T07:31:53Z</time>
      </trkpt>
      <trkpt lat="49.18211" lon="7.00072">
        <ele>228</ele>
        <time>2011-04-10T07:31:55Z</time>
      </trkpt>
      <trkpt lat="49.18212" lon="7.00072">
        <ele>227</ele>
        <time>2011-04-10T07:31:56Z</time>
      </trkpt>
      <trkpt lat="49.18213" lon="7.00072">
        <ele>227</ele>
        <time>2011-04-10T07:31:57Z</time>
      </trkpt>
      <trkpt lat="49.18215" lon="7.00073">
        <ele>227</ele>
        <time>2011-04-10T07:31:58Z</time>
      </trkpt>
      <trkpt lat="49.18216" lon="7.00073">
        <ele>226</ele>
        <time>2011-04-10T07:31:59Z</time>
      </trkpt>
      <trkpt lat="49.18218" lon="7.00072">
        <ele>226</ele>
        <time>2011-04-10T07:32:01Z</time>
      </trkpt>
      <trkpt lat="49.1822" lon="7.00071">
        <ele>226</ele>
        <time>2011-04-10T07:32:03Z</time>
      </trkpt>
      <trkpt lat="49.18221" lon="7.0007">
        <ele>226</ele>
        <time>2011-04-10T07:32:04Z</time>
      </trkpt>
      <trkpt lat="49.18223" lon="7.0007">
        <ele>226</ele>
        <time>2011-04-10T07:32:05Z</time>
      </trkpt>
      <trkpt lat="49.18224" lon="7.00069">
        <ele>226</ele>
        <time>2011-04-10T07:32:06Z</time>
      </trkpt>
      <trkpt lat="49.18225" lon="7.00068">
        <ele>226</ele>
        <time>2011-04-10T07:32:07Z</time>
      </trkpt>
      <trkpt lat="49.18227" lon="7.00066">
        <ele>226</ele>
        <time>2011-04-10T07:32:09Z</time>
      </trkpt>
      <trkpt lat="49.1823" lon="7.00065">
        <ele>226</ele>
        <time>2011-04-10T07:32:11Z</time>
      </trkpt>
      <trkpt lat="49.18231" lon="7.00063">
        <ele>226</ele>
        <time>2011-04-10T07:32:13Z</time>
      </trkpt>
      <trkpt lat="49.18233" lon="7.00061">
        <ele>226</ele>
        <time>2011-04-10T07:32:15Z</time>
      </trkpt>
      <trkpt lat="49.18234" lon="7.00059">
        <ele>225</ele>
        <time>2011-04-10T07:32:17Z</time>
      </trkpt>
      <trkpt lat="49.18236" lon="7.00058">
        <ele>224</ele>
        <time>2011-04-10T07:32:19Z</time>
      </trkpt>
      <trkpt lat="49.18237" lon="7.00056">
        <ele>223</ele>
        <time>2011-04-10T07:32:21Z</time>
      </trkpt>
      <trkpt lat="49.18238" lon="7.00054">
        <ele>222</ele>
        <time>2011-04-10T07:32:23Z</time>
      </trkpt>
      <trkpt lat="49.1824" lon="7.00052">
        <ele>221</ele>
        <time>2011-04-10T07:32:25Z</time>
      </trkpt>
      <trkpt lat="49.18242" lon="7.0005">
        <ele>219</ele>
        <time>2011-04-10T07:32:27Z</time>
      </trkpt>
      <trkpt lat="49.18244" lon="7.00049">
        <ele>219</ele>
        <time>2011-04-10T07:32:29Z</time>
      </trkpt>
      <trkpt lat="49.18245" lon="7.00048">
        <ele>218</ele>
        <time>2011-04-10T07:32:30Z</time>
      </trkpt>
      <trkpt lat="49.18246" lon="7.00047">
        <ele>218</ele>
        <time>2011-04-10T07:32:31Z</time>
      </trkpt>
      <trkpt lat="49.18248" lon="7.00046">
        <ele>218</ele>
        <time>2011-04-10T07:32:33Z</time>
      </trkpt>
      <trkpt lat="49.18251" lon="7.00044">
        <ele>217</ele>
        <time>2011-04-10T07:32:35Z</time>
      </trkpt>
      <trkpt lat="49.18252" lon="7.00043">
        <ele>217</ele>
        <time>2011-04-10T07:32:36Z</time>
      </trkpt>
      <trkpt lat="49.18253" lon="7.00042">
        <ele>217</ele>
        <time>2011-04-10T07:32:37Z</time>
      </trkpt>
      <trkpt lat="49.18255" lon="7.0004">
        <ele>217</ele>
        <time>2011-04-10T07:32:39Z</time>
      </trkpt>
      <trkpt lat="49.18256" lon="7.00039">
        <ele>217</ele>
        <time>2011-04-10T07:32:40Z</time>
      </trkpt>
      <trkpt lat="49.18259" lon="7.00037">
        <ele>217</ele>
        <time>2011-04-10T07:32:42Z</time>
      </trkpt>
      <trkpt lat="49.18261" lon="7.00035">
        <ele>217</ele>
        <time>2011-04-10T07:32:44Z</time>
      </trkpt>
      <trkpt lat="49.18262" lon="7.00034">
        <ele>217</ele>
        <time>2011-04-10T07:32:45Z</time>
      </trkpt>
      <trkpt lat="49.18263" lon="7.00033">
        <ele>217</ele>
        <time>2011-04-10T07:32:46Z</time>
      </trkpt>
      <trkpt lat="49.18265" lon="7.00031">
        <ele>216</ele>
        <time>2011-04-10T07:32:48Z</time>
      </trkpt>
      <trkpt lat="49.18267" lon="7.0003">
        <ele>216</ele>
        <time>2011-04-10T07:32:49Z</time>
      </trkpt>
      <trkpt lat="49.18268" lon="7.00029">
        <ele>216</ele>
        <time>2011-04-10T07:32:50Z</time>
      </trkpt>
      <trkpt lat="49.18269" lon="7.00028">
        <ele>216</ele>
        <time>2011-04-10T07:32:51Z</time>
      </trkpt>
      <trkpt lat="49.1827" lon="7.00025">
        <ele>216</ele>
        <time>2011-04-10T07:32:53Z</time>
      </trkpt>
      <trkpt lat="49.18272" lon="7.00024">
        <ele>215</ele>
        <time>2011-04-10T07:32:55Z</time>
      </trkpt>
      <trkpt lat="49.18273" lon="7.00023">
        <ele>215</ele>
        <time>2011-04-10T07:32:56Z</time>
      </trkpt>
      <trkpt lat="49.18274" lon="7.00022">
        <ele>215</ele>
        <time>2011-04-10T07:32:57Z</time>
      </trkpt>
      <trkpt lat="49.18275" lon="7.00021">
        <ele>214</ele>
        <time>2011-04-10T07:32:58Z</time>
      </trkpt>
      <trkpt lat="49.18277" lon="7.00019">
        <ele>214</ele>
        <time>2011-04-10T07:33:00Z</time>
      </trkpt>
      <trkpt lat="49.18279" lon="7.00018">
        <ele>214</ele>
        <time>2011-04-10T07:33:02Z</time>
      </trkpt>
      <trkpt lat="49.1828" lon="7.00017">
        <ele>214</ele>
        <time>2011-04-10T07:33:03Z</time>
      </trkpt>
      <trkpt lat="49.18282" lon="7.00015">
        <ele>214</ele>
        <time>2011-04-10T07:33:05Z</time>
      </trkpt>
      <trkpt lat="49.18284" lon="7.00015">
        <ele>213</ele>
        <time>2011-04-10T07:33:06Z</time>
      </trkpt>
      <trkpt lat="49.18285" lon="7.00013">
        <ele>213</ele>
        <time>2011-04-10T07:33:08Z</time>
      </trkpt>
      <trkpt lat="49.18287" lon="7.00012">
        <ele>213</ele>
        <time>2011-04-10T07:33:09Z</time>
      </trkpt>
      <trkpt lat="49.18289" lon="7.0001">
        <ele>213</ele>
        <time>2011-04-10T07:33:11Z</time>
      </trkpt>
      <trkpt lat="49.1829" lon="7.0001">
        <ele>212</ele>
        <time>2011-04-10T07:33:12Z</time>
      </trkpt>
      <trkpt lat="49.18292" lon="7.0001">
        <ele>212</ele>
        <time>2011-04-10T07:33:13Z</time>
      </trkpt>
      <trkpt lat="49.18293" lon="7.00009">
        <ele>212</ele>
        <time>2011-04-10T07:33:14Z</time>
      </trkpt>
      <trkpt lat="49.18295" lon="7.00009">
        <ele>212</ele>
        <time>2011-04-10T07:33:15Z</time>
      </trkpt>
      <trkpt lat="49.18296" lon="7.00009">
        <ele>212</ele>
        <time>2011-04-10T07:33:16Z</time>
      </trkpt>
      <trkpt lat="49.18297" lon="7.0001">
        <ele>211</ele>
        <time>2011-04-10T07:33:17Z</time>
      </trkpt>
      <trkpt lat="49.18298" lon="7.0001">
        <ele>211</ele>
        <time>2011-04-10T07:33:18Z</time>
      </trkpt>
      <trkpt lat="49.183" lon="7.0001">
        <ele>211</ele>
        <time>2011-04-10T07:33:19Z</time>
      </trkpt>
      <trkpt lat="49.18301" lon="7.0001">
        <ele>210</ele>
        <time>2011-04-10T07:33:20Z</time>
      </trkpt>
      <trkpt lat="49.18303" lon="7.0001">
        <ele>210</ele>
        <time>2011-04-10T07:33:22Z</time>
      </trkpt>
      <trkpt lat="49.18305" lon="7.00012">
        <ele>209</ele>
        <time>2011-04-10T07:33:24Z</time>
      </trkpt>
      <trkpt lat="49.18307" lon="7.00013">
        <ele>209</ele>
        <time>2011-04-10T07:33:26Z</time>
      </trkpt>
      <trkpt lat="49.18309" lon="7.00013">
        <ele>209</ele>
        <time>2011-04-10T07:33:27Z</time>
      </trkpt>
      <trkpt lat="49.1831" lon="7.00013">
        <ele>209</ele>
        <time>2011-04-10T07:33:28Z</time>
      </trkpt>
      <trkpt lat="49.18312" lon="7.00013">
        <ele>209</ele>
        <time>2011-04-10T07:33:29Z</time>
      </trkpt>
      <trkpt lat="49.18313" lon="7.00014">
        <ele>209</ele>
        <time>2011-04-10T07:33:30Z</time>
      </trkpt>
      <trkpt lat="49.18314" lon="7.00015">
        <ele>209</ele>
        <time>2011-04-10T07:33:31Z</time>
      </trkpt>
      <trkpt lat="49.18316" lon="7.00016">
        <ele>209</ele>
        <time>2011-04-10T07:33:32Z</time>
      </trkpt>
      <trkpt lat="49.18317" lon="7.00017">
        <ele>209</ele>
        <time>2011-04-10T07:33:33Z</time>
      </trkpt>
      <trkpt lat="49.18319" lon="7.00019">
        <ele>209</ele>
        <time>2011-04-10T07:33:35Z</time>
      </trkpt>
      <trkpt lat="49.18321" lon="7.00021">
        <ele>209</ele>
        <time>2011-04-10T07:33:36Z</time>
      </trkpt>
      <trkpt lat="49.18322" lon="7.00022">
        <ele>209</ele>
        <time>2011-04-10T07:33:37Z</time>
      </trkpt>
      <trkpt lat="49.18323" lon="7.00024">
        <ele>209</ele>
        <time>2011-04-10T07:33:38Z</time>
      </trkpt>
      <trkpt lat="49.18325" lon="7.00027">
        <ele>209</ele>
        <time>2011-04-10T07:33:40Z</time>
      </trkpt>
      <trkpt lat="49.18326" lon="7.00028">
        <ele>209</ele>
        <time>2011-04-10T07:33:41Z</time>
      </trkpt>
      <trkpt lat="49.18328" lon="7.0003">
        <ele>209</ele>
        <time>2011-04-10T07:33:43Z</time>
      </trkpt>
      <trkpt lat="49.1833" lon="7.00033">
        <ele>209</ele>
        <time>2011-04-10T07:33:45Z</time>
      </trkpt>
      <trkpt lat="49.18332" lon="7.00035">
        <ele>209</ele>
        <time>2011-04-10T07:33:47Z</time>
      </trkpt>
      <trkpt lat="49.18334" lon="7.00037">
        <ele>209</ele>
        <time>2011-04-10T07:33:49Z</time>
      </trkpt>
      <trkpt lat="49.18335" lon="7.00039">
        <ele>209</ele>
        <time>2011-04-10T07:33:50Z</time>
      </trkpt>
      <trkpt lat="49.18337" lon="7.0004">
        <ele>209</ele>
        <time>2011-04-10T07:33:51Z</time>
      </trkpt>
      <trkpt lat="49.18339" lon="7.00043">
        <ele>209</ele>
        <time>2011-04-10T07:33:53Z</time>
      </trkpt>
      <trkpt lat="49.1834" lon="7.00044">
        <ele>209</ele>
        <time>2011-04-10T07:33:54Z</time>
      </trkpt>
      <trkpt lat="49.18342" lon="7.00045">
        <ele>209</ele>
        <time>2011-04-10T07:33:55Z</time>
      </trkpt>
      <trkpt lat="49.18344" lon="7.00047">
        <ele>209</ele>
        <time>2011-04-10T07:33:57Z</time>
      </trkpt>
      <trkpt lat="49.18345" lon="7.00048">
        <ele>209</ele>
        <time>2011-04-10T07:33:58Z</time>
      </trkpt>
      <trkpt lat="49.18346" lon="7.00049">
        <ele>209</ele>
        <time>2011-04-10T07:33:59Z</time>
      </trkpt>
      <trkpt lat="49.18348" lon="7.0005">
        <ele>209</ele>
        <time>2011-04-10T07:34:00Z</time>
      </trkpt>
      <trkpt lat="49.18349" lon="7.00051">
        <ele>209</ele>
        <time>2011-04-10T07:34:01Z</time>
      </trkpt>
      <trkpt lat="49.1835" lon="7.00052">
        <ele>209</ele>
        <time>2011-04-10T07:34:02Z</time>
      </trkpt>
      <trkpt lat="49.18351" lon="7.00053">
        <ele>209</ele>
        <time>2011-04-10T07:34:03Z</time>
      </trkpt>
      <trkpt lat="49.18353" lon="7.00054">
        <ele>209</ele>
        <time>2011-04-10T07:34:04Z</time>
      </trkpt>
      <trkpt lat="49.18354" lon="7.00054">
        <ele>209</ele>
        <time>2011-04-10T07:34:05Z</time>
      </trkpt>
      <trkpt lat="49.18356" lon="7.00055">
        <ele>209</ele>
        <time>2011-04-10T07:34:06Z</time>
      </trkpt>
      <trkpt lat="49.18357" lon="7.00056">
        <ele>209</ele>
        <time>2011-04-10T07:34:07Z</time>
      </trkpt>
      <trkpt lat="49.18358" lon="7.00057">
        <ele>209</ele>
        <time>2011-04-10T07:34:08Z</time>
      </trkpt>
      <trkpt lat="49.1836" lon="7.00058">
        <ele>209</ele>
        <time>2011-04-10T07:34:09Z</time>
      </trkpt>
      <trkpt lat="49.18361" lon="7.00059">
        <ele>209</ele>
        <time>2011-04-10T07:34:10Z</time>
      </trkpt>
      <trkpt lat="49.18363" lon="7.0006">
        <ele>209</ele>
        <time>2011-04-10T07:34:12Z</time>
      </trkpt>
      <trkpt lat="49.18364" lon="7.00061">
        <ele>209</ele>
        <time>2011-04-10T07:34:13Z</time>
      </trkpt>
      <trkpt lat="49.18366" lon="7.00062">
        <ele>209</ele>
        <time>2011-04-10T07:34:14Z</time>
      </trkpt>
      <trkpt lat="49.18367" lon="7.00062">
        <ele>209</ele>
        <time>2011-04-10T07:34:15Z</time>
      </trkpt>
      <trkpt lat="49.18369" lon="7.00062">
        <ele>209</ele>
        <time>2011-04-10T07:34:16Z</time>
      </trkpt>
      <trkpt lat="49.1837" lon="7.00062">
        <ele>209</ele>
        <time>2011-04-10T07:34:17Z</time>
      </trkpt>
      <trkpt lat="49.18372" lon="7.0006">
        <ele>209</ele>
        <time>2011-04-10T07:34:19Z</time>
      </trkpt>
      <trkpt lat="49.18373" lon="7.00059">
        <ele>209</ele>
        <time>2011-04-10T07:34:20Z</time>
      </trkpt>
      <trkpt lat="49.18375" lon="7.00056">
        <ele>209</ele>
        <time>2011-04-10T07:34:22Z</time>
      </trkpt>
      <trkpt lat="49.18376" lon="7.00053">
        <ele>209</ele>
        <time>2011-04-10T07:34:24Z</time>
      </trkpt>
      <trkpt lat="49.18377" lon="7.00051">
        <ele>209</ele>
        <time>2011-04-10T07:34:25Z</time>
      </trkpt>
      <trkpt lat="49.18378" lon="7.0005">
        <ele>209</ele>
        <time>2011-04-10T07:34:26Z</time>
      </trkpt>
      <trkpt lat="49.1838" lon="7.00046">
        <ele>209</ele>
        <time>2011-04-10T07:34:28Z</time>
      </trkpt>
      <trkpt lat="49.18381" lon="7.00045">
        <ele>209</ele>
        <time>2011-04-10T07:34:29Z</time>
      </trkpt>
      <trkpt lat="49.18382" lon="7.00044">
        <ele>209</ele>
        <time>2011-04-10T07:34:30Z</time>
      </trkpt>
      <trkpt lat="49.18384" lon="7.00041">
        <ele>209</ele>
        <time>2011-04-10T07:34:32Z</time>
      </trkpt>
      <trkpt lat="49.18386" lon="7.00037">
        <ele>209</ele>
        <time>2011-04-10T07:34:34Z</time>
      </trkpt>
      <trkpt lat="49.18388" lon="7.00035">
        <ele>209</ele>
        <time>2011-04-10T07:34:36Z</time>
      </trkpt>
      <trkpt lat="49.18391" lon="7.00032">
        <ele>209</ele>
        <time>2011-04-10T07:34:38Z</time>
      </trkpt>
      <trkpt lat="49.18393" lon="7.00029">
        <ele>209</ele>
        <time>2011-04-10T07:34:40Z</time>
      </trkpt>
      <trkpt lat="49.18395" lon="7.00027">
        <ele>209</ele>
        <time>2011-04-10T07:34:42Z</time>
      </trkpt>
      <trkpt lat="49.18397" lon="7.00025">
        <ele>209</ele>
        <time>2011-04-10T07:34:44Z</time>
      </trkpt>
      <trkpt lat="49.18399" lon="7.00023">
        <ele>209</ele>
        <time>2011-04-10T07:34:46Z</time>
      </trkpt>
      <trkpt lat="49.184" lon="7.00022">
        <ele>209</ele>
        <time>2011-04-10T07:34:47Z</time>
      </trkpt>
      <trkpt lat="49.18402" lon="7.00019">
        <ele>209</ele>
        <time>2011-04-10T07:34:49Z</time>
      </trkpt>
      <trkpt lat="49.18403" lon="7.00018">
        <ele>209</ele>
        <time>2011-04-10T07:34:50Z</time>
      </trkpt>
      <trkpt lat="49.18404" lon="7.00017">
        <ele>209</ele>
        <time>2011-04-10T07:34:51Z</time>
      </trkpt>
      <trkpt lat="49.18405" lon="7.00016">
        <ele>209</ele>
        <time>2011-04-10T07:34:52Z</time>
      </trkpt>
      <trkpt lat="49.18407" lon="7.00016">
        <ele>209</ele>
        <time>2011-04-10T07:34:53Z</time>
      </trkpt>
      <trkpt lat="49.18409" lon="7.00014">
        <ele>209</ele>
        <time>2011-04-10T07:34:55Z</time>
      </trkpt>
      <trkpt lat="49.18412" lon="7.00012">
        <ele>210</ele>
        <time>2011-04-10T07:34:57Z</time>
      </trkpt>
      <trkpt lat="49.18414" lon="7.0001">
        <ele>210</ele>
        <time>2011-04-10T07:34:59Z</time>
      </trkpt>
      <trkpt lat="49.18415" lon="7.00009">
        <ele>210</ele>
        <time>2011-04-10T07:35:00Z</time>
      </trkpt>
      <trkpt lat="49.18416" lon="7.00008">
        <ele>210</ele>
        <time>2011-04-10T07:35:01Z</time>
      </trkpt>
      <trkpt lat="49.18418" lon="7.00007">
        <ele>210</ele>
        <time>2011-04-10T07:35:03Z</time>
      </trkpt>
      <trkpt lat="49.1842" lon="7.00005">
        <ele>210</ele>
        <time>2011-04-10T07:35:05Z</time>
      </trkpt>
      <trkpt lat="49.18421" lon="7.00004">
        <ele>210</ele>
        <time>2011-04-10T07:35:06Z</time>
      </trkpt>
      <trkpt lat="49.18423" lon="7.00003">
        <ele>210</ele>
        <time>2011-04-10T07:35:07Z</time>
      </trkpt>
      <trkpt lat="49.18424" lon="7.00002">
        <ele>210</ele>
        <time>2011-04-10T07:35:08Z</time>
      </trkpt>
      <trkpt lat="49.18425" lon="7.00002">
        <ele>210</ele>
        <time>2011-04-10T07:35:09Z</time>
      </trkpt>
      <trkpt lat="49.18427" lon="7.00001">
        <ele>211</ele>
        <time>2011-04-10T07:35:10Z</time>
      </trkpt>
      <trkpt lat="49.18428" lon="7.00001">
        <ele>211</ele>
        <time>2011-04-10T07:35:11Z</time>
      </trkpt>
      <trkpt lat="49.1843" lon="7.00001">
        <ele>211</ele>
        <time>2011-04-10T07:35:13Z</time>
      </trkpt>
      <trkpt lat="49.18431" lon="7">
        <ele>212</ele>
        <time>2011-04-10T07:35:14Z</time>
      </trkpt>
      <trkpt lat="49.18433" lon="6.99998">
        <ele>212</ele>
        <time>2011-04-10T07:35:16Z</time>
      </trkpt>
      <trkpt lat="49.18435" lon="6.99998">
        <ele>212</ele>
        <time>2011-04-10T07:35:17Z</time>
      </trkpt>
      <trkpt lat="49.18436" lon="6.99997">
        <ele>212</ele>
        <time>2011-04-10T07:35:18Z</time>
      </trkpt>
      <trkpt lat="49.18438" lon="6.99995">
        <ele>212</ele>
        <time>2011-04-10T07:35:20Z</time>
      </trkpt>
      <trkpt lat="49.18439" lon="6.99994">
        <ele>212</ele>
        <time>2011-04-10T07:35:21Z</time>
      </trkpt>
      <trkpt lat="49.18441" lon="6.99994">
        <ele>212</ele>
        <time>2011-04-10T07:35:22Z</time>
      </trkpt>
      <trkpt lat="49.18442" lon="6.99993">
        <ele>212</ele>
        <time>2011-04-10T07:35:23Z</time>
      </trkpt>
      <trkpt lat="49.18443" lon="6.99993">
        <ele>212</ele>
        <time>2011-04-10T07:35:24Z</time>
      </trkpt>
      <trkpt lat="49.18444" lon="6.99992">
        <ele>212</ele>
        <time>2011-04-10T07:35:25Z</time>
      </trkpt>
      <trkpt lat="49.18446" lon="6.99992">
        <ele>213</ele>
        <time>2011-04-10T07:35:26Z</time>
      </trkpt>
      <trkpt lat="49.18447" lon="6.99991">
        <ele>213</ele>
        <time>2011-04-10T07:35:27Z</time>
      </trkpt>
      <trkpt lat="49.18448" lon="6.9999">
        <ele>213</ele>
        <time>2011-04-10T07:35:28Z</time>
      </trkpt>
      <trkpt lat="49.18449" lon="6.99989">
        <ele>213</ele>
        <time>2011-04-10T07:35:29Z</time>
      </trkpt>
      <trkpt lat="49.18451" lon="6.99989">
        <ele>214</ele>
        <time>2011-04-10T07:35:30Z</time>
      </trkpt>
      <trkpt lat="49.18452" lon="6.99988">
        <ele>214</ele>
        <time>2011-04-10T07:35:31Z</time>
      </trkpt>
      <trkpt lat="49.18454" lon="6.99987">
        <ele>214</ele>
        <time>2011-04-10T07:35:32Z</time>
      </trkpt>
      <trkpt lat="49.18455" lon="6.99987">
        <ele>215</ele>
        <time>2011-04-10T07:35:33Z</time>
      </trkpt>
      <trkpt lat="49.18457" lon="6.99986">
        <ele>216</ele>
        <time>2011-04-10T07:35:34Z</time>
      </trkpt>
      <trkpt lat="49.18458" lon="6.99985">
        <ele>216</ele>
        <time>2011-04-10T07:35:36Z</time>
      </trkpt>
      <trkpt lat="49.1846" lon="6.99985">
        <ele>216</ele>
        <time>2011-04-10T07:35:37Z</time>
      </trkpt>
      <trkpt lat="49.18461" lon="6.99984">
        <ele>216</ele>
        <time>2011-04-10T07:35:38Z</time>
      </trkpt>
      <trkpt lat="49.18462" lon="6.99983">
        <ele>216</ele>
        <time>2011-04-10T07:35:39Z</time>
      </trkpt>
      <trkpt lat="49.18464" lon="6.99982">
        <ele>216</ele>
        <time>2011-04-10T07:35:40Z</time>
      </trkpt>
      <trkpt lat="49.18465" lon="6.99981">
        <ele>217</ele>
        <time>2011-04-10T07:35:42Z</time>
      </trkpt>
      <trkpt lat="49.18467" lon="6.9998">
        <ele>217</ele>
        <time>2011-04-10T07:35:43Z</time>
      </trkpt>
      <trkpt lat="49.18468" lon="6.99979">
        <ele>217</ele>
        <time>2011-04-10T07:35:44Z</time>
      </trkpt>
      <trkpt lat="49.1847" lon="6.99979">
        <ele>217</ele>
        <time>2011-04-10T07:35:45Z</time>
      </trkpt>
      <trkpt lat="49.18471" lon="6.99978">
        <ele>217</ele>
        <time>2011-04-10T07:35:46Z</time>
      </trkpt>
      <trkpt lat="49.18472" lon="6.99978">
        <ele>218</ele>
        <time>2011-04-10T07:35:47Z</time>
      </trkpt>
      <trkpt lat="49.18473" lon="6.99977">
        <ele>218</ele>
        <time>2011-04-10T07:35:48Z</time>
      </trkpt>
      <trkpt lat="49.18475" lon="6.99976">
        <ele>218</ele>
        <time>2011-04-10T07:35:50Z</time>
      </trkpt>
      <trkpt lat="49.18478" lon="6.99975">
        <ele>218</ele>
        <time>2011-04-10T07:35:52Z</time>
      </trkpt>
      <trkpt lat="49.1848" lon="6.99974">
        <ele>218</ele>
        <time>2011-04-10T07:35:54Z</time>
      </trkpt>
      <trkpt lat="49.18481" lon="6.99974">
        <ele>218</ele>
        <time>2011-04-10T07:35:55Z</time>
      </trkpt>
      <trkpt lat="49.18483" lon="6.99973">
        <ele>218</ele>
        <time>2011-04-10T07:35:57Z</time>
      </trkpt>
      <trkpt lat="49.18484" lon="6.99972">
        <ele>218</ele>
        <time>2011-04-10T07:35:58Z</time>
      </trkpt>
      <trkpt lat="49.18485" lon="6.99972">
        <ele>218</ele>
        <time>2011-04-10T07:35:59Z</time>
      </trkpt>
      <trkpt lat="49.18486" lon="6.99972">
        <ele>218</ele>
        <time>2011-04-10T07:36:00Z</time>
      </trkpt>
      <trkpt lat="49.18488" lon="6.99971">
        <ele>218</ele>
        <time>2011-04-10T07:36:02Z</time>
      </trkpt>
      <trkpt lat="49.1849" lon="6.9997">
        <ele>219</ele>
        <time>2011-04-10T07:36:03Z</time>
      </trkpt>
      <trkpt lat="49.18491" lon="6.9997">
        <ele>219</ele>
        <time>2011-04-10T07:36:04Z</time>
      </trkpt>
      <trkpt lat="49.18493" lon="6.9997">
        <ele>219</ele>
        <time>2011-04-10T07:36:05Z</time>
      </trkpt>
      <trkpt lat="49.18494" lon="6.9997">
        <ele>219</ele>
        <time>2011-04-10T07:36:06Z</time>
      </trkpt>
      <trkpt lat="49.18496" lon="6.99969">
        <ele>220</ele>
        <time>2011-04-10T07:36:07Z</time>
      </trkpt>
      <trkpt lat="49.18497" lon="6.99969">
        <ele>220</ele>
        <time>2011-04-10T07:36:08Z</time>
      </trkpt>
      <trkpt lat="49.18499" lon="6.99968">
        <ele>220</ele>
        <time>2011-04-10T07:36:10Z</time>
      </trkpt>
      <trkpt lat="49.185" lon="6.99968">
        <ele>220</ele>
        <time>2011-04-10T07:36:11Z</time>
      </trkpt>
      <trkpt lat="49.18501" lon="6.99967">
        <ele>220</ele>
        <time>2011-04-10T07:36:12Z</time>
      </trkpt>
      <trkpt lat="49.18503" lon="6.99967">
        <ele>220</ele>
        <time>2011-04-10T07:36:13Z</time>
      </trkpt>
      <trkpt lat="49.18505" lon="6.99965">
        <ele>220</ele>
        <time>2011-04-10T07:36:15Z</time>
      </trkpt>
      <trkpt lat="49.18507" lon="6.99964">
        <ele>220</ele>
        <time>2011-04-10T07:36:16Z</time>
      </trkpt>
      <trkpt lat="49.18509" lon="6.99961">
        <ele>221</ele>
        <time>2011-04-10T07:36:18Z</time>
      </trkpt>
      <trkpt lat="49.18511" lon="6.9996">
        <ele>222</ele>
        <time>2011-04-10T07:36:19Z</time>
      </trkpt>
      <trkpt lat="49.18513" lon="6.99958">
        <ele>223</ele>
        <time>2011-04-10T07:36:20Z</time>
      </trkpt>
      <trkpt lat="49.18514" lon="6.99957">
        <ele>224</ele>
        <time>2011-04-10T07:36:21Z</time>
      </trkpt>
      <trkpt lat="49.18515" lon="6.99956">
        <ele>225</ele>
        <time>2011-04-10T07:36:22Z</time>
      </trkpt>
      <trkpt lat="49.18517" lon="6.99955">
        <ele>226</ele>
        <time>2011-04-10T07:36:23Z</time>
      </trkpt>
      <trkpt lat="49.18518" lon="6.99954">
        <ele>226</ele>
        <time>2011-04-10T07:36:24Z</time>
      </trkpt>
      <trkpt lat="49.1852" lon="6.99952">
        <ele>226</ele>
        <time>2011-04-10T07:36:26Z</time>
      </trkpt>
      <trkpt lat="49.18522" lon="6.99951">
        <ele>226</ele>
        <time>2011-04-10T07:36:28Z</time>
      </trkpt>
      <trkpt lat="49.18524" lon="6.99949">
        <ele>226</ele>
        <time>2011-04-10T07:36:30Z</time>
      </trkpt>
      <trkpt lat="49.18525" lon="6.99948">
        <ele>226</ele>
        <time>2011-04-10T07:36:31Z</time>
      </trkpt>
      <trkpt lat="49.18527" lon="6.99947">
        <ele>226</ele>
        <time>2011-04-10T07:36:33Z</time>
      </trkpt>
      <trkpt lat="49.18529" lon="6.99944">
        <ele>226</ele>
        <time>2011-04-10T07:36:35Z</time>
      </trkpt>
      <trkpt lat="49.18531" lon="6.99942">
        <ele>226</ele>
        <time>2011-04-10T07:36:37Z</time>
      </trkpt>
      <trkpt lat="49.18533" lon="6.9994">
        <ele>226</ele>
        <time>2011-04-10T07:36:38Z</time>
      </trkpt>
      <trkpt lat="49.18534" lon="6.99938">
        <ele>226</ele>
        <time>2011-04-10T07:36:40Z</time>
      </trkpt>
      <trkpt lat="49.18536" lon="6.99936">
        <ele>226</ele>
        <time>2011-04-10T07:36:42Z</time>
      </trkpt>
      <trkpt lat="49.18539" lon="6.99934">
        <ele>226</ele>
        <time>2011-04-10T07:36:44Z</time>
      </trkpt>
      <trkpt lat="49.1854" lon="6.99933">
        <ele>226</ele>
        <time>2011-04-10T07:36:45Z</time>
      </trkpt>
      <trkpt lat="49.18541" lon="6.99933">
        <ele>226</ele>
        <time>2011-04-10T07:36:46Z</time>
      </trkpt>
      <trkpt lat="49.18543" lon="6.99932">
        <ele>226</ele>
        <time>2011-04-10T07:36:47Z</time>
      </trkpt>
      <trkpt lat="49.18544" lon="6.9993">
        <ele>226</ele>
        <time>2011-04-10T07:36:49Z</time>
      </trkpt>
      <trkpt lat="49.18546" lon="6.99929">
        <ele>226</ele>
        <time>2011-04-10T07:36:50Z</time>
      </trkpt>
      <trkpt lat="49.18547" lon="6.99926">
        <ele>226</ele>
        <time>2011-04-10T07:36:52Z</time>
      </trkpt>
      <trkpt lat="49.18547" lon="6.99925">
        <ele>226</ele>
        <time>2011-04-10T07:36:53Z</time>
      </trkpt>
      <trkpt lat="49.18549" lon="6.99922">
        <ele>226</ele>
        <time>2011-04-10T07:36:55Z</time>
      </trkpt>
      <trkpt lat="49.18551" lon="6.99919">
        <ele>226</ele>
        <time>2011-04-10T07:36:57Z</time>
      </trkpt>
      <trkpt lat="49.18553" lon="6.99917">
        <ele>226</ele>
        <time>2011-04-10T07:36:59Z</time>
      </trkpt>
      <trkpt lat="49.18554" lon="6.99914">
        <ele>226</ele>
        <time>2011-04-10T07:37:01Z</time>
      </trkpt>
      <trkpt lat="49.18556" lon="6.99911">
        <ele>226</ele>
        <time>2011-04-10T07:37:03Z</time>
      </trkpt>
      <trkpt lat="49.18557" lon="6.99909">
        <ele>225</ele>
        <time>2011-04-10T07:37:05Z</time>
      </trkpt>
      <trkpt lat="49.18559" lon="6.99906">
        <ele>225</ele>
        <time>2011-04-10T07:37:07Z</time>
      </trkpt>
      <trkpt lat="49.1856" lon="6.99904">
        <ele>225</ele>
        <time>2011-04-10T07:37:08Z</time>
      </trkpt>
      <trkpt lat="49.18562" lon="6.99902">
        <ele>224</ele>
        <time>2011-04-10T07:37:10Z</time>
      </trkpt>
      <trkpt lat="49.18563" lon="6.999">
        <ele>224</ele>
        <time>2011-04-10T07:37:12Z</time>
      </trkpt>
      <trkpt lat="49.18565" lon="6.99897">
        <ele>224</ele>
        <time>2011-04-10T07:37:14Z</time>
      </trkpt>
      <trkpt lat="49.18566" lon="6.99895">
        <ele>224</ele>
        <time>2011-04-10T07:37:15Z</time>
      </trkpt>
      <trkpt lat="49.18567" lon="6.99893">
        <ele>223</ele>
        <time>2011-04-10T07:37:17Z</time>
      </trkpt>
      <trkpt lat="49.18568" lon="6.99892">
        <ele>223</ele>
        <time>2011-04-10T07:37:18Z</time>
      </trkpt>
      <trkpt lat="49.1857" lon="6.99889">
        <ele>223</ele>
        <time>2011-04-10T07:37:20Z</time>
      </trkpt>
      <trkpt lat="49.18571" lon="6.99887">
        <ele>222</ele>
        <time>2011-04-10T07:37:22Z</time>
      </trkpt>
      <trkpt lat="49.18573" lon="6.99884">
        <ele>222</ele>
        <time>2011-04-10T07:37:24Z</time>
      </trkpt>
      <trkpt lat="49.18574" lon="6.99882">
        <ele>222</ele>
        <time>2011-04-10T07:37:25Z</time>
      </trkpt>
      <trkpt lat="49.18576" lon="6.9988">
        <ele>222</ele>
        <time>2011-04-10T07:37:27Z</time>
      </trkpt>
      <trkpt lat="49.18578" lon="6.99877">
        <ele>222</ele>
        <time>2011-04-10T07:37:29Z</time>
      </trkpt>
      <trkpt lat="49.18581" lon="6.99875">
        <ele>222</ele>
        <time>2011-04-10T07:37:31Z</time>
      </trkpt>
      <trkpt lat="49.18582" lon="6.99874">
        <ele>222</ele>
        <time>2011-04-10T07:37:32Z</time>
      </trkpt>
      <trkpt lat="49.18583" lon="6.99873">
        <ele>222</ele>
        <time>2011-04-10T07:37:33Z</time>
      </trkpt>
      <trkpt lat="49.18584" lon="6.99872">
        <ele>222</ele>
        <time>2011-04-10T07:37:34Z</time>
      </trkpt>
      <trkpt lat="49.18585" lon="6.99871">
        <ele>222</ele>
        <time>2011-04-10T07:37:35Z</time>
      </trkpt>
      <trkpt lat="49.18587" lon="6.9987">
        <ele>222</ele>
        <time>2011-04-10T07:37:37Z</time>
      </trkpt>
      <trkpt lat="49.18589" lon="6.99867">
        <ele>222</ele>
        <time>2011-04-10T07:37:39Z</time>
      </trkpt>
      <trkpt lat="49.18592" lon="6.99865">
        <ele>222</ele>
        <time>2011-04-10T07:37:41Z</time>
      </trkpt>
      <trkpt lat="49.18593" lon="6.99863">
        <ele>222</ele>
        <time>2011-04-10T07:37:43Z</time>
      </trkpt>
      <trkpt lat="49.18594" lon="6.99862">
        <ele>222</ele>
        <time>2011-04-10T07:37:44Z</time>
      </trkpt>
      <trkpt lat="49.18596" lon="6.99862">
        <ele>222</ele>
        <time>2011-04-10T07:37:45Z</time>
      </trkpt>
      <trkpt lat="49.18597" lon="6.99861">
        <ele>222</ele>
        <time>2011-04-10T07:37:46Z</time>
      </trkpt>
      <trkpt lat="49.18599" lon="6.99859">
        <ele>222</ele>
        <time>2011-04-10T07:37:47Z</time>
      </trkpt>
      <trkpt lat="49.186" lon="6.99858">
        <ele>222</ele>
        <time>2011-04-10T07:37:49Z</time>
      </trkpt>
      <trkpt lat="49.18603" lon="6.99857">
        <ele>222</ele>
        <time>2011-04-10T07:37:51Z</time>
      </trkpt>
      <trkpt lat="49.18604" lon="6.99856">
        <ele>222</ele>
        <time>2011-04-10T07:37:52Z</time>
      </trkpt>
      <trkpt lat="49.18605" lon="6.99856">
        <ele>222</ele>
        <time>2011-04-10T07:37:53Z</time>
      </trkpt>
      <trkpt lat="49.18607" lon="6.99855">
        <ele>222</ele>
        <time>2011-04-10T07:37:54Z</time>
      </trkpt>
      <trkpt lat="49.18608" lon="6.99852">
        <ele>222</ele>
        <time>2011-04-10T07:37:56Z</time>
      </trkpt>
      <trkpt lat="49.1861" lon="6.9985">
        <ele>222</ele>
        <time>2011-04-10T07:37:58Z</time>
      </trkpt>
      <trkpt lat="49.18612" lon="6.99848">
        <ele>222</ele>
        <time>2011-04-10T07:37:59Z</time>
      </trkpt>
      <trkpt lat="49.18613" lon="6.99846">
        <ele>222</ele>
        <time>2011-04-10T07:38:01Z</time>
      </trkpt>
      <trkpt lat="49.18615" lon="6.99845">
        <ele>222</ele>
        <time>2011-04-10T07:38:02Z</time>
      </trkpt>
      <trkpt lat="49.18616" lon="6.99844">
        <ele>222</ele>
        <time>2011-04-10T07:38:04Z</time>
      </trkpt>
      <trkpt lat="49.18618" lon="6.99843">
        <ele>223</ele>
        <time>2011-04-10T07:38:05Z</time>
      </trkpt>
      <trkpt lat="49.18619" lon="6.99842">
        <ele>223</ele>
        <time>2011-04-10T07:38:07Z</time>
      </trkpt>
      <trkpt lat="49.18621" lon="6.9984">
        <ele>224</ele>
        <time>2011-04-10T07:38:09Z</time>
      </trkpt>
      <trkpt lat="49.18623" lon="6.99838">
        <ele>224</ele>
        <time>2011-04-10T07:38:11Z</time>
      </trkpt>
      <trkpt lat="49.18625" lon="6.99836">
        <ele>224</ele>
        <time>2011-04-10T07:38:13Z</time>
      </trkpt>
      <trkpt lat="49.18627" lon="6.99834">
        <ele>224</ele>
        <time>2011-04-10T07:38:15Z</time>
      </trkpt>
      <trkpt lat="49.18628" lon="6.99833">
        <ele>225</ele>
        <time>2011-04-10T07:38:17Z</time>
      </trkpt>
      <trkpt lat="49.1863" lon="6.99831">
        <ele>225</ele>
        <time>2011-04-10T07:38:19Z</time>
      </trkpt>
      <trkpt lat="49.18631" lon="6.99829">
        <ele>225</ele>
        <time>2011-04-10T07:38:21Z</time>
      </trkpt>
      <trkpt lat="49.18631" lon="6.99827">
        <ele>225</ele>
        <time>2011-04-10T07:38:22Z</time>
      </trkpt>
      <trkpt lat="49.18632" lon="6.99824">
        <ele>225</ele>
        <time>2011-04-10T07:38:24Z</time>
      </trkpt>
      <trkpt lat="49.18633" lon="6.99822">
        <ele>225</ele>
        <time>2011-04-10T07:38:26Z</time>
      </trkpt>
      <trkpt lat="49.18634" lon="6.9982">
        <ele>225</ele>
        <time>2011-04-10T07:38:28Z</time>
      </trkpt>
      <trkpt lat="49.18636" lon="6.99818">
        <ele>225</ele>
        <time>2011-04-10T07:38:30Z</time>
      </trkpt>
      <trkpt lat="49.18638" lon="6.99817">
        <ele>225</ele>
        <time>2011-04-10T07:38:31Z</time>
      </trkpt>
      <trkpt lat="49.18639" lon="6.99816">
        <ele>225</ele>
        <time>2011-04-10T07:38:32Z</time>
      </trkpt>
      <trkpt lat="49.18641" lon="6.99814">
        <ele>225</ele>
        <time>2011-04-10T07:38:33Z</time>
      </trkpt>
      <trkpt lat="49.18642" lon="6.99813">
        <ele>226</ele>
        <time>2011-04-10T07:38:34Z</time>
      </trkpt>
      <trkpt lat="49.18643" lon="6.99811">
        <ele>227</ele>
        <time>2011-04-10T07:38:35Z</time>
      </trkpt>
      <trkpt lat="49.18645" lon="6.99809">
        <ele>228</ele>
        <time>2011-04-10T07:38:37Z</time>
      </trkpt>
      <trkpt lat="49.18647" lon="6.99806">
        <ele>228</ele>
        <time>2011-04-10T07:38:39Z</time>
      </trkpt>
      <trkpt lat="49.18648" lon="6.99805">
        <ele>228</ele>
        <time>2011-04-10T07:38:40Z</time>
      </trkpt>
      <trkpt lat="49.1865" lon="6.99804">
        <ele>228</ele>
        <time>2011-04-10T07:38:41Z</time>
      </trkpt>
      <trkpt lat="49.18651" lon="6.99804">
        <ele>228</ele>
        <time>2011-04-10T07:38:42Z</time>
      </trkpt>
      <trkpt lat="49.18652" lon="6.99803">
        <ele>228</ele>
        <time>2011-04-10T07:38:43Z</time>
      </trkpt>
      <trkpt lat="49.18655" lon="6.99802">
        <ele>229</ele>
        <time>2011-04-10T07:38:45Z</time>
      </trkpt>
      <trkpt lat="49.18656" lon="6.998">
        <ele>230</ele>
        <time>2011-04-10T07:38:46Z</time>
      </trkpt>
      <trkpt lat="49.18658" lon="6.99799">
        <ele>231</ele>
        <time>2011-04-10T07:38:48Z</time>
      </trkpt>
      <trkpt lat="49.1866" lon="6.99798">
        <ele>231</ele>
        <time>2011-04-10T07:38:50Z</time>
      </trkpt>
      <trkpt lat="49.18661" lon="6.99797">
        <ele>231</ele>
        <time>2011-04-10T07:38:53Z</time>
      </trkpt>
      <trkpt lat="49.18663" lon="6.99795">
        <ele>231</ele>
        <time>2011-04-10T07:38:54Z</time>
      </trkpt>
      <trkpt lat="49.18665" lon="6.99794">
        <ele>231</ele>
        <time>2011-04-10T07:38:56Z</time>
      </trkpt>
      <trkpt lat="49.18666" lon="6.99791">
        <ele>231</ele>
        <time>2011-04-10T07:38:58Z</time>
      </trkpt>
      <trkpt lat="49.18668" lon="6.99789">
        <ele>231</ele>
        <time>2011-04-10T07:39:00Z</time>
      </trkpt>
      <trkpt lat="49.18669" lon="6.99788">
        <ele>231</ele>
        <time>2011-04-10T07:39:02Z</time>
      </trkpt>
      <trkpt lat="49.18671" lon="6.99787">
        <ele>231</ele>
        <time>2011-04-10T07:39:04Z</time>
      </trkpt>
      <trkpt lat="49.18672" lon="6.99788">
        <ele>231</ele>
        <time>2011-04-10T07:39:06Z</time>
      </trkpt>
      <trkpt lat="49.18672" lon="6.9979">
        <ele>231</ele>
        <time>2011-04-10T07:39:08Z</time>
      </trkpt>
      <trkpt lat="49.18673" lon="6.99792">
        <ele>231</ele>
        <time>2011-04-10T07:39:10Z</time>
      </trkpt>
      <trkpt lat="49.18673" lon="6.99796">
        <ele>231</ele>
        <time>2011-04-10T07:39:12Z</time>
      </trkpt>
      <trkpt lat="49.18673" lon="6.99797">
        <ele>231</ele>
        <time>2011-04-10T07:39:13Z</time>
      </trkpt>
      <trkpt lat="49.18673" lon="6.99799">
        <ele>231</ele>
        <time>2011-04-10T07:39:14Z</time>
      </trkpt>
      <trkpt lat="49.18672" lon="6.99802">
        <ele>231</ele>
        <time>2011-04-10T07:39:16Z</time>
      </trkpt>
      <trkpt lat="49.18671" lon="6.99804">
        <ele>231</ele>
        <time>2011-04-10T07:39:18Z</time>
      </trkpt>
      <trkpt lat="49.1867" lon="6.99806">
        <ele>231</ele>
        <time>2011-04-10T07:39:20Z</time>
      </trkpt>
      <trkpt lat="49.18669" lon="6.99809">
        <ele>231</ele>
        <time>2011-04-10T07:39:22Z</time>
      </trkpt>
      <trkpt lat="49.18668" lon="6.99812">
        <ele>231</ele>
        <time>2011-04-10T07:39:24Z</time>
      </trkpt>
      <trkpt lat="49.18668" lon="6.99814">
        <ele>231</ele>
        <time>2011-04-10T07:39:26Z</time>
      </trkpt>
      <trkpt lat="49.18666" lon="6.99817">
        <ele>231</ele>
        <time>2011-04-10T07:39:28Z</time>
      </trkpt>
      <trkpt lat="49.18665" lon="6.99819">
        <ele>231</ele>
        <time>2011-04-10T07:39:30Z</time>
      </trkpt>
      <trkpt lat="49.18665" lon="6.9982">
        <ele>231</ele>
        <time>2011-04-10T07:39:31Z</time>
      </trkpt>
      <trkpt lat="49.18664" lon="6.99824">
        <ele>231</ele>
        <time>2011-04-10T07:39:33Z</time>
      </trkpt>
      <trkpt lat="49.18663" lon="6.99826">
        <ele>231</ele>
        <time>2011-04-10T07:39:35Z</time>
      </trkpt>
      <trkpt lat="49.18662" lon="6.99829">
        <ele>231</ele>
        <time>2011-04-10T07:39:36Z</time>
      </trkpt>
      <trkpt lat="49.18661" lon="6.9983">
        <ele>231</ele>
        <time>2011-04-10T07:39:38Z</time>
      </trkpt>
      <trkpt lat="49.1866" lon="6.99832">
        <ele>231</ele>
        <time>2011-04-10T07:39:40Z</time>
      </trkpt>
      <trkpt lat="49.1866" lon="6.99834">
        <ele>231</ele>
        <time>2011-04-10T07:39:42Z</time>
      </trkpt>
      <trkpt lat="49.1866" lon="6.99837">
        <ele>231</ele>
        <time>2011-04-10T07:39:44Z</time>
      </trkpt>
      <trkpt lat="49.18659" lon="6.99839">
        <ele>231</ele>
        <time>2011-04-10T07:39:46Z</time>
      </trkpt>
      <trkpt lat="49.18658" lon="6.99843">
        <ele>231</ele>
        <time>2011-04-10T07:39:48Z</time>
      </trkpt>
      <trkpt lat="49.18658" lon="6.99845">
        <ele>231</ele>
        <time>2011-04-10T07:39:50Z</time>
      </trkpt>
      <trkpt lat="49.18657" lon="6.99847">
        <ele>231</ele>
        <time>2011-04-10T07:39:52Z</time>
      </trkpt>
      <trkpt lat="49.18656" lon="6.9985">
        <ele>231</ele>
        <time>2011-04-10T07:39:54Z</time>
      </trkpt>
      <trkpt lat="49.18656" lon="6.99853">
        <ele>231</ele>
        <time>2011-04-10T07:39:55Z</time>
      </trkpt>
      <trkpt lat="49.18655" lon="6.99855">
        <ele>231</ele>
        <time>2011-04-10T07:39:56Z</time>
      </trkpt>
      <trkpt lat="49.18655" lon="6.99858">
        <ele>231</ele>
        <time>2011-04-10T07:39:58Z</time>
      </trkpt>
      <trkpt lat="49.18654" lon="6.9986">
        <ele>231</ele>
        <time>2011-04-10T07:40:00Z</time>
      </trkpt>
      <trkpt lat="49.18654" lon="6.99863">
        <ele>231</ele>
        <time>2011-04-10T07:40:02Z</time>
      </trkpt>
      <trkpt lat="49.18653" lon="6.99865">
        <ele>231</ele>
        <time>2011-04-10T07:40:03Z</time>
      </trkpt>
      <trkpt lat="49.18652" lon="6.99867">
        <ele>231</ele>
        <time>2011-04-10T07:40:04Z</time>
      </trkpt>
      <trkpt lat="49.18652" lon="6.99869">
        <ele>231</ele>
        <time>2011-04-10T07:40:05Z</time>
      </trkpt>
      <trkpt lat="49.18651" lon="6.9987">
        <ele>232</ele>
        <time>2011-04-10T07:40:06Z</time>
      </trkpt>
      <trkpt lat="49.1865" lon="6.99873">
        <ele>233</ele>
        <time>2011-04-10T07:40:08Z</time>
      </trkpt>
      <trkpt lat="49.1865" lon="6.99875">
        <ele>233</ele>
        <time>2011-04-10T07:40:09Z</time>
      </trkpt>
      <trkpt lat="49.1865" lon="6.99877">
        <ele>234</ele>
        <time>2011-04-10T07:40:10Z</time>
      </trkpt>
      <trkpt lat="49.18649" lon="6.99879">
        <ele>234</ele>
        <time>2011-04-10T07:40:12Z</time>
      </trkpt>
      <trkpt lat="49.18649" lon="6.99881">
        <ele>234</ele>
        <time>2011-04-10T07:40:14Z</time>
      </trkpt>
      <trkpt lat="49.18648" lon="6.99883">
        <ele>234</ele>
        <time>2011-04-10T07:40:16Z</time>
      </trkpt>
      <trkpt lat="49.18648" lon="6.99885">
        <ele>234</ele>
        <time>2011-04-10T07:40:19Z</time>
      </trkpt>
      <trkpt lat="49.18648" lon="6.99887">
        <ele>235</ele>
        <time>2011-04-10T07:40:21Z</time>
      </trkpt>
      <trkpt lat="49.18647" lon="6.99889">
        <ele>235</ele>
        <time>2011-04-10T07:40:23Z</time>
      </trkpt>
      <trkpt lat="49.18647" lon="6.99891">
        <ele>236</ele>
        <time>2011-04-10T07:40:25Z</time>
      </trkpt>
      <trkpt lat="49.18646" lon="6.99894">
        <ele>236</ele>
        <time>2011-04-10T07:40:27Z</time>
      </trkpt>
      <trkpt lat="49.18646" lon="6.99896">
        <ele>237</ele>
        <time>2011-04-10T07:40:29Z</time>
      </trkpt>
      <trkpt lat="49.18645" lon="6.99898">
        <ele>237</ele>
        <time>2011-04-10T07:40:31Z</time>
      </trkpt>
      <trkpt lat="49.18645" lon="6.999">
        <ele>238</ele>
        <time>2011-04-10T07:40:36Z</time>
      </trkpt>
      <trkpt lat="49.18644" lon="6.99903">
        <ele>241</ele>
        <time>2011-04-10T07:40:47Z</time>
      </trkpt>
      <trkpt lat="49.18645" lon="6.99902">
        <ele>241</ele>
        <time>2011-04-10T07:40:50Z</time>
      </trkpt>
      <trkpt lat="49.18647" lon="6.99903">
        <ele>243</ele>
        <time>2011-04-10T07:40:53Z</time>
      </trkpt>
      <trkpt lat="49.18646" lon="6.99906">
        <ele>246</ele>
        <time>2011-04-10T07:40:58Z</time>
      </trkpt>
      <trkpt lat="49.18645" lon="6.99908">
        <ele>246</ele>
        <time>2011-04-10T07:41:00Z</time>
      </trkpt>
      <trkpt lat="49.18645" lon="6.99911">
        <ele>246</ele>
        <time>2011-04-10T07:41:02Z</time>
      </trkpt>
      <trkpt lat="49.18644" lon="6.99913">
        <ele>246</ele>
        <time>2011-04-10T07:41:03Z</time>
      </trkpt>
      <trkpt lat="49.18644" lon="6.99915">
        <ele>246</ele>
        <time>2011-04-10T07:41:05Z</time>
      </trkpt>
      <trkpt lat="49.18644" lon="6.99916">
        <ele>246</ele>
        <time>2011-04-10T07:41:06Z</time>
      </trkpt>
      <trkpt lat="49.18644" lon="6.9992">
        <ele>246</ele>
        <time>2011-04-10T07:41:08Z</time>
      </trkpt>
      <trkpt lat="49.18643" lon="6.99922">
        <ele>246</ele>
        <time>2011-04-10T07:41:10Z</time>
      </trkpt>
      <trkpt lat="49.18643" lon="6.99925">
        <ele>246</ele>
        <time>2011-04-10T07:41:12Z</time>
      </trkpt>
      <trkpt lat="49.18643" lon="6.99927">
        <ele>246</ele>
        <time>2011-04-10T07:41:14Z</time>
      </trkpt>
      <trkpt lat="49.18643" lon="6.9993">
        <ele>246</ele>
        <time>2011-04-10T07:41:16Z</time>
      </trkpt>
      <trkpt lat="49.18643" lon="6.99931">
        <ele>246</ele>
        <time>2011-04-10T07:41:18Z</time>
      </trkpt>
      <trkpt lat="49.18643" lon="6.99933">
        <ele>245</ele>
        <time>2011-04-10T07:41:19Z</time>
      </trkpt>
      <trkpt lat="49.18642" lon="6.99935">
        <ele>245</ele>
        <time>2011-04-10T07:41:20Z</time>
      </trkpt>
      <trkpt lat="49.18642" lon="6.99937">
        <ele>245</ele>
        <time>2011-04-10T07:41:21Z</time>
      </trkpt>
      <trkpt lat="49.18641" lon="6.99939">
        <ele>245</ele>
        <time>2011-04-10T07:41:22Z</time>
      </trkpt>
      <trkpt lat="49.18641" lon="6.99941">
        <ele>245</ele>
        <time>2011-04-10T07:41:24Z</time>
      </trkpt>
      <trkpt lat="49.1864" lon="6.99943">
        <ele>245</ele>
        <time>2011-04-10T07:41:25Z</time>
      </trkpt>
      <trkpt lat="49.1864" lon="6.99946">
        <ele>245</ele>
        <time>2011-04-10T07:41:27Z</time>
      </trkpt>
      <trkpt lat="49.1864" lon="6.99949">
        <ele>245</ele>
        <time>2011-04-10T07:41:29Z</time>
      </trkpt>
      <trkpt lat="49.1864" lon="6.99952">
        <ele>245</ele>
        <time>2011-04-10T07:41:31Z</time>
      </trkpt>
      <trkpt lat="49.18639" lon="6.99955">
        <ele>245</ele>
        <time>2011-04-10T07:41:33Z</time>
      </trkpt>
      <trkpt lat="49.18638" lon="6.99957">
        <ele>245</ele>
        <time>2011-04-10T07:41:34Z</time>
      </trkpt>
      <trkpt lat="49.18638" lon="6.99959">
        <ele>245</ele>
        <time>2011-04-10T07:41:35Z</time>
      </trkpt>
      <trkpt lat="49.18637" lon="6.99962">
        <ele>246</ele>
        <time>2011-04-10T07:41:37Z</time>
      </trkpt>
      <trkpt lat="49.18637" lon="6.99965">
        <ele>247</ele>
        <time>2011-04-10T07:41:39Z</time>
      </trkpt>
      <trkpt lat="49.18637" lon="6.99967">
        <ele>247</ele>
        <time>2011-04-10T07:41:40Z</time>
      </trkpt>
      <trkpt lat="49.18637" lon="6.99969">
        <ele>248</ele>
        <time>2011-04-10T07:41:41Z</time>
      </trkpt>
      <trkpt lat="49.18637" lon="6.99971">
        <ele>248</ele>
        <time>2011-04-10T07:41:42Z</time>
      </trkpt>
      <trkpt lat="49.18636" lon="6.99973">
        <ele>248</ele>
        <time>2011-04-10T07:41:44Z</time>
      </trkpt>
      <trkpt lat="49.18636" lon="6.99975">
        <ele>248</ele>
        <time>2011-04-10T07:41:46Z</time>
      </trkpt>
      <trkpt lat="49.18636" lon="6.99977">
        <ele>248</ele>
        <time>2011-04-10T07:41:48Z</time>
      </trkpt>
      <trkpt lat="49.18635" lon="6.9998">
        <ele>248</ele>
        <time>2011-04-10T07:41:50Z</time>
      </trkpt>
      <trkpt lat="49.18634" lon="6.99982">
        <ele>247</ele>
        <time>2011-04-10T07:41:52Z</time>
      </trkpt>
      <trkpt lat="49.18633" lon="6.99984">
        <ele>246</ele>
        <time>2011-04-10T07:41:54Z</time>
      </trkpt>
      <trkpt lat="49.18633" lon="6.99986">
        <ele>246</ele>
        <time>2011-04-10T07:41:55Z</time>
      </trkpt>
      <trkpt lat="49.18633" lon="6.99988">
        <ele>246</ele>
        <time>2011-04-10T07:41:56Z</time>
      </trkpt>
      <trkpt lat="49.18632" lon="6.99991">
        <ele>246</ele>
        <time>2011-04-10T07:41:58Z</time>
      </trkpt>
      <trkpt lat="49.18632" lon="6.99993">
        <ele>246</ele>
        <time>2011-04-10T07:41:59Z</time>
      </trkpt>
      <trkpt lat="49.18631" lon="6.99995">
        <ele>246</ele>
        <time>2011-04-10T07:42:00Z</time>
      </trkpt>
      <trkpt lat="49.18631" lon="6.99997">
        <ele>246</ele>
        <time>2011-04-10T07:42:01Z</time>
      </trkpt>
      <trkpt lat="49.18629" lon="7">
        <ele>246</ele>
        <time>2011-04-10T07:42:02Z</time>
      </trkpt>
      <trkpt lat="49.18628" lon="7.00003">
        <ele>246</ele>
        <time>2011-04-10T07:42:03Z</time>
      </trkpt>
      <trkpt lat="49.18628" lon="7.00005">
        <ele>246</ele>
        <time>2011-04-10T07:42:04Z</time>
      </trkpt>
      <trkpt lat="49.18627" lon="7.00008">
        <ele>246</ele>
        <time>2011-04-10T07:42:05Z</time>
      </trkpt>
      <trkpt lat="49.18627" lon="7.00011">
        <ele>246</ele>
        <time>2011-04-10T07:42:07Z</time>
      </trkpt>
      <trkpt lat="49.18626" lon="7.00013">
        <ele>247</ele>
        <time>2011-04-10T07:42:08Z</time>
      </trkpt>
      <trkpt lat="49.18626" lon="7.00016">
        <ele>248</ele>
        <time>2011-04-10T07:42:10Z</time>
      </trkpt>
      <trkpt lat="49.18626" lon="7.00019">
        <ele>248</ele>
        <time>2011-04-10T07:42:11Z</time>
      </trkpt>
      <trkpt lat="49.18626" lon="7.0002">
        <ele>248</ele>
        <time>2011-04-10T07:42:12Z</time>
      </trkpt>
      <trkpt lat="49.18626" lon="7.00023">
        <ele>248</ele>
        <time>2011-04-10T07:42:14Z</time>
      </trkpt>
      <trkpt lat="49.18626" lon="7.00027">
        <ele>248</ele>
        <time>2011-04-10T07:42:16Z</time>
      </trkpt>
      <trkpt lat="49.18626" lon="7.00029">
        <ele>248</ele>
        <time>2011-04-10T07:42:18Z</time>
      </trkpt>
      <trkpt lat="49.18627" lon="7.00032">
        <ele>248</ele>
        <time>2011-04-10T07:42:20Z</time>
      </trkpt>
      <trkpt lat="49.18627" lon="7.00034">
        <ele>248</ele>
        <time>2011-04-10T07:42:21Z</time>
      </trkpt>
      <trkpt lat="49.18627" lon="7.00035">
        <ele>248</ele>
        <time>2011-04-10T07:42:22Z</time>
      </trkpt>
      <trkpt lat="49.18627" lon="7.00037">
        <ele>248</ele>
        <time>2011-04-10T07:42:23Z</time>
      </trkpt>
      <trkpt lat="49.18628" lon="7.00039">
        <ele>248</ele>
        <time>2011-04-10T07:42:24Z</time>
      </trkpt>
      <trkpt lat="49.18628" lon="7.0004">
        <ele>248</ele>
        <time>2011-04-10T07:42:25Z</time>
      </trkpt>
      <trkpt lat="49.18628" lon="7.00042">
        <ele>248</ele>
        <time>2011-04-10T07:42:26Z</time>
      </trkpt>
      <trkpt lat="49.18628" lon="7.00044">
        <ele>248</ele>
        <time>2011-04-10T07:42:27Z</time>
      </trkpt>
      <trkpt lat="49.18628" lon="7.00046">
        <ele>248</ele>
        <time>2011-04-10T07:42:28Z</time>
      </trkpt>
      <trkpt lat="49.18629" lon="7.00048">
        <ele>248</ele>
        <time>2011-04-10T07:42:29Z</time>
      </trkpt>
      <trkpt lat="49.18629" lon="7.00051">
        <ele>248</ele>
        <time>2011-04-10T07:42:31Z</time>
      </trkpt>
      <trkpt lat="49.18631" lon="7.00054">
        <ele>248</ele>
        <time>2011-04-10T07:42:33Z</time>
      </trkpt>
      <trkpt lat="49.18632" lon="7.00056">
        <ele>248</ele>
        <time>2011-04-10T07:42:35Z</time>
      </trkpt>
      <trkpt lat="49.18634" lon="7.00059">
        <ele>248</ele>
        <time>2011-04-10T07:42:37Z</time>
      </trkpt>
      <trkpt lat="49.18634" lon="7.00062">
        <ele>249</ele>
        <time>2011-04-10T07:42:39Z</time>
      </trkpt>
      <trkpt lat="49.18635" lon="7.00064">
        <ele>249</ele>
        <time>2011-04-10T07:42:41Z</time>
      </trkpt>
      <trkpt lat="49.18637" lon="7.00065">
        <ele>249</ele>
        <time>2011-04-10T07:42:42Z</time>
      </trkpt>
      <trkpt lat="49.18636" lon="7.00067">
        <ele>250</ele>
        <time>2011-04-10T07:42:43Z</time>
      </trkpt>
      <trkpt lat="49.18636" lon="7.0007">
        <ele>252</ele>
        <time>2011-04-10T07:42:45Z</time>
      </trkpt>
      <trkpt lat="49.18637" lon="7.00072">
        <ele>252</ele>
        <time>2011-04-10T07:42:47Z</time>
      </trkpt>
      <trkpt lat="49.18638" lon="7.00074">
        <ele>253</ele>
        <time>2011-04-10T07:42:49Z</time>
      </trkpt>
      <trkpt lat="49.18639" lon="7.00076">
        <ele>253</ele>
        <time>2011-04-10T07:42:51Z</time>
      </trkpt>
      <trkpt lat="49.18641" lon="7.00078">
        <ele>253</ele>
        <time>2011-04-10T07:42:53Z</time>
      </trkpt>
      <trkpt lat="49.18642" lon="7.0008">
        <ele>253</ele>
        <time>2011-04-10T07:42:55Z</time>
      </trkpt>
      <trkpt lat="49.18644" lon="7.00081">
        <ele>254</ele>
        <time>2011-04-10T07:42:57Z</time>
      </trkpt>
      <trkpt lat="49.18645" lon="7.00082">
        <ele>254</ele>
        <time>2011-04-10T07:42:58Z</time>
      </trkpt>
      <trkpt lat="49.18647" lon="7.00084">
        <ele>254</ele>
        <time>2011-04-10T07:43:00Z</time>
      </trkpt>
      <trkpt lat="49.18647" lon="7.00085">
        <ele>254</ele>
        <time>2011-04-10T07:43:03Z</time>
      </trkpt>
      <trkpt lat="49.18649" lon="7.00086">
        <ele>254</ele>
        <time>2011-04-10T07:43:04Z</time>
      </trkpt>
      <trkpt lat="49.1865" lon="7.00087">
        <ele>254</ele>
        <time>2011-04-10T07:43:05Z</time>
      </trkpt>
      <trkpt lat="49.18651" lon="7.00089">
        <ele>254</ele>
        <time>2011-04-10T07:43:07Z</time>
      </trkpt>
      <trkpt lat="49.18653" lon="7.00091">
        <ele>255</ele>
        <time>2011-04-10T07:43:09Z</time>
      </trkpt>
      <trkpt lat="49.18654" lon="7.00093">
        <ele>255</ele>
        <time>2011-04-10T07:43:11Z</time>
      </trkpt>
      <trkpt lat="49.18656" lon="7.00096">
        <ele>255</ele>
        <time>2011-04-10T07:43:13Z</time>
      </trkpt>
      <trkpt lat="49.18657" lon="7.00097">
        <ele>255</ele>
        <time>2011-04-10T07:43:14Z</time>
      </trkpt>
      <trkpt lat="49.18658" lon="7.00099">
        <ele>256</ele>
        <time>2011-04-10T07:43:16Z</time>
      </trkpt>
      <trkpt lat="49.1866" lon="7.001">
        <ele>257</ele>
        <time>2011-04-10T07:43:18Z</time>
      </trkpt>
      <trkpt lat="49.18662" lon="7.00102">
        <ele>257</ele>
        <time>2011-04-10T07:43:20Z</time>
      </trkpt>
      <trkpt lat="49.18663" lon="7.00104">
        <ele>258</ele>
        <time>2011-04-10T07:43:22Z</time>
      </trkpt>
      <trkpt lat="49.18665" lon="7.00106">
        <ele>258</ele>
        <time>2011-04-10T07:43:24Z</time>
      </trkpt>
      <trkpt lat="49.18668" lon="7.00108">
        <ele>259</ele>
        <time>2011-04-10T07:43:26Z</time>
      </trkpt>
      <trkpt lat="49.18669" lon="7.0011">
        <ele>260</ele>
        <time>2011-04-10T07:43:28Z</time>
      </trkpt>
      <trkpt lat="49.18671" lon="7.00112">
        <ele>261</ele>
        <time>2011-04-10T07:43:30Z</time>
      </trkpt>
      <trkpt lat="49.18673" lon="7.00114">
        <ele>261</ele>
        <time>2011-04-10T07:43:32Z</time>
      </trkpt>
      <trkpt lat="49.18674" lon="7.00115">
        <ele>262</ele>
        <time>2011-04-10T07:43:34Z</time>
      </trkpt>
      <trkpt lat="49.18676" lon="7.00117">
        <ele>263</ele>
        <time>2011-04-10T07:43:37Z</time>
      </trkpt>
      <trkpt lat="49.18677" lon="7.00118">
        <ele>263</ele>
        <time>2011-04-10T07:43:43Z</time>
      </trkpt>
      <trkpt lat="49.18679" lon="7.00119">
        <ele>263</ele>
        <time>2011-04-10T07:43:45Z</time>
      </trkpt>
      <trkpt lat="49.18681" lon="7.00121">
        <ele>263</ele>
        <time>2011-04-10T07:43:47Z</time>
      </trkpt>
      <trkpt lat="49.18683" lon="7.00123">
        <ele>263</ele>
        <time>2011-04-10T07:43:49Z</time>
      </trkpt>
      <trkpt lat="49.18684" lon="7.00125">
        <ele>264</ele>
        <time>2011-04-10T07:43:51Z</time>
      </trkpt>
      <trkpt lat="49.18687" lon="7.00126">
        <ele>264</ele>
        <time>2011-04-10T07:43:53Z</time>
      </trkpt>
      <trkpt lat="49.18689" lon="7.00127">
        <ele>264</ele>
        <time>2011-04-10T07:43:55Z</time>
      </trkpt>
      <trkpt lat="49.1869" lon="7.00128">
        <ele>264</ele>
        <time>2011-04-10T07:43:57Z</time>
      </trkpt>
      <trkpt lat="49.18692" lon="7.0013">
        <ele>265</ele>
        <time>2011-04-10T07:43:59Z</time>
      </trkpt>
      <trkpt lat="49.18694" lon="7.00131">
        <ele>265</ele>
        <time>2011-04-10T07:44:01Z</time>
      </trkpt>
      <trkpt lat="49.18696" lon="7.00133">
        <ele>266</ele>
        <time>2011-04-10T07:44:03Z</time>
      </trkpt>
      <trkpt lat="49.18698" lon="7.00134">
        <ele>266</ele>
        <time>2011-04-10T07:44:05Z</time>
      </trkpt>
      <trkpt lat="49.187" lon="7.00136">
        <ele>266</ele>
        <time>2011-04-10T07:44:07Z</time>
      </trkpt>
      <trkpt lat="49.18702" lon="7.00137">
        <ele>266</ele>
        <time>2011-04-10T07:44:09Z</time>
      </trkpt>
      <trkpt lat="49.18703" lon="7.00139">
        <ele>266</ele>
        <time>2011-04-10T07:44:11Z</time>
      </trkpt>
      <trkpt lat="49.18705" lon="7.00139">
        <ele>266</ele>
        <time>2011-04-10T07:44:12Z</time>
      </trkpt>
      <trkpt lat="49.18706" lon="7.00141">
        <ele>266</ele>
        <time>2011-04-10T07:44:14Z</time>
      </trkpt>
      <trkpt lat="49.18708" lon="7.00142">
        <ele>267</ele>
        <time>2011-04-10T07:44:16Z</time>
      </trkpt>
      <trkpt lat="49.1871" lon="7.00143">
        <ele>267</ele>
        <time>2011-04-10T07:44:18Z</time>
      </trkpt>
      <trkpt lat="49.18712" lon="7.00145">
        <ele>268</ele>
        <time>2011-04-10T07:44:20Z</time>
      </trkpt>
      <trkpt lat="49.18714" lon="7.00146">
        <ele>268</ele>
        <time>2011-04-10T07:44:22Z</time>
      </trkpt>
      <trkpt lat="49.18716" lon="7.00148">
        <ele>269</ele>
        <time>2011-04-10T07:44:24Z</time>
      </trkpt>
      <trkpt lat="49.18717" lon="7.00148">
        <ele>269</ele>
        <time>2011-04-10T07:44:25Z</time>
      </trkpt>
      <trkpt lat="49.18719" lon="7.0015">
        <ele>269</ele>
        <time>2011-04-10T07:44:27Z</time>
      </trkpt>
      <trkpt lat="49.18721" lon="7.00151">
        <ele>270</ele>
        <time>2011-04-10T07:44:29Z</time>
      </trkpt>
      <trkpt lat="49.18722" lon="7.00152">
        <ele>270</ele>
        <time>2011-04-10T07:44:30Z</time>
      </trkpt>
      <trkpt lat="49.18724" lon="7.00153">
        <ele>270</ele>
        <time>2011-04-10T07:44:32Z</time>
      </trkpt>
      <trkpt lat="49.18726" lon="7.00155">
        <ele>270</ele>
        <time>2011-04-10T07:44:34Z</time>
      </trkpt>
      <trkpt lat="49.18728" lon="7.00156">
        <ele>270</ele>
        <time>2011-04-10T07:44:36Z</time>
      </trkpt>
      <trkpt lat="49.18729" lon="7.00157">
        <ele>270</ele>
        <time>2011-04-10T07:44:38Z</time>
      </trkpt>
      <trkpt lat="49.18731" lon="7.00159">
        <ele>270</ele>
        <time>2011-04-10T07:44:40Z</time>
      </trkpt>
      <trkpt lat="49.18733" lon="7.0016">
        <ele>270</ele>
        <time>2011-04-10T07:44:42Z</time>
      </trkpt>
      <trkpt lat="49.18735" lon="7.00162">
        <ele>270</ele>
        <time>2011-04-10T07:44:44Z</time>
      </trkpt>
      <trkpt lat="49.18737" lon="7.00163">
        <ele>270</ele>
        <time>2011-04-10T07:44:46Z</time>
      </trkpt>
      <trkpt lat="49.18739" lon="7.00164">
        <ele>270</ele>
        <time>2011-04-10T07:44:48Z</time>
      </trkpt>
      <trkpt lat="49.18741" lon="7.00167">
        <ele>270</ele>
        <time>2011-04-10T07:44:50Z</time>
      </trkpt>
      <trkpt lat="49.18742" lon="7.00168">
        <ele>270</ele>
        <time>2011-04-10T07:44:52Z</time>
      </trkpt>
      <trkpt lat="49.18745" lon="7.0017">
        <ele>270</ele>
        <time>2011-04-10T07:44:54Z</time>
      </trkpt>
      <trkpt lat="49.18746" lon="7.0017">
        <ele>270</ele>
        <time>2011-04-10T07:44:55Z</time>
      </trkpt>
      <trkpt lat="49.18748" lon="7.00171">
        <ele>271</ele>
        <time>2011-04-10T07:44:57Z</time>
      </trkpt>
      <trkpt lat="49.18749" lon="7.00172">
        <ele>271</ele>
        <time>2011-04-10T07:44:58Z</time>
      </trkpt>
      <trkpt lat="49.1875" lon="7.00172">
        <ele>271</ele>
        <time>2011-04-10T07:44:59Z</time>
      </trkpt>
      <trkpt lat="49.18752" lon="7.00173">
        <ele>272</ele>
        <time>2011-04-10T07:45:00Z</time>
      </trkpt>
      <trkpt lat="49.18754" lon="7.00174">
        <ele>272</ele>
        <time>2011-04-10T07:45:02Z</time>
      </trkpt>
      <trkpt lat="49.18755" lon="7.00176">
        <ele>273</ele>
        <time>2011-04-10T07:45:04Z</time>
      </trkpt>
      <trkpt lat="49.18757" lon="7.00176">
        <ele>273</ele>
        <time>2011-04-10T07:45:06Z</time>
      </trkpt>
      <trkpt lat="49.18758" lon="7.00177">
        <ele>274</ele>
        <time>2011-04-10T07:45:08Z</time>
      </trkpt>
      <trkpt lat="49.1876" lon="7.00177">
        <ele>274</ele>
        <time>2011-04-10T07:45:10Z</time>
      </trkpt>
      <trkpt lat="49.18761" lon="7.00179">
        <ele>274</ele>
        <time>2011-04-10T07:45:12Z</time>
      </trkpt>
      <trkpt lat="49.18763" lon="7.0018">
        <ele>274</ele>
        <time>2011-04-10T07:45:14Z</time>
      </trkpt>
      <trkpt lat="49.18765" lon="7.00181">
        <ele>274</ele>
        <time>2011-04-10T07:45:16Z</time>
      </trkpt>
      <trkpt lat="49.18766" lon="7.00181">
        <ele>274</ele>
        <time>2011-04-10T07:45:17Z</time>
      </trkpt>
      <trkpt lat="49.18768" lon="7.00182">
        <ele>274</ele>
        <time>2011-04-10T07:45:19Z</time>
      </trkpt>
      <trkpt lat="49.1877" lon="7.00183">
        <ele>274</ele>
        <time>2011-04-10T07:45:21Z</time>
      </trkpt>
      <trkpt lat="49.18772" lon="7.00185">
        <ele>274</ele>
        <time>2011-04-10T07:45:23Z</time>
      </trkpt>
      <trkpt lat="49.18773" lon="7.00185">
        <ele>277</ele>
        <time>2011-04-10T07:45:36Z</time>
      </trkpt>
      <trkpt lat="49.18774" lon="7.00184">
        <ele>277</ele>
        <time>2011-04-10T07:45:38Z</time>
      </trkpt>
      <trkpt lat="49.18776" lon="7.00184">
        <ele>277</ele>
        <time>2011-04-10T07:45:40Z</time>
      </trkpt>
      <trkpt lat="49.18778" lon="7.00185">
        <ele>277</ele>
        <time>2011-04-10T07:45:42Z</time>
      </trkpt>
      <trkpt lat="49.18779" lon="7.00186">
        <ele>277</ele>
        <time>2011-04-10T07:45:44Z</time>
      </trkpt>
      <trkpt lat="49.18781" lon="7.00187">
        <ele>277</ele>
        <time>2011-04-10T07:45:45Z</time>
      </trkpt>
      <trkpt lat="49.18783" lon="7.00188">
        <ele>277</ele>
        <time>2011-04-10T07:45:47Z</time>
      </trkpt>
      <trkpt lat="49.18785" lon="7.0019">
        <ele>277</ele>
        <time>2011-04-10T07:45:49Z</time>
      </trkpt>
      <trkpt lat="49.18786" lon="7.0019">
        <ele>277</ele>
        <time>2011-04-10T07:45:50Z</time>
      </trkpt>
      <trkpt lat="49.18788" lon="7.00191">
        <ele>277</ele>
        <time>2011-04-10T07:45:52Z</time>
      </trkpt>
      <trkpt lat="49.1879" lon="7.00192">
        <ele>277</ele>
        <time>2011-04-10T07:45:54Z</time>
      </trkpt>
      <trkpt lat="49.18791" lon="7.00193">
        <ele>277</ele>
        <time>2011-04-10T07:45:55Z</time>
      </trkpt>
      <trkpt lat="49.18792" lon="7.00194">
        <ele>277</ele>
        <time>2011-04-10T07:45:56Z</time>
      </trkpt>
      <trkpt lat="49.18794" lon="7.00195">
        <ele>277</ele>
        <time>2011-04-10T07:45:58Z</time>
      </trkpt>
      <trkpt lat="49.18795" lon="7.00195">
        <ele>277</ele>
        <time>2011-04-10T07:45:59Z</time>
      </trkpt>
      <trkpt lat="49.18798" lon="7.00196">
        <ele>277</ele>
        <time>2011-04-10T07:46:01Z</time>
      </trkpt>
      <trkpt lat="49.188" lon="7.00198">
        <ele>277</ele>
        <time>2011-04-10T07:46:03Z</time>
      </trkpt>
      <trkpt lat="49.18801" lon="7.00199">
        <ele>277</ele>
        <time>2011-04-10T07:46:04Z</time>
      </trkpt>
      <trkpt lat="49.18803" lon="7.00199">
        <ele>278</ele>
        <time>2011-04-10T07:46:05Z</time>
      </trkpt>
      <trkpt lat="49.18804" lon="7.002">
        <ele>278</ele>
        <time>2011-04-10T07:46:06Z</time>
      </trkpt>
      <trkpt lat="49.18805" lon="7.002">
        <ele>278</ele>
        <time>2011-04-10T07:46:07Z</time>
      </trkpt>
      <trkpt lat="49.18806" lon="7.00201">
        <ele>278</ele>
        <time>2011-04-10T07:46:08Z</time>
      </trkpt>
      <trkpt lat="49.18808" lon="7.00202">
        <ele>279</ele>
        <time>2011-04-10T07:46:09Z</time>
      </trkpt>
      <trkpt lat="49.1881" lon="7.00203">
        <ele>279</ele>
        <time>2011-04-10T07:46:11Z</time>
      </trkpt>
      <trkpt lat="49.18811" lon="7.00204">
        <ele>279</ele>
        <time>2011-04-10T07:46:12Z</time>
      </trkpt>
      <trkpt lat="49.18813" lon="7.00205">
        <ele>280</ele>
        <time>2011-04-10T07:46:14Z</time>
      </trkpt>
      <trkpt lat="49.18814" lon="7.00205">
        <ele>280</ele>
        <time>2011-04-10T07:46:15Z</time>
      </trkpt>
      <trkpt lat="49.18816" lon="7.00206">
        <ele>281</ele>
        <time>2011-04-10T07:46:16Z</time>
      </trkpt>
      <trkpt lat="49.18817" lon="7.00206">
        <ele>282</ele>
        <time>2011-04-10T07:46:17Z</time>
      </trkpt>
      <trkpt lat="49.18818" lon="7.00207">
        <ele>282</ele>
        <time>2011-04-10T07:46:18Z</time>
      </trkpt>
      <trkpt lat="49.18819" lon="7.00208">
        <ele>282</ele>
        <time>2011-04-10T07:46:19Z</time>
      </trkpt>
      <trkpt lat="49.1882" lon="7.00208">
        <ele>283</ele>
        <time>2011-04-10T07:46:20Z</time>
      </trkpt>
      <trkpt lat="49.18822" lon="7.0021">
        <ele>283</ele>
        <time>2011-04-10T07:46:22Z</time>
      </trkpt>
      <trkpt lat="49.18824" lon="7.00211">
        <ele>284</ele>
        <time>2011-04-10T07:46:24Z</time>
      </trkpt>
      <trkpt lat="49.18826" lon="7.00211">
        <ele>284</ele>
        <time>2011-04-10T07:46:25Z</time>
      </trkpt>
      <trkpt lat="49.18827" lon="7.00212">
        <ele>284</ele>
        <time>2011-04-10T07:46:26Z</time>
      </trkpt>
      <trkpt lat="49.18828" lon="7.00213">
        <ele>284</ele>
        <time>2011-04-10T07:46:27Z</time>
      </trkpt>
      <trkpt lat="49.1883" lon="7.00215">
        <ele>285</ele>
        <time>2011-04-10T07:46:29Z</time>
      </trkpt>
      <trkpt lat="49.18832" lon="7.00215">
        <ele>285</ele>
        <time>2011-04-10T07:46:31Z</time>
      </trkpt>
      <trkpt lat="49.18833" lon="7.00217">
        <ele>285</ele>
        <time>2011-04-10T07:46:33Z</time>
      </trkpt>
      <trkpt lat="49.18835" lon="7.00218">
        <ele>285</ele>
        <time>2011-04-10T07:46:35Z</time>
      </trkpt>
      <trkpt lat="49.18837" lon="7.00219">
        <ele>285</ele>
        <time>2011-04-10T07:46:36Z</time>
      </trkpt>
      <trkpt lat="49.18838" lon="7.00222">
        <ele>285</ele>
        <time>2011-04-10T07:46:38Z</time>
      </trkpt>
      <trkpt lat="49.18839" lon="7.00223">
        <ele>285</ele>
        <time>2011-04-10T07:46:39Z</time>
      </trkpt>
      <trkpt lat="49.18841" lon="7.00225">
        <ele>285</ele>
        <time>2011-04-10T07:46:41Z</time>
      </trkpt>
      <trkpt lat="49.18842" lon="7.00226">
        <ele>285</ele>
        <time>2011-04-10T07:46:42Z</time>
      </trkpt>
      <trkpt lat="49.18844" lon="7.00227">
        <ele>285</ele>
        <time>2011-04-10T07:46:44Z</time>
      </trkpt>
      <trkpt lat="49.18845" lon="7.00229">
        <ele>285</ele>
        <time>2011-04-10T07:46:46Z</time>
      </trkpt>
      <trkpt lat="49.18847" lon="7.00231">
        <ele>285</ele>
        <time>2011-04-10T07:46:48Z</time>
      </trkpt>
      <trkpt lat="49.18848" lon="7.00231">
        <ele>285</ele>
        <time>2011-04-10T07:46:49Z</time>
      </trkpt>
      <trkpt lat="49.18849" lon="7.00233">
        <ele>285</ele>
        <time>2011-04-10T07:46:51Z</time>
      </trkpt>
      <trkpt lat="49.18851" lon="7.00235">
        <ele>285</ele>
        <time>2011-04-10T07:46:53Z</time>
      </trkpt>
      <trkpt lat="49.18852" lon="7.00236">
        <ele>286</ele>
        <time>2011-04-10T07:46:55Z</time>
      </trkpt>
      <trkpt lat="49.18854" lon="7.00237">
        <ele>288</ele>
        <time>2011-04-10T07:46:57Z</time>
      </trkpt>
      <trkpt lat="49.18856" lon="7.00238">
        <ele>289</ele>
        <time>2011-04-10T07:46:59Z</time>
      </trkpt>
      <trkpt lat="49.18857" lon="7.00241">
        <ele>289</ele>
        <time>2011-04-10T07:47:01Z</time>
      </trkpt>
      <trkpt lat="49.18859" lon="7.00243">
        <ele>289</ele>
        <time>2011-04-10T07:47:03Z</time>
      </trkpt>
      <trkpt lat="49.18861" lon="7.00245">
        <ele>289</ele>
        <time>2011-04-10T07:47:04Z</time>
      </trkpt>
      <trkpt lat="49.18862" lon="7.00246">
        <ele>289</ele>
        <time>2011-04-10T07:47:05Z</time>
      </trkpt>
      <trkpt lat="49.18864" lon="7.00247">
        <ele>289</ele>
        <time>2011-04-10T07:47:07Z</time>
      </trkpt>
      <trkpt lat="49.18865" lon="7.00248">
        <ele>289</ele>
        <time>2011-04-10T07:47:08Z</time>
      </trkpt>
      <trkpt lat="49.18866" lon="7.00251">
        <ele>289</ele>
        <time>2011-04-10T07:47:10Z</time>
      </trkpt>
      <trkpt lat="49.18869" lon="7.00254">
        <ele>289</ele>
        <time>2011-04-10T07:47:12Z</time>
      </trkpt>
      <trkpt lat="49.1887" lon="7.00255">
        <ele>289</ele>
        <time>2011-04-10T07:47:13Z</time>
      </trkpt>
      <trkpt lat="49.18869" lon="7.00257">
        <ele>289</ele>
        <time>2011-04-10T07:47:19Z</time>
      </trkpt>
      <trkpt lat="49.1887" lon="7.00258">
        <ele>290</ele>
        <time>2011-04-10T07:47:24Z</time>
      </trkpt>
      <trkpt lat="49.18869" lon="7.00257">
        <ele>290</ele>
        <time>2011-04-10T07:47:29Z</time>
      </trkpt>
      <trkpt lat="49.18868" lon="7.00256">
        <ele>290</ele>
        <time>2011-04-10T07:47:32Z</time>
      </trkpt>
      <trkpt lat="49.18867" lon="7.00255">
        <ele>290</ele>
        <time>2011-04-10T07:47:33Z</time>
      </trkpt>
      <trkpt lat="49.18867" lon="7.00257">
        <ele>290</ele>
        <time>2011-04-10T07:47:39Z</time>
      </trkpt>
      <trkpt lat="49.18867" lon="7.00259">
        <ele>290</ele>
        <time>2011-04-10T07:47:41Z</time>
      </trkpt>
      <trkpt lat="49.18866" lon="7.00261">
        <ele>290</ele>
        <time>2011-04-10T07:47:47Z</time>
      </trkpt>
      <trkpt lat="49.18866" lon="7.00259">
        <ele>294</ele>
        <time>2011-04-10T07:47:55Z</time>
      </trkpt>
      <trkpt lat="49.18867" lon="7.00257">
        <ele>295</ele>
        <time>2011-04-10T07:47:57Z</time>
      </trkpt>
      <trkpt lat="49.18868" lon="7.00257">
        <ele>298</ele>
        <time>2011-04-10T07:48:03Z</time>
      </trkpt>
      <trkpt lat="49.18868" lon="7.00255">
        <ele>301</ele>
        <time>2011-04-10T07:48:09Z</time>
      </trkpt>
      <trkpt lat="49.18867" lon="7.00257">
        <ele>302</ele>
        <time>2011-04-10T07:48:25Z</time>
      </trkpt>
      <trkpt lat="49.18868" lon="7.00259">
        <ele>302</ele>
        <time>2011-04-10T07:48:29Z</time>
      </trkpt>
      <trkpt lat="49.1887" lon="7.00261">
        <ele>300</ele>
        <time>2011-04-10T07:48:33Z</time>
      </trkpt>
      <trkpt lat="49.18871" lon="7.00263">
        <ele>297</ele>
        <time>2011-04-10T07:48:42Z</time>
      </trkpt>
      <trkpt lat="49.18871" lon="7.00261">
        <ele>296</ele>
        <time>2011-04-10T07:49:01Z</time>
      </trkpt>
      <trkpt lat="49.1887" lon="7.0026">
        <ele>295</ele>
        <time>2011-04-10T07:49:10Z</time>
      </trkpt>
      <trkpt lat="49.18869" lon="7.0026">
        <ele>294</ele>
        <time>2011-04-10T07:49:17Z</time>
      </trkpt>
      <trkpt lat="49.18868" lon="7.00261">
        <ele>293</ele>
        <time>2011-04-10T07:49:42Z</time>
      </trkpt>
      <trkpt lat="49.18866" lon="7.0026">
        <ele>293</ele>
        <time>2011-04-10T07:49:54Z</time>
      </trkpt>
      <trkpt lat="49.18865" lon="7.00261">
        <ele>293</ele>
        <time>2011-04-10T07:50:22Z</time>
      </trkpt>
      <trkpt lat="49.18866" lon="7.00262">
        <ele>293</ele>
        <time>2011-04-10T07:50:30Z</time>
      </trkpt>
      <trkpt lat="49.18868" lon="7.00264">
        <ele>293</ele>
        <time>2011-04-10T07:50:36Z</time>
      </trkpt>
      <trkpt lat="49.18867" lon="7.00262">
        <ele>295</ele>
        <time>2011-04-10T07:51:00Z</time>
      </trkpt>
      <trkpt lat="49.18867" lon="7.0026">
        <ele>295</ele>
        <time>2011-04-10T07:51:06Z</time>
      </trkpt>
      <trkpt lat="49.18866" lon="7.00259">
        <ele>295</ele>
        <time>2011-04-10T07:51:15Z</time>
      </trkpt>
      <trkpt lat="49.18867" lon="7.00258">
        <ele>296</ele>
        <time>2011-04-10T07:51:20Z</time>
      </trkpt>
      <trkpt lat="49.18869" lon="7.00259">
        <ele>298</ele>
        <time>2011-04-10T07:51:36Z</time>
      </trkpt>
      <trkpt lat="49.18869" lon="7.00261">
        <ele>298</ele>
        <time>2011-04-10T07:51:45Z</time>
      </trkpt>
      <trkpt lat="49.18867" lon="7.00261">
        <ele>298</ele>
        <time>2011-04-10T07:52:01Z</time>
      </trkpt>
      <trkpt lat="49.18867" lon="7.00264">
        <ele>298</ele>
        <time>2011-04-10T07:52:07Z</time>
      </trkpt>
      <trkpt lat="49.18866" lon="7.00266">
        <ele>298</ele>
        <time>2011-04-10T07:52:09Z</time>
      </trkpt>
      <trkpt lat="49.18866" lon="7.00268">
        <ele>298</ele>
        <time>2011-04-10T07:52:11Z</time>
      </trkpt>
      <trkpt lat="49.18867" lon="7.00266">
        <ele>298</ele>
        <time>2011-04-10T07:52:16Z</time>
      </trkpt>
      <trkpt lat="49.18867" lon="7.00264">
        <ele>298</ele>
        <time>2011-04-10T07:52:23Z</time>
      </trkpt>
      <trkpt lat="49.18868" lon="7.00266">
        <ele>297</ele>
        <time>2011-04-10T07:52:36Z</time>
      </trkpt>
      <trkpt lat="49.18869" lon="7.00265">
        <ele>291</ele>
        <time>2011-04-10T07:52:57Z</time>
      </trkpt>
      <trkpt lat="49.1887" lon="7.00265">
        <ele>289</ele>
        <time>2011-04-10T07:53:11Z</time>
      </trkpt>
      <trkpt lat="49.18869" lon="7.00264">
        <ele>289</ele>
        <time>2011-04-10T07:53:18Z</time>
      </trkpt>
      <trkpt lat="49.1887" lon="7.00266">
        <ele>289</ele>
        <time>2011-04-10T07:53:23Z</time>
      </trkpt>
      <trkpt lat="49.18872" lon="7.00268">
        <ele>290</ele>
        <time>2011-04-10T07:53:25Z</time>
      </trkpt>
      <trkpt lat="49.18871" lon="7.00268">
        <ele>291</ele>
        <time>2011-04-10T07:53:36Z</time>
      </trkpt>
      <trkpt lat="49.18872" lon="7.00268">
        <ele>291</ele>
        <time>2011-04-10T07:53:43Z</time>
      </trkpt>
      <trkpt lat="49.18874" lon="7.00266">
        <ele>291</ele>
        <time>2011-04-10T07:53:48Z</time>
      </trkpt>
      <trkpt lat="49.18872" lon="7.00268">
        <ele>294</ele>
        <time>2011-04-10T07:53:59Z</time>
      </trkpt>
      <trkpt lat="49.18871" lon="7.00268">
        <ele>295</ele>
        <time>2011-04-10T07:54:01Z</time>
      </trkpt>
      <trkpt lat="49.1887" lon="7.00266">
        <ele>296</ele>
        <time>2011-04-10T07:54:11Z</time>
      </trkpt>
      <trkpt lat="49.18871" lon="7.00264">
        <ele>296</ele>
        <time>2011-04-10T07:54:15Z</time>
      </trkpt>
      <trkpt lat="49.1887" lon="7.00265">
        <ele>296</ele>
        <time>2011-04-10T07:54:22Z</time>
      </trkpt>
      <trkpt lat="49.1887" lon="7.00263">
        <ele>296</ele>
        <time>2011-04-10T07:54:32Z</time>
      </trkpt>
      <trkpt lat="49.18871" lon="7.00261">
        <ele>296</ele>
        <time>2011-04-10T07:54:36Z</time>
      </trkpt>
      <trkpt lat="49.18872" lon="7.0026">
        <ele>296</ele>
        <time>2011-04-10T07:54:43Z</time>
      </trkpt>
      <trkpt lat="49.18871" lon="7.00262">
        <ele>296</ele>
        <time>2011-04-10T07:54:45Z</time>
      </trkpt>
      <trkpt lat="49.1887" lon="7.00263">
        <ele>296</ele>
        <time>2011-04-10T07:54:49Z</time>
      </trkpt>
      <trkpt lat="49.18869" lon="7.00266">
        <ele>296</ele>
        <time>2011-04-10T07:55:01Z</time>
      </trkpt>
      <trkpt lat="49.1887" lon="7.00268">
        <ele>296</ele>
        <time>2011-04-10T07:55:03Z</time>
      </trkpt>
      <trkpt lat="49.1887" lon="7.00271">
        <ele>299</ele>
        <time>2011-04-10T07:55:09Z</time>
      </trkpt>
      <trkpt lat="49.18869" lon="7.00271">
        <ele>299</ele>
        <time>2011-04-10T07:55:12Z</time>
      </trkpt>
      <trkpt lat="49.18869" lon="7.00269">
        <ele>302</ele>
        <time>2011-04-10T07:55:22Z</time>
      </trkpt>
      <trkpt lat="49.18869" lon="7.00267">
        <ele>302</ele>
        <time>2011-04-10T07:55:25Z</time>
      </trkpt>
      <trkpt lat="49.18871" lon="7.00267">
        <ele>302</ele>
        <time>2011-04-10T07:55:28Z</time>
      </trkpt>
      <trkpt lat="49.18872" lon="7.00269">
        <ele>302</ele>
        <time>2011-04-10T07:55:30Z</time>
      </trkpt>
      <trkpt lat="49.18873" lon="7.0027">
        <ele>302</ele>
        <time>2011-04-10T07:55:32Z</time>
      </trkpt>
      <trkpt lat="49.18872" lon="7.00267">
        <ele>302</ele>
        <time>2011-04-10T07:55:36Z</time>
      </trkpt>
      <trkpt lat="49.18871" lon="7.00265">
        <ele>302</ele>
        <time>2011-04-10T07:55:42Z</time>
      </trkpt>
      <trkpt lat="49.1887" lon="7.00262">
        <ele>302</ele>
        <time>2011-04-10T07:55:47Z</time>
      </trkpt>
      <trkpt lat="49.18871" lon="7.00261">
        <ele>302</ele>
        <time>2011-04-10T07:55:51Z</time>
      </trkpt>
      <trkpt lat="49.18871" lon="7.00262">
        <ele>302</ele>
        <time>2011-04-10T07:55:56Z</time>
      </trkpt>
      <trkpt lat="49.18872" lon="7.00263">
        <ele>302</ele>
        <time>2011-04-10T07:56:03Z</time>
      </trkpt>
      <trkpt lat="49.18872" lon="7.00261">
        <ele>302</ele>
        <time>2011-04-10T07:56:05Z</time>
      </trkpt>
      <trkpt lat="49.18873" lon="7.00262">
        <ele>302</ele>
        <time>2011-04-10T07:56:08Z</time>
      </trkpt>
      <trkpt lat="49.18872" lon="7.00259">
        <ele>302</ele>
        <time>2011-04-10T07:56:15Z</time>
      </trkpt>
      <trkpt lat="49.18871" lon="7.00259">
        <ele>302</ele>
        <time>2011-04-10T07:56:20Z</time>
      </trkpt>
      <trkpt lat="49.18869" lon="7.00259">
        <ele>304</ele>
        <time>2011-04-10T07:56:24Z</time>
      </trkpt>
      <trkpt lat="49.1887" lon="7.00261">
        <ele>305</ele>
        <time>2011-04-10T07:56:26Z</time>
      </trkpt>
      <trkpt lat="49.18869" lon="7.00264">
        <ele>305</ele>
        <time>2011-04-10T07:56:28Z</time>
      </trkpt>
      <trkpt lat="49.18871" lon="7.00266">
        <ele>306</ele>
        <time>2011-04-10T07:56:30Z</time>
      </trkpt>
      <trkpt lat="49.18872" lon="7.00267">
        <ele>307</ele>
        <time>2011-04-10T07:56:32Z</time>
      </trkpt>
      <trkpt lat="49.18874" lon="7.00268">
        <ele>307</ele>
        <time>2011-04-10T07:56:33Z</time>
      </trkpt>
      <trkpt lat="49.18875" lon="7.00266">
        <ele>308</ele>
        <time>2011-04-10T07:56:37Z</time>
      </trkpt>
      <trkpt lat="49.18874" lon="7.00265">
        <ele>308</ele>
        <time>2011-04-10T07:56:40Z</time>
      </trkpt>
      <trkpt lat="49.18873" lon="7.00263">
        <ele>308</ele>
        <time>2011-04-10T07:56:44Z</time>
      </trkpt>
      <trkpt lat="49.18875" lon="7.00262">
        <ele>308</ele>
        <time>2011-04-10T07:56:57Z</time>
      </trkpt>
      <trkpt lat="49.18874" lon="7.00264">
        <ele>305</ele>
        <time>2011-04-10T07:57:03Z</time>
      </trkpt>
      <trkpt lat="49.18873" lon="7.00266">
        <ele>304</ele>
        <time>2011-04-10T07:57:07Z</time>
      </trkpt>
      <trkpt lat="49.18872" lon="7.00265">
        <ele>304</ele>
        <time>2011-04-10T07:57:13Z</time>
      </trkpt>
      <trkpt lat="49.18871" lon="7.00266">
        <ele>301</ele>
        <time>2011-04-10T07:57:17Z</time>
      </trkpt>
      <trkpt lat="49.18869" lon="7.00265">
        <ele>296</ele>
        <time>2011-04-10T07:57:40Z</time>
      </trkpt>
      <trkpt lat="49.18869" lon="7.00263">
        <ele>296</ele>
        <time>2011-04-10T07:57:46Z</time>
      </trkpt>
      <trkpt lat="49.1887" lon="7.00262">
        <ele>296</ele>
        <time>2011-04-10T07:57:50Z</time>
      </trkpt>
      <trkpt lat="49.18872" lon="7.00262">
        <ele>296</ele>
        <time>2011-04-10T07:58:02Z</time>
      </trkpt>
      <trkpt lat="49.18873" lon="7.00262">
        <ele>296</ele>
        <time>2011-04-10T07:58:07Z</time>
      </trkpt>
      <trkpt lat="49.18874" lon="7.00258">
        <ele>295</ele>
        <time>2011-04-10T07:58:09Z</time>
      </trkpt>
      <trkpt lat="49.18875" lon="7.00256">
        <ele>295</ele>
        <time>2011-04-10T07:58:11Z</time>
      </trkpt>
      <trkpt lat="49.18875" lon="7.00255">
        <ele>295</ele>
        <time>2011-04-10T07:58:13Z</time>
      </trkpt>
      <trkpt lat="49.18875" lon="7.00252">
        <ele>295</ele>
        <time>2011-04-10T07:58:17Z</time>
      </trkpt>
      <trkpt lat="49.18877" lon="7.00254">
        <ele>295</ele>
        <time>2011-04-10T07:58:19Z</time>
      </trkpt>
      <trkpt lat="49.18879" lon="7.00254">
        <ele>295</ele>
        <time>2011-04-10T07:58:22Z</time>
      </trkpt>
      <trkpt lat="49.18881" lon="7.00253">
        <ele>295</ele>
        <time>2011-04-10T07:58:24Z</time>
      </trkpt>
      <trkpt lat="49.18882" lon="7.00253">
        <ele>295</ele>
        <time>2011-04-10T07:58:25Z</time>
      </trkpt>
      <trkpt lat="49.18885" lon="7.00253">
        <ele>295</ele>
        <time>2011-04-10T07:58:27Z</time>
      </trkpt>
      <trkpt lat="49.18886" lon="7.00253">
        <ele>295</ele>
        <time>2011-04-10T07:58:28Z</time>
      </trkpt>
      <trkpt lat="49.18887" lon="7.00254">
        <ele>295</ele>
        <time>2011-04-10T07:58:29Z</time>
      </trkpt>
      <trkpt lat="49.18889" lon="7.00254">
        <ele>295</ele>
        <time>2011-04-10T07:58:30Z</time>
      </trkpt>
      <trkpt lat="49.1889" lon="7.00253">
        <ele>295</ele>
        <time>2011-04-10T07:58:31Z</time>
      </trkpt>
      <trkpt lat="49.18891" lon="7.00254">
        <ele>295</ele>
        <time>2011-04-10T07:58:32Z</time>
      </trkpt>
      <trkpt lat="49.18893" lon="7.00253">
        <ele>295</ele>
        <time>2011-04-10T07:58:34Z</time>
      </trkpt>
      <trkpt lat="49.18895" lon="7.00253">
        <ele>295</ele>
        <time>2011-04-10T07:58:36Z</time>
      </trkpt>
      <trkpt lat="49.18897" lon="7.00253">
        <ele>295</ele>
        <time>2011-04-10T07:58:37Z</time>
      </trkpt>
      <trkpt lat="49.18898" lon="7.00253">
        <ele>295</ele>
        <time>2011-04-10T07:58:38Z</time>
      </trkpt>
      <trkpt lat="49.189" lon="7.00253">
        <ele>295</ele>
        <time>2011-04-10T07:58:39Z</time>
      </trkpt>
      <trkpt lat="49.18902" lon="7.00252">
        <ele>295</ele>
        <time>2011-04-10T07:58:40Z</time>
      </trkpt>
      <trkpt lat="49.18903" lon="7.00251">
        <ele>295</ele>
        <time>2011-04-10T07:58:41Z</time>
      </trkpt>
      <trkpt lat="49.18905" lon="7.0025">
        <ele>295</ele>
        <time>2011-04-10T07:58:42Z</time>
      </trkpt>
      <trkpt lat="49.18907" lon="7.0025">
        <ele>295</ele>
        <time>2011-04-10T07:58:43Z</time>
      </trkpt>
      <trkpt lat="49.18909" lon="7.0025">
        <ele>295</ele>
        <time>2011-04-10T07:58:45Z</time>
      </trkpt>
      <trkpt lat="49.18911" lon="7.00249">
        <ele>295</ele>
        <time>2011-04-10T07:58:46Z</time>
      </trkpt>
      <trkpt lat="49.18913" lon="7.00249">
        <ele>295</ele>
        <time>2011-04-10T07:58:47Z</time>
      </trkpt>
      <trkpt lat="49.18914" lon="7.00249">
        <ele>295</ele>
        <time>2011-04-10T07:58:48Z</time>
      </trkpt>
      <trkpt lat="49.18915" lon="7.00248">
        <ele>295</ele>
        <time>2011-04-10T07:58:49Z</time>
      </trkpt>
      <trkpt lat="49.18917" lon="7.00247">
        <ele>295</ele>
        <time>2011-04-10T07:58:50Z</time>
      </trkpt>
      <trkpt lat="49.1892" lon="7.00247">
        <ele>295</ele>
        <time>2011-04-10T07:58:52Z</time>
      </trkpt>
      <trkpt lat="49.18921" lon="7.00246">
        <ele>295</ele>
        <time>2011-04-10T07:58:53Z</time>
      </trkpt>
      <trkpt lat="49.18923" lon="7.00246">
        <ele>295</ele>
        <time>2011-04-10T07:58:54Z</time>
      </trkpt>
      <trkpt lat="49.18925" lon="7.00245">
        <ele>295</ele>
        <time>2011-04-10T07:58:55Z</time>
      </trkpt>
      <trkpt lat="49.18927" lon="7.00243">
        <ele>295</ele>
        <time>2011-04-10T07:58:57Z</time>
      </trkpt>
      <trkpt lat="49.18928" lon="7.00242">
        <ele>295</ele>
        <time>2011-04-10T07:58:58Z</time>
      </trkpt>
      <trkpt lat="49.1893" lon="7.00242">
        <ele>295</ele>
        <time>2011-04-10T07:58:59Z</time>
      </trkpt>
      <trkpt lat="49.18931" lon="7.00241">
        <ele>295</ele>
        <time>2011-04-10T07:59:00Z</time>
      </trkpt>
      <trkpt lat="49.18932" lon="7.00241">
        <ele>295</ele>
        <time>2011-04-10T07:59:01Z</time>
      </trkpt>
      <trkpt lat="49.18933" lon="7.00241">
        <ele>295</ele>
        <time>2011-04-10T07:59:02Z</time>
      </trkpt>
      <trkpt lat="49.18935" lon="7.00241">
        <ele>295</ele>
        <time>2011-04-10T07:59:04Z</time>
      </trkpt>
      <trkpt lat="49.18937" lon="7.00241">
        <ele>295</ele>
        <time>2011-04-10T07:59:05Z</time>
      </trkpt>
      <trkpt lat="49.18939" lon="7.00242">
        <ele>295</ele>
        <time>2011-04-10T07:59:07Z</time>
      </trkpt>
      <trkpt lat="49.1894" lon="7.00241">
        <ele>295</ele>
        <time>2011-04-10T07:59:09Z</time>
      </trkpt>
      <trkpt lat="49.18942" lon="7.00242">
        <ele>295</ele>
        <time>2011-04-10T07:59:10Z</time>
      </trkpt>
      <trkpt lat="49.18944" lon="7.00242">
        <ele>295</ele>
        <time>2011-04-10T07:59:11Z</time>
      </trkpt>
      <trkpt lat="49.18945" lon="7.00242">
        <ele>295</ele>
        <time>2011-04-10T07:59:12Z</time>
      </trkpt>
      <trkpt lat="49.18947" lon="7.00242">
        <ele>295</ele>
        <time>2011-04-10T07:59:13Z</time>
      </trkpt>
      <trkpt lat="49.18949" lon="7.00243">
        <ele>295</ele>
        <time>2011-04-10T07:59:14Z</time>
      </trkpt>
      <trkpt lat="49.1895" lon="7.00243">
        <ele>295</ele>
        <time>2011-04-10T07:59:15Z</time>
      </trkpt>
      <trkpt lat="49.18951" lon="7.00243">
        <ele>295</ele>
        <time>2011-04-10T07:59:16Z</time>
      </trkpt>
      <trkpt lat="49.18953" lon="7.00244">
        <ele>295</ele>
        <time>2011-04-10T07:59:18Z</time>
      </trkpt>
      <trkpt lat="49.18955" lon="7.00246">
        <ele>295</ele>
        <time>2011-04-10T07:59:20Z</time>
      </trkpt>
      <trkpt lat="49.18957" lon="7.00246">
        <ele>295</ele>
        <time>2011-04-10T07:59:22Z</time>
      </trkpt>
      <trkpt lat="49.18959" lon="7.00246">
        <ele>295</ele>
        <time>2011-04-10T07:59:24Z</time>
      </trkpt>
      <trkpt lat="49.1896" lon="7.00246">
        <ele>295</ele>
        <time>2011-04-10T07:59:25Z</time>
      </trkpt>
      <trkpt lat="49.18962" lon="7.00246">
        <ele>295</ele>
        <time>2011-04-10T07:59:26Z</time>
      </trkpt>
      <trkpt lat="49.18964" lon="7.00246">
        <ele>295</ele>
        <time>2011-04-10T07:59:27Z</time>
      </trkpt>
      <trkpt lat="49.18965" lon="7.00246">
        <ele>295</ele>
        <time>2011-04-10T07:59:28Z</time>
      </trkpt>
      <trkpt lat="49.18967" lon="7.00245">
        <ele>295</ele>
        <time>2011-04-10T07:59:29Z</time>
      </trkpt>
      <trkpt lat="49.18968" lon="7.00245">
        <ele>295</ele>
        <time>2011-04-10T07:59:30Z</time>
      </trkpt>
      <trkpt lat="49.18969" lon="7.00246">
        <ele>295</ele>
        <time>2011-04-10T07:59:31Z</time>
      </trkpt>
      <trkpt lat="49.18971" lon="7.00246">
        <ele>295</ele>
        <time>2011-04-10T07:59:32Z</time>
      </trkpt>
      <trkpt lat="49.18973" lon="7.00246">
        <ele>295</ele>
        <time>2011-04-10T07:59:33Z</time>
      </trkpt>
      <trkpt lat="49.18975" lon="7.00246">
        <ele>295</ele>
        <time>2011-04-10T07:59:34Z</time>
      </trkpt>
      <trkpt lat="49.18976" lon="7.00246">
        <ele>295</ele>
        <time>2011-04-10T07:59:35Z</time>
      </trkpt>
      <trkpt lat="49.18977" lon="7.00245">
        <ele>295</ele>
        <time>2011-04-10T07:59:36Z</time>
      </trkpt>
      <trkpt lat="49.18979" lon="7.00246">
        <ele>295</ele>
        <time>2011-04-10T07:59:37Z</time>
      </trkpt>
      <trkpt lat="49.18981" lon="7.00246">
        <ele>295</ele>
        <time>2011-04-10T07:59:38Z</time>
      </trkpt>
      <trkpt lat="49.18983" lon="7.00246">
        <ele>295</ele>
        <time>2011-04-10T07:59:39Z</time>
      </trkpt>
      <trkpt lat="49.18984" lon="7.00247">
        <ele>295</ele>
        <time>2011-04-10T07:59:40Z</time>
      </trkpt>
      <trkpt lat="49.18986" lon="7.00247">
        <ele>295</ele>
        <time>2011-04-10T07:59:41Z</time>
      </trkpt>
      <trkpt lat="49.18988" lon="7.00247">
        <ele>295</ele>
        <time>2011-04-10T07:59:42Z</time>
      </trkpt>
      <trkpt lat="49.18989" lon="7.00247">
        <ele>295</ele>
        <time>2011-04-10T07:59:43Z</time>
      </trkpt>
      <trkpt lat="49.1899" lon="7.00247">
        <ele>296</ele>
        <time>2011-04-10T07:59:44Z</time>
      </trkpt>
      <trkpt lat="49.18992" lon="7.00247">
        <ele>296</ele>
        <time>2011-04-10T07:59:45Z</time>
      </trkpt>
      <trkpt lat="49.18993" lon="7.00248">
        <ele>296</ele>
        <time>2011-04-10T07:59:46Z</time>
      </trkpt>
      <trkpt lat="49.18995" lon="7.00248">
        <ele>297</ele>
        <time>2011-04-10T07:59:47Z</time>
      </trkpt>
      <trkpt lat="49.18996" lon="7.00248">
        <ele>297</ele>
        <time>2011-04-10T07:59:48Z</time>
      </trkpt>
      <trkpt lat="49.18998" lon="7.00248">
        <ele>297</ele>
        <time>2011-04-10T07:59:49Z</time>
      </trkpt>
      <trkpt lat="49.19" lon="7.00248">
        <ele>298</ele>
        <time>2011-04-10T07:59:50Z</time>
      </trkpt>
      <trkpt lat="49.19001" lon="7.00248">
        <ele>298</ele>
        <time>2011-04-10T07:59:51Z</time>
      </trkpt>
      <trkpt lat="49.19002" lon="7.00247">
        <ele>299</ele>
        <time>2011-04-10T07:59:52Z</time>
      </trkpt>
      <trkpt lat="49.19005" lon="7.00246">
        <ele>300</ele>
        <time>2011-04-10T07:59:54Z</time>
      </trkpt>
      <trkpt lat="49.19007" lon="7.00245">
        <ele>301</ele>
        <time>2011-04-10T07:59:56Z</time>
      </trkpt>
      <trkpt lat="49.19008" lon="7.00244">
        <ele>301</ele>
        <time>2011-04-10T07:59:57Z</time>
      </trkpt>
      <trkpt lat="49.19009" lon="7.00244">
        <ele>302</ele>
        <time>2011-04-10T07:59:58Z</time>
      </trkpt>
      <trkpt lat="49.19011" lon="7.00243">
        <ele>302</ele>
        <time>2011-04-10T07:59:59Z</time>
      </trkpt>
      <trkpt lat="49.19013" lon="7.00242">
        <ele>302</ele>
        <time>2011-04-10T08:00:00Z</time>
      </trkpt>
      <trkpt lat="49.19014" lon="7.00242">
        <ele>303</ele>
        <time>2011-04-10T08:00:01Z</time>
      </trkpt>
      <trkpt lat="49.19016" lon="7.00241">
        <ele>303</ele>
        <time>2011-04-10T08:00:02Z</time>
      </trkpt>
      <trkpt lat="49.19018" lon="7.00238">
        <ele>304</ele>
        <time>2011-04-10T08:00:04Z</time>
      </trkpt>
      <trkpt lat="49.19019" lon="7.00236">
        <ele>304</ele>
        <time>2011-04-10T08:00:05Z</time>
      </trkpt>
      <trkpt lat="49.1902" lon="7.00234">
        <ele>305</ele>
        <time>2011-04-10T08:00:07Z</time>
      </trkpt>
      <trkpt lat="49.19022" lon="7.00233">
        <ele>305</ele>
        <time>2011-04-10T08:00:08Z</time>
      </trkpt>
      <trkpt lat="49.19023" lon="7.00231">
        <ele>305</ele>
        <time>2011-04-10T08:00:09Z</time>
      </trkpt>
      <trkpt lat="49.19024" lon="7.0023">
        <ele>305</ele>
        <time>2011-04-10T08:00:10Z</time>
      </trkpt>
      <trkpt lat="49.19026" lon="7.00228">
        <ele>305</ele>
        <time>2011-04-10T08:00:11Z</time>
      </trkpt>
      <trkpt lat="49.19028" lon="7.00226">
        <ele>305</ele>
        <time>2011-04-10T08:00:12Z</time>
      </trkpt>
      <trkpt lat="49.1903" lon="7.00224">
        <ele>306</ele>
        <time>2011-04-10T08:00:13Z</time>
      </trkpt>
      <trkpt lat="49.19032" lon="7.00223">
        <ele>307</ele>
        <time>2011-04-10T08:00:15Z</time>
      </trkpt>
      <trkpt lat="49.19034" lon="7.00222">
        <ele>307</ele>
        <time>2011-04-10T08:00:17Z</time>
      </trkpt>
      <trkpt lat="49.19035" lon="7.00221">
        <ele>307</ele>
        <time>2011-04-10T08:00:18Z</time>
      </trkpt>
      <trkpt lat="49.19037" lon="7.0022">
        <ele>307</ele>
        <time>2011-04-10T08:00:19Z</time>
      </trkpt>
      <trkpt lat="49.19039" lon="7.00219">
        <ele>307</ele>
        <time>2011-04-10T08:00:20Z</time>
      </trkpt>
      <trkpt lat="49.19041" lon="7.00218">
        <ele>307</ele>
        <time>2011-04-10T08:00:21Z</time>
      </trkpt>
      <trkpt lat="49.19042" lon="7.00217">
        <ele>307</ele>
        <time>2011-04-10T08:00:23Z</time>
      </trkpt>
      <trkpt lat="49.19043" lon="7.00215">
        <ele>307</ele>
        <time>2011-04-10T08:00:24Z</time>
      </trkpt>
      <trkpt lat="49.19044" lon="7.00214">
        <ele>307</ele>
        <time>2011-04-10T08:00:25Z</time>
      </trkpt>
      <trkpt lat="49.19046" lon="7.00212">
        <ele>307</ele>
        <time>2011-04-10T08:00:27Z</time>
      </trkpt>
      <trkpt lat="49.19047" lon="7.00211">
        <ele>307</ele>
        <time>2011-04-10T08:00:29Z</time>
      </trkpt>
      <trkpt lat="49.19049" lon="7.0021">
        <ele>306</ele>
        <time>2011-04-10T08:00:31Z</time>
      </trkpt>
      <trkpt lat="49.1905" lon="7.00208">
        <ele>305</ele>
        <time>2011-04-10T08:00:33Z</time>
      </trkpt>
      <trkpt lat="49.19052" lon="7.00206">
        <ele>304</ele>
        <time>2011-04-10T08:00:35Z</time>
      </trkpt>
      <trkpt lat="49.19053" lon="7.00203">
        <ele>303</ele>
        <time>2011-04-10T08:00:37Z</time>
      </trkpt>
      <trkpt lat="49.19054" lon="7.00202">
        <ele>303</ele>
        <time>2011-04-10T08:00:38Z</time>
      </trkpt>
      <trkpt lat="49.19055" lon="7.002">
        <ele>303</ele>
        <time>2011-04-10T08:00:39Z</time>
      </trkpt>
      <trkpt lat="49.19056" lon="7.00199">
        <ele>303</ele>
        <time>2011-04-10T08:00:40Z</time>
      </trkpt>
      <trkpt lat="49.19059" lon="7.00199">
        <ele>303</ele>
        <time>2011-04-10T08:00:41Z</time>
      </trkpt>
      <trkpt lat="49.19061" lon="7.00197">
        <ele>303</ele>
        <time>2011-04-10T08:00:42Z</time>
      </trkpt>
      <trkpt lat="49.19062" lon="7.00197">
        <ele>303</ele>
        <time>2011-04-10T08:00:43Z</time>
      </trkpt>
      <trkpt lat="49.19063" lon="7.00196">
        <ele>302</ele>
        <time>2011-04-10T08:00:44Z</time>
      </trkpt>
      <trkpt lat="49.19065" lon="7.00196">
        <ele>302</ele>
        <time>2011-04-10T08:00:45Z</time>
      </trkpt>
      <trkpt lat="49.19067" lon="7.00196">
        <ele>302</ele>
        <time>2011-04-10T08:00:46Z</time>
      </trkpt>
      <trkpt lat="49.19069" lon="7.00196">
        <ele>302</ele>
        <time>2011-04-10T08:00:47Z</time>
      </trkpt>
      <trkpt lat="49.1907" lon="7.00195">
        <ele>302</ele>
        <time>2011-04-10T08:00:48Z</time>
      </trkpt>
      <trkpt lat="49.19071" lon="7.00193">
        <ele>302</ele>
        <time>2011-04-10T08:00:49Z</time>
      </trkpt>
      <trkpt lat="49.19072" lon="7.00192">
        <ele>302</ele>
        <time>2011-04-10T08:00:50Z</time>
      </trkpt>
      <trkpt lat="49.19074" lon="7.00191">
        <ele>302</ele>
        <time>2011-04-10T08:00:51Z</time>
      </trkpt>
      <trkpt lat="49.19075" lon="7.0019">
        <ele>302</ele>
        <time>2011-04-10T08:00:52Z</time>
      </trkpt>
      <trkpt lat="49.19077" lon="7.00189">
        <ele>302</ele>
        <time>2011-04-10T08:00:53Z</time>
      </trkpt>
      <trkpt lat="49.19078" lon="7.00189">
        <ele>302</ele>
        <time>2011-04-10T08:00:54Z</time>
      </trkpt>
      <trkpt lat="49.1908" lon="7.00188">
        <ele>302</ele>
        <time>2011-04-10T08:00:57Z</time>
      </trkpt>
      <trkpt lat="49.19082" lon="7.00185">
        <ele>302</ele>
        <time>2011-04-10T08:00:59Z</time>
      </trkpt>
      <trkpt lat="49.19083" lon="7.00183">
        <ele>302</ele>
        <time>2011-04-10T08:01:00Z</time>
      </trkpt>
      <trkpt lat="49.19085" lon="7.00182">
        <ele>302</ele>
        <time>2011-04-10T08:01:01Z</time>
      </trkpt>
      <trkpt lat="49.19086" lon="7.00181">
        <ele>302</ele>
        <time>2011-04-10T08:01:02Z</time>
      </trkpt>
      <trkpt lat="49.19088" lon="7.0018">
        <ele>302</ele>
        <time>2011-04-10T08:01:03Z</time>
      </trkpt>
      <trkpt lat="49.19089" lon="7.00178">
        <ele>302</ele>
        <time>2011-04-10T08:01:04Z</time>
      </trkpt>
      <trkpt lat="49.1909" lon="7.00176">
        <ele>302</ele>
        <time>2011-04-10T08:01:05Z</time>
      </trkpt>
      <trkpt lat="49.19091" lon="7.00175">
        <ele>302</ele>
        <time>2011-04-10T08:01:06Z</time>
      </trkpt>
      <trkpt lat="49.19093" lon="7.00174">
        <ele>302</ele>
        <time>2011-04-10T08:01:07Z</time>
      </trkpt>
      <trkpt lat="49.19094" lon="7.00172">
        <ele>302</ele>
        <time>2011-04-10T08:01:08Z</time>
      </trkpt>
      <trkpt lat="49.19096" lon="7.00169">
        <ele>302</ele>
        <time>2011-04-10T08:01:09Z</time>
      </trkpt>
      <trkpt lat="49.19097" lon="7.00168">
        <ele>302</ele>
        <time>2011-04-10T08:01:10Z</time>
      </trkpt>
      <trkpt lat="49.19098" lon="7.00166">
        <ele>302</ele>
        <time>2011-04-10T08:01:11Z</time>
      </trkpt>
      <trkpt lat="49.191" lon="7.00165">
        <ele>302</ele>
        <time>2011-04-10T08:01:13Z</time>
      </trkpt>
      <trkpt lat="49.19102" lon="7.00162">
        <ele>302</ele>
        <time>2011-04-10T08:01:15Z</time>
      </trkpt>
      <trkpt lat="49.19104" lon="7.0016">
        <ele>302</ele>
        <time>2011-04-10T08:01:17Z</time>
      </trkpt>
      <trkpt lat="49.19105" lon="7.00159">
        <ele>302</ele>
        <time>2011-04-10T08:01:18Z</time>
      </trkpt>
      <trkpt lat="49.19108" lon="7.00157">
        <ele>302</ele>
        <time>2011-04-10T08:01:20Z</time>
      </trkpt>
      <trkpt lat="49.1911" lon="7.00157">
        <ele>302</ele>
        <time>2011-04-10T08:01:21Z</time>
      </trkpt>
      <trkpt lat="49.19112" lon="7.00156">
        <ele>302</ele>
        <time>2011-04-10T08:01:22Z</time>
      </trkpt>
      <trkpt lat="49.19112" lon="7.00154">
        <ele>302</ele>
        <time>2011-04-10T08:01:23Z</time>
      </trkpt>
      <trkpt lat="49.19113" lon="7.00152">
        <ele>302</ele>
        <time>2011-04-10T08:01:24Z</time>
      </trkpt>
      <trkpt lat="49.19115" lon="7.0015">
        <ele>301</ele>
        <time>2011-04-10T08:01:26Z</time>
      </trkpt>
      <trkpt lat="49.19117" lon="7.00149">
        <ele>301</ele>
        <time>2011-04-10T08:01:27Z</time>
      </trkpt>
      <trkpt lat="49.19118" lon="7.00146">
        <ele>300</ele>
        <time>2011-04-10T08:01:29Z</time>
      </trkpt>
      <trkpt lat="49.1912" lon="7.00144">
        <ele>300</ele>
        <time>2011-04-10T08:01:31Z</time>
      </trkpt>
      <trkpt lat="49.19122" lon="7.00142">
        <ele>299</ele>
        <time>2011-04-10T08:01:32Z</time>
      </trkpt>
      <trkpt lat="49.19123" lon="7.00141">
        <ele>299</ele>
        <time>2011-04-10T08:01:33Z</time>
      </trkpt>
      <trkpt lat="49.19124" lon="7.0014">
        <ele>299</ele>
        <time>2011-04-10T08:01:34Z</time>
      </trkpt>
      <trkpt lat="49.19125" lon="7.00138">
        <ele>299</ele>
        <time>2011-04-10T08:01:35Z</time>
      </trkpt>
      <trkpt lat="49.19128" lon="7.00135">
        <ele>299</ele>
        <time>2011-04-10T08:01:37Z</time>
      </trkpt>
      <trkpt lat="49.1913" lon="7.00132">
        <ele>299</ele>
        <time>2011-04-10T08:01:39Z</time>
      </trkpt>
      <trkpt lat="49.19131" lon="7.0013">
        <ele>299</ele>
        <time>2011-04-10T08:01:41Z</time>
      </trkpt>
      <trkpt lat="49.19133" lon="7.00127">
        <ele>299</ele>
        <time>2011-04-10T08:01:43Z</time>
      </trkpt>
      <trkpt lat="49.19135" lon="7.00126">
        <ele>299</ele>
        <time>2011-04-10T08:01:44Z</time>
      </trkpt>
      <trkpt lat="49.19136" lon="7.00125">
        <ele>299</ele>
        <time>2011-04-10T08:01:45Z</time>
      </trkpt>
      <trkpt lat="49.19138" lon="7.00124">
        <ele>299</ele>
        <time>2011-04-10T08:01:46Z</time>
      </trkpt>
      <trkpt lat="49.19138" lon="7.00122">
        <ele>299</ele>
        <time>2011-04-10T08:01:47Z</time>
      </trkpt>
      <trkpt lat="49.19139" lon="7.0012">
        <ele>299</ele>
        <time>2011-04-10T08:01:48Z</time>
      </trkpt>
      <trkpt lat="49.1914" lon="7.00119">
        <ele>299</ele>
        <time>2011-04-10T08:01:49Z</time>
      </trkpt>
      <trkpt lat="49.19141" lon="7.00117">
        <ele>299</ele>
        <time>2011-04-10T08:01:50Z</time>
      </trkpt>
      <trkpt lat="49.19143" lon="7.00115">
        <ele>299</ele>
        <time>2011-04-10T08:01:51Z</time>
      </trkpt>
      <trkpt lat="49.19144" lon="7.00114">
        <ele>299</ele>
        <time>2011-04-10T08:01:52Z</time>
      </trkpt>
      <trkpt lat="49.19146" lon="7.00111">
        <ele>299</ele>
        <time>2011-04-10T08:01:54Z</time>
      </trkpt>
      <trkpt lat="49.19147" lon="7.0011">
        <ele>299</ele>
        <time>2011-04-10T08:01:55Z</time>
      </trkpt>
      <trkpt lat="49.19148" lon="7.00107">
        <ele>299</ele>
        <time>2011-04-10T08:01:57Z</time>
      </trkpt>
      <trkpt lat="49.1915" lon="7.00105">
        <ele>299</ele>
        <time>2011-04-10T08:01:59Z</time>
      </trkpt>
      <trkpt lat="49.19151" lon="7.00103">
        <ele>299</ele>
        <time>2011-04-10T08:02:00Z</time>
      </trkpt>
      <trkpt lat="49.19153" lon="7.00101">
        <ele>299</ele>
        <time>2011-04-10T08:02:02Z</time>
      </trkpt>
      <trkpt lat="49.19154" lon="7.00099">
        <ele>299</ele>
        <time>2011-04-10T08:02:03Z</time>
      </trkpt>
      <trkpt lat="49.19156" lon="7.00098">
        <ele>299</ele>
        <time>2011-04-10T08:02:04Z</time>
      </trkpt>
      <trkpt lat="49.19158" lon="7.00096">
        <ele>299</ele>
        <time>2011-04-10T08:02:05Z</time>
      </trkpt>
      <trkpt lat="49.19159" lon="7.00095">
        <ele>299</ele>
        <time>2011-04-10T08:02:06Z</time>
      </trkpt>
      <trkpt lat="49.19162" lon="7.00094">
        <ele>301</ele>
        <time>2011-04-10T08:02:08Z</time>
      </trkpt>
      <trkpt lat="49.19163" lon="7.00093">
        <ele>301</ele>
        <time>2011-04-10T08:02:09Z</time>
      </trkpt>
      <trkpt lat="49.19164" lon="7.00092">
        <ele>301</ele>
        <time>2011-04-10T08:02:10Z</time>
      </trkpt>
      <trkpt lat="49.19166" lon="7.0009">
        <ele>301</ele>
        <time>2011-04-10T08:02:12Z</time>
      </trkpt>
      <trkpt lat="49.19167" lon="7.00089">
        <ele>301</ele>
        <time>2011-04-10T08:02:13Z</time>
      </trkpt>
      <trkpt lat="49.19169" lon="7.00088">
        <ele>301</ele>
        <time>2011-04-10T08:02:14Z</time>
      </trkpt>
      <trkpt lat="49.19171" lon="7.00085">
        <ele>302</ele>
        <time>2011-04-10T08:02:16Z</time>
      </trkpt>
      <trkpt lat="49.19173" lon="7.00083">
        <ele>302</ele>
        <time>2011-04-10T08:02:18Z</time>
      </trkpt>
      <trkpt lat="49.19174" lon="7.00082">
        <ele>302</ele>
        <time>2011-04-10T08:02:19Z</time>
      </trkpt>
      <trkpt lat="49.19175" lon="7.00081">
        <ele>302</ele>
        <time>2011-04-10T08:02:20Z</time>
      </trkpt>
      <trkpt lat="49.19177" lon="7.00081">
        <ele>302</ele>
        <time>2011-04-10T08:02:21Z</time>
      </trkpt>
      <trkpt lat="49.19178" lon="7.0008">
        <ele>302</ele>
        <time>2011-04-10T08:02:22Z</time>
      </trkpt>
      <trkpt lat="49.1918" lon="7.00079">
        <ele>302</ele>
        <time>2011-04-10T08:02:23Z</time>
      </trkpt>
      <trkpt lat="49.19182" lon="7.00077">
        <ele>302</ele>
        <time>2011-04-10T08:02:24Z</time>
      </trkpt>
      <trkpt lat="49.19183" lon="7.00077">
        <ele>302</ele>
        <time>2011-04-10T08:02:25Z</time>
      </trkpt>
      <trkpt lat="49.19185" lon="7.00076">
        <ele>302</ele>
        <time>2011-04-10T08:02:26Z</time>
      </trkpt>
      <trkpt lat="49.19186" lon="7.00075">
        <ele>303</ele>
        <time>2011-04-10T08:02:27Z</time>
      </trkpt>
      <trkpt lat="49.19188" lon="7.00075">
        <ele>303</ele>
        <time>2011-04-10T08:02:28Z</time>
      </trkpt>
      <trkpt lat="49.1919" lon="7.00073">
        <ele>303</ele>
        <time>2011-04-10T08:02:30Z</time>
      </trkpt>
      <trkpt lat="49.19191" lon="7.00074">
        <ele>303</ele>
        <time>2011-04-10T08:02:31Z</time>
      </trkpt>
      <trkpt lat="49.19193" lon="7.00074">
        <ele>303</ele>
        <time>2011-04-10T08:02:33Z</time>
      </trkpt>
      <trkpt lat="49.19194" lon="7.00073">
        <ele>303</ele>
        <time>2011-04-10T08:02:34Z</time>
      </trkpt>
      <trkpt lat="49.19195" lon="7.00072">
        <ele>303</ele>
        <time>2011-04-10T08:02:35Z</time>
      </trkpt>
      <trkpt lat="49.19196" lon="7.0007">
        <ele>303</ele>
        <time>2011-04-10T08:02:36Z</time>
      </trkpt>
      <trkpt lat="49.19198" lon="7.0007">
        <ele>303</ele>
        <time>2011-04-10T08:02:37Z</time>
      </trkpt>
      <trkpt lat="49.19199" lon="7.0007">
        <ele>303</ele>
        <time>2011-04-10T08:02:38Z</time>
      </trkpt>
      <trkpt lat="49.19201" lon="7.0007">
        <ele>303</ele>
        <time>2011-04-10T08:02:39Z</time>
      </trkpt>
      <trkpt lat="49.19202" lon="7.0007">
        <ele>303</ele>
        <time>2011-04-10T08:02:40Z</time>
      </trkpt>
      <trkpt lat="49.19203" lon="7.0007">
        <ele>303</ele>
        <time>2011-04-10T08:02:41Z</time>
      </trkpt>
      <trkpt lat="49.19205" lon="7.00069">
        <ele>303</ele>
        <time>2011-04-10T08:02:43Z</time>
      </trkpt>
      <trkpt lat="49.19207" lon="7.00067">
        <ele>303</ele>
        <time>2011-04-10T08:02:44Z</time>
      </trkpt>
      <trkpt lat="49.19208" lon="7.00066">
        <ele>303</ele>
        <time>2011-04-10T08:02:45Z</time>
      </trkpt>
      <trkpt lat="49.19209" lon="7.00065">
        <ele>303</ele>
        <time>2011-04-10T08:02:46Z</time>
      </trkpt>
      <trkpt lat="49.1921" lon="7.00065">
        <ele>303</ele>
        <time>2011-04-10T08:02:47Z</time>
      </trkpt>
      <trkpt lat="49.19213" lon="7.00063">
        <ele>303</ele>
        <time>2011-04-10T08:02:49Z</time>
      </trkpt>
      <trkpt lat="49.19214" lon="7.00062">
        <ele>303</ele>
        <time>2011-04-10T08:02:50Z</time>
      </trkpt>
      <trkpt lat="49.19216" lon="7.0006">
        <ele>303</ele>
        <time>2011-04-10T08:02:51Z</time>
      </trkpt>
      <trkpt lat="49.19218" lon="7.00059">
        <ele>303</ele>
        <time>2011-04-10T08:02:52Z</time>
      </trkpt>
      <trkpt lat="49.1922" lon="7.00057">
        <ele>303</ele>
        <time>2011-04-10T08:02:53Z</time>
      </trkpt>
      <trkpt lat="49.19221" lon="7.00056">
        <ele>303</ele>
        <time>2011-04-10T08:02:54Z</time>
      </trkpt>
      <trkpt lat="49.19223" lon="7.00055">
        <ele>304</ele>
        <time>2011-04-10T08:02:55Z</time>
      </trkpt>
      <trkpt lat="49.19224" lon="7.00054">
        <ele>305</ele>
        <time>2011-04-10T08:02:56Z</time>
      </trkpt>
      <trkpt lat="49.19226" lon="7.00052">
        <ele>306</ele>
        <time>2011-04-10T08:02:57Z</time>
      </trkpt>
      <trkpt lat="49.19228" lon="7.00051">
        <ele>307</ele>
        <time>2011-04-10T08:02:58Z</time>
      </trkpt>
      <trkpt lat="49.19229" lon="7.00049">
        <ele>307</ele>
        <time>2011-04-10T08:02:59Z</time>
      </trkpt>
      <trkpt lat="49.1923" lon="7.00047">
        <ele>308</ele>
        <time>2011-04-10T08:03:00Z</time>
      </trkpt>
      <trkpt lat="49.19233" lon="7.00045">
        <ele>308</ele>
        <time>2011-04-10T08:03:02Z</time>
      </trkpt>
      <trkpt lat="49.19234" lon="7.00043">
        <ele>309</ele>
        <time>2011-04-10T08:03:04Z</time>
      </trkpt>
      <trkpt lat="49.19236" lon="7.00041">
        <ele>309</ele>
        <time>2011-04-10T08:03:06Z</time>
      </trkpt>
      <trkpt lat="49.19237" lon="7.0004">
        <ele>309</ele>
        <time>2011-04-10T08:03:07Z</time>
      </trkpt>
      <trkpt lat="49.19239" lon="7.00039">
        <ele>309</ele>
        <time>2011-04-10T08:03:09Z</time>
      </trkpt>
      <trkpt lat="49.19241" lon="7.00037">
        <ele>309</ele>
        <time>2011-04-10T08:03:11Z</time>
      </trkpt>
      <trkpt lat="49.19242" lon="7.00035">
        <ele>309</ele>
        <time>2011-04-10T08:03:13Z</time>
      </trkpt>
      <trkpt lat="49.19244" lon="7.00032">
        <ele>309</ele>
        <time>2011-04-10T08:03:15Z</time>
      </trkpt>
      <trkpt lat="49.19246" lon="7.0003">
        <ele>309</ele>
        <time>2011-04-10T08:03:17Z</time>
      </trkpt>
      <trkpt lat="49.19247" lon="7.0003">
        <ele>309</ele>
        <time>2011-04-10T08:03:18Z</time>
      </trkpt>
      <trkpt lat="49.19252" lon="7.00025">
        <ele>309</ele>
        <time>2011-04-10T08:03:22Z</time>
      </trkpt>
      <trkpt lat="49.19256" lon="7.00024">
        <ele>309</ele>
        <time>2011-04-10T08:03:23Z</time>
      </trkpt>
      <trkpt lat="49.19255" lon="7.00021">
        <ele>309</ele>
        <time>2011-04-10T08:03:24Z</time>
      </trkpt>
      <trkpt lat="49.19257" lon="7.0002">
        <ele>309</ele>
        <time>2011-04-10T08:03:26Z</time>
      </trkpt>
      <trkpt lat="49.1926" lon="7.00019">
        <ele>309</ele>
        <time>2011-04-10T08:03:27Z</time>
      </trkpt>
      <trkpt lat="49.19262" lon="7.00016">
        <ele>309</ele>
        <time>2011-04-10T08:03:28Z</time>
      </trkpt>
      <trkpt lat="49.19264" lon="7.00015">
        <ele>309</ele>
        <time>2011-04-10T08:03:29Z</time>
      </trkpt>
      <trkpt lat="49.19265" lon="7.00013">
        <ele>309</ele>
        <time>2011-04-10T08:03:30Z</time>
      </trkpt>
      <trkpt lat="49.19267" lon="7.00012">
        <ele>309</ele>
        <time>2011-04-10T08:03:31Z</time>
      </trkpt>
      <trkpt lat="49.19268" lon="7.00011">
        <ele>309</ele>
        <time>2011-04-10T08:03:32Z</time>
      </trkpt>
      <trkpt lat="49.1927" lon="7.0001">
        <ele>309</ele>
        <time>2011-04-10T08:03:33Z</time>
      </trkpt>
      <trkpt lat="49.19271" lon="7.00009">
        <ele>309</ele>
        <time>2011-04-10T08:03:34Z</time>
      </trkpt>
      <trkpt lat="49.19273" lon="7.00008">
        <ele>309</ele>
        <time>2011-04-10T08:03:35Z</time>
      </trkpt>
      <trkpt lat="49.19274" lon="7.00006">
        <ele>309</ele>
        <time>2011-04-10T08:03:37Z</time>
      </trkpt>
      <trkpt lat="49.19277" lon="7.00006">
        <ele>309</ele>
        <time>2011-04-10T08:03:38Z</time>
      </trkpt>
      <trkpt lat="49.19278" lon="7.00006">
        <ele>309</ele>
        <time>2011-04-10T08:03:39Z</time>
      </trkpt>
      <trkpt lat="49.1928" lon="7.00005">
        <ele>309</ele>
        <time>2011-04-10T08:03:41Z</time>
      </trkpt>
      <trkpt lat="49.19282" lon="7.00002">
        <ele>309</ele>
        <time>2011-04-10T08:03:44Z</time>
      </trkpt>
      <trkpt lat="49.19284" lon="6.99999">
        <ele>309</ele>
        <time>2011-04-10T08:03:46Z</time>
      </trkpt>
      <trkpt lat="49.19285" lon="6.99998">
        <ele>309</ele>
        <time>2011-04-10T08:03:48Z</time>
      </trkpt>
      <trkpt lat="49.19286" lon="6.99997">
        <ele>309</ele>
        <time>2011-04-10T08:03:49Z</time>
      </trkpt>
      <trkpt lat="49.19289" lon="6.99996">
        <ele>310</ele>
        <time>2011-04-10T08:03:51Z</time>
      </trkpt>
      <trkpt lat="49.1929" lon="6.99995">
        <ele>311</ele>
        <time>2011-04-10T08:03:52Z</time>
      </trkpt>
      <trkpt lat="49.19292" lon="6.99994">
        <ele>311</ele>
        <time>2011-04-10T08:03:53Z</time>
      </trkpt>
      <trkpt lat="49.19294" lon="6.99991">
        <ele>312</ele>
        <time>2011-04-10T08:03:55Z</time>
      </trkpt>
      <trkpt lat="49.19295" lon="6.99989">
        <ele>313</ele>
        <time>2011-04-10T08:03:56Z</time>
      </trkpt>
      <trkpt lat="49.19298" lon="6.99987">
        <ele>314</ele>
        <time>2011-04-10T08:03:58Z</time>
      </trkpt>
      <trkpt lat="49.19299" lon="6.99986">
        <ele>315</ele>
        <time>2011-04-10T08:04:01Z</time>
      </trkpt>
      <trkpt lat="49.19301" lon="6.99984">
        <ele>315</ele>
        <time>2011-04-10T08:04:02Z</time>
      </trkpt>
      <trkpt lat="49.19302" lon="6.99983">
        <ele>316</ele>
        <time>2011-04-10T08:04:03Z</time>
      </trkpt>
      <trkpt lat="49.19304" lon="6.99982">
        <ele>316</ele>
        <time>2011-04-10T08:04:04Z</time>
      </trkpt>
      <trkpt lat="49.19306" lon="6.9998">
        <ele>317</ele>
        <time>2011-04-10T08:04:05Z</time>
      </trkpt>
      <trkpt lat="49.19308" lon="6.99979">
        <ele>317</ele>
        <time>2011-04-10T08:04:06Z</time>
      </trkpt>
      <trkpt lat="49.19309" lon="6.99978">
        <ele>317</ele>
        <time>2011-04-10T08:04:07Z</time>
      </trkpt>
      <trkpt lat="49.1931" lon="6.99978">
        <ele>317</ele>
        <time>2011-04-10T08:04:08Z</time>
      </trkpt>
      <trkpt lat="49.19312" lon="6.99977">
        <ele>317</ele>
        <time>2011-04-10T08:04:10Z</time>
      </trkpt>
      <trkpt lat="49.19313" lon="6.99976">
        <ele>317</ele>
        <time>2011-04-10T08:04:11Z</time>
      </trkpt>
      <trkpt lat="49.19315" lon="6.99973">
        <ele>317</ele>
        <time>2011-04-10T08:04:13Z</time>
      </trkpt>
      <trkpt lat="49.19316" lon="6.99972">
        <ele>317</ele>
        <time>2011-04-10T08:04:14Z</time>
      </trkpt>
      <trkpt lat="49.19317" lon="6.9997">
        <ele>317</ele>
        <time>2011-04-10T08:04:16Z</time>
      </trkpt>
      <trkpt lat="49.19318" lon="6.99968">
        <ele>317</ele>
        <time>2011-04-10T08:04:18Z</time>
      </trkpt>
      <trkpt lat="49.19321" lon="6.99965">
        <ele>317</ele>
        <time>2011-04-10T08:04:20Z</time>
      </trkpt>
      <trkpt lat="49.19322" lon="6.99965">
        <ele>317</ele>
        <time>2011-04-10T08:04:21Z</time>
      </trkpt>
      <trkpt lat="49.19324" lon="6.99964">
        <ele>317</ele>
        <time>2011-04-10T08:04:23Z</time>
      </trkpt>
      <trkpt lat="49.19327" lon="6.99962">
        <ele>317</ele>
        <time>2011-04-10T08:04:25Z</time>
      </trkpt>
      <trkpt lat="49.19328" lon="6.99961">
        <ele>317</ele>
        <time>2011-04-10T08:04:26Z</time>
      </trkpt>
      <trkpt lat="49.19329" lon="6.9996">
        <ele>317</ele>
        <time>2011-04-10T08:04:27Z</time>
      </trkpt>
      <trkpt lat="49.19331" lon="6.99959">
        <ele>316</ele>
        <time>2011-04-10T08:04:29Z</time>
      </trkpt>
      <trkpt lat="49.19333" lon="6.99956">
        <ele>316</ele>
        <time>2011-04-10T08:04:31Z</time>
      </trkpt>
      <trkpt lat="49.19335" lon="6.99954">
        <ele>316</ele>
        <time>2011-04-10T08:04:33Z</time>
      </trkpt>
      <trkpt lat="49.19336" lon="6.99953">
        <ele>316</ele>
        <time>2011-04-10T08:04:34Z</time>
      </trkpt>
      <trkpt lat="49.19338" lon="6.99951">
        <ele>316</ele>
        <time>2011-04-10T08:04:36Z</time>
      </trkpt>
      <trkpt lat="49.1934" lon="6.99947">
        <ele>316</ele>
        <time>2011-04-10T08:04:38Z</time>
      </trkpt>
      <trkpt lat="49.19341" lon="6.99945">
        <ele>316</ele>
        <time>2011-04-10T08:04:39Z</time>
      </trkpt>
      <trkpt lat="49.19342" lon="6.99944">
        <ele>316</ele>
        <time>2011-04-10T08:04:40Z</time>
      </trkpt>
      <trkpt lat="49.19343" lon="6.99944">
        <ele>316</ele>
        <time>2011-04-10T08:04:41Z</time>
      </trkpt>
      <trkpt lat="49.19345" lon="6.99942">
        <ele>316</ele>
        <time>2011-04-10T08:04:43Z</time>
      </trkpt>
      <trkpt lat="49.19346" lon="6.99942">
        <ele>315</ele>
        <time>2011-04-10T08:04:44Z</time>
      </trkpt>
      <trkpt lat="49.19348" lon="6.9994">
        <ele>315</ele>
        <time>2011-04-10T08:04:45Z</time>
      </trkpt>
      <trkpt lat="49.19349" lon="6.99939">
        <ele>315</ele>
        <time>2011-04-10T08:04:46Z</time>
      </trkpt>
      <trkpt lat="49.1935" lon="6.99938">
        <ele>314</ele>
        <time>2011-04-10T08:04:47Z</time>
      </trkpt>
      <trkpt lat="49.19351" lon="6.99936">
        <ele>314</ele>
        <time>2011-04-10T08:04:48Z</time>
      </trkpt>
      <trkpt lat="49.19353" lon="6.99934">
        <ele>314</ele>
        <time>2011-04-10T08:04:50Z</time>
      </trkpt>
      <trkpt lat="49.19354" lon="6.99933">
        <ele>314</ele>
        <time>2011-04-10T08:04:51Z</time>
      </trkpt>
      <trkpt lat="49.19355" lon="6.99933">
        <ele>313</ele>
        <time>2011-04-10T08:04:52Z</time>
      </trkpt>
      <trkpt lat="49.19357" lon="6.99931">
        <ele>311</ele>
        <time>2011-04-10T08:04:54Z</time>
      </trkpt>
      <trkpt lat="49.19359" lon="6.99929">
        <ele>310</ele>
        <time>2011-04-10T08:04:56Z</time>
      </trkpt>
      <trkpt lat="49.1936" lon="6.99926">
        <ele>310</ele>
        <time>2011-04-10T08:04:58Z</time>
      </trkpt>
      <trkpt lat="49.19362" lon="6.99923">
        <ele>310</ele>
        <time>2011-04-10T08:05:00Z</time>
      </trkpt>
      <trkpt lat="49.19364" lon="6.9992">
        <ele>310</ele>
        <time>2011-04-10T08:05:02Z</time>
      </trkpt>
      <trkpt lat="49.19366" lon="6.99918">
        <ele>309</ele>
        <time>2011-04-10T08:05:04Z</time>
      </trkpt>
      <trkpt lat="49.19366" lon="6.99916">
        <ele>309</ele>
        <time>2011-04-10T08:05:05Z</time>
      </trkpt>
      <trkpt lat="49.19367" lon="6.99914">
        <ele>309</ele>
        <time>2011-04-10T08:05:06Z</time>
      </trkpt>
      <trkpt lat="49.19369" lon="6.99912">
        <ele>309</ele>
        <time>2011-04-10T08:05:07Z</time>
      </trkpt>
      <trkpt lat="49.19371" lon="6.9991">
        <ele>309</ele>
        <time>2011-04-10T08:05:08Z</time>
      </trkpt>
      <trkpt lat="49.19372" lon="6.99909">
        <ele>309</ele>
        <time>2011-04-10T08:05:09Z</time>
      </trkpt>
      <trkpt lat="49.19373" lon="6.99908">
        <ele>309</ele>
        <time>2011-04-10T08:05:10Z</time>
      </trkpt>
      <trkpt lat="49.19374" lon="6.99908">
        <ele>309</ele>
        <time>2011-04-10T08:05:11Z</time>
      </trkpt>
      <trkpt lat="49.19376" lon="6.99906">
        <ele>309</ele>
        <time>2011-04-10T08:05:12Z</time>
      </trkpt>
      <trkpt lat="49.19378" lon="6.99906">
        <ele>309</ele>
        <time>2011-04-10T08:05:13Z</time>
      </trkpt>
      <trkpt lat="49.19379" lon="6.99905">
        <ele>309</ele>
        <time>2011-04-10T08:05:14Z</time>
      </trkpt>
      <trkpt lat="49.1938" lon="6.99903">
        <ele>309</ele>
        <time>2011-04-10T08:05:15Z</time>
      </trkpt>
      <trkpt lat="49.19381" lon="6.99902">
        <ele>309</ele>
        <time>2011-04-10T08:05:16Z</time>
      </trkpt>
      <trkpt lat="49.19383" lon="6.99902">
        <ele>310</ele>
        <time>2011-04-10T08:05:17Z</time>
      </trkpt>
      <trkpt lat="49.19385" lon="6.999">
        <ele>310</ele>
        <time>2011-04-10T08:05:18Z</time>
      </trkpt>
      <trkpt lat="49.19387" lon="6.99898">
        <ele>311</ele>
        <time>2011-04-10T08:05:20Z</time>
      </trkpt>
      <trkpt lat="49.19389" lon="6.99897">
        <ele>312</ele>
        <time>2011-04-10T08:05:22Z</time>
      </trkpt>
      <trkpt lat="49.1939" lon="6.99897">
        <ele>313</ele>
        <time>2011-04-10T08:05:23Z</time>
      </trkpt>
      <trkpt lat="49.19392" lon="6.99896">
        <ele>313</ele>
        <time>2011-04-10T08:05:24Z</time>
      </trkpt>
      <trkpt lat="49.19393" lon="6.99895">
        <ele>313</ele>
        <time>2011-04-10T08:05:25Z</time>
      </trkpt>
      <trkpt lat="49.19394" lon="6.99894">
        <ele>313</ele>
        <time>2011-04-10T08:05:26Z</time>
      </trkpt>
      <trkpt lat="49.19396" lon="6.99893">
        <ele>313</ele>
        <time>2011-04-10T08:05:28Z</time>
      </trkpt>
      <trkpt lat="49.19398" lon="6.99892">
        <ele>314</ele>
        <time>2011-04-10T08:05:30Z</time>
      </trkpt>
      <trkpt lat="49.194" lon="6.99893">
        <ele>315</ele>
        <time>2011-04-10T08:05:32Z</time>
      </trkpt>
      <trkpt lat="49.19401" lon="6.99892">
        <ele>315</ele>
        <time>2011-04-10T08:05:33Z</time>
      </trkpt>
      <trkpt lat="49.19402" lon="6.99892">
        <ele>316</ele>
        <time>2011-04-10T08:05:34Z</time>
      </trkpt>
      <trkpt lat="49.19404" lon="6.99892">
        <ele>316</ele>
        <time>2011-04-10T08:05:35Z</time>
      </trkpt>
      <trkpt lat="49.19405" lon="6.99892">
        <ele>316</ele>
        <time>2011-04-10T08:05:36Z</time>
      </trkpt>
      <trkpt lat="49.19407" lon="6.99892">
        <ele>317</ele>
        <time>2011-04-10T08:05:37Z</time>
      </trkpt>
      <trkpt lat="49.19409" lon="6.99891">
        <ele>317</ele>
        <time>2011-04-10T08:05:39Z</time>
      </trkpt>
      <trkpt lat="49.1941" lon="6.99891">
        <ele>317</ele>
        <time>2011-04-10T08:05:40Z</time>
      </trkpt>
      <trkpt lat="49.19412" lon="6.99891">
        <ele>317</ele>
        <time>2011-04-10T08:05:41Z</time>
      </trkpt>
      <trkpt lat="49.19413" lon="6.99891">
        <ele>317</ele>
        <time>2011-04-10T08:05:42Z</time>
      </trkpt>
      <trkpt lat="49.19415" lon="6.99892">
        <ele>317</ele>
        <time>2011-04-10T08:05:44Z</time>
      </trkpt>
      <trkpt lat="49.19416" lon="6.99892">
        <ele>317</ele>
        <time>2011-04-10T08:05:45Z</time>
      </trkpt>
      <trkpt lat="49.19418" lon="6.99892">
        <ele>317</ele>
        <time>2011-04-10T08:05:46Z</time>
      </trkpt>
      <trkpt lat="49.19419" lon="6.99892">
        <ele>317</ele>
        <time>2011-04-10T08:05:48Z</time>
      </trkpt>
      <trkpt lat="49.1942" lon="6.99893">
        <ele>317</ele>
        <time>2011-04-10T08:05:50Z</time>
      </trkpt>
      <trkpt lat="49.19422" lon="6.99894">
        <ele>317</ele>
        <time>2011-04-10T08:05:52Z</time>
      </trkpt>
      <trkpt lat="49.19424" lon="6.99894">
        <ele>317</ele>
        <time>2011-04-10T08:05:53Z</time>
      </trkpt>
      <trkpt lat="49.19426" lon="6.99895">
        <ele>317</ele>
        <time>2011-04-10T08:05:55Z</time>
      </trkpt>
      <trkpt lat="49.19427" lon="6.99895">
        <ele>316</ele>
        <time>2011-04-10T08:05:56Z</time>
      </trkpt>
      <trkpt lat="49.19428" lon="6.99895">
        <ele>316</ele>
        <time>2011-04-10T08:05:57Z</time>
      </trkpt>
      <trkpt lat="49.1943" lon="6.99894">
        <ele>315</ele>
        <time>2011-04-10T08:05:58Z</time>
      </trkpt>
      <trkpt lat="49.19432" lon="6.99894">
        <ele>314</ele>
        <time>2011-04-10T08:05:59Z</time>
      </trkpt>
      <trkpt lat="49.19434" lon="6.99893">
        <ele>314</ele>
        <time>2011-04-10T08:06:00Z</time>
      </trkpt>
      <trkpt lat="49.19435" lon="6.99893">
        <ele>314</ele>
        <time>2011-04-10T08:06:01Z</time>
      </trkpt>
      <trkpt lat="49.19438" lon="6.99891">
        <ele>314</ele>
        <time>2011-04-10T08:06:03Z</time>
      </trkpt>
      <trkpt lat="49.1944" lon="6.9989">
        <ele>314</ele>
        <time>2011-04-10T08:06:04Z</time>
      </trkpt>
      <trkpt lat="49.19441" lon="6.99889">
        <ele>314</ele>
        <time>2011-04-10T08:06:05Z</time>
      </trkpt>
      <trkpt lat="49.19443" lon="6.99889">
        <ele>314</ele>
        <time>2011-04-10T08:06:06Z</time>
      </trkpt>
      <trkpt lat="49.19444" lon="6.99887">
        <ele>314</ele>
        <time>2011-04-10T08:06:07Z</time>
      </trkpt>
      <trkpt lat="49.19445" lon="6.99886">
        <ele>314</ele>
        <time>2011-04-10T08:06:08Z</time>
      </trkpt>
      <trkpt lat="49.19447" lon="6.99886">
        <ele>314</ele>
        <time>2011-04-10T08:06:09Z</time>
      </trkpt>
      <trkpt lat="49.19449" lon="6.99886">
        <ele>314</ele>
        <time>2011-04-10T08:06:10Z</time>
      </trkpt>
      <trkpt lat="49.1945" lon="6.99885">
        <ele>315</ele>
        <time>2011-04-10T08:06:11Z</time>
      </trkpt>
      <trkpt lat="49.19452" lon="6.99885">
        <ele>316</ele>
        <time>2011-04-10T08:06:13Z</time>
      </trkpt>
      <trkpt lat="49.19455" lon="6.99884">
        <ele>316</ele>
        <time>2011-04-10T08:06:15Z</time>
      </trkpt>
      <trkpt lat="49.19456" lon="6.99884">
        <ele>316</ele>
        <time>2011-04-10T08:06:16Z</time>
      </trkpt>
      <trkpt lat="49.19458" lon="6.99883">
        <ele>316</ele>
        <time>2011-04-10T08:06:17Z</time>
      </trkpt>
      <trkpt lat="49.1946" lon="6.99883">
        <ele>317</ele>
        <time>2011-04-10T08:06:19Z</time>
      </trkpt>
      <trkpt lat="49.19461" lon="6.99882">
        <ele>318</ele>
        <time>2011-04-10T08:06:21Z</time>
      </trkpt>
      <trkpt lat="49.19463" lon="6.99881">
        <ele>318</ele>
        <time>2011-04-10T08:06:22Z</time>
      </trkpt>
      <trkpt lat="49.19464" lon="6.99881">
        <ele>318</ele>
        <time>2011-04-10T08:06:23Z</time>
      </trkpt>
      <trkpt lat="49.19465" lon="6.99881">
        <ele>318</ele>
        <time>2011-04-10T08:06:24Z</time>
      </trkpt>
      <trkpt lat="49.19467" lon="6.99878">
        <ele>318</ele>
        <time>2011-04-10T08:06:26Z</time>
      </trkpt>
      <trkpt lat="49.19468" lon="6.99878">
        <ele>318</ele>
        <time>2011-04-10T08:06:27Z</time>
      </trkpt>
      <trkpt lat="49.1947" lon="6.99876">
        <ele>318</ele>
        <time>2011-04-10T08:06:28Z</time>
      </trkpt>
      <trkpt lat="49.19471" lon="6.99875">
        <ele>318</ele>
        <time>2011-04-10T08:06:29Z</time>
      </trkpt>
      <trkpt lat="49.19473" lon="6.99874">
        <ele>318</ele>
        <time>2011-04-10T08:06:30Z</time>
      </trkpt>
      <trkpt lat="49.19475" lon="6.99872">
        <ele>319</ele>
        <time>2011-04-10T08:06:31Z</time>
      </trkpt>
      <trkpt lat="49.19476" lon="6.99871">
        <ele>319</ele>
        <time>2011-04-10T08:06:32Z</time>
      </trkpt>
      <trkpt lat="49.19477" lon="6.99869">
        <ele>320</ele>
        <time>2011-04-10T08:06:33Z</time>
      </trkpt>
      <trkpt lat="49.19479" lon="6.99868">
        <ele>320</ele>
        <time>2011-04-10T08:06:34Z</time>
      </trkpt>
      <trkpt lat="49.1948" lon="6.99868">
        <ele>321</ele>
        <time>2011-04-10T08:06:35Z</time>
      </trkpt>
      <trkpt lat="49.19482" lon="6.99868">
        <ele>321</ele>
        <time>2011-04-10T08:06:36Z</time>
      </trkpt>
      <trkpt lat="49.19483" lon="6.99868">
        <ele>321</ele>
        <time>2011-04-10T08:06:37Z</time>
      </trkpt>
      <trkpt lat="49.19484" lon="6.99867">
        <ele>321</ele>
        <time>2011-04-10T08:06:38Z</time>
      </trkpt>
      <trkpt lat="49.19485" lon="6.99866">
        <ele>321</ele>
        <time>2011-04-10T08:06:39Z</time>
      </trkpt>
      <trkpt lat="49.19487" lon="6.99865">
        <ele>321</ele>
        <time>2011-04-10T08:06:40Z</time>
      </trkpt>
      <trkpt lat="49.19488" lon="6.99865">
        <ele>321</ele>
        <time>2011-04-10T08:06:42Z</time>
      </trkpt>
      <trkpt lat="49.19491" lon="6.99866">
        <ele>321</ele>
        <time>2011-04-10T08:06:44Z</time>
      </trkpt>
      <trkpt lat="49.19492" lon="6.99866">
        <ele>321</ele>
        <time>2011-04-10T08:06:45Z</time>
      </trkpt>
      <trkpt lat="49.19494" lon="6.99865">
        <ele>321</ele>
        <time>2011-04-10T08:06:46Z</time>
      </trkpt>
      <trkpt lat="49.19496" lon="6.99863">
        <ele>321</ele>
        <time>2011-04-10T08:06:48Z</time>
      </trkpt>
      <trkpt lat="49.19497" lon="6.99863">
        <ele>321</ele>
        <time>2011-04-10T08:06:49Z</time>
      </trkpt>
      <trkpt lat="49.195" lon="6.99863">
        <ele>320</ele>
        <time>2011-04-10T08:06:51Z</time>
      </trkpt>
      <trkpt lat="49.19502" lon="6.99861">
        <ele>319</ele>
        <time>2011-04-10T08:06:53Z</time>
      </trkpt>
      <trkpt lat="49.19504" lon="6.99861">
        <ele>319</ele>
        <time>2011-04-10T08:06:54Z</time>
      </trkpt>
      <trkpt lat="49.19506" lon="6.9986">
        <ele>319</ele>
        <time>2011-04-10T08:06:55Z</time>
      </trkpt>
      <trkpt lat="49.19508" lon="6.9986">
        <ele>319</ele>
        <time>2011-04-10T08:06:56Z</time>
      </trkpt>
      <trkpt lat="49.1951" lon="6.99859">
        <ele>318</ele>
        <time>2011-04-10T08:06:58Z</time>
      </trkpt>
      <trkpt lat="49.19513" lon="6.99857">
        <ele>318</ele>
        <time>2011-04-10T08:07:00Z</time>
      </trkpt>
      <trkpt lat="49.19515" lon="6.99856">
        <ele>317</ele>
        <time>2011-04-10T08:07:02Z</time>
      </trkpt>
      <trkpt lat="49.19516" lon="6.99856">
        <ele>317</ele>
        <time>2011-04-10T08:07:03Z</time>
      </trkpt>
      <trkpt lat="49.19518" lon="6.99855">
        <ele>317</ele>
        <time>2011-04-10T08:07:04Z</time>
      </trkpt>
      <trkpt lat="49.19519" lon="6.99855">
        <ele>317</ele>
        <time>2011-04-10T08:07:05Z</time>
      </trkpt>
      <trkpt lat="49.19521" lon="6.99854">
        <ele>317</ele>
        <time>2011-04-10T08:07:06Z</time>
      </trkpt>
      <trkpt lat="49.19522" lon="6.99854">
        <ele>317</ele>
        <time>2011-04-10T08:07:07Z</time>
      </trkpt>
      <trkpt lat="49.19524" lon="6.99853">
        <ele>317</ele>
        <time>2011-04-10T08:07:08Z</time>
      </trkpt>
      <trkpt lat="49.19526" lon="6.99851">
        <ele>317</ele>
        <time>2011-04-10T08:07:10Z</time>
      </trkpt>
      <trkpt lat="49.19527" lon="6.9985">
        <ele>317</ele>
        <time>2011-04-10T08:07:11Z</time>
      </trkpt>
      <trkpt lat="49.19529" lon="6.99849">
        <ele>317</ele>
        <time>2011-04-10T08:07:12Z</time>
      </trkpt>
      <trkpt lat="49.1953" lon="6.99848">
        <ele>317</ele>
        <time>2011-04-10T08:07:13Z</time>
      </trkpt>
      <trkpt lat="49.19532" lon="6.99847">
        <ele>317</ele>
        <time>2011-04-10T08:07:14Z</time>
      </trkpt>
      <trkpt lat="49.19534" lon="6.99846">
        <ele>317</ele>
        <time>2011-04-10T08:07:15Z</time>
      </trkpt>
      <trkpt lat="49.19535" lon="6.99844">
        <ele>317</ele>
        <time>2011-04-10T08:07:17Z</time>
      </trkpt>
      <trkpt lat="49.19537" lon="6.99843">
        <ele>317</ele>
        <time>2011-04-10T08:07:18Z</time>
      </trkpt>
      <trkpt lat="49.19538" lon="6.99842">
        <ele>317</ele>
        <time>2011-04-10T08:07:19Z</time>
      </trkpt>
      <trkpt lat="49.1954" lon="6.99842">
        <ele>317</ele>
        <time>2011-04-10T08:07:20Z</time>
      </trkpt>
      <trkpt lat="49.19542" lon="6.99842">
        <ele>317</ele>
        <time>2011-04-10T08:07:21Z</time>
      </trkpt>
      <trkpt lat="49.19543" lon="6.99841">
        <ele>317</ele>
        <time>2011-04-10T08:07:22Z</time>
      </trkpt>
      <trkpt lat="49.19544" lon="6.99841">
        <ele>317</ele>
        <time>2011-04-10T08:07:23Z</time>
      </trkpt>
      <trkpt lat="49.19545" lon="6.99841">
        <ele>317</ele>
        <time>2011-04-10T08:07:24Z</time>
      </trkpt>
      <trkpt lat="49.19546" lon="6.99841">
        <ele>317</ele>
        <time>2011-04-10T08:07:25Z</time>
      </trkpt>
      <trkpt lat="49.19548" lon="6.9984">
        <ele>317</ele>
        <time>2011-04-10T08:07:27Z</time>
      </trkpt>
      <trkpt lat="49.19549" lon="6.9984">
        <ele>317</ele>
        <time>2011-04-10T08:07:29Z</time>
      </trkpt>
      <trkpt lat="49.1955" lon="6.99838">
        <ele>317</ele>
        <time>2011-04-10T08:07:30Z</time>
      </trkpt>
      <trkpt lat="49.19551" lon="6.99837">
        <ele>317</ele>
        <time>2011-04-10T08:07:31Z</time>
      </trkpt>
      <trkpt lat="49.19553" lon="6.99836">
        <ele>317</ele>
        <time>2011-04-10T08:07:32Z</time>
      </trkpt>
      <trkpt lat="49.19554" lon="6.99833">
        <ele>317</ele>
        <time>2011-04-10T08:07:34Z</time>
      </trkpt>
      <trkpt lat="49.19557" lon="6.9983">
        <ele>317</ele>
        <time>2011-04-10T08:07:36Z</time>
      </trkpt>
      <trkpt lat="49.19558" lon="6.99829">
        <ele>317</ele>
        <time>2011-04-10T08:07:37Z</time>
      </trkpt>
      <trkpt lat="49.19559" lon="6.99828">
        <ele>317</ele>
        <time>2011-04-10T08:07:38Z</time>
      </trkpt>
      <trkpt lat="49.19561" lon="6.99828">
        <ele>317</ele>
        <time>2011-04-10T08:07:39Z</time>
      </trkpt>
      <trkpt lat="49.19563" lon="6.99827">
        <ele>317</ele>
        <time>2011-04-10T08:07:40Z</time>
      </trkpt>
      <trkpt lat="49.19564" lon="6.99826">
        <ele>317</ele>
        <time>2011-04-10T08:07:41Z</time>
      </trkpt>
      <trkpt lat="49.19566" lon="6.99825">
        <ele>317</ele>
        <time>2011-04-10T08:07:42Z</time>
      </trkpt>
      <trkpt lat="49.19567" lon="6.99824">
        <ele>317</ele>
        <time>2011-04-10T08:07:43Z</time>
      </trkpt>
      <trkpt lat="49.19568" lon="6.99824">
        <ele>317</ele>
        <time>2011-04-10T08:07:44Z</time>
      </trkpt>
      <trkpt lat="49.19569" lon="6.99823">
        <ele>317</ele>
        <time>2011-04-10T08:07:45Z</time>
      </trkpt>
      <trkpt lat="49.1957" lon="6.99822">
        <ele>317</ele>
        <time>2011-04-10T08:07:46Z</time>
      </trkpt>
      <trkpt lat="49.19573" lon="6.99821">
        <ele>317</ele>
        <time>2011-04-10T08:07:48Z</time>
      </trkpt>
      <trkpt lat="49.19574" lon="6.9982">
        <ele>316</ele>
        <time>2011-04-10T08:07:49Z</time>
      </trkpt>
      <trkpt lat="49.19576" lon="6.99819">
        <ele>316</ele>
        <time>2011-04-10T08:07:50Z</time>
      </trkpt>
      <trkpt lat="49.19577" lon="6.99818">
        <ele>316</ele>
        <time>2011-04-10T08:07:51Z</time>
      </trkpt>
      <trkpt lat="49.19579" lon="6.99818">
        <ele>316</ele>
        <time>2011-04-10T08:07:52Z</time>
      </trkpt>
      <trkpt lat="49.1958" lon="6.99818">
        <ele>316</ele>
        <time>2011-04-10T08:07:53Z</time>
      </trkpt>
      <trkpt lat="49.19581" lon="6.99817">
        <ele>316</ele>
        <time>2011-04-10T08:07:54Z</time>
      </trkpt>
      <trkpt lat="49.19583" lon="6.99817">
        <ele>316</ele>
        <time>2011-04-10T08:07:55Z</time>
      </trkpt>
      <trkpt lat="49.19585" lon="6.99816">
        <ele>316</ele>
        <time>2011-04-10T08:07:57Z</time>
      </trkpt>
      <trkpt lat="49.19587" lon="6.99816">
        <ele>316</ele>
        <time>2011-04-10T08:07:58Z</time>
      </trkpt>
      <trkpt lat="49.19588" lon="6.99815">
        <ele>316</ele>
        <time>2011-04-10T08:07:59Z</time>
      </trkpt>
      <trkpt lat="49.19588" lon="6.99813">
        <ele>316</ele>
        <time>2011-04-10T08:08:00Z</time>
      </trkpt>
      <trkpt lat="49.19589" lon="6.99811">
        <ele>315</ele>
        <time>2011-04-10T08:08:01Z</time>
      </trkpt>
      <trkpt lat="49.1959" lon="6.9981">
        <ele>315</ele>
        <time>2011-04-10T08:08:02Z</time>
      </trkpt>
      <trkpt lat="49.19591" lon="6.99809">
        <ele>315</ele>
        <time>2011-04-10T08:08:03Z</time>
      </trkpt>
      <trkpt lat="49.19593" lon="6.99808">
        <ele>315</ele>
        <time>2011-04-10T08:08:04Z</time>
      </trkpt>
      <trkpt lat="49.19594" lon="6.99806">
        <ele>315</ele>
        <time>2011-04-10T08:08:05Z</time>
      </trkpt>
      <trkpt lat="49.19596" lon="6.99804">
        <ele>315</ele>
        <time>2011-04-10T08:08:07Z</time>
      </trkpt>
      <trkpt lat="49.19597" lon="6.99804">
        <ele>315</ele>
        <time>2011-04-10T08:08:08Z</time>
      </trkpt>
      <trkpt lat="49.19598" lon="6.99802">
        <ele>315</ele>
        <time>2011-04-10T08:08:09Z</time>
      </trkpt>
      <trkpt lat="49.196" lon="6.99801">
        <ele>315</ele>
        <time>2011-04-10T08:08:10Z</time>
      </trkpt>
      <trkpt lat="49.19601" lon="6.99801">
        <ele>315</ele>
        <time>2011-04-10T08:08:11Z</time>
      </trkpt>
      <trkpt lat="49.19603" lon="6.99801">
        <ele>315</ele>
        <time>2011-04-10T08:08:12Z</time>
      </trkpt>
      <trkpt lat="49.19604" lon="6.99801">
        <ele>315</ele>
        <time>2011-04-10T08:08:13Z</time>
      </trkpt>
      <trkpt lat="49.19606" lon="6.99799">
        <ele>315</ele>
        <time>2011-04-10T08:08:14Z</time>
      </trkpt>
      <trkpt lat="49.19608" lon="6.99797">
        <ele>315</ele>
        <time>2011-04-10T08:08:16Z</time>
      </trkpt>
      <trkpt lat="49.19609" lon="6.99796">
        <ele>315</ele>
        <time>2011-04-10T08:08:17Z</time>
      </trkpt>
      <trkpt lat="49.19611" lon="6.99795">
        <ele>315</ele>
        <time>2011-04-10T08:08:19Z</time>
      </trkpt>
      <trkpt lat="49.19612" lon="6.99795">
        <ele>315</ele>
        <time>2011-04-10T08:08:20Z</time>
      </trkpt>
      <trkpt lat="49.19614" lon="6.99794">
        <ele>315</ele>
        <time>2011-04-10T08:08:21Z</time>
      </trkpt>
      <trkpt lat="49.19615" lon="6.99793">
        <ele>315</ele>
        <time>2011-04-10T08:08:22Z</time>
      </trkpt>
      <trkpt lat="49.19616" lon="6.99792">
        <ele>315</ele>
        <time>2011-04-10T08:08:23Z</time>
      </trkpt>
      <trkpt lat="49.19618" lon="6.99789">
        <ele>315</ele>
        <time>2011-04-10T08:08:25Z</time>
      </trkpt>
      <trkpt lat="49.1962" lon="6.99787">
        <ele>315</ele>
        <time>2011-04-10T08:08:27Z</time>
      </trkpt>
      <trkpt lat="49.19622" lon="6.99786">
        <ele>315</ele>
        <time>2011-04-10T08:08:29Z</time>
      </trkpt>
      <trkpt lat="49.19623" lon="6.99784">
        <ele>315</ele>
        <time>2011-04-10T08:08:30Z</time>
      </trkpt>
      <trkpt lat="49.19625" lon="6.99782">
        <ele>315</ele>
        <time>2011-04-10T08:08:32Z</time>
      </trkpt>
      <trkpt lat="49.19627" lon="6.99781">
        <ele>315</ele>
        <time>2011-04-10T08:08:33Z</time>
      </trkpt>
      <trkpt lat="49.19629" lon="6.99779">
        <ele>315</ele>
        <time>2011-04-10T08:08:35Z</time>
      </trkpt>
      <trkpt lat="49.19631" lon="6.99777">
        <ele>315</ele>
        <time>2011-04-10T08:08:37Z</time>
      </trkpt>
      <trkpt lat="49.19632" lon="6.99776">
        <ele>315</ele>
        <time>2011-04-10T08:08:38Z</time>
      </trkpt>
      <trkpt lat="49.19633" lon="6.99776">
        <ele>315</ele>
        <time>2011-04-10T08:08:39Z</time>
      </trkpt>
      <trkpt lat="49.19635" lon="6.99776">
        <ele>315</ele>
        <time>2011-04-10T08:08:40Z</time>
      </trkpt>
      <trkpt lat="49.19636" lon="6.99775">
        <ele>315</ele>
        <time>2011-04-10T08:08:41Z</time>
      </trkpt>
      <trkpt lat="49.19637" lon="6.99775">
        <ele>315</ele>
        <time>2011-04-10T08:08:42Z</time>
      </trkpt>
      <trkpt lat="49.19638" lon="6.99774">
        <ele>315</ele>
        <time>2011-04-10T08:08:43Z</time>
      </trkpt>
      <trkpt lat="49.1964" lon="6.99773">
        <ele>315</ele>
        <time>2011-04-10T08:08:44Z</time>
      </trkpt>
      <trkpt lat="49.19642" lon="6.99771">
        <ele>315</ele>
        <time>2011-04-10T08:08:45Z</time>
      </trkpt>
      <trkpt lat="49.19643" lon="6.99769">
        <ele>315</ele>
        <time>2011-04-10T08:08:46Z</time>
      </trkpt>
      <trkpt lat="49.19644" lon="6.99767">
        <ele>315</ele>
        <time>2011-04-10T08:08:47Z</time>
      </trkpt>
      <trkpt lat="49.19646" lon="6.99766">
        <ele>315</ele>
        <time>2011-04-10T08:08:48Z</time>
      </trkpt>
      <trkpt lat="49.19647" lon="6.99764">
        <ele>316</ele>
        <time>2011-04-10T08:08:49Z</time>
      </trkpt>
      <trkpt lat="49.19649" lon="6.99763">
        <ele>317</ele>
        <time>2011-04-10T08:08:50Z</time>
      </trkpt>
      <trkpt lat="49.1965" lon="6.99761">
        <ele>318</ele>
        <time>2011-04-10T08:08:51Z</time>
      </trkpt>
      <trkpt lat="49.19652" lon="6.99761">
        <ele>319</ele>
        <time>2011-04-10T08:08:52Z</time>
      </trkpt>
      <trkpt lat="49.19653" lon="6.9976">
        <ele>320</ele>
        <time>2011-04-10T08:08:53Z</time>
      </trkpt>
      <trkpt lat="49.19655" lon="6.99759">
        <ele>321</ele>
        <time>2011-04-10T08:08:54Z</time>
      </trkpt>
      <trkpt lat="49.19658" lon="6.99756">
        <ele>323</ele>
        <time>2011-04-10T08:08:56Z</time>
      </trkpt>
      <trkpt lat="49.19659" lon="6.99755">
        <ele>323</ele>
        <time>2011-04-10T08:08:57Z</time>
      </trkpt>
      <trkpt lat="49.19661" lon="6.99753">
        <ele>324</ele>
        <time>2011-04-10T08:08:59Z</time>
      </trkpt>
      <trkpt lat="49.19662" lon="6.99751">
        <ele>325</ele>
        <time>2011-04-10T08:09:01Z</time>
      </trkpt>
      <trkpt lat="49.19664" lon="6.99749">
        <ele>325</ele>
        <time>2011-04-10T08:09:03Z</time>
      </trkpt>
      <trkpt lat="49.19665" lon="6.99749">
        <ele>325</ele>
        <time>2011-04-10T08:09:04Z</time>
      </trkpt>
      <trkpt lat="49.19667" lon="6.99748">
        <ele>325</ele>
        <time>2011-04-10T08:09:06Z</time>
      </trkpt>
      <trkpt lat="49.19668" lon="6.99747">
        <ele>325</ele>
        <time>2011-04-10T08:09:07Z</time>
      </trkpt>
      <trkpt lat="49.19669" lon="6.99747">
        <ele>325</ele>
        <time>2011-04-10T08:09:08Z</time>
      </trkpt>
      <trkpt lat="49.19672" lon="6.99746">
        <ele>325</ele>
        <time>2011-04-10T08:09:10Z</time>
      </trkpt>
      <trkpt lat="49.19673" lon="6.99745">
        <ele>325</ele>
        <time>2011-04-10T08:09:11Z</time>
      </trkpt>
      <trkpt lat="49.19675" lon="6.99743">
        <ele>325</ele>
        <time>2011-04-10T08:09:13Z</time>
      </trkpt>
      <trkpt lat="49.19677" lon="6.99742">
        <ele>325</ele>
        <time>2011-04-10T08:09:14Z</time>
      </trkpt>
      <trkpt lat="49.19679" lon="6.99742">
        <ele>325</ele>
        <time>2011-04-10T08:09:15Z</time>
      </trkpt>
      <trkpt lat="49.1968" lon="6.9974">
        <ele>325</ele>
        <time>2011-04-10T08:09:17Z</time>
      </trkpt>
      <trkpt lat="49.19681" lon="6.99738">
        <ele>325</ele>
        <time>2011-04-10T08:09:18Z</time>
      </trkpt>
      <trkpt lat="49.19683" lon="6.99736">
        <ele>325</ele>
        <time>2011-04-10T08:09:20Z</time>
      </trkpt>
      <trkpt lat="49.19684" lon="6.99735">
        <ele>324</ele>
        <time>2011-04-10T08:09:21Z</time>
      </trkpt>
      <trkpt lat="49.19685" lon="6.99735">
        <ele>323</ele>
        <time>2011-04-10T08:09:22Z</time>
      </trkpt>
      <trkpt lat="49.19687" lon="6.99735">
        <ele>323</ele>
        <time>2011-04-10T08:09:23Z</time>
      </trkpt>
      <trkpt lat="49.19688" lon="6.99735">
        <ele>323</ele>
        <time>2011-04-10T08:09:24Z</time>
      </trkpt>
      <trkpt lat="49.19689" lon="6.99734">
        <ele>323</ele>
        <time>2011-04-10T08:09:25Z</time>
      </trkpt>
      <trkpt lat="49.19691" lon="6.99732">
        <ele>323</ele>
        <time>2011-04-10T08:09:27Z</time>
      </trkpt>
      <trkpt lat="49.19692" lon="6.99732">
        <ele>323</ele>
        <time>2011-04-10T08:09:28Z</time>
      </trkpt>
      <trkpt lat="49.19694" lon="6.99732">
        <ele>323</ele>
        <time>2011-04-10T08:09:29Z</time>
      </trkpt>
      <trkpt lat="49.19695" lon="6.99731">
        <ele>323</ele>
        <time>2011-04-10T08:09:30Z</time>
      </trkpt>
      <trkpt lat="49.19696" lon="6.9973">
        <ele>323</ele>
        <time>2011-04-10T08:09:31Z</time>
      </trkpt>
      <trkpt lat="49.19698" lon="6.99729">
        <ele>322</ele>
        <time>2011-04-10T08:09:33Z</time>
      </trkpt>
      <trkpt lat="49.197" lon="6.99728">
        <ele>321</ele>
        <time>2011-04-10T08:09:35Z</time>
      </trkpt>
      <trkpt lat="49.19702" lon="6.99726">
        <ele>320</ele>
        <time>2011-04-10T08:09:37Z</time>
      </trkpt>
      <trkpt lat="49.19704" lon="6.99725">
        <ele>320</ele>
        <time>2011-04-10T08:09:38Z</time>
      </trkpt>
      <trkpt lat="49.19705" lon="6.99723">
        <ele>320</ele>
        <time>2011-04-10T08:09:39Z</time>
      </trkpt>
      <trkpt lat="49.19707" lon="6.99722">
        <ele>320</ele>
        <time>2011-04-10T08:09:41Z</time>
      </trkpt>
      <trkpt lat="49.19709" lon="6.99719">
        <ele>320</ele>
        <time>2011-04-10T08:09:43Z</time>
      </trkpt>
      <trkpt lat="49.1971" lon="6.99717">
        <ele>320</ele>
        <time>2011-04-10T08:09:44Z</time>
      </trkpt>
      <trkpt lat="49.19711" lon="6.99715">
        <ele>320</ele>
        <time>2011-04-10T08:09:45Z</time>
      </trkpt>
      <trkpt lat="49.19712" lon="6.99714">
        <ele>320</ele>
        <time>2011-04-10T08:09:47Z</time>
      </trkpt>
      <trkpt lat="49.19714" lon="6.99712">
        <ele>320</ele>
        <time>2011-04-10T08:09:49Z</time>
      </trkpt>
      <trkpt lat="49.19715" lon="6.9971">
        <ele>320</ele>
        <time>2011-04-10T08:09:50Z</time>
      </trkpt>
      <trkpt lat="49.19717" lon="6.99708">
        <ele>320</ele>
        <time>2011-04-10T08:09:52Z</time>
      </trkpt>
      <trkpt lat="49.19719" lon="6.99705">
        <ele>320</ele>
        <time>2011-04-10T08:09:54Z</time>
      </trkpt>
      <trkpt lat="49.1972" lon="6.99702">
        <ele>319</ele>
        <time>2011-04-10T08:09:56Z</time>
      </trkpt>
      <trkpt lat="49.19721" lon="6.99699">
        <ele>319</ele>
        <time>2011-04-10T08:09:58Z</time>
      </trkpt>
      <trkpt lat="49.19723" lon="6.99697">
        <ele>318</ele>
        <time>2011-04-10T08:10:00Z</time>
      </trkpt>
      <trkpt lat="49.19723" lon="6.99695">
        <ele>318</ele>
        <time>2011-04-10T08:10:01Z</time>
      </trkpt>
      <trkpt lat="49.19725" lon="6.99692">
        <ele>316</ele>
        <time>2011-04-10T08:10:03Z</time>
      </trkpt>
      <trkpt lat="49.19726" lon="6.9969">
        <ele>315</ele>
        <time>2011-04-10T08:10:05Z</time>
      </trkpt>
      <trkpt lat="49.19726" lon="6.99688">
        <ele>314</ele>
        <time>2011-04-10T08:10:06Z</time>
      </trkpt>
      <trkpt lat="49.19727" lon="6.99686">
        <ele>314</ele>
        <time>2011-04-10T08:10:07Z</time>
      </trkpt>
      <trkpt lat="49.19728" lon="6.99684">
        <ele>314</ele>
        <time>2011-04-10T08:10:09Z</time>
      </trkpt>
      <trkpt lat="49.19729" lon="6.99682">
        <ele>314</ele>
        <time>2011-04-10T08:10:10Z</time>
      </trkpt>
      <trkpt lat="49.1973" lon="6.9968">
        <ele>314</ele>
        <time>2011-04-10T08:10:11Z</time>
      </trkpt>
      <trkpt lat="49.1973" lon="6.99678">
        <ele>313</ele>
        <time>2011-04-10T08:10:12Z</time>
      </trkpt>
      <trkpt lat="49.19731" lon="6.99676">
        <ele>313</ele>
        <time>2011-04-10T08:10:13Z</time>
      </trkpt>
      <trkpt lat="49.19732" lon="6.99675">
        <ele>313</ele>
        <time>2011-04-10T08:10:14Z</time>
      </trkpt>
      <trkpt lat="49.19733" lon="6.99672">
        <ele>312</ele>
        <time>2011-04-10T08:10:16Z</time>
      </trkpt>
      <trkpt lat="49.19734" lon="6.99669">
        <ele>311</ele>
        <time>2011-04-10T08:10:18Z</time>
      </trkpt>
      <trkpt lat="49.19735" lon="6.99667">
        <ele>311</ele>
        <time>2011-04-10T08:10:19Z</time>
      </trkpt>
      <trkpt lat="49.19735" lon="6.99665">
        <ele>311</ele>
        <time>2011-04-10T08:10:20Z</time>
      </trkpt>
      <trkpt lat="49.19735" lon="6.99663">
        <ele>311</ele>
        <time>2011-04-10T08:10:21Z</time>
      </trkpt>
      <trkpt lat="49.19735" lon="6.99661">
        <ele>311</ele>
        <time>2011-04-10T08:10:22Z</time>
      </trkpt>
      <trkpt lat="49.19736" lon="6.99659">
        <ele>311</ele>
        <time>2011-04-10T08:10:23Z</time>
      </trkpt>
      <trkpt lat="49.19737" lon="6.99657">
        <ele>311</ele>
        <time>2011-04-10T08:10:24Z</time>
      </trkpt>
      <trkpt lat="49.19737" lon="6.99655">
        <ele>311</ele>
        <time>2011-04-10T08:10:25Z</time>
      </trkpt>
      <trkpt lat="49.19737" lon="6.99654">
        <ele>310</ele>
        <time>2011-04-10T08:10:26Z</time>
      </trkpt>
      <trkpt lat="49.19739" lon="6.99651">
        <ele>310</ele>
        <time>2011-04-10T08:10:28Z</time>
      </trkpt>
      <trkpt lat="49.19739" lon="6.99649">
        <ele>310</ele>
        <time>2011-04-10T08:10:29Z</time>
      </trkpt>
      <trkpt lat="49.19739" lon="6.99647">
        <ele>310</ele>
        <time>2011-04-10T08:10:30Z</time>
      </trkpt>
      <trkpt lat="49.19739" lon="6.99645">
        <ele>310</ele>
        <time>2011-04-10T08:10:31Z</time>
      </trkpt>
      <trkpt lat="49.19739" lon="6.99642">
        <ele>310</ele>
        <time>2011-04-10T08:10:32Z</time>
      </trkpt>
      <trkpt lat="49.19739" lon="6.9964">
        <ele>310</ele>
        <time>2011-04-10T08:10:33Z</time>
      </trkpt>
      <trkpt lat="49.19738" lon="6.99638">
        <ele>310</ele>
        <time>2011-04-10T08:10:34Z</time>
      </trkpt>
      <trkpt lat="49.19738" lon="6.99635">
        <ele>310</ele>
        <time>2011-04-10T08:10:36Z</time>
      </trkpt>
      <trkpt lat="49.19739" lon="6.99633">
        <ele>310</ele>
        <time>2011-04-10T08:10:38Z</time>
      </trkpt>
      <trkpt lat="49.1974" lon="6.9963">
        <ele>310</ele>
        <time>2011-04-10T08:10:40Z</time>
      </trkpt>
      <trkpt lat="49.19741" lon="6.99627">
        <ele>309</ele>
        <time>2011-04-10T08:10:42Z</time>
      </trkpt>
      <trkpt lat="49.19742" lon="6.99625">
        <ele>309</ele>
        <time>2011-04-10T08:10:43Z</time>
      </trkpt>
      <trkpt lat="49.19744" lon="6.99622">
        <ele>309</ele>
        <time>2011-04-10T08:10:45Z</time>
      </trkpt>
      <trkpt lat="49.19745" lon="6.99619">
        <ele>309</ele>
        <time>2011-04-10T08:10:46Z</time>
      </trkpt>
      <trkpt lat="49.19745" lon="6.99617">
        <ele>309</ele>
        <time>2011-04-10T08:10:47Z</time>
      </trkpt>
      <trkpt lat="49.19746" lon="6.99615">
        <ele>309</ele>
        <time>2011-04-10T08:10:48Z</time>
      </trkpt>
      <trkpt lat="49.19746" lon="6.99613">
        <ele>309</ele>
        <time>2011-04-10T08:10:49Z</time>
      </trkpt>
      <trkpt lat="49.19746" lon="6.9961">
        <ele>309</ele>
        <time>2011-04-10T08:10:51Z</time>
      </trkpt>
      <trkpt lat="49.19747" lon="6.99608">
        <ele>309</ele>
        <time>2011-04-10T08:10:52Z</time>
      </trkpt>
      <trkpt lat="49.19747" lon="6.99605">
        <ele>309</ele>
        <time>2011-04-10T08:10:53Z</time>
      </trkpt>
      <trkpt lat="49.19748" lon="6.99602">
        <ele>309</ele>
        <time>2011-04-10T08:10:55Z</time>
      </trkpt>
      <trkpt lat="49.19749" lon="6.996">
        <ele>309</ele>
        <time>2011-04-10T08:10:56Z</time>
      </trkpt>
      <trkpt lat="49.19749" lon="6.99598">
        <ele>309</ele>
        <time>2011-04-10T08:10:58Z</time>
      </trkpt>
      <trkpt lat="49.19751" lon="6.99594">
        <ele>309</ele>
        <time>2011-04-10T08:11:00Z</time>
      </trkpt>
      <trkpt lat="49.19751" lon="6.99592">
        <ele>309</ele>
        <time>2011-04-10T08:11:01Z</time>
      </trkpt>
      <trkpt lat="49.19751" lon="6.99589">
        <ele>309</ele>
        <time>2011-04-10T08:11:02Z</time>
      </trkpt>
      <trkpt lat="49.19752" lon="6.99587">
        <ele>309</ele>
        <time>2011-04-10T08:11:03Z</time>
      </trkpt>
      <trkpt lat="49.19752" lon="6.99586">
        <ele>309</ele>
        <time>2011-04-10T08:11:04Z</time>
      </trkpt>
      <trkpt lat="49.19753" lon="6.99583">
        <ele>309</ele>
        <time>2011-04-10T08:11:05Z</time>
      </trkpt>
      <trkpt lat="49.19753" lon="6.99581">
        <ele>309</ele>
        <time>2011-04-10T08:11:06Z</time>
      </trkpt>
      <trkpt lat="49.19753" lon="6.9958">
        <ele>309</ele>
        <time>2011-04-10T08:11:07Z</time>
      </trkpt>
      <trkpt lat="49.19753" lon="6.99577">
        <ele>309</ele>
        <time>2011-04-10T08:11:09Z</time>
      </trkpt>
      <trkpt lat="49.19754" lon="6.99574">
        <ele>309</ele>
        <time>2011-04-10T08:11:10Z</time>
      </trkpt>
      <trkpt lat="49.19754" lon="6.99572">
        <ele>309</ele>
        <time>2011-04-10T08:11:11Z</time>
      </trkpt>
      <trkpt lat="49.19754" lon="6.9957">
        <ele>309</ele>
        <time>2011-04-10T08:11:12Z</time>
      </trkpt>
      <trkpt lat="49.19755" lon="6.99568">
        <ele>309</ele>
        <time>2011-04-10T08:11:13Z</time>
      </trkpt>
      <trkpt lat="49.19756" lon="6.99565">
        <ele>309</ele>
        <time>2011-04-10T08:11:15Z</time>
      </trkpt>
      <trkpt lat="49.19756" lon="6.99563">
        <ele>309</ele>
        <time>2011-04-10T08:11:16Z</time>
      </trkpt>
      <trkpt lat="49.19757" lon="6.99561">
        <ele>309</ele>
        <time>2011-04-10T08:11:17Z</time>
      </trkpt>
      <trkpt lat="49.19757" lon="6.99559">
        <ele>309</ele>
        <time>2011-04-10T08:11:18Z</time>
      </trkpt>
      <trkpt lat="49.19759" lon="6.99557">
        <ele>309</ele>
        <time>2011-04-10T08:11:19Z</time>
      </trkpt>
      <trkpt lat="49.19759" lon="6.99554">
        <ele>310</ele>
        <time>2011-04-10T08:11:20Z</time>
      </trkpt>
      <trkpt lat="49.19759" lon="6.99551">
        <ele>310</ele>
        <time>2011-04-10T08:11:21Z</time>
      </trkpt>
      <trkpt lat="49.19761" lon="6.9955">
        <ele>310</ele>
        <time>2011-04-10T08:11:22Z</time>
      </trkpt>
      <trkpt lat="49.19761" lon="6.99547">
        <ele>310</ele>
        <time>2011-04-10T08:11:24Z</time>
      </trkpt>
      <trkpt lat="49.19763" lon="6.99544">
        <ele>311</ele>
        <time>2011-04-10T08:11:26Z</time>
      </trkpt>
      <trkpt lat="49.19764" lon="6.99541">
        <ele>311</ele>
        <time>2011-04-10T08:11:28Z</time>
      </trkpt>
      <trkpt lat="49.19765" lon="6.9954">
        <ele>311</ele>
        <time>2011-04-10T08:11:29Z</time>
      </trkpt>
      <trkpt lat="49.19767" lon="6.99538">
        <ele>311</ele>
        <time>2011-04-10T08:11:31Z</time>
      </trkpt>
      <trkpt lat="49.19769" lon="6.99536">
        <ele>311</ele>
        <time>2011-04-10T08:11:33Z</time>
      </trkpt>
      <trkpt lat="49.19771" lon="6.99532">
        <ele>312</ele>
        <time>2011-04-10T08:11:35Z</time>
      </trkpt>
      <trkpt lat="49.19772" lon="6.99531">
        <ele>312</ele>
        <time>2011-04-10T08:11:36Z</time>
      </trkpt>
      <trkpt lat="49.19773" lon="6.99529">
        <ele>312</ele>
        <time>2011-04-10T08:11:38Z</time>
      </trkpt>
      <trkpt lat="49.19774" lon="6.99527">
        <ele>312</ele>
        <time>2011-04-10T08:11:39Z</time>
      </trkpt>
      <trkpt lat="49.19774" lon="6.99525">
        <ele>312</ele>
        <time>2011-04-10T08:11:40Z</time>
      </trkpt>
      <trkpt lat="49.19775" lon="6.99523">
        <ele>312</ele>
        <time>2011-04-10T08:11:41Z</time>
      </trkpt>
      <trkpt lat="49.19776" lon="6.99522">
        <ele>312</ele>
        <time>2011-04-10T08:11:42Z</time>
      </trkpt>
      <trkpt lat="49.19777" lon="6.9952">
        <ele>312</ele>
        <time>2011-04-10T08:11:43Z</time>
      </trkpt>
      <trkpt lat="49.19778" lon="6.99517">
        <ele>312</ele>
        <time>2011-04-10T08:11:45Z</time>
      </trkpt>
      <trkpt lat="49.1978" lon="6.99514">
        <ele>312</ele>
        <time>2011-04-10T08:11:47Z</time>
      </trkpt>
      <trkpt lat="49.19781" lon="6.99513">
        <ele>313</ele>
        <time>2011-04-10T08:11:48Z</time>
      </trkpt>
      <trkpt lat="49.19783" lon="6.9951">
        <ele>315</ele>
        <time>2011-04-10T08:11:50Z</time>
      </trkpt>
      <trkpt lat="49.19785" lon="6.99507">
        <ele>316</ele>
        <time>2011-04-10T08:11:52Z</time>
      </trkpt>
      <trkpt lat="49.19786" lon="6.99503">
        <ele>316</ele>
        <time>2011-04-10T08:11:54Z</time>
      </trkpt>
      <trkpt lat="49.19787" lon="6.995">
        <ele>316</ele>
        <time>2011-04-10T08:11:56Z</time>
      </trkpt>
      <trkpt lat="49.19788" lon="6.99498">
        <ele>316</ele>
        <time>2011-04-10T08:11:58Z</time>
      </trkpt>
      <trkpt lat="49.1979" lon="6.99496">
        <ele>316</ele>
        <time>2011-04-10T08:11:59Z</time>
      </trkpt>
      <trkpt lat="49.19791" lon="6.99494">
        <ele>316</ele>
        <time>2011-04-10T08:12:00Z</time>
      </trkpt>
      <trkpt lat="49.19791" lon="6.9949">
        <ele>316</ele>
        <time>2011-04-10T08:12:02Z</time>
      </trkpt>
      <trkpt lat="49.19792" lon="6.99486">
        <ele>316</ele>
        <time>2011-04-10T08:12:04Z</time>
      </trkpt>
      <trkpt lat="49.19793" lon="6.99484">
        <ele>316</ele>
        <time>2011-04-10T08:12:06Z</time>
      </trkpt>
      <trkpt lat="49.19795" lon="6.99484">
        <ele>316</ele>
        <time>2011-04-10T08:12:07Z</time>
      </trkpt>
      <trkpt lat="49.19796" lon="6.99484">
        <ele>317</ele>
        <time>2011-04-10T08:12:08Z</time>
      </trkpt>
      <trkpt lat="49.19798" lon="6.99482">
        <ele>317</ele>
        <time>2011-04-10T08:12:10Z</time>
      </trkpt>
      <trkpt lat="49.19799" lon="6.99481">
        <ele>317</ele>
        <time>2011-04-10T08:12:11Z</time>
      </trkpt>
      <trkpt lat="49.198" lon="6.99478">
        <ele>317</ele>
        <time>2011-04-10T08:12:13Z</time>
      </trkpt>
      <trkpt lat="49.19802" lon="6.99477">
        <ele>317</ele>
        <time>2011-04-10T08:12:15Z</time>
      </trkpt>
      <trkpt lat="49.19804" lon="6.99475">
        <ele>317</ele>
        <time>2011-04-10T08:12:16Z</time>
      </trkpt>
      <trkpt lat="49.19804" lon="6.99473">
        <ele>317</ele>
        <time>2011-04-10T08:12:17Z</time>
      </trkpt>
      <trkpt lat="49.19806" lon="6.99471">
        <ele>317</ele>
        <time>2011-04-10T08:12:18Z</time>
      </trkpt>
      <trkpt lat="49.19807" lon="6.99469">
        <ele>318</ele>
        <time>2011-04-10T08:12:20Z</time>
      </trkpt>
      <trkpt lat="49.19809" lon="6.99467">
        <ele>318</ele>
        <time>2011-04-10T08:12:22Z</time>
      </trkpt>
      <trkpt lat="49.19811" lon="6.99466">
        <ele>318</ele>
        <time>2011-04-10T08:12:24Z</time>
      </trkpt>
      <trkpt lat="49.19812" lon="6.99464">
        <ele>318</ele>
        <time>2011-04-10T08:12:25Z</time>
      </trkpt>
      <trkpt lat="49.19814" lon="6.99462">
        <ele>318</ele>
        <time>2011-04-10T08:12:27Z</time>
      </trkpt>
      <trkpt lat="49.19816" lon="6.99458">
        <ele>318</ele>
        <time>2011-04-10T08:12:29Z</time>
      </trkpt>
      <trkpt lat="49.19817" lon="6.99456">
        <ele>318</ele>
        <time>2011-04-10T08:12:30Z</time>
      </trkpt>
      <trkpt lat="49.19817" lon="6.99454">
        <ele>318</ele>
        <time>2011-04-10T08:12:31Z</time>
      </trkpt>
      <trkpt lat="49.19819" lon="6.99452">
        <ele>318</ele>
        <time>2011-04-10T08:12:33Z</time>
      </trkpt>
      <trkpt lat="49.19821" lon="6.9945">
        <ele>318</ele>
        <time>2011-04-10T08:12:35Z</time>
      </trkpt>
      <trkpt lat="49.19822" lon="6.99449">
        <ele>318</ele>
        <time>2011-04-10T08:12:36Z</time>
      </trkpt>
      <trkpt lat="49.19824" lon="6.99447">
        <ele>318</ele>
        <time>2011-04-10T08:12:37Z</time>
      </trkpt>
      <trkpt lat="49.19825" lon="6.99447">
        <ele>318</ele>
        <time>2011-04-10T08:12:38Z</time>
      </trkpt>
      <trkpt lat="49.19827" lon="6.99445">
        <ele>318</ele>
        <time>2011-04-10T08:12:40Z</time>
      </trkpt>
      <trkpt lat="49.19828" lon="6.99443">
        <ele>318</ele>
        <time>2011-04-10T08:12:41Z</time>
      </trkpt>
      <trkpt lat="49.1983" lon="6.99441">
        <ele>318</ele>
        <time>2011-04-10T08:12:43Z</time>
      </trkpt>
      <trkpt lat="49.1983" lon="6.99436">
        <ele>318</ele>
        <time>2011-04-10T08:12:45Z</time>
      </trkpt>
      <trkpt lat="49.19832" lon="6.99434">
        <ele>318</ele>
        <time>2011-04-10T08:12:47Z</time>
      </trkpt>
      <trkpt lat="49.19834" lon="6.99431">
        <ele>318</ele>
        <time>2011-04-10T08:12:49Z</time>
      </trkpt>
      <trkpt lat="49.19835" lon="6.99429">
        <ele>318</ele>
        <time>2011-04-10T08:12:50Z</time>
      </trkpt>
      <trkpt lat="49.19836" lon="6.99428">
        <ele>318</ele>
        <time>2011-04-10T08:12:51Z</time>
      </trkpt>
      <trkpt lat="49.19838" lon="6.99426">
        <ele>318</ele>
        <time>2011-04-10T08:12:53Z</time>
      </trkpt>
      <trkpt lat="49.19839" lon="6.99423">
        <ele>318</ele>
        <time>2011-04-10T08:12:55Z</time>
      </trkpt>
      <trkpt lat="49.19841" lon="6.99421">
        <ele>318</ele>
        <time>2011-04-10T08:12:57Z</time>
      </trkpt>
      <trkpt lat="49.19843" lon="6.99418">
        <ele>318</ele>
        <time>2011-04-10T08:12:59Z</time>
      </trkpt>
      <trkpt lat="49.19844" lon="6.99415">
        <ele>318</ele>
        <time>2011-04-10T08:13:01Z</time>
      </trkpt>
      <trkpt lat="49.19846" lon="6.99413">
        <ele>318</ele>
        <time>2011-04-10T08:13:03Z</time>
      </trkpt>
      <trkpt lat="49.19848" lon="6.9941">
        <ele>318</ele>
        <time>2011-04-10T08:13:05Z</time>
      </trkpt>
      <trkpt lat="49.1985" lon="6.99408">
        <ele>318</ele>
        <time>2011-04-10T08:13:07Z</time>
      </trkpt>
      <trkpt lat="49.19852" lon="6.99406">
        <ele>318</ele>
        <time>2011-04-10T08:13:09Z</time>
      </trkpt>
      <trkpt lat="49.19852" lon="6.99402">
        <ele>318</ele>
        <time>2011-04-10T08:13:11Z</time>
      </trkpt>
      <trkpt lat="49.19853" lon="6.99401">
        <ele>318</ele>
        <time>2011-04-10T08:13:12Z</time>
      </trkpt>
      <trkpt lat="49.19853" lon="6.99399">
        <ele>318</ele>
        <time>2011-04-10T08:13:13Z</time>
      </trkpt>
      <trkpt lat="49.19855" lon="6.99398">
        <ele>318</ele>
        <time>2011-04-10T08:13:14Z</time>
      </trkpt>
      <trkpt lat="49.19856" lon="6.99397">
        <ele>318</ele>
        <time>2011-04-10T08:13:15Z</time>
      </trkpt>
      <trkpt lat="49.19857" lon="6.99395">
        <ele>318</ele>
        <time>2011-04-10T08:13:16Z</time>
      </trkpt>
      <trkpt lat="49.19858" lon="6.99391">
        <ele>318</ele>
        <time>2011-04-10T08:13:18Z</time>
      </trkpt>
      <trkpt lat="49.1986" lon="6.99389">
        <ele>318</ele>
        <time>2011-04-10T08:13:20Z</time>
      </trkpt>
      <trkpt lat="49.19862" lon="6.99387">
        <ele>318</ele>
        <time>2011-04-10T08:13:22Z</time>
      </trkpt>
      <trkpt lat="49.19864" lon="6.99385">
        <ele>318</ele>
        <time>2011-04-10T08:13:24Z</time>
      </trkpt>
      <trkpt lat="49.19865" lon="6.99385">
        <ele>318</ele>
        <time>2011-04-10T08:13:25Z</time>
      </trkpt>
      <trkpt lat="49.19867" lon="6.99382">
        <ele>318</ele>
        <time>2011-04-10T08:13:27Z</time>
      </trkpt>
      <trkpt lat="49.19867" lon="6.9938">
        <ele>318</ele>
        <time>2011-04-10T08:13:28Z</time>
      </trkpt>
      <trkpt lat="49.19869" lon="6.99378">
        <ele>318</ele>
        <time>2011-04-10T08:13:30Z</time>
      </trkpt>
      <trkpt lat="49.1987" lon="6.99376">
        <ele>318</ele>
        <time>2011-04-10T08:13:31Z</time>
      </trkpt>
      <trkpt lat="49.19871" lon="6.99374">
        <ele>318</ele>
        <time>2011-04-10T08:13:32Z</time>
      </trkpt>
      <trkpt lat="49.19872" lon="6.99372">
        <ele>318</ele>
        <time>2011-04-10T08:13:33Z</time>
      </trkpt>
      <trkpt lat="49.19873" lon="6.99371">
        <ele>318</ele>
        <time>2011-04-10T08:13:34Z</time>
      </trkpt>
      <trkpt lat="49.19873" lon="6.99369">
        <ele>318</ele>
        <time>2011-04-10T08:13:35Z</time>
      </trkpt>
      <trkpt lat="49.19875" lon="6.99367">
        <ele>318</ele>
        <time>2011-04-10T08:13:37Z</time>
      </trkpt>
      <trkpt lat="49.19877" lon="6.99364">
        <ele>318</ele>
        <time>2011-04-10T08:13:39Z</time>
      </trkpt>
      <trkpt lat="49.19879" lon="6.99361">
        <ele>318</ele>
        <time>2011-04-10T08:13:41Z</time>
      </trkpt>
      <trkpt lat="49.19881" lon="6.99359">
        <ele>318</ele>
        <time>2011-04-10T08:13:43Z</time>
      </trkpt>
      <trkpt lat="49.19882" lon="6.99357">
        <ele>318</ele>
        <time>2011-04-10T08:13:44Z</time>
      </trkpt>
      <trkpt lat="49.19883" lon="6.99355">
        <ele>318</ele>
        <time>2011-04-10T08:13:45Z</time>
      </trkpt>
      <trkpt lat="49.19884" lon="6.99353">
        <ele>318</ele>
        <time>2011-04-10T08:13:47Z</time>
      </trkpt>
      <trkpt lat="49.19886" lon="6.99351">
        <ele>318</ele>
        <time>2011-04-10T08:13:49Z</time>
      </trkpt>
      <trkpt lat="49.19887" lon="6.99349">
        <ele>318</ele>
        <time>2011-04-10T08:13:50Z</time>
      </trkpt>
      <trkpt lat="49.19888" lon="6.99347">
        <ele>318</ele>
        <time>2011-04-10T08:13:51Z</time>
      </trkpt>
      <trkpt lat="49.19889" lon="6.99345">
        <ele>318</ele>
        <time>2011-04-10T08:13:52Z</time>
      </trkpt>
      <trkpt lat="49.1989" lon="6.99342">
        <ele>318</ele>
        <time>2011-04-10T08:13:54Z</time>
      </trkpt>
      <trkpt lat="49.19891" lon="6.9934">
        <ele>318</ele>
        <time>2011-04-10T08:13:55Z</time>
      </trkpt>
      <trkpt lat="49.19893" lon="6.99338">
        <ele>318</ele>
        <time>2011-04-10T08:13:57Z</time>
      </trkpt>
      <trkpt lat="49.19895" lon="6.99335">
        <ele>318</ele>
        <time>2011-04-10T08:13:59Z</time>
      </trkpt>
      <trkpt lat="49.19897" lon="6.99333">
        <ele>318</ele>
        <time>2011-04-10T08:14:01Z</time>
      </trkpt>
      <trkpt lat="49.19898" lon="6.9933">
        <ele>318</ele>
        <time>2011-04-10T08:14:03Z</time>
      </trkpt>
      <trkpt lat="49.199" lon="6.99328">
        <ele>318</ele>
        <time>2011-04-10T08:14:05Z</time>
      </trkpt>
      <trkpt lat="49.19901" lon="6.99325">
        <ele>318</ele>
        <time>2011-04-10T08:14:07Z</time>
      </trkpt>
      <trkpt lat="49.19903" lon="6.99322">
        <ele>318</ele>
        <time>2011-04-10T08:14:09Z</time>
      </trkpt>
      <trkpt lat="49.19905" lon="6.99319">
        <ele>318</ele>
        <time>2011-04-10T08:14:11Z</time>
      </trkpt>
      <trkpt lat="49.19906" lon="6.99318">
        <ele>318</ele>
        <time>2011-04-10T08:14:12Z</time>
      </trkpt>
      <trkpt lat="49.19908" lon="6.99315">
        <ele>318</ele>
        <time>2011-04-10T08:14:14Z</time>
      </trkpt>
      <trkpt lat="49.19909" lon="6.99312">
        <ele>318</ele>
        <time>2011-04-10T08:14:16Z</time>
      </trkpt>
      <trkpt lat="49.19911" lon="6.99309">
        <ele>318</ele>
        <time>2011-04-10T08:14:18Z</time>
      </trkpt>
      <trkpt lat="49.19912" lon="6.99308">
        <ele>318</ele>
        <time>2011-04-10T08:14:19Z</time>
      </trkpt>
      <trkpt lat="49.19914" lon="6.99305">
        <ele>318</ele>
        <time>2011-04-10T08:14:21Z</time>
      </trkpt>
      <trkpt lat="49.19916" lon="6.99303">
        <ele>318</ele>
        <time>2011-04-10T08:14:23Z</time>
      </trkpt>
      <trkpt lat="49.19918" lon="6.99301">
        <ele>318</ele>
        <time>2011-04-10T08:14:25Z</time>
      </trkpt>
      <trkpt lat="49.19919" lon="6.99298">
        <ele>318</ele>
        <time>2011-04-10T08:14:27Z</time>
      </trkpt>
      <trkpt lat="49.19921" lon="6.99296">
        <ele>318</ele>
        <time>2011-04-10T08:14:29Z</time>
      </trkpt>
      <trkpt lat="49.19923" lon="6.99293">
        <ele>318</ele>
        <time>2011-04-10T08:14:31Z</time>
      </trkpt>
      <trkpt lat="49.19924" lon="6.99291">
        <ele>318</ele>
        <time>2011-04-10T08:14:33Z</time>
      </trkpt>
      <trkpt lat="49.19926" lon="6.99289">
        <ele>318</ele>
        <time>2011-04-10T08:14:35Z</time>
      </trkpt>
      <trkpt lat="49.19928" lon="6.99286">
        <ele>318</ele>
        <time>2011-04-10T08:14:37Z</time>
      </trkpt>
      <trkpt lat="49.1993" lon="6.99283">
        <ele>318</ele>
        <time>2011-04-10T08:14:39Z</time>
      </trkpt>
      <trkpt lat="49.19931" lon="6.99281">
        <ele>318</ele>
        <time>2011-04-10T08:14:41Z</time>
      </trkpt>
      <trkpt lat="49.19933" lon="6.99278">
        <ele>318</ele>
        <time>2011-04-10T08:14:43Z</time>
      </trkpt>
      <trkpt lat="49.19933" lon="6.99275">
        <ele>318</ele>
        <time>2011-04-10T08:14:44Z</time>
      </trkpt>
      <trkpt lat="49.19934" lon="6.99273">
        <ele>318</ele>
        <time>2011-04-10T08:14:46Z</time>
      </trkpt>
      <trkpt lat="49.19936" lon="6.99272">
        <ele>318</ele>
        <time>2011-04-10T08:14:47Z</time>
      </trkpt>
      <trkpt lat="49.19937" lon="6.9927">
        <ele>318</ele>
        <time>2011-04-10T08:14:48Z</time>
      </trkpt>
      <trkpt lat="49.19939" lon="6.99267">
        <ele>318</ele>
        <time>2011-04-10T08:14:50Z</time>
      </trkpt>
      <trkpt lat="49.19939" lon="6.99265">
        <ele>318</ele>
        <time>2011-04-10T08:14:51Z</time>
      </trkpt>
      <trkpt lat="49.1994" lon="6.99264">
        <ele>318</ele>
        <time>2011-04-10T08:14:52Z</time>
      </trkpt>
      <trkpt lat="49.19941" lon="6.99262">
        <ele>318</ele>
        <time>2011-04-10T08:14:53Z</time>
      </trkpt>
      <trkpt lat="49.19941" lon="6.9926">
        <ele>318</ele>
        <time>2011-04-10T08:14:54Z</time>
      </trkpt>
      <trkpt lat="49.19942" lon="6.99258">
        <ele>318</ele>
        <time>2011-04-10T08:14:55Z</time>
      </trkpt>
      <trkpt lat="49.19942" lon="6.99257">
        <ele>318</ele>
        <time>2011-04-10T08:14:56Z</time>
      </trkpt>
      <trkpt lat="49.19943" lon="6.99255">
        <ele>318</ele>
        <time>2011-04-10T08:14:57Z</time>
      </trkpt>
      <trkpt lat="49.19943" lon="6.99253">
        <ele>318</ele>
        <time>2011-04-10T08:14:58Z</time>
      </trkpt>
      <trkpt lat="49.19944" lon="6.99251">
        <ele>318</ele>
        <time>2011-04-10T08:14:59Z</time>
      </trkpt>
      <trkpt lat="49.19944" lon="6.99248">
        <ele>318</ele>
        <time>2011-04-10T08:15:00Z</time>
      </trkpt>
      <trkpt lat="49.19944" lon="6.99246">
        <ele>318</ele>
        <time>2011-04-10T08:15:01Z</time>
      </trkpt>
      <trkpt lat="49.19944" lon="6.99245">
        <ele>318</ele>
        <time>2011-04-10T08:15:02Z</time>
      </trkpt>
      <trkpt lat="49.19945" lon="6.99243">
        <ele>318</ele>
        <time>2011-04-10T08:15:03Z</time>
      </trkpt>
      <trkpt lat="49.19946" lon="6.99241">
        <ele>318</ele>
        <time>2011-04-10T08:15:04Z</time>
      </trkpt>
      <trkpt lat="49.19946" lon="6.99239">
        <ele>318</ele>
        <time>2011-04-10T08:15:05Z</time>
      </trkpt>
      <trkpt lat="49.19946" lon="6.99237">
        <ele>318</ele>
        <time>2011-04-10T08:15:06Z</time>
      </trkpt>
      <trkpt lat="49.19947" lon="6.99235">
        <ele>318</ele>
        <time>2011-04-10T08:15:07Z</time>
      </trkpt>
      <trkpt lat="49.19947" lon="6.99233">
        <ele>318</ele>
        <time>2011-04-10T08:15:08Z</time>
      </trkpt>
      <trkpt lat="49.19947" lon="6.9923">
        <ele>318</ele>
        <time>2011-04-10T08:15:10Z</time>
      </trkpt>
      <trkpt lat="49.19947" lon="6.99228">
        <ele>318</ele>
        <time>2011-04-10T08:15:11Z</time>
      </trkpt>
      <trkpt lat="49.19947" lon="6.99226">
        <ele>318</ele>
        <time>2011-04-10T08:15:12Z</time>
      </trkpt>
      <trkpt lat="49.19948" lon="6.99224">
        <ele>318</ele>
        <time>2011-04-10T08:15:13Z</time>
      </trkpt>
      <trkpt lat="49.19948" lon="6.99223">
        <ele>318</ele>
        <time>2011-04-10T08:15:14Z</time>
      </trkpt>
      <trkpt lat="49.19949" lon="6.99221">
        <ele>318</ele>
        <time>2011-04-10T08:15:15Z</time>
      </trkpt>
      <trkpt lat="49.19949" lon="6.99219">
        <ele>318</ele>
        <time>2011-04-10T08:15:16Z</time>
      </trkpt>
      <trkpt lat="49.19949" lon="6.99217">
        <ele>318</ele>
        <time>2011-04-10T08:15:17Z</time>
      </trkpt>
      <trkpt lat="49.19949" lon="6.99214">
        <ele>318</ele>
        <time>2011-04-10T08:15:18Z</time>
      </trkpt>
      <trkpt lat="49.19948" lon="6.99212">
        <ele>318</ele>
        <time>2011-04-10T08:15:19Z</time>
      </trkpt>
      <trkpt lat="49.19949" lon="6.9921">
        <ele>318</ele>
        <time>2011-04-10T08:15:20Z</time>
      </trkpt>
      <trkpt lat="49.19949" lon="6.99208">
        <ele>318</ele>
        <time>2011-04-10T08:15:21Z</time>
      </trkpt>
      <trkpt lat="49.19949" lon="6.99206">
        <ele>318</ele>
        <time>2011-04-10T08:15:22Z</time>
      </trkpt>
      <trkpt lat="49.19949" lon="6.99204">
        <ele>319</ele>
        <time>2011-04-10T08:15:23Z</time>
      </trkpt>
      <trkpt lat="49.1995" lon="6.99202">
        <ele>320</ele>
        <time>2011-04-10T08:15:24Z</time>
      </trkpt>
      <trkpt lat="49.1995" lon="6.992">
        <ele>320</ele>
        <time>2011-04-10T08:15:25Z</time>
      </trkpt>
      <trkpt lat="49.1995" lon="6.99198">
        <ele>320</ele>
        <time>2011-04-10T08:15:26Z</time>
      </trkpt>
      <trkpt lat="49.19951" lon="6.99196">
        <ele>321</ele>
        <time>2011-04-10T08:15:27Z</time>
      </trkpt>
      <trkpt lat="49.19951" lon="6.99193">
        <ele>321</ele>
        <time>2011-04-10T08:15:29Z</time>
      </trkpt>
      <trkpt lat="49.19952" lon="6.99191">
        <ele>321</ele>
        <time>2011-04-10T08:15:30Z</time>
      </trkpt>
      <trkpt lat="49.19952" lon="6.99188">
        <ele>321</ele>
        <time>2011-04-10T08:15:32Z</time>
      </trkpt>
      <trkpt lat="49.19952" lon="6.99186">
        <ele>321</ele>
        <time>2011-04-10T08:15:33Z</time>
      </trkpt>
      <trkpt lat="49.19953" lon="6.99183">
        <ele>321</ele>
        <time>2011-04-10T08:15:34Z</time>
      </trkpt>
      <trkpt lat="49.19953" lon="6.99181">
        <ele>321</ele>
        <time>2011-04-10T08:15:35Z</time>
      </trkpt>
      <trkpt lat="49.19953" lon="6.99179">
        <ele>321</ele>
        <time>2011-04-10T08:15:36Z</time>
      </trkpt>
      <trkpt lat="49.19953" lon="6.99176">
        <ele>321</ele>
        <time>2011-04-10T08:15:38Z</time>
      </trkpt>
      <trkpt lat="49.19953" lon="6.99172">
        <ele>321</ele>
        <time>2011-04-10T08:15:40Z</time>
      </trkpt>
      <trkpt lat="49.19953" lon="6.9917">
        <ele>321</ele>
        <time>2011-04-10T08:15:41Z</time>
      </trkpt>
      <trkpt lat="49.19952" lon="6.99167">
        <ele>321</ele>
        <time>2011-04-10T08:15:43Z</time>
      </trkpt>
      <trkpt lat="49.19953" lon="6.99166">
        <ele>321</ele>
        <time>2011-04-10T08:15:44Z</time>
      </trkpt>
      <trkpt lat="49.19953" lon="6.99163">
        <ele>321</ele>
        <time>2011-04-10T08:15:46Z</time>
      </trkpt>
      <trkpt lat="49.19954" lon="6.99161">
        <ele>320</ele>
        <time>2011-04-10T08:15:47Z</time>
      </trkpt>
      <trkpt lat="49.19954" lon="6.99159">
        <ele>320</ele>
        <time>2011-04-10T08:15:48Z</time>
      </trkpt>
      <trkpt lat="49.19954" lon="6.99157">
        <ele>320</ele>
        <time>2011-04-10T08:15:49Z</time>
      </trkpt>
      <trkpt lat="49.19954" lon="6.99155">
        <ele>320</ele>
        <time>2011-04-10T08:15:50Z</time>
      </trkpt>
      <trkpt lat="49.19954" lon="6.99154">
        <ele>320</ele>
        <time>2011-04-10T08:15:51Z</time>
      </trkpt>
      <trkpt lat="49.19953" lon="6.99152">
        <ele>319</ele>
        <time>2011-04-10T08:15:52Z</time>
      </trkpt>
      <trkpt lat="49.19954" lon="6.9915">
        <ele>319</ele>
        <time>2011-04-10T08:15:53Z</time>
      </trkpt>
      <trkpt lat="49.19953" lon="6.99148">
        <ele>319</ele>
        <time>2011-04-10T08:15:54Z</time>
      </trkpt>
      <trkpt lat="49.19953" lon="6.99146">
        <ele>319</ele>
        <time>2011-04-10T08:15:55Z</time>
      </trkpt>
      <trkpt lat="49.19953" lon="6.99144">
        <ele>319</ele>
        <time>2011-04-10T08:15:56Z</time>
      </trkpt>
      <trkpt lat="49.19954" lon="6.99142">
        <ele>319</ele>
        <time>2011-04-10T08:15:57Z</time>
      </trkpt>
      <trkpt lat="49.19954" lon="6.99139">
        <ele>319</ele>
        <time>2011-04-10T08:15:58Z</time>
      </trkpt>
      <trkpt lat="49.19953" lon="6.99137">
        <ele>319</ele>
        <time>2011-04-10T08:15:59Z</time>
      </trkpt>
      <trkpt lat="49.19954" lon="6.99136">
        <ele>319</ele>
        <time>2011-04-10T08:16:00Z</time>
      </trkpt>
      <trkpt lat="49.19954" lon="6.99134">
        <ele>319</ele>
        <time>2011-04-10T08:16:01Z</time>
      </trkpt>
      <trkpt lat="49.19954" lon="6.99132">
        <ele>319</ele>
        <time>2011-04-10T08:16:02Z</time>
      </trkpt>
      <trkpt lat="49.19954" lon="6.9913">
        <ele>319</ele>
        <time>2011-04-10T08:16:03Z</time>
      </trkpt>
      <trkpt lat="49.19954" lon="6.99128">
        <ele>319</ele>
        <time>2011-04-10T08:16:04Z</time>
      </trkpt>
      <trkpt lat="49.19954" lon="6.99126">
        <ele>319</ele>
        <time>2011-04-10T08:16:05Z</time>
      </trkpt>
      <trkpt lat="49.19954" lon="6.99125">
        <ele>319</ele>
        <time>2011-04-10T08:16:06Z</time>
      </trkpt>
      <trkpt lat="49.19953" lon="6.99123">
        <ele>319</ele>
        <time>2011-04-10T08:16:07Z</time>
      </trkpt>
      <trkpt lat="49.19953" lon="6.99122">
        <ele>319</ele>
        <time>2011-04-10T08:16:08Z</time>
      </trkpt>
      <trkpt lat="49.19953" lon="6.99119">
        <ele>319</ele>
        <time>2011-04-10T08:16:10Z</time>
      </trkpt>
      <trkpt lat="49.19953" lon="6.99117">
        <ele>319</ele>
        <time>2011-04-10T08:16:11Z</time>
      </trkpt>
      <trkpt lat="49.19953" lon="6.99114">
        <ele>319</ele>
        <time>2011-04-10T08:16:12Z</time>
      </trkpt>
      <trkpt lat="49.19952" lon="6.99112">
        <ele>319</ele>
        <time>2011-04-10T08:16:13Z</time>
      </trkpt>
      <trkpt lat="49.19952" lon="6.99109">
        <ele>319</ele>
        <time>2011-04-10T08:16:14Z</time>
      </trkpt>
      <trkpt lat="49.19952" lon="6.99107">
        <ele>319</ele>
        <time>2011-04-10T08:16:15Z</time>
      </trkpt>
      <trkpt lat="49.1995" lon="6.99103">
        <ele>319</ele>
        <time>2011-04-10T08:16:16Z</time>
      </trkpt>
      <trkpt lat="49.1995" lon="6.99101">
        <ele>319</ele>
        <time>2011-04-10T08:16:17Z</time>
      </trkpt>
      <trkpt lat="49.1995" lon="6.99099">
        <ele>319</ele>
        <time>2011-04-10T08:16:18Z</time>
      </trkpt>
      <trkpt lat="49.19949" lon="6.99097">
        <ele>319</ele>
        <time>2011-04-10T08:16:19Z</time>
      </trkpt>
      <trkpt lat="49.19949" lon="6.99095">
        <ele>319</ele>
        <time>2011-04-10T08:16:20Z</time>
      </trkpt>
      <trkpt lat="49.19949" lon="6.99093">
        <ele>319</ele>
        <time>2011-04-10T08:16:21Z</time>
      </trkpt>
      <trkpt lat="49.19949" lon="6.99091">
        <ele>319</ele>
        <time>2011-04-10T08:16:22Z</time>
      </trkpt>
      <trkpt lat="49.19949" lon="6.9909">
        <ele>319</ele>
        <time>2011-04-10T08:16:23Z</time>
      </trkpt>
      <trkpt lat="49.19949" lon="6.99088">
        <ele>319</ele>
        <time>2011-04-10T08:16:24Z</time>
      </trkpt>
      <trkpt lat="49.19949" lon="6.99086">
        <ele>319</ele>
        <time>2011-04-10T08:16:25Z</time>
      </trkpt>
      <trkpt lat="49.19949" lon="6.99084">
        <ele>319</ele>
        <time>2011-04-10T08:16:26Z</time>
      </trkpt>
      <trkpt lat="49.19949" lon="6.99083">
        <ele>319</ele>
        <time>2011-04-10T08:16:27Z</time>
      </trkpt>
      <trkpt lat="49.19949" lon="6.99081">
        <ele>319</ele>
        <time>2011-04-10T08:16:28Z</time>
      </trkpt>
      <trkpt lat="49.19949" lon="6.99079">
        <ele>319</ele>
        <time>2011-04-10T08:16:29Z</time>
      </trkpt>
      <trkpt lat="49.1995" lon="6.99076">
        <ele>319</ele>
        <time>2011-04-10T08:16:31Z</time>
      </trkpt>
      <trkpt lat="49.1995" lon="6.99075">
        <ele>319</ele>
        <time>2011-04-10T08:16:32Z</time>
      </trkpt>
      <trkpt lat="49.19949" lon="6.9907">
        <ele>319</ele>
        <time>2011-04-10T08:16:34Z</time>
      </trkpt>
      <trkpt lat="49.19949" lon="6.99067">
        <ele>319</ele>
        <time>2011-04-10T08:16:35Z</time>
      </trkpt>
      <trkpt lat="49.19949" lon="6.99065">
        <ele>319</ele>
        <time>2011-04-10T08:16:36Z</time>
      </trkpt>
      <trkpt lat="49.19949" lon="6.99063">
        <ele>319</ele>
        <time>2011-04-10T08:16:37Z</time>
      </trkpt>
      <trkpt lat="49.1995" lon="6.99061">
        <ele>319</ele>
        <time>2011-04-10T08:16:38Z</time>
      </trkpt>
      <trkpt lat="49.1995" lon="6.99059">
        <ele>319</ele>
        <time>2011-04-10T08:16:39Z</time>
      </trkpt>
      <trkpt lat="49.1995" lon="6.99057">
        <ele>319</ele>
        <time>2011-04-10T08:16:41Z</time>
      </trkpt>
      <trkpt lat="49.1995" lon="6.99054">
        <ele>319</ele>
        <time>2011-04-10T08:16:43Z</time>
      </trkpt>
      <trkpt lat="49.1995" lon="6.99052">
        <ele>319</ele>
        <time>2011-04-10T08:16:44Z</time>
      </trkpt>
      <trkpt lat="49.19949" lon="6.9905">
        <ele>319</ele>
        <time>2011-04-10T08:16:45Z</time>
      </trkpt>
      <trkpt lat="49.19949" lon="6.99049">
        <ele>319</ele>
        <time>2011-04-10T08:16:46Z</time>
      </trkpt>
      <trkpt lat="49.19949" lon="6.99047">
        <ele>319</ele>
        <time>2011-04-10T08:16:47Z</time>
      </trkpt>
      <trkpt lat="49.19949" lon="6.99045">
        <ele>318</ele>
        <time>2011-04-10T08:16:48Z</time>
      </trkpt>
      <trkpt lat="49.19949" lon="6.99043">
        <ele>318</ele>
        <time>2011-04-10T08:16:49Z</time>
      </trkpt>
      <trkpt lat="49.19947" lon="6.99041">
        <ele>318</ele>
        <time>2011-04-10T08:16:50Z</time>
      </trkpt>
      <trkpt lat="49.19947" lon="6.99039">
        <ele>318</ele>
        <time>2011-04-10T08:16:51Z</time>
      </trkpt>
      <trkpt lat="49.19947" lon="6.99037">
        <ele>318</ele>
        <time>2011-04-10T08:16:52Z</time>
      </trkpt>
      <trkpt lat="49.19947" lon="6.99035">
        <ele>318</ele>
        <time>2011-04-10T08:16:53Z</time>
      </trkpt>
      <trkpt lat="49.19947" lon="6.99033">
        <ele>318</ele>
        <time>2011-04-10T08:16:54Z</time>
      </trkpt>
      <trkpt lat="49.19947" lon="6.9903">
        <ele>318</ele>
        <time>2011-04-10T08:16:55Z</time>
      </trkpt>
      <trkpt lat="49.19947" lon="6.99029">
        <ele>318</ele>
        <time>2011-04-10T08:16:56Z</time>
      </trkpt>
      <trkpt lat="49.19947" lon="6.99027">
        <ele>318</ele>
        <time>2011-04-10T08:16:57Z</time>
      </trkpt>
      <trkpt lat="49.19947" lon="6.99024">
        <ele>318</ele>
        <time>2011-04-10T08:16:58Z</time>
      </trkpt>
      <trkpt lat="49.19947" lon="6.99022">
        <ele>318</ele>
        <time>2011-04-10T08:16:59Z</time>
      </trkpt>
      <trkpt lat="49.19947" lon="6.9902">
        <ele>318</ele>
        <time>2011-04-10T08:17:00Z</time>
      </trkpt>
      <trkpt lat="49.19947" lon="6.99017">
        <ele>318</ele>
        <time>2011-04-10T08:17:01Z</time>
      </trkpt>
      <trkpt lat="49.19947" lon="6.99015">
        <ele>318</ele>
        <time>2011-04-10T08:17:02Z</time>
      </trkpt>
      <trkpt lat="49.19947" lon="6.99013">
        <ele>318</ele>
        <time>2011-04-10T08:17:03Z</time>
      </trkpt>
      <trkpt lat="49.19947" lon="6.9901">
        <ele>318</ele>
        <time>2011-04-10T08:17:04Z</time>
      </trkpt>
      <trkpt lat="49.19946" lon="6.99008">
        <ele>318</ele>
        <time>2011-04-10T08:17:05Z</time>
      </trkpt>
      <trkpt lat="49.19946" lon="6.99006">
        <ele>318</ele>
        <time>2011-04-10T08:17:06Z</time>
      </trkpt>
      <trkpt lat="49.19946" lon="6.99004">
        <ele>318</ele>
        <time>2011-04-10T08:17:07Z</time>
      </trkpt>
      <trkpt lat="49.19946" lon="6.99001">
        <ele>318</ele>
        <time>2011-04-10T08:17:08Z</time>
      </trkpt>
      <trkpt lat="49.19946" lon="6.98999">
        <ele>318</ele>
        <time>2011-04-10T08:17:09Z</time>
      </trkpt>
      <trkpt lat="49.19945" lon="6.98997">
        <ele>318</ele>
        <time>2011-04-10T08:17:10Z</time>
      </trkpt>
      <trkpt lat="49.19945" lon="6.98995">
        <ele>318</ele>
        <time>2011-04-10T08:17:11Z</time>
      </trkpt>
      <trkpt lat="49.19944" lon="6.98994">
        <ele>318</ele>
        <time>2011-04-10T08:17:12Z</time>
      </trkpt>
      <trkpt lat="49.19944" lon="6.98992">
        <ele>318</ele>
        <time>2011-04-10T08:17:13Z</time>
      </trkpt>
      <trkpt lat="49.19944" lon="6.98988">
        <ele>318</ele>
        <time>2011-04-10T08:17:15Z</time>
      </trkpt>
      <trkpt lat="49.19944" lon="6.98987">
        <ele>318</ele>
        <time>2011-04-10T08:17:16Z</time>
      </trkpt>
      <trkpt lat="49.19945" lon="6.98985">
        <ele>318</ele>
        <time>2011-04-10T08:17:17Z</time>
      </trkpt>
      <trkpt lat="49.19945" lon="6.98982">
        <ele>318</ele>
        <time>2011-04-10T08:17:18Z</time>
      </trkpt>
      <trkpt lat="49.19944" lon="6.98981">
        <ele>318</ele>
        <time>2011-04-10T08:17:19Z</time>
      </trkpt>
      <trkpt lat="49.19944" lon="6.98977">
        <ele>318</ele>
        <time>2011-04-10T08:17:21Z</time>
      </trkpt>
      <trkpt lat="49.19944" lon="6.98975">
        <ele>318</ele>
        <time>2011-04-10T08:17:22Z</time>
      </trkpt>
      <trkpt lat="49.19944" lon="6.98973">
        <ele>318</ele>
        <time>2011-04-10T08:17:24Z</time>
      </trkpt>
      <trkpt lat="49.19944" lon="6.98969">
        <ele>318</ele>
        <time>2011-04-10T08:17:26Z</time>
      </trkpt>
      <trkpt lat="49.19944" lon="6.98967">
        <ele>318</ele>
        <time>2011-04-10T08:17:27Z</time>
      </trkpt>
      <trkpt lat="49.19944" lon="6.98964">
        <ele>318</ele>
        <time>2011-04-10T08:17:28Z</time>
      </trkpt>
      <trkpt lat="49.19944" lon="6.98962">
        <ele>318</ele>
        <time>2011-04-10T08:17:29Z</time>
      </trkpt>
      <trkpt lat="49.19944" lon="6.9896">
        <ele>318</ele>
        <time>2011-04-10T08:17:30Z</time>
      </trkpt>
      <trkpt lat="49.19945" lon="6.98957">
        <ele>318</ele>
        <time>2011-04-10T08:17:31Z</time>
      </trkpt>
      <trkpt lat="49.19945" lon="6.98955">
        <ele>318</ele>
        <time>2011-04-10T08:17:32Z</time>
      </trkpt>
      <trkpt lat="49.19945" lon="6.98954">
        <ele>318</ele>
        <time>2011-04-10T08:17:33Z</time>
      </trkpt>
      <trkpt lat="49.19944" lon="6.98952">
        <ele>318</ele>
        <time>2011-04-10T08:17:34Z</time>
      </trkpt>
      <trkpt lat="49.19944" lon="6.9895">
        <ele>318</ele>
        <time>2011-04-10T08:17:35Z</time>
      </trkpt>
      <trkpt lat="49.19944" lon="6.98948">
        <ele>318</ele>
        <time>2011-04-10T08:17:36Z</time>
      </trkpt>
      <trkpt lat="49.19944" lon="6.98946">
        <ele>318</ele>
        <time>2011-04-10T08:17:37Z</time>
      </trkpt>
      <trkpt lat="49.19943" lon="6.98944">
        <ele>318</ele>
        <time>2011-04-10T08:17:38Z</time>
      </trkpt>
      <trkpt lat="49.19943" lon="6.98943">
        <ele>318</ele>
        <time>2011-04-10T08:17:39Z</time>
      </trkpt>
      <trkpt lat="49.19943" lon="6.98941">
        <ele>318</ele>
        <time>2011-04-10T08:17:40Z</time>
      </trkpt>
      <trkpt lat="49.19943" lon="6.98939">
        <ele>318</ele>
        <time>2011-04-10T08:17:41Z</time>
      </trkpt>
      <trkpt lat="49.19943" lon="6.98937">
        <ele>318</ele>
        <time>2011-04-10T08:17:42Z</time>
      </trkpt>
      <trkpt lat="49.19943" lon="6.98935">
        <ele>318</ele>
        <time>2011-04-10T08:17:43Z</time>
      </trkpt>
      <trkpt lat="49.19943" lon="6.98932">
        <ele>318</ele>
        <time>2011-04-10T08:17:44Z</time>
      </trkpt>
      <trkpt lat="49.19943" lon="6.9893">
        <ele>318</ele>
        <time>2011-04-10T08:17:45Z</time>
      </trkpt>
      <trkpt lat="49.19942" lon="6.98927">
        <ele>318</ele>
        <time>2011-04-10T08:17:46Z</time>
      </trkpt>
      <trkpt lat="49.19942" lon="6.98925">
        <ele>318</ele>
        <time>2011-04-10T08:17:47Z</time>
      </trkpt>
      <trkpt lat="49.19943" lon="6.98923">
        <ele>319</ele>
        <time>2011-04-10T08:17:48Z</time>
      </trkpt>
      <trkpt lat="49.19943" lon="6.98921">
        <ele>319</ele>
        <time>2011-04-10T08:17:49Z</time>
      </trkpt>
      <trkpt lat="49.19943" lon="6.9892">
        <ele>320</ele>
        <time>2011-04-10T08:17:50Z</time>
      </trkpt>
      <trkpt lat="49.19943" lon="6.98918">
        <ele>320</ele>
        <time>2011-04-10T08:17:51Z</time>
      </trkpt>
      <trkpt lat="49.19943" lon="6.98916">
        <ele>320</ele>
        <time>2011-04-10T08:17:52Z</time>
      </trkpt>
      <trkpt lat="49.19943" lon="6.98915">
        <ele>320</ele>
        <time>2011-04-10T08:17:53Z</time>
      </trkpt>
      <trkpt lat="49.19943" lon="6.98913">
        <ele>320</ele>
        <time>2011-04-10T08:17:54Z</time>
      </trkpt>
      <trkpt lat="49.19943" lon="6.98911">
        <ele>320</ele>
        <time>2011-04-10T08:17:55Z</time>
      </trkpt>
      <trkpt lat="49.19943" lon="6.98909">
        <ele>320</ele>
        <time>2011-04-10T08:17:56Z</time>
      </trkpt>
      <trkpt lat="49.19943" lon="6.98907">
        <ele>320</ele>
        <time>2011-04-10T08:17:57Z</time>
      </trkpt>
      <trkpt lat="49.19943" lon="6.98904">
        <ele>320</ele>
        <time>2011-04-10T08:17:58Z</time>
      </trkpt>
      <trkpt lat="49.19944" lon="6.98902">
        <ele>320</ele>
        <time>2011-04-10T08:17:59Z</time>
      </trkpt>
      <trkpt lat="49.19943" lon="6.98899">
        <ele>320</ele>
        <time>2011-04-10T08:18:00Z</time>
      </trkpt>
      <trkpt lat="49.19943" lon="6.98897">
        <ele>320</ele>
        <time>2011-04-10T08:18:01Z</time>
      </trkpt>
      <trkpt lat="49.19943" lon="6.98895">
        <ele>320</ele>
        <time>2011-04-10T08:18:02Z</time>
      </trkpt>
      <trkpt lat="49.19944" lon="6.98893">
        <ele>320</ele>
        <time>2011-04-10T08:18:03Z</time>
      </trkpt>
      <trkpt lat="49.19944" lon="6.98891">
        <ele>321</ele>
        <time>2011-04-10T08:18:04Z</time>
      </trkpt>
      <trkpt lat="49.19944" lon="6.98889">
        <ele>321</ele>
        <time>2011-04-10T08:18:05Z</time>
      </trkpt>
      <trkpt lat="49.19944" lon="6.98887">
        <ele>321</ele>
        <time>2011-04-10T08:18:06Z</time>
      </trkpt>
      <trkpt lat="49.19944" lon="6.98884">
        <ele>322</ele>
        <time>2011-04-10T08:18:07Z</time>
      </trkpt>
      <trkpt lat="49.19944" lon="6.98882">
        <ele>322</ele>
        <time>2011-04-10T08:18:08Z</time>
      </trkpt>
      <trkpt lat="49.19944" lon="6.9888">
        <ele>322</ele>
        <time>2011-04-10T08:18:09Z</time>
      </trkpt>
      <trkpt lat="49.19944" lon="6.98878">
        <ele>322</ele>
        <time>2011-04-10T08:18:10Z</time>
      </trkpt>
      <trkpt lat="49.19944" lon="6.98876">
        <ele>323</ele>
        <time>2011-04-10T08:18:11Z</time>
      </trkpt>
      <trkpt lat="49.19943" lon="6.98872">
        <ele>323</ele>
        <time>2011-04-10T08:18:13Z</time>
      </trkpt>
      <trkpt lat="49.19943" lon="6.98871">
        <ele>323</ele>
        <time>2011-04-10T08:18:14Z</time>
      </trkpt>
      <trkpt lat="49.19943" lon="6.98869">
        <ele>323</ele>
        <time>2011-04-10T08:18:15Z</time>
      </trkpt>
      <trkpt lat="49.19943" lon="6.98867">
        <ele>323</ele>
        <time>2011-04-10T08:18:16Z</time>
      </trkpt>
      <trkpt lat="49.19943" lon="6.98865">
        <ele>323</ele>
        <time>2011-04-10T08:18:17Z</time>
      </trkpt>
      <trkpt lat="49.19943" lon="6.98863">
        <ele>323</ele>
        <time>2011-04-10T08:18:18Z</time>
      </trkpt>
      <trkpt lat="49.19942" lon="6.9886">
        <ele>323</ele>
        <time>2011-04-10T08:18:20Z</time>
      </trkpt>
      <trkpt lat="49.19942" lon="6.98858">
        <ele>323</ele>
        <time>2011-04-10T08:18:21Z</time>
      </trkpt>
      <trkpt lat="49.19942" lon="6.98856">
        <ele>323</ele>
        <time>2011-04-10T08:18:22Z</time>
      </trkpt>
      <trkpt lat="49.19942" lon="6.98855">
        <ele>323</ele>
        <time>2011-04-10T08:18:23Z</time>
      </trkpt>
      <trkpt lat="49.19942" lon="6.98853">
        <ele>323</ele>
        <time>2011-04-10T08:18:24Z</time>
      </trkpt>
      <trkpt lat="49.19942" lon="6.98851">
        <ele>323</ele>
        <time>2011-04-10T08:18:25Z</time>
      </trkpt>
      <trkpt lat="49.19942" lon="6.98848">
        <ele>323</ele>
        <time>2011-04-10T08:18:27Z</time>
      </trkpt>
      <trkpt lat="49.19941" lon="6.98846">
        <ele>323</ele>
        <time>2011-04-10T08:18:28Z</time>
      </trkpt>
      <trkpt lat="49.19941" lon="6.98845">
        <ele>323</ele>
        <time>2011-04-10T08:18:29Z</time>
      </trkpt>
      <trkpt lat="49.19941" lon="6.98841">
        <ele>323</ele>
        <time>2011-04-10T08:18:31Z</time>
      </trkpt>
      <trkpt lat="49.19941" lon="6.98839">
        <ele>323</ele>
        <time>2011-04-10T08:18:32Z</time>
      </trkpt>
      <trkpt lat="49.19941" lon="6.98836">
        <ele>323</ele>
        <time>2011-04-10T08:18:34Z</time>
      </trkpt>
      <trkpt lat="49.19941" lon="6.98835">
        <ele>323</ele>
        <time>2011-04-10T08:18:35Z</time>
      </trkpt>
      <trkpt lat="49.19941" lon="6.98833">
        <ele>323</ele>
        <time>2011-04-10T08:18:36Z</time>
      </trkpt>
      <trkpt lat="49.19941" lon="6.98831">
        <ele>323</ele>
        <time>2011-04-10T08:18:37Z</time>
      </trkpt>
      <trkpt lat="49.19941" lon="6.98828">
        <ele>323</ele>
        <time>2011-04-10T08:18:38Z</time>
      </trkpt>
      <trkpt lat="49.19941" lon="6.98826">
        <ele>323</ele>
        <time>2011-04-10T08:18:39Z</time>
      </trkpt>
      <trkpt lat="49.19941" lon="6.98825">
        <ele>323</ele>
        <time>2011-04-10T08:18:40Z</time>
      </trkpt>
      <trkpt lat="49.19942" lon="6.98821">
        <ele>323</ele>
        <time>2011-04-10T08:18:42Z</time>
      </trkpt>
      <trkpt lat="49.19942" lon="6.98818">
        <ele>323</ele>
        <time>2011-04-10T08:18:44Z</time>
      </trkpt>
      <trkpt lat="49.19942" lon="6.98816">
        <ele>323</ele>
        <time>2011-04-10T08:18:45Z</time>
      </trkpt>
      <trkpt lat="49.19942" lon="6.98815">
        <ele>323</ele>
        <time>2011-04-10T08:18:46Z</time>
      </trkpt>
      <trkpt lat="49.19943" lon="6.98813">
        <ele>323</ele>
        <time>2011-04-10T08:18:47Z</time>
      </trkpt>
      <trkpt lat="49.19944" lon="6.98811">
        <ele>323</ele>
        <time>2011-04-10T08:18:48Z</time>
      </trkpt>
      <trkpt lat="49.19944" lon="6.9881">
        <ele>323</ele>
        <time>2011-04-10T08:18:49Z</time>
      </trkpt>
      <trkpt lat="49.19946" lon="6.98807">
        <ele>323</ele>
        <time>2011-04-10T08:18:51Z</time>
      </trkpt>
      <trkpt lat="49.19947" lon="6.98804">
        <ele>323</ele>
        <time>2011-04-10T08:18:53Z</time>
      </trkpt>
      <trkpt lat="49.19949" lon="6.98801">
        <ele>323</ele>
        <time>2011-04-10T08:18:55Z</time>
      </trkpt>
      <trkpt lat="49.1995" lon="6.98798">
        <ele>322</ele>
        <time>2011-04-10T08:18:57Z</time>
      </trkpt>
      <trkpt lat="49.1995" lon="6.98796">
        <ele>322</ele>
        <time>2011-04-10T08:18:58Z</time>
      </trkpt>
      <trkpt lat="49.1995" lon="6.98794">
        <ele>322</ele>
        <time>2011-04-10T08:18:59Z</time>
      </trkpt>
      <trkpt lat="49.19951" lon="6.98792">
        <ele>321</ele>
        <time>2011-04-10T08:19:00Z</time>
      </trkpt>
      <trkpt lat="49.19951" lon="6.9879">
        <ele>321</ele>
        <time>2011-04-10T08:19:01Z</time>
      </trkpt>
      <trkpt lat="49.19952" lon="6.98788">
        <ele>321</ele>
        <time>2011-04-10T08:19:02Z</time>
      </trkpt>
      <trkpt lat="49.19952" lon="6.98785">
        <ele>321</ele>
        <time>2011-04-10T08:19:04Z</time>
      </trkpt>
      <trkpt lat="49.19953" lon="6.98783">
        <ele>321</ele>
        <time>2011-04-10T08:19:05Z</time>
      </trkpt>
      <trkpt lat="49.19953" lon="6.98781">
        <ele>321</ele>
        <time>2011-04-10T08:19:06Z</time>
      </trkpt>
      <trkpt lat="49.19954" lon="6.98779">
        <ele>321</ele>
        <time>2011-04-10T08:19:07Z</time>
      </trkpt>
      <trkpt lat="49.19955" lon="6.98778">
        <ele>321</ele>
        <time>2011-04-10T08:19:08Z</time>
      </trkpt>
      <trkpt lat="49.19956" lon="6.98776">
        <ele>321</ele>
        <time>2011-04-10T08:19:09Z</time>
      </trkpt>
      <trkpt lat="49.19957" lon="6.98773">
        <ele>321</ele>
        <time>2011-04-10T08:19:11Z</time>
      </trkpt>
      <trkpt lat="49.19958" lon="6.98771">
        <ele>321</ele>
        <time>2011-04-10T08:19:12Z</time>
      </trkpt>
      <trkpt lat="49.19958" lon="6.98769">
        <ele>321</ele>
        <time>2011-04-10T08:19:13Z</time>
      </trkpt>
      <trkpt lat="49.19958" lon="6.98767">
        <ele>321</ele>
        <time>2011-04-10T08:19:14Z</time>
      </trkpt>
      <trkpt lat="49.19959" lon="6.98765">
        <ele>321</ele>
        <time>2011-04-10T08:19:15Z</time>
      </trkpt>
      <trkpt lat="49.19959" lon="6.98764">
        <ele>321</ele>
        <time>2011-04-10T08:19:16Z</time>
      </trkpt>
      <trkpt lat="49.1996" lon="6.98761">
        <ele>321</ele>
        <time>2011-04-10T08:19:18Z</time>
      </trkpt>
      <trkpt lat="49.19962" lon="6.98757">
        <ele>321</ele>
        <time>2011-04-10T08:19:20Z</time>
      </trkpt>
      <trkpt lat="49.19963" lon="6.98755">
        <ele>321</ele>
        <time>2011-04-10T08:19:21Z</time>
      </trkpt>
      <trkpt lat="49.19965" lon="6.98752">
        <ele>321</ele>
        <time>2011-04-10T08:19:23Z</time>
      </trkpt>
      <trkpt lat="49.19967" lon="6.9875">
        <ele>321</ele>
        <time>2011-04-10T08:19:25Z</time>
      </trkpt>
      <trkpt lat="49.19968" lon="6.98747">
        <ele>321</ele>
        <time>2011-04-10T08:19:27Z</time>
      </trkpt>
      <trkpt lat="49.19969" lon="6.98745">
        <ele>321</ele>
        <time>2011-04-10T08:19:28Z</time>
      </trkpt>
      <trkpt lat="49.1997" lon="6.98744">
        <ele>321</ele>
        <time>2011-04-10T08:19:29Z</time>
      </trkpt>
      <trkpt lat="49.19972" lon="6.98741">
        <ele>321</ele>
        <time>2011-04-10T08:19:31Z</time>
      </trkpt>
      <trkpt lat="49.19973" lon="6.98738">
        <ele>321</ele>
        <time>2011-04-10T08:19:33Z</time>
      </trkpt>
      <trkpt lat="49.19975" lon="6.98735">
        <ele>321</ele>
        <time>2011-04-10T08:19:35Z</time>
      </trkpt>
      <trkpt lat="49.19976" lon="6.98733">
        <ele>321</ele>
        <time>2011-04-10T08:19:36Z</time>
      </trkpt>
      <trkpt lat="49.19978" lon="6.9873">
        <ele>321</ele>
        <time>2011-04-10T08:19:38Z</time>
      </trkpt>
      <trkpt lat="49.1998" lon="6.98727">
        <ele>322</ele>
        <time>2011-04-10T08:19:40Z</time>
      </trkpt>
      <trkpt lat="49.19981" lon="6.98724">
        <ele>322</ele>
        <time>2011-04-10T08:19:42Z</time>
      </trkpt>
      <trkpt lat="49.19983" lon="6.98722">
        <ele>322</ele>
        <time>2011-04-10T08:19:44Z</time>
      </trkpt>
      <trkpt lat="49.19985" lon="6.98719">
        <ele>322</ele>
        <time>2011-04-10T08:19:46Z</time>
      </trkpt>
      <trkpt lat="49.19986" lon="6.98716">
        <ele>322</ele>
        <time>2011-04-10T08:19:48Z</time>
      </trkpt>
      <trkpt lat="49.19988" lon="6.98713">
        <ele>323</ele>
        <time>2011-04-10T08:19:50Z</time>
      </trkpt>
      <trkpt lat="49.19989" lon="6.98711">
        <ele>323</ele>
        <time>2011-04-10T08:19:52Z</time>
      </trkpt>
      <trkpt lat="49.1999" lon="6.98709">
        <ele>323</ele>
        <time>2011-04-10T08:19:53Z</time>
      </trkpt>
      <trkpt lat="49.19992" lon="6.98707">
        <ele>323</ele>
        <time>2011-04-10T08:19:55Z</time>
      </trkpt>
      <trkpt lat="49.19992" lon="6.98705">
        <ele>323</ele>
        <time>2011-04-10T08:19:56Z</time>
      </trkpt>
      <trkpt lat="49.19993" lon="6.98702">
        <ele>323</ele>
        <time>2011-04-10T08:19:58Z</time>
      </trkpt>
      <trkpt lat="49.19995" lon="6.987">
        <ele>323</ele>
        <time>2011-04-10T08:20:00Z</time>
      </trkpt>
      <trkpt lat="49.19997" lon="6.98697">
        <ele>323</ele>
        <time>2011-04-10T08:20:02Z</time>
      </trkpt>
      <trkpt lat="49.19997" lon="6.98696">
        <ele>323</ele>
        <time>2011-04-10T08:20:03Z</time>
      </trkpt>
      <trkpt lat="49.19998" lon="6.98694">
        <ele>323</ele>
        <time>2011-04-10T08:20:04Z</time>
      </trkpt>
      <trkpt lat="49.19999" lon="6.98692">
        <ele>323</ele>
        <time>2011-04-10T08:20:05Z</time>
      </trkpt>
      <trkpt lat="49.20001" lon="6.9869">
        <ele>323</ele>
        <time>2011-04-10T08:20:07Z</time>
      </trkpt>
      <trkpt lat="49.20002" lon="6.98688">
        <ele>323</ele>
        <time>2011-04-10T08:20:08Z</time>
      </trkpt>
      <trkpt lat="49.20003" lon="6.98686">
        <ele>323</ele>
        <time>2011-04-10T08:20:09Z</time>
      </trkpt>
      <trkpt lat="49.20004" lon="6.98684">
        <ele>323</ele>
        <time>2011-04-10T08:20:10Z</time>
      </trkpt>
      <trkpt lat="49.20005" lon="6.98682">
        <ele>323</ele>
        <time>2011-04-10T08:20:11Z</time>
      </trkpt>
      <trkpt lat="49.20006" lon="6.9868">
        <ele>323</ele>
        <time>2011-04-10T08:20:12Z</time>
      </trkpt>
      <trkpt lat="49.20007" lon="6.98678">
        <ele>323</ele>
        <time>2011-04-10T08:20:14Z</time>
      </trkpt>
      <trkpt lat="49.20009" lon="6.98675">
        <ele>323</ele>
        <time>2011-04-10T08:20:16Z</time>
      </trkpt>
      <trkpt lat="49.2001" lon="6.98672">
        <ele>323</ele>
        <time>2011-04-10T08:20:18Z</time>
      </trkpt>
      <trkpt lat="49.20012" lon="6.98669">
        <ele>323</ele>
        <time>2011-04-10T08:20:20Z</time>
      </trkpt>
      <trkpt lat="49.20013" lon="6.98668">
        <ele>323</ele>
        <time>2011-04-10T08:20:21Z</time>
      </trkpt>
      <trkpt lat="49.20014" lon="6.98666">
        <ele>323</ele>
        <time>2011-04-10T08:20:22Z</time>
      </trkpt>
      <trkpt lat="49.20016" lon="6.98663">
        <ele>323</ele>
        <time>2011-04-10T08:20:24Z</time>
      </trkpt>
      <trkpt lat="49.20017" lon="6.9866">
        <ele>324</ele>
        <time>2011-04-10T08:20:26Z</time>
      </trkpt>
      <trkpt lat="49.20018" lon="6.98659">
        <ele>324</ele>
        <time>2011-04-10T08:20:27Z</time>
      </trkpt>
      <trkpt lat="49.20019" lon="6.98657">
        <ele>324</ele>
        <time>2011-04-10T08:20:28Z</time>
      </trkpt>
      <trkpt lat="49.2002" lon="6.98654">
        <ele>324</ele>
        <time>2011-04-10T08:20:30Z</time>
      </trkpt>
      <trkpt lat="49.20021" lon="6.98652">
        <ele>325</ele>
        <time>2011-04-10T08:20:31Z</time>
      </trkpt>
      <trkpt lat="49.20022" lon="6.9865">
        <ele>325</ele>
        <time>2011-04-10T08:20:32Z</time>
      </trkpt>
      <trkpt lat="49.20023" lon="6.98649">
        <ele>325</ele>
        <time>2011-04-10T08:20:33Z</time>
      </trkpt>
      <trkpt lat="49.20024" lon="6.98646">
        <ele>325</ele>
        <time>2011-04-10T08:20:35Z</time>
      </trkpt>
      <trkpt lat="49.20026" lon="6.98643">
        <ele>325</ele>
        <time>2011-04-10T08:20:37Z</time>
      </trkpt>
      <trkpt lat="49.20028" lon="6.9864">
        <ele>325</ele>
        <time>2011-04-10T08:20:39Z</time>
      </trkpt>
      <trkpt lat="49.20029" lon="6.98637">
        <ele>325</ele>
        <time>2011-04-10T08:20:41Z</time>
      </trkpt>
      <trkpt lat="49.2003" lon="6.98635">
        <ele>325</ele>
        <time>2011-04-10T08:20:42Z</time>
      </trkpt>
      <trkpt lat="49.20031" lon="6.98633">
        <ele>325</ele>
        <time>2011-04-10T08:20:43Z</time>
      </trkpt>
      <trkpt lat="49.20032" lon="6.9863">
        <ele>325</ele>
        <time>2011-04-10T08:20:45Z</time>
      </trkpt>
      <trkpt lat="49.20034" lon="6.98628">
        <ele>325</ele>
        <time>2011-04-10T08:20:47Z</time>
      </trkpt>
      <trkpt lat="49.20036" lon="6.98625">
        <ele>325</ele>
        <time>2011-04-10T08:20:49Z</time>
      </trkpt>
      <trkpt lat="49.20038" lon="6.98622">
        <ele>325</ele>
        <time>2011-04-10T08:20:51Z</time>
      </trkpt>
      <trkpt lat="49.20039" lon="6.98619">
        <ele>325</ele>
        <time>2011-04-10T08:20:53Z</time>
      </trkpt>
      <trkpt lat="49.2004" lon="6.98617">
        <ele>325</ele>
        <time>2011-04-10T08:20:55Z</time>
      </trkpt>
      <trkpt lat="49.20041" lon="6.98615">
        <ele>325</ele>
        <time>2011-04-10T08:20:56Z</time>
      </trkpt>
      <trkpt lat="49.20042" lon="6.98612">
        <ele>325</ele>
        <time>2011-04-10T08:20:58Z</time>
      </trkpt>
      <trkpt lat="49.20042" lon="6.9861">
        <ele>325</ele>
        <time>2011-04-10T08:20:59Z</time>
      </trkpt>
      <trkpt lat="49.20043" lon="6.98608">
        <ele>325</ele>
        <time>2011-04-10T08:21:00Z</time>
      </trkpt>
      <trkpt lat="49.20044" lon="6.98605">
        <ele>325</ele>
        <time>2011-04-10T08:21:02Z</time>
      </trkpt>
      <trkpt lat="49.20045" lon="6.98602">
        <ele>325</ele>
        <time>2011-04-10T08:21:04Z</time>
      </trkpt>
      <trkpt lat="49.20046" lon="6.986">
        <ele>325</ele>
        <time>2011-04-10T08:21:05Z</time>
      </trkpt>
      <trkpt lat="49.20047" lon="6.98597">
        <ele>325</ele>
        <time>2011-04-10T08:21:07Z</time>
      </trkpt>
      <trkpt lat="49.20049" lon="6.98594">
        <ele>324</ele>
        <time>2011-04-10T08:21:09Z</time>
      </trkpt>
      <trkpt lat="49.20049" lon="6.98593">
        <ele>324</ele>
        <time>2011-04-10T08:21:10Z</time>
      </trkpt>
      <trkpt lat="49.20049" lon="6.98591">
        <ele>324</ele>
        <time>2011-04-10T08:21:11Z</time>
      </trkpt>
      <trkpt lat="49.2005" lon="6.98589">
        <ele>324</ele>
        <time>2011-04-10T08:21:12Z</time>
      </trkpt>
      <trkpt lat="49.20051" lon="6.98586">
        <ele>324</ele>
        <time>2011-04-10T08:21:14Z</time>
      </trkpt>
      <trkpt lat="49.20052" lon="6.98584">
        <ele>324</ele>
        <time>2011-04-10T08:21:15Z</time>
      </trkpt>
      <trkpt lat="49.20053" lon="6.98579">
        <ele>324</ele>
        <time>2011-04-10T08:21:17Z</time>
      </trkpt>
      <trkpt lat="49.20055" lon="6.98576">
        <ele>324</ele>
        <time>2011-04-10T08:21:19Z</time>
      </trkpt>
      <trkpt lat="49.20055" lon="6.98574">
        <ele>324</ele>
        <time>2011-04-10T08:21:20Z</time>
      </trkpt>
      <trkpt lat="49.20056" lon="6.98572">
        <ele>324</ele>
        <time>2011-04-10T08:21:21Z</time>
      </trkpt>
      <trkpt lat="49.20058" lon="6.98569">
        <ele>324</ele>
        <time>2011-04-10T08:21:23Z</time>
      </trkpt>
      <trkpt lat="49.20059" lon="6.98566">
        <ele>324</ele>
        <time>2011-04-10T08:21:25Z</time>
      </trkpt>
      <trkpt lat="49.2006" lon="6.98563">
        <ele>324</ele>
        <time>2011-04-10T08:21:27Z</time>
      </trkpt>
      <trkpt lat="49.20061" lon="6.98561">
        <ele>324</ele>
        <time>2011-04-10T08:21:28Z</time>
      </trkpt>
      <trkpt lat="49.20062" lon="6.98559">
        <ele>324</ele>
        <time>2011-04-10T08:21:29Z</time>
      </trkpt>
      <trkpt lat="49.20062" lon="6.98557">
        <ele>324</ele>
        <time>2011-04-10T08:21:30Z</time>
      </trkpt>
      <trkpt lat="49.20063" lon="6.98555">
        <ele>324</ele>
        <time>2011-04-10T08:21:31Z</time>
      </trkpt>
      <trkpt lat="49.20064" lon="6.98553">
        <ele>324</ele>
        <time>2011-04-10T08:21:32Z</time>
      </trkpt>
      <trkpt lat="49.20065" lon="6.98552">
        <ele>324</ele>
        <time>2011-04-10T08:21:33Z</time>
      </trkpt>
      <trkpt lat="49.20066" lon="6.9855">
        <ele>324</ele>
        <time>2011-04-10T08:21:34Z</time>
      </trkpt>
      <trkpt lat="49.20066" lon="6.98548">
        <ele>324</ele>
        <time>2011-04-10T08:21:35Z</time>
      </trkpt>
      <trkpt lat="49.20068" lon="6.98545">
        <ele>324</ele>
        <time>2011-04-10T08:21:37Z</time>
      </trkpt>
      <trkpt lat="49.2007" lon="6.98542">
        <ele>324</ele>
        <time>2011-04-10T08:21:39Z</time>
      </trkpt>
      <trkpt lat="49.20071" lon="6.98539">
        <ele>324</ele>
        <time>2011-04-10T08:21:41Z</time>
      </trkpt>
      <trkpt lat="49.20073" lon="6.98536">
        <ele>324</ele>
        <time>2011-04-10T08:21:43Z</time>
      </trkpt>
      <trkpt lat="49.20075" lon="6.98533">
        <ele>324</ele>
        <time>2011-04-10T08:21:45Z</time>
      </trkpt>
      <trkpt lat="49.20077" lon="6.9853">
        <ele>324</ele>
        <time>2011-04-10T08:21:47Z</time>
      </trkpt>
      <trkpt lat="49.20079" lon="6.98527">
        <ele>324</ele>
        <time>2011-04-10T08:21:49Z</time>
      </trkpt>
      <trkpt lat="49.2008" lon="6.98525">
        <ele>324</ele>
        <time>2011-04-10T08:21:51Z</time>
      </trkpt>
      <trkpt lat="49.20082" lon="6.98522">
        <ele>324</ele>
        <time>2011-04-10T08:21:53Z</time>
      </trkpt>
      <trkpt lat="49.20084" lon="6.9852">
        <ele>324</ele>
        <time>2011-04-10T08:21:55Z</time>
      </trkpt>
      <trkpt lat="49.20086" lon="6.98517">
        <ele>324</ele>
        <time>2011-04-10T08:21:57Z</time>
      </trkpt>
      <trkpt lat="49.20088" lon="6.98514">
        <ele>324</ele>
        <time>2011-04-10T08:21:59Z</time>
      </trkpt>
      <trkpt lat="49.2009" lon="6.98512">
        <ele>324</ele>
        <time>2011-04-10T08:22:01Z</time>
      </trkpt>
      <trkpt lat="49.20092" lon="6.9851">
        <ele>324</ele>
        <time>2011-04-10T08:22:03Z</time>
      </trkpt>
      <trkpt lat="49.20094" lon="6.98507">
        <ele>324</ele>
        <time>2011-04-10T08:22:05Z</time>
      </trkpt>
      <trkpt lat="49.20095" lon="6.98506">
        <ele>324</ele>
        <time>2011-04-10T08:22:06Z</time>
      </trkpt>
      <trkpt lat="49.20097" lon="6.98503">
        <ele>324</ele>
        <time>2011-04-10T08:22:08Z</time>
      </trkpt>
      <trkpt lat="49.20099" lon="6.98501">
        <ele>324</ele>
        <time>2011-04-10T08:22:10Z</time>
      </trkpt>
      <trkpt lat="49.20101" lon="6.98498">
        <ele>324</ele>
        <time>2011-04-10T08:22:12Z</time>
      </trkpt>
      <trkpt lat="49.20102" lon="6.98496">
        <ele>324</ele>
        <time>2011-04-10T08:22:14Z</time>
      </trkpt>
      <trkpt lat="49.20105" lon="6.98493">
        <ele>324</ele>
        <time>2011-04-10T08:22:16Z</time>
      </trkpt>
      <trkpt lat="49.20106" lon="6.98492">
        <ele>324</ele>
        <time>2011-04-10T08:22:17Z</time>
      </trkpt>
      <trkpt lat="49.20108" lon="6.9849">
        <ele>324</ele>
        <time>2011-04-10T08:22:19Z</time>
      </trkpt>
      <trkpt lat="49.20109" lon="6.98488">
        <ele>324</ele>
        <time>2011-04-10T08:22:20Z</time>
      </trkpt>
      <trkpt lat="49.20111" lon="6.98486">
        <ele>324</ele>
        <time>2011-04-10T08:22:22Z</time>
      </trkpt>
      <trkpt lat="49.20113" lon="6.98483">
        <ele>324</ele>
        <time>2011-04-10T08:22:24Z</time>
      </trkpt>
      <trkpt lat="49.20115" lon="6.98481">
        <ele>324</ele>
        <time>2011-04-10T08:22:26Z</time>
      </trkpt>
      <trkpt lat="49.20116" lon="6.98479">
        <ele>324</ele>
        <time>2011-04-10T08:22:28Z</time>
      </trkpt>
      <trkpt lat="49.20118" lon="6.98476">
        <ele>324</ele>
        <time>2011-04-10T08:22:30Z</time>
      </trkpt>
      <trkpt lat="49.20121" lon="6.98473">
        <ele>324</ele>
        <time>2011-04-10T08:22:32Z</time>
      </trkpt>
      <trkpt lat="49.20122" lon="6.9847">
        <ele>324</ele>
        <time>2011-04-10T08:22:34Z</time>
      </trkpt>
      <trkpt lat="49.20123" lon="6.98469">
        <ele>324</ele>
        <time>2011-04-10T08:22:35Z</time>
      </trkpt>
      <trkpt lat="49.20125" lon="6.98466">
        <ele>324</ele>
        <time>2011-04-10T08:22:37Z</time>
      </trkpt>
      <trkpt lat="49.20127" lon="6.98463">
        <ele>324</ele>
        <time>2011-04-10T08:22:39Z</time>
      </trkpt>
      <trkpt lat="49.20129" lon="6.9846">
        <ele>324</ele>
        <time>2011-04-10T08:22:41Z</time>
      </trkpt>
      <trkpt lat="49.2013" lon="6.98457">
        <ele>324</ele>
        <time>2011-04-10T08:22:43Z</time>
      </trkpt>
      <trkpt lat="49.20132" lon="6.98455">
        <ele>324</ele>
        <time>2011-04-10T08:22:45Z</time>
      </trkpt>
      <trkpt lat="49.20134" lon="6.98452">
        <ele>324</ele>
        <time>2011-04-10T08:22:47Z</time>
      </trkpt>
      <trkpt lat="49.20135" lon="6.98449">
        <ele>324</ele>
        <time>2011-04-10T08:22:49Z</time>
      </trkpt>
      <trkpt lat="49.20137" lon="6.98447">
        <ele>324</ele>
        <time>2011-04-10T08:22:51Z</time>
      </trkpt>
      <trkpt lat="49.20139" lon="6.98444">
        <ele>324</ele>
        <time>2011-04-10T08:22:53Z</time>
      </trkpt>
      <trkpt lat="49.2014" lon="6.98441">
        <ele>324</ele>
        <time>2011-04-10T08:22:55Z</time>
      </trkpt>
      <trkpt lat="49.20142" lon="6.98438">
        <ele>324</ele>
        <time>2011-04-10T08:22:57Z</time>
      </trkpt>
      <trkpt lat="49.20143" lon="6.98435">
        <ele>324</ele>
        <time>2011-04-10T08:22:59Z</time>
      </trkpt>
      <trkpt lat="49.20145" lon="6.98432">
        <ele>324</ele>
        <time>2011-04-10T08:23:01Z</time>
      </trkpt>
      <trkpt lat="49.20146" lon="6.98429">
        <ele>324</ele>
        <time>2011-04-10T08:23:03Z</time>
      </trkpt>
      <trkpt lat="49.20148" lon="6.98427">
        <ele>324</ele>
        <time>2011-04-10T08:23:05Z</time>
      </trkpt>
      <trkpt lat="49.20149" lon="6.98425">
        <ele>324</ele>
        <time>2011-04-10T08:23:06Z</time>
      </trkpt>
      <trkpt lat="49.20151" lon="6.98422">
        <ele>324</ele>
        <time>2011-04-10T08:23:08Z</time>
      </trkpt>
      <trkpt lat="49.20152" lon="6.98419">
        <ele>324</ele>
        <time>2011-04-10T08:23:10Z</time>
      </trkpt>
      <trkpt lat="49.20154" lon="6.98417">
        <ele>324</ele>
        <time>2011-04-10T08:23:12Z</time>
      </trkpt>
      <trkpt lat="49.20155" lon="6.98415">
        <ele>324</ele>
        <time>2011-04-10T08:23:13Z</time>
      </trkpt>
      <trkpt lat="49.20155" lon="6.98413">
        <ele>324</ele>
        <time>2011-04-10T08:23:14Z</time>
      </trkpt>
      <trkpt lat="49.20156" lon="6.98412">
        <ele>324</ele>
        <time>2011-04-10T08:23:15Z</time>
      </trkpt>
      <trkpt lat="49.20157" lon="6.9841">
        <ele>324</ele>
        <time>2011-04-10T08:23:16Z</time>
      </trkpt>
      <trkpt lat="49.20159" lon="6.98407">
        <ele>324</ele>
        <time>2011-04-10T08:23:18Z</time>
      </trkpt>
      <trkpt lat="49.20161" lon="6.98405">
        <ele>324</ele>
        <time>2011-04-10T08:23:20Z</time>
      </trkpt>
      <trkpt lat="49.20161" lon="6.98403">
        <ele>324</ele>
        <time>2011-04-10T08:23:21Z</time>
      </trkpt>
      <trkpt lat="49.20163" lon="6.984">
        <ele>324</ele>
        <time>2011-04-10T08:23:23Z</time>
      </trkpt>
      <trkpt lat="49.20164" lon="6.98398">
        <ele>324</ele>
        <time>2011-04-10T08:23:24Z</time>
      </trkpt>
      <trkpt lat="49.20165" lon="6.98396">
        <ele>324</ele>
        <time>2011-04-10T08:23:25Z</time>
      </trkpt>
      <trkpt lat="49.20167" lon="6.98393">
        <ele>324</ele>
        <time>2011-04-10T08:23:27Z</time>
      </trkpt>
      <trkpt lat="49.20168" lon="6.9839">
        <ele>324</ele>
        <time>2011-04-10T08:23:29Z</time>
      </trkpt>
      <trkpt lat="49.2017" lon="6.98387">
        <ele>324</ele>
        <time>2011-04-10T08:23:31Z</time>
      </trkpt>
      <trkpt lat="49.20172" lon="6.98385">
        <ele>324</ele>
        <time>2011-04-10T08:23:33Z</time>
      </trkpt>
      <trkpt lat="49.20174" lon="6.98382">
        <ele>324</ele>
        <time>2011-04-10T08:23:35Z</time>
      </trkpt>
      <trkpt lat="49.20175" lon="6.98379">
        <ele>324</ele>
        <time>2011-04-10T08:23:37Z</time>
      </trkpt>
      <trkpt lat="49.20177" lon="6.98376">
        <ele>324</ele>
        <time>2011-04-10T08:23:39Z</time>
      </trkpt>
      <trkpt lat="49.20179" lon="6.98373">
        <ele>324</ele>
        <time>2011-04-10T08:23:41Z</time>
      </trkpt>
      <trkpt lat="49.2018" lon="6.9837">
        <ele>324</ele>
        <time>2011-04-10T08:23:43Z</time>
      </trkpt>
      <trkpt lat="49.20181" lon="6.98369">
        <ele>324</ele>
        <time>2011-04-10T08:23:44Z</time>
      </trkpt>
      <trkpt lat="49.20182" lon="6.98367">
        <ele>324</ele>
        <time>2011-04-10T08:23:45Z</time>
      </trkpt>
      <trkpt lat="49.20184" lon="6.98364">
        <ele>324</ele>
        <time>2011-04-10T08:23:47Z</time>
      </trkpt>
      <trkpt lat="49.20184" lon="6.98362">
        <ele>324</ele>
        <time>2011-04-10T08:23:48Z</time>
      </trkpt>
      <trkpt lat="49.20184" lon="6.9836">
        <ele>324</ele>
        <time>2011-04-10T08:23:49Z</time>
      </trkpt>
      <trkpt lat="49.20185" lon="6.98358">
        <ele>324</ele>
        <time>2011-04-10T08:23:50Z</time>
      </trkpt>
      <trkpt lat="49.20186" lon="6.98357">
        <ele>324</ele>
        <time>2011-04-10T08:23:51Z</time>
      </trkpt>
      <trkpt lat="49.20186" lon="6.98355">
        <ele>324</ele>
        <time>2011-04-10T08:23:52Z</time>
      </trkpt>
      <trkpt lat="49.20187" lon="6.98352">
        <ele>324</ele>
        <time>2011-04-10T08:23:53Z</time>
      </trkpt>
      <trkpt lat="49.20187" lon="6.9835">
        <ele>324</ele>
        <time>2011-04-10T08:23:54Z</time>
      </trkpt>
      <trkpt lat="49.20187" lon="6.98349">
        <ele>324</ele>
        <time>2011-04-10T08:23:55Z</time>
      </trkpt>
      <trkpt lat="49.20187" lon="6.98347">
        <ele>324</ele>
        <time>2011-04-10T08:23:56Z</time>
      </trkpt>
      <trkpt lat="49.20187" lon="6.98345">
        <ele>324</ele>
        <time>2011-04-10T08:23:57Z</time>
      </trkpt>
      <trkpt lat="49.20186" lon="6.98343">
        <ele>324</ele>
        <time>2011-04-10T08:23:58Z</time>
      </trkpt>
      <trkpt lat="49.20186" lon="6.98341">
        <ele>324</ele>
        <time>2011-04-10T08:23:59Z</time>
      </trkpt>
      <trkpt lat="49.20186" lon="6.98339">
        <ele>324</ele>
        <time>2011-04-10T08:24:00Z</time>
      </trkpt>
      <trkpt lat="49.20185" lon="6.98337">
        <ele>324</ele>
        <time>2011-04-10T08:24:01Z</time>
      </trkpt>
      <trkpt lat="49.20185" lon="6.98335">
        <ele>324</ele>
        <time>2011-04-10T08:24:02Z</time>
      </trkpt>
      <trkpt lat="49.20184" lon="6.98333">
        <ele>324</ele>
        <time>2011-04-10T08:24:03Z</time>
      </trkpt>
      <trkpt lat="49.20184" lon="6.98331">
        <ele>324</ele>
        <time>2011-04-10T08:24:04Z</time>
      </trkpt>
      <trkpt lat="49.20184" lon="6.9833">
        <ele>324</ele>
        <time>2011-04-10T08:24:05Z</time>
      </trkpt>
      <trkpt lat="49.20183" lon="6.98328">
        <ele>324</ele>
        <time>2011-04-10T08:24:06Z</time>
      </trkpt>
      <trkpt lat="49.20183" lon="6.98326">
        <ele>324</ele>
        <time>2011-04-10T08:24:07Z</time>
      </trkpt>
      <trkpt lat="49.20182" lon="6.98325">
        <ele>324</ele>
        <time>2011-04-10T08:24:08Z</time>
      </trkpt>
      <trkpt lat="49.20182" lon="6.98323">
        <ele>324</ele>
        <time>2011-04-10T08:24:09Z</time>
      </trkpt>
      <trkpt lat="49.20181" lon="6.98321">
        <ele>324</ele>
        <time>2011-04-10T08:24:10Z</time>
      </trkpt>
      <trkpt lat="49.20181" lon="6.98318">
        <ele>324</ele>
        <time>2011-04-10T08:24:12Z</time>
      </trkpt>
      <trkpt lat="49.20179" lon="6.98315">
        <ele>324</ele>
        <time>2011-04-10T08:24:14Z</time>
      </trkpt>
      <trkpt lat="49.20178" lon="6.98312">
        <ele>324</ele>
        <time>2011-04-10T08:24:16Z</time>
      </trkpt>
      <trkpt lat="49.20177" lon="6.98309">
        <ele>324</ele>
        <time>2011-04-10T08:24:18Z</time>
      </trkpt>
      <trkpt lat="49.20176" lon="6.98308">
        <ele>324</ele>
        <time>2011-04-10T08:24:19Z</time>
      </trkpt>
      <trkpt lat="49.20176" lon="6.98306">
        <ele>324</ele>
        <time>2011-04-10T08:24:20Z</time>
      </trkpt>
      <trkpt lat="49.20175" lon="6.98304">
        <ele>324</ele>
        <time>2011-04-10T08:24:21Z</time>
      </trkpt>
      <trkpt lat="49.20175" lon="6.98303">
        <ele>323</ele>
        <time>2011-04-10T08:24:22Z</time>
      </trkpt>
      <trkpt lat="49.20174" lon="6.983">
        <ele>323</ele>
        <time>2011-04-10T08:24:24Z</time>
      </trkpt>
      <trkpt lat="49.20174" lon="6.98298">
        <ele>322</ele>
        <time>2011-04-10T08:24:25Z</time>
      </trkpt>
      <trkpt lat="49.20173" lon="6.98295">
        <ele>322</ele>
        <time>2011-04-10T08:24:27Z</time>
      </trkpt>
      <trkpt lat="49.20172" lon="6.98293">
        <ele>322</ele>
        <time>2011-04-10T08:24:28Z</time>
      </trkpt>
      <trkpt lat="49.20171" lon="6.98291">
        <ele>322</ele>
        <time>2011-04-10T08:24:29Z</time>
      </trkpt>
      <trkpt lat="49.20169" lon="6.98289">
        <ele>322</ele>
        <time>2011-04-10T08:24:30Z</time>
      </trkpt>
      <trkpt lat="49.20167" lon="6.98287">
        <ele>322</ele>
        <time>2011-04-10T08:24:32Z</time>
      </trkpt>
      <trkpt lat="49.20166" lon="6.98284">
        <ele>322</ele>
        <time>2011-04-10T08:24:34Z</time>
      </trkpt>
      <trkpt lat="49.20165" lon="6.98282">
        <ele>322</ele>
        <time>2011-04-10T08:24:35Z</time>
      </trkpt>
      <trkpt lat="49.20164" lon="6.9828">
        <ele>322</ele>
        <time>2011-04-10T08:24:36Z</time>
      </trkpt>
      <trkpt lat="49.20163" lon="6.98278">
        <ele>322</ele>
        <time>2011-04-10T08:24:38Z</time>
      </trkpt>
      <trkpt lat="49.20163" lon="6.98276">
        <ele>322</ele>
        <time>2011-04-10T08:24:39Z</time>
      </trkpt>
      <trkpt lat="49.20163" lon="6.98274">
        <ele>322</ele>
        <time>2011-04-10T08:24:40Z</time>
      </trkpt>
      <trkpt lat="49.20162" lon="6.98273">
        <ele>322</ele>
        <time>2011-04-10T08:24:41Z</time>
      </trkpt>
      <trkpt lat="49.20161" lon="6.98271">
        <ele>322</ele>
        <time>2011-04-10T08:24:42Z</time>
      </trkpt>
      <trkpt lat="49.20161" lon="6.98269">
        <ele>322</ele>
        <time>2011-04-10T08:24:43Z</time>
      </trkpt>
      <trkpt lat="49.2016" lon="6.98266">
        <ele>321</ele>
        <time>2011-04-10T08:24:45Z</time>
      </trkpt>
      <trkpt lat="49.20159" lon="6.98265">
        <ele>321</ele>
        <time>2011-04-10T08:24:46Z</time>
      </trkpt>
      <trkpt lat="49.20158" lon="6.98261">
        <ele>321</ele>
        <time>2011-04-10T08:24:48Z</time>
      </trkpt>
      <trkpt lat="49.20157" lon="6.9826">
        <ele>320</ele>
        <time>2011-04-10T08:24:49Z</time>
      </trkpt>
      <trkpt lat="49.20157" lon="6.98258">
        <ele>320</ele>
        <time>2011-04-10T08:24:50Z</time>
      </trkpt>
      <trkpt lat="49.20156" lon="6.98256">
        <ele>320</ele>
        <time>2011-04-10T08:24:51Z</time>
      </trkpt>
      <trkpt lat="49.20155" lon="6.98254">
        <ele>320</ele>
        <time>2011-04-10T08:24:52Z</time>
      </trkpt>
      <trkpt lat="49.20155" lon="6.98253">
        <ele>320</ele>
        <time>2011-04-10T08:24:53Z</time>
      </trkpt>
      <trkpt lat="49.20153" lon="6.9825">
        <ele>320</ele>
        <time>2011-04-10T08:24:55Z</time>
      </trkpt>
      <trkpt lat="49.20153" lon="6.98248">
        <ele>320</ele>
        <time>2011-04-10T08:24:56Z</time>
      </trkpt>
      <trkpt lat="49.20151" lon="6.98245">
        <ele>319</ele>
        <time>2011-04-10T08:24:58Z</time>
      </trkpt>
      <trkpt lat="49.2015" lon="6.98242">
        <ele>319</ele>
        <time>2011-04-10T08:25:00Z</time>
      </trkpt>
      <trkpt lat="49.20149" lon="6.98241">
        <ele>319</ele>
        <time>2011-04-10T08:25:01Z</time>
      </trkpt>
      <trkpt lat="49.20149" lon="6.98239">
        <ele>319</ele>
        <time>2011-04-10T08:25:02Z</time>
      </trkpt>
      <trkpt lat="49.20148" lon="6.98237">
        <ele>318</ele>
        <time>2011-04-10T08:25:03Z</time>
      </trkpt>
      <trkpt lat="49.20147" lon="6.98236">
        <ele>318</ele>
        <time>2011-04-10T08:25:04Z</time>
      </trkpt>
      <trkpt lat="49.20147" lon="6.98234">
        <ele>318</ele>
        <time>2011-04-10T08:25:05Z</time>
      </trkpt>
      <trkpt lat="49.20146" lon="6.98232">
        <ele>318</ele>
        <time>2011-04-10T08:25:06Z</time>
      </trkpt>
      <trkpt lat="49.20145" lon="6.98229">
        <ele>318</ele>
        <time>2011-04-10T08:25:08Z</time>
      </trkpt>
      <trkpt lat="49.20144" lon="6.98226">
        <ele>317</ele>
        <time>2011-04-10T08:25:10Z</time>
      </trkpt>
      <trkpt lat="49.20143" lon="6.98223">
        <ele>317</ele>
        <time>2011-04-10T08:25:12Z</time>
      </trkpt>
      <trkpt lat="49.20142" lon="6.98221">
        <ele>317</ele>
        <time>2011-04-10T08:25:13Z</time>
      </trkpt>
      <trkpt lat="49.20142" lon="6.98219">
        <ele>317</ele>
        <time>2011-04-10T08:25:14Z</time>
      </trkpt>
      <trkpt lat="49.2014" lon="6.98217">
        <ele>317</ele>
        <time>2011-04-10T08:25:15Z</time>
      </trkpt>
      <trkpt lat="49.2014" lon="6.98216">
        <ele>317</ele>
        <time>2011-04-10T08:25:16Z</time>
      </trkpt>
      <trkpt lat="49.20139" lon="6.98214">
        <ele>317</ele>
        <time>2011-04-10T08:25:17Z</time>
      </trkpt>
      <trkpt lat="49.20138" lon="6.98212">
        <ele>317</ele>
        <time>2011-04-10T08:25:18Z</time>
      </trkpt>
      <trkpt lat="49.20136" lon="6.98209">
        <ele>317</ele>
        <time>2011-04-10T08:25:20Z</time>
      </trkpt>
      <trkpt lat="49.20135" lon="6.98208">
        <ele>317</ele>
        <time>2011-04-10T08:25:21Z</time>
      </trkpt>
      <trkpt lat="49.20134" lon="6.98204">
        <ele>317</ele>
        <time>2011-04-10T08:25:23Z</time>
      </trkpt>
      <trkpt lat="49.20134" lon="6.98203">
        <ele>317</ele>
        <time>2011-04-10T08:25:24Z</time>
      </trkpt>
      <trkpt lat="49.20133" lon="6.98201">
        <ele>317</ele>
        <time>2011-04-10T08:25:25Z</time>
      </trkpt>
      <trkpt lat="49.20131" lon="6.98198">
        <ele>317</ele>
        <time>2011-04-10T08:25:27Z</time>
      </trkpt>
      <trkpt lat="49.2013" lon="6.98196">
        <ele>317</ele>
        <time>2011-04-10T08:25:28Z</time>
      </trkpt>
      <trkpt lat="49.20129" lon="6.98193">
        <ele>317</ele>
        <time>2011-04-10T08:25:30Z</time>
      </trkpt>
      <trkpt lat="49.20128" lon="6.98191">
        <ele>317</ele>
        <time>2011-04-10T08:25:31Z</time>
      </trkpt>
      <trkpt lat="49.20128" lon="6.9819">
        <ele>317</ele>
        <time>2011-04-10T08:25:32Z</time>
      </trkpt>
      <trkpt lat="49.20127" lon="6.98188">
        <ele>317</ele>
        <time>2011-04-10T08:25:33Z</time>
      </trkpt>
      <trkpt lat="49.20126" lon="6.98186">
        <ele>317</ele>
        <time>2011-04-10T08:25:34Z</time>
      </trkpt>
      <trkpt lat="49.20126" lon="6.98184">
        <ele>317</ele>
        <time>2011-04-10T08:25:35Z</time>
      </trkpt>
      <trkpt lat="49.20125" lon="6.98183">
        <ele>317</ele>
        <time>2011-04-10T08:25:36Z</time>
      </trkpt>
      <trkpt lat="49.20124" lon="6.98181">
        <ele>316</ele>
        <time>2011-04-10T08:25:37Z</time>
      </trkpt>
      <trkpt lat="49.20124" lon="6.98179">
        <ele>316</ele>
        <time>2011-04-10T08:25:38Z</time>
      </trkpt>
      <trkpt lat="49.20123" lon="6.98177">
        <ele>316</ele>
        <time>2011-04-10T08:25:39Z</time>
      </trkpt>
      <trkpt lat="49.20122" lon="6.98175">
        <ele>316</ele>
        <time>2011-04-10T08:25:40Z</time>
      </trkpt>
      <trkpt lat="49.20121" lon="6.98173">
        <ele>316</ele>
        <time>2011-04-10T08:25:41Z</time>
      </trkpt>
      <trkpt lat="49.20121" lon="6.98171">
        <ele>316</ele>
        <time>2011-04-10T08:25:42Z</time>
      </trkpt>
      <trkpt lat="49.20119" lon="6.9817">
        <ele>316</ele>
        <time>2011-04-10T08:25:43Z</time>
      </trkpt>
      <trkpt lat="49.20118" lon="6.98168">
        <ele>316</ele>
        <time>2011-04-10T08:25:44Z</time>
      </trkpt>
      <trkpt lat="49.20117" lon="6.98166">
        <ele>316</ele>
        <time>2011-04-10T08:25:45Z</time>
      </trkpt>
      <trkpt lat="49.20116" lon="6.98163">
        <ele>316</ele>
        <time>2011-04-10T08:25:47Z</time>
      </trkpt>
      <trkpt lat="49.20115" lon="6.98161">
        <ele>316</ele>
        <time>2011-04-10T08:25:48Z</time>
      </trkpt>
      <trkpt lat="49.20113" lon="6.98158">
        <ele>316</ele>
        <time>2011-04-10T08:25:50Z</time>
      </trkpt>
      <trkpt lat="49.20112" lon="6.98155">
        <ele>316</ele>
        <time>2011-04-10T08:25:52Z</time>
      </trkpt>
      <trkpt lat="49.20111" lon="6.98153">
        <ele>316</ele>
        <time>2011-04-10T08:25:53Z</time>
      </trkpt>
      <trkpt lat="49.20111" lon="6.98151">
        <ele>316</ele>
        <time>2011-04-10T08:25:54Z</time>
      </trkpt>
      <trkpt lat="49.2011" lon="6.9815">
        <ele>316</ele>
        <time>2011-04-10T08:25:55Z</time>
      </trkpt>
      <trkpt lat="49.20109" lon="6.98148">
        <ele>316</ele>
        <time>2011-04-10T08:25:56Z</time>
      </trkpt>
      <trkpt lat="49.20108" lon="6.98147">
        <ele>316</ele>
        <time>2011-04-10T08:25:57Z</time>
      </trkpt>
      <trkpt lat="49.20107" lon="6.98145">
        <ele>316</ele>
        <time>2011-04-10T08:25:58Z</time>
      </trkpt>
      <trkpt lat="49.20106" lon="6.98143">
        <ele>316</ele>
        <time>2011-04-10T08:25:59Z</time>
      </trkpt>
      <trkpt lat="49.20105" lon="6.98142">
        <ele>316</ele>
        <time>2011-04-10T08:26:00Z</time>
      </trkpt>
      <trkpt lat="49.20103" lon="6.98141">
        <ele>316</ele>
        <time>2011-04-10T08:26:01Z</time>
      </trkpt>
      <trkpt lat="49.20101" lon="6.98138">
        <ele>316</ele>
        <time>2011-04-10T08:26:03Z</time>
      </trkpt>
      <trkpt lat="49.201" lon="6.98136">
        <ele>316</ele>
        <time>2011-04-10T08:26:04Z</time>
      </trkpt>
      <trkpt lat="49.20099" lon="6.98133">
        <ele>316</ele>
        <time>2011-04-10T08:26:06Z</time>
      </trkpt>
      <trkpt lat="49.20097" lon="6.9813">
        <ele>316</ele>
        <time>2011-04-10T08:26:08Z</time>
      </trkpt>
      <trkpt lat="49.20095" lon="6.98127">
        <ele>316</ele>
        <time>2011-04-10T08:26:10Z</time>
      </trkpt>
      <trkpt lat="49.20094" lon="6.98125">
        <ele>316</ele>
        <time>2011-04-10T08:26:12Z</time>
      </trkpt>
      <trkpt lat="49.20094" lon="6.98122">
        <ele>316</ele>
        <time>2011-04-10T08:26:14Z</time>
      </trkpt>
      <trkpt lat="49.20093" lon="6.9812">
        <ele>315</ele>
        <time>2011-04-10T08:26:16Z</time>
      </trkpt>
      <trkpt lat="49.20092" lon="6.98118">
        <ele>315</ele>
        <time>2011-04-10T08:26:17Z</time>
      </trkpt>
      <trkpt lat="49.20092" lon="6.98116">
        <ele>314</ele>
        <time>2011-04-10T08:26:18Z</time>
      </trkpt>
      <trkpt lat="49.20092" lon="6.98114">
        <ele>313</ele>
        <time>2011-04-10T08:26:19Z</time>
      </trkpt>
      <trkpt lat="49.20091" lon="6.98113">
        <ele>313</ele>
        <time>2011-04-10T08:26:20Z</time>
      </trkpt>
      <trkpt lat="49.20091" lon="6.98111">
        <ele>312</ele>
        <time>2011-04-10T08:26:21Z</time>
      </trkpt>
      <trkpt lat="49.2009" lon="6.9811">
        <ele>312</ele>
        <time>2011-04-10T08:26:22Z</time>
      </trkpt>
      <trkpt lat="49.20089" lon="6.98107">
        <ele>311</ele>
        <time>2011-04-10T08:26:24Z</time>
      </trkpt>
      <trkpt lat="49.20087" lon="6.98104">
        <ele>311</ele>
        <time>2011-04-10T08:26:26Z</time>
      </trkpt>
      <trkpt lat="49.20086" lon="6.98102">
        <ele>310</ele>
        <time>2011-04-10T08:26:28Z</time>
      </trkpt>
      <trkpt lat="49.20085" lon="6.98099">
        <ele>308</ele>
        <time>2011-04-10T08:26:30Z</time>
      </trkpt>
      <trkpt lat="49.20085" lon="6.98097">
        <ele>307</ele>
        <time>2011-04-10T08:26:32Z</time>
      </trkpt>
      <trkpt lat="49.20084" lon="6.98094">
        <ele>305</ele>
        <time>2011-04-10T08:26:34Z</time>
      </trkpt>
      <trkpt lat="49.20084" lon="6.98092">
        <ele>304</ele>
        <time>2011-04-10T08:26:36Z</time>
      </trkpt>
      <trkpt lat="49.20082" lon="6.9809">
        <ele>303</ele>
        <time>2011-04-10T08:26:38Z</time>
      </trkpt>
      <trkpt lat="49.20081" lon="6.98087">
        <ele>301</ele>
        <time>2011-04-10T08:26:40Z</time>
      </trkpt>
      <trkpt lat="49.2008" lon="6.98084">
        <ele>300</ele>
        <time>2011-04-10T08:26:42Z</time>
      </trkpt>
      <trkpt lat="49.20079" lon="6.9808">
        <ele>300</ele>
        <time>2011-04-10T08:26:44Z</time>
      </trkpt>
      <trkpt lat="49.20079" lon="6.98078">
        <ele>300</ele>
        <time>2011-04-10T08:26:45Z</time>
      </trkpt>
      <trkpt lat="49.20079" lon="6.98076">
        <ele>300</ele>
        <time>2011-04-10T08:26:46Z</time>
      </trkpt>
      <trkpt lat="49.20078" lon="6.98074">
        <ele>300</ele>
        <time>2011-04-10T08:26:47Z</time>
      </trkpt>
      <trkpt lat="49.20077" lon="6.98073">
        <ele>300</ele>
        <time>2011-04-10T08:26:48Z</time>
      </trkpt>
      <trkpt lat="49.20076" lon="6.98071">
        <ele>300</ele>
        <time>2011-04-10T08:26:49Z</time>
      </trkpt>
      <trkpt lat="49.20076" lon="6.98069">
        <ele>300</ele>
        <time>2011-04-10T08:26:50Z</time>
      </trkpt>
      <trkpt lat="49.20075" lon="6.98067">
        <ele>300</ele>
        <time>2011-04-10T08:26:51Z</time>
      </trkpt>
      <trkpt lat="49.20075" lon="6.98065">
        <ele>300</ele>
        <time>2011-04-10T08:26:52Z</time>
      </trkpt>
      <trkpt lat="49.20075" lon="6.98063">
        <ele>300</ele>
        <time>2011-04-10T08:26:53Z</time>
      </trkpt>
      <trkpt lat="49.20073" lon="6.9806">
        <ele>300</ele>
        <time>2011-04-10T08:26:55Z</time>
      </trkpt>
      <trkpt lat="49.20073" lon="6.98058">
        <ele>300</ele>
        <time>2011-04-10T08:26:56Z</time>
      </trkpt>
      <trkpt lat="49.20073" lon="6.98057">
        <ele>300</ele>
        <time>2011-04-10T08:26:57Z</time>
      </trkpt>
      <trkpt lat="49.20072" lon="6.98055">
        <ele>300</ele>
        <time>2011-04-10T08:26:58Z</time>
      </trkpt>
      <trkpt lat="49.20071" lon="6.98053">
        <ele>300</ele>
        <time>2011-04-10T08:26:59Z</time>
      </trkpt>
      <trkpt lat="49.2007" lon="6.9805">
        <ele>300</ele>
        <time>2011-04-10T08:27:01Z</time>
      </trkpt>
      <trkpt lat="49.20069" lon="6.98047">
        <ele>300</ele>
        <time>2011-04-10T08:27:03Z</time>
      </trkpt>
      <trkpt lat="49.20068" lon="6.98045">
        <ele>300</ele>
        <time>2011-04-10T08:27:04Z</time>
      </trkpt>
      <trkpt lat="49.20067" lon="6.98043">
        <ele>300</ele>
        <time>2011-04-10T08:27:05Z</time>
      </trkpt>
      <trkpt lat="49.20066" lon="6.98039">
        <ele>300</ele>
        <time>2011-04-10T08:27:06Z</time>
      </trkpt>
      <trkpt lat="49.20065" lon="6.98037">
        <ele>300</ele>
        <time>2011-04-10T08:27:07Z</time>
      </trkpt>
      <trkpt lat="49.20063" lon="6.98036">
        <ele>300</ele>
        <time>2011-04-10T08:27:08Z</time>
      </trkpt>
      <trkpt lat="49.20063" lon="6.98033">
        <ele>300</ele>
        <time>2011-04-10T08:27:09Z</time>
      </trkpt>
      <trkpt lat="49.20061" lon="6.9803">
        <ele>300</ele>
        <time>2011-04-10T08:27:10Z</time>
      </trkpt>
      <trkpt lat="49.20061" lon="6.98027">
        <ele>300</ele>
        <time>2011-04-10T08:27:11Z</time>
      </trkpt>
      <trkpt lat="49.20061" lon="6.98025">
        <ele>301</ele>
        <time>2011-04-10T08:27:12Z</time>
      </trkpt>
      <trkpt lat="49.2006" lon="6.98023">
        <ele>302</ele>
        <time>2011-04-10T08:27:14Z</time>
      </trkpt>
      <trkpt lat="49.20058" lon="6.9802">
        <ele>302</ele>
        <time>2011-04-10T08:27:16Z</time>
      </trkpt>
      <trkpt lat="49.20057" lon="6.98017">
        <ele>302</ele>
        <time>2011-04-10T08:27:18Z</time>
      </trkpt>
      <trkpt lat="49.20056" lon="6.98015">
        <ele>302</ele>
        <time>2011-04-10T08:27:19Z</time>
      </trkpt>
      <trkpt lat="49.20056" lon="6.98013">
        <ele>302</ele>
        <time>2011-04-10T08:27:20Z</time>
      </trkpt>
      <trkpt lat="49.20055" lon="6.98011">
        <ele>302</ele>
        <time>2011-04-10T08:27:21Z</time>
      </trkpt>
      <trkpt lat="49.20054" lon="6.98009">
        <ele>302</ele>
        <time>2011-04-10T08:27:23Z</time>
      </trkpt>
      <trkpt lat="49.20053" lon="6.98006">
        <ele>302</ele>
        <time>2011-04-10T08:27:25Z</time>
      </trkpt>
      <trkpt lat="49.20052" lon="6.98003">
        <ele>302</ele>
        <time>2011-04-10T08:27:27Z</time>
      </trkpt>
      <trkpt lat="49.20051" lon="6.98">
        <ele>301</ele>
        <time>2011-04-10T08:27:29Z</time>
      </trkpt>
      <trkpt lat="49.2005" lon="6.97998">
        <ele>300</ele>
        <time>2011-04-10T08:27:30Z</time>
      </trkpt>
      <trkpt lat="49.2005" lon="6.97996">
        <ele>300</ele>
        <time>2011-04-10T08:27:31Z</time>
      </trkpt>
      <trkpt lat="49.20049" lon="6.97993">
        <ele>300</ele>
        <time>2011-04-10T08:27:33Z</time>
      </trkpt>
      <trkpt lat="49.20048" lon="6.9799">
        <ele>299</ele>
        <time>2011-04-10T08:27:35Z</time>
      </trkpt>
      <trkpt lat="49.20048" lon="6.97988">
        <ele>299</ele>
        <time>2011-04-10T08:27:36Z</time>
      </trkpt>
      <trkpt lat="49.20047" lon="6.97985">
        <ele>299</ele>
        <time>2011-04-10T08:27:38Z</time>
      </trkpt>
      <trkpt lat="49.20046" lon="6.97983">
        <ele>299</ele>
        <time>2011-04-10T08:27:39Z</time>
      </trkpt>
      <trkpt lat="49.20045" lon="6.97981">
        <ele>299</ele>
        <time>2011-04-10T08:27:40Z</time>
      </trkpt>
      <trkpt lat="49.20045" lon="6.97979">
        <ele>299</ele>
        <time>2011-04-10T08:27:41Z</time>
      </trkpt>
      <trkpt lat="49.20044" lon="6.97977">
        <ele>299</ele>
        <time>2011-04-10T08:27:42Z</time>
      </trkpt>
      <trkpt lat="49.20044" lon="6.97975">
        <ele>299</ele>
        <time>2011-04-10T08:27:43Z</time>
      </trkpt>
      <trkpt lat="49.20044" lon="6.97973">
        <ele>299</ele>
        <time>2011-04-10T08:27:44Z</time>
      </trkpt>
      <trkpt lat="49.20043" lon="6.97971">
        <ele>299</ele>
        <time>2011-04-10T08:27:45Z</time>
      </trkpt>
      <trkpt lat="49.20043" lon="6.9797">
        <ele>299</ele>
        <time>2011-04-10T08:27:46Z</time>
      </trkpt>
      <trkpt lat="49.20043" lon="6.97968">
        <ele>299</ele>
        <time>2011-04-10T08:27:47Z</time>
      </trkpt>
      <trkpt lat="49.20042" lon="6.97966">
        <ele>299</ele>
        <time>2011-04-10T08:27:48Z</time>
      </trkpt>
      <trkpt lat="49.20042" lon="6.97964">
        <ele>299</ele>
        <time>2011-04-10T08:27:49Z</time>
      </trkpt>
      <trkpt lat="49.20042" lon="6.97962">
        <ele>299</ele>
        <time>2011-04-10T08:27:50Z</time>
      </trkpt>
      <trkpt lat="49.20042" lon="6.9796">
        <ele>298</ele>
        <time>2011-04-10T08:27:51Z</time>
      </trkpt>
      <trkpt lat="49.20042" lon="6.97958">
        <ele>298</ele>
        <time>2011-04-10T08:27:52Z</time>
      </trkpt>
      <trkpt lat="49.20042" lon="6.97956">
        <ele>298</ele>
        <time>2011-04-10T08:27:53Z</time>
      </trkpt>
      <trkpt lat="49.20042" lon="6.97954">
        <ele>298</ele>
        <time>2011-04-10T08:27:54Z</time>
      </trkpt>
      <trkpt lat="49.20042" lon="6.97952">
        <ele>298</ele>
        <time>2011-04-10T08:27:55Z</time>
      </trkpt>
      <trkpt lat="49.20042" lon="6.9795">
        <ele>298</ele>
        <time>2011-04-10T08:27:56Z</time>
      </trkpt>
      <trkpt lat="49.20042" lon="6.97948">
        <ele>298</ele>
        <time>2011-04-10T08:27:57Z</time>
      </trkpt>
      <trkpt lat="49.20042" lon="6.97946">
        <ele>297</ele>
        <time>2011-04-10T08:27:58Z</time>
      </trkpt>
      <trkpt lat="49.20042" lon="6.97944">
        <ele>297</ele>
        <time>2011-04-10T08:27:59Z</time>
      </trkpt>
      <trkpt lat="49.20042" lon="6.97942">
        <ele>297</ele>
        <time>2011-04-10T08:28:00Z</time>
      </trkpt>
      <trkpt lat="49.20042" lon="6.9794">
        <ele>297</ele>
        <time>2011-04-10T08:28:01Z</time>
      </trkpt>
      <trkpt lat="49.20043" lon="6.97938">
        <ele>297</ele>
        <time>2011-04-10T08:28:02Z</time>
      </trkpt>
      <trkpt lat="49.20043" lon="6.97936">
        <ele>297</ele>
        <time>2011-04-10T08:28:03Z</time>
      </trkpt>
      <trkpt lat="49.20043" lon="6.97934">
        <ele>297</ele>
        <time>2011-04-10T08:28:04Z</time>
      </trkpt>
      <trkpt lat="49.20043" lon="6.97932">
        <ele>297</ele>
        <time>2011-04-10T08:28:05Z</time>
      </trkpt>
      <trkpt lat="49.20043" lon="6.9793">
        <ele>297</ele>
        <time>2011-04-10T08:28:06Z</time>
      </trkpt>
      <trkpt lat="49.20043" lon="6.97927">
        <ele>297</ele>
        <time>2011-04-10T08:28:07Z</time>
      </trkpt>
      <trkpt lat="49.20043" lon="6.97925">
        <ele>297</ele>
        <time>2011-04-10T08:28:08Z</time>
      </trkpt>
      <trkpt lat="49.20043" lon="6.97922">
        <ele>297</ele>
        <time>2011-04-10T08:28:09Z</time>
      </trkpt>
      <trkpt lat="49.20043" lon="6.9792">
        <ele>297</ele>
        <time>2011-04-10T08:28:10Z</time>
      </trkpt>
      <trkpt lat="49.20043" lon="6.97918">
        <ele>297</ele>
        <time>2011-04-10T08:28:11Z</time>
      </trkpt>
      <trkpt lat="49.20043" lon="6.97916">
        <ele>297</ele>
        <time>2011-04-10T08:28:12Z</time>
      </trkpt>
      <trkpt lat="49.20043" lon="6.97914">
        <ele>297</ele>
        <time>2011-04-10T08:28:13Z</time>
      </trkpt>
      <trkpt lat="49.20043" lon="6.97912">
        <ele>297</ele>
        <time>2011-04-10T08:28:15Z</time>
      </trkpt>
      <trkpt lat="49.20044" lon="6.97908">
        <ele>297</ele>
        <time>2011-04-10T08:28:17Z</time>
      </trkpt>
      <trkpt lat="49.20044" lon="6.97906">
        <ele>297</ele>
        <time>2011-04-10T08:28:18Z</time>
      </trkpt>
      <trkpt lat="49.20044" lon="6.97904">
        <ele>297</ele>
        <time>2011-04-10T08:28:19Z</time>
      </trkpt>
      <trkpt lat="49.20044" lon="6.97903">
        <ele>297</ele>
        <time>2011-04-10T08:28:20Z</time>
      </trkpt>
      <trkpt lat="49.20045" lon="6.979">
        <ele>297</ele>
        <time>2011-04-10T08:28:21Z</time>
      </trkpt>
      <trkpt lat="49.20045" lon="6.97898">
        <ele>297</ele>
        <time>2011-04-10T08:28:22Z</time>
      </trkpt>
      <trkpt lat="49.20045" lon="6.97896">
        <ele>297</ele>
        <time>2011-04-10T08:28:23Z</time>
      </trkpt>
      <trkpt lat="49.20046" lon="6.97894">
        <ele>297</ele>
        <time>2011-04-10T08:28:24Z</time>
      </trkpt>
      <trkpt lat="49.20046" lon="6.97893">
        <ele>297</ele>
        <time>2011-04-10T08:28:25Z</time>
      </trkpt>
      <trkpt lat="49.20046" lon="6.97891">
        <ele>297</ele>
        <time>2011-04-10T08:28:26Z</time>
      </trkpt>
      <trkpt lat="49.20046" lon="6.97889">
        <ele>297</ele>
        <time>2011-04-10T08:28:27Z</time>
      </trkpt>
      <trkpt lat="49.20046" lon="6.97887">
        <ele>297</ele>
        <time>2011-04-10T08:28:28Z</time>
      </trkpt>
      <trkpt lat="49.20046" lon="6.97885">
        <ele>297</ele>
        <time>2011-04-10T08:28:29Z</time>
      </trkpt>
      <trkpt lat="49.20046" lon="6.97884">
        <ele>297</ele>
        <time>2011-04-10T08:28:30Z</time>
      </trkpt>
      <trkpt lat="49.20047" lon="6.97882">
        <ele>297</ele>
        <time>2011-04-10T08:28:31Z</time>
      </trkpt>
      <trkpt lat="49.20047" lon="6.9788">
        <ele>297</ele>
        <time>2011-04-10T08:28:32Z</time>
      </trkpt>
      <trkpt lat="49.20047" lon="6.97878">
        <ele>297</ele>
        <time>2011-04-10T08:28:33Z</time>
      </trkpt>
      <trkpt lat="49.20047" lon="6.97874">
        <ele>297</ele>
        <time>2011-04-10T08:28:35Z</time>
      </trkpt>
      <trkpt lat="49.20047" lon="6.97873">
        <ele>297</ele>
        <time>2011-04-10T08:28:36Z</time>
      </trkpt>
      <trkpt lat="49.20047" lon="6.97871">
        <ele>297</ele>
        <time>2011-04-10T08:28:37Z</time>
      </trkpt>
      <trkpt lat="49.20047" lon="6.97868">
        <ele>297</ele>
        <time>2011-04-10T08:28:38Z</time>
      </trkpt>
      <trkpt lat="49.20047" lon="6.97866">
        <ele>297</ele>
        <time>2011-04-10T08:28:39Z</time>
      </trkpt>
      <trkpt lat="49.20047" lon="6.97865">
        <ele>297</ele>
        <time>2011-04-10T08:28:40Z</time>
      </trkpt>
      <trkpt lat="49.20047" lon="6.97863">
        <ele>297</ele>
        <time>2011-04-10T08:28:41Z</time>
      </trkpt>
      <trkpt lat="49.20047" lon="6.97861">
        <ele>297</ele>
        <time>2011-04-10T08:28:42Z</time>
      </trkpt>
      <trkpt lat="49.20048" lon="6.97858">
        <ele>297</ele>
        <time>2011-04-10T08:28:43Z</time>
      </trkpt>
      <trkpt lat="49.20048" lon="6.97856">
        <ele>297</ele>
        <time>2011-04-10T08:28:44Z</time>
      </trkpt>
      <trkpt lat="49.20048" lon="6.97854">
        <ele>297</ele>
        <time>2011-04-10T08:28:45Z</time>
      </trkpt>
      <trkpt lat="49.20048" lon="6.97851">
        <ele>297</ele>
        <time>2011-04-10T08:28:46Z</time>
      </trkpt>
      <trkpt lat="49.20048" lon="6.97849">
        <ele>297</ele>
        <time>2011-04-10T08:28:47Z</time>
      </trkpt>
      <trkpt lat="49.20048" lon="6.97847">
        <ele>297</ele>
        <time>2011-04-10T08:28:48Z</time>
      </trkpt>
      <trkpt lat="49.20048" lon="6.97845">
        <ele>298</ele>
        <time>2011-04-10T08:28:49Z</time>
      </trkpt>
      <trkpt lat="49.20048" lon="6.97843">
        <ele>298</ele>
        <time>2011-04-10T08:28:50Z</time>
      </trkpt>
      <trkpt lat="49.20048" lon="6.9784">
        <ele>298</ele>
        <time>2011-04-10T08:28:51Z</time>
      </trkpt>
      <trkpt lat="49.20048" lon="6.97838">
        <ele>298</ele>
        <time>2011-04-10T08:28:52Z</time>
      </trkpt>
      <trkpt lat="49.20048" lon="6.97836">
        <ele>298</ele>
        <time>2011-04-10T08:28:53Z</time>
      </trkpt>
      <trkpt lat="49.20048" lon="6.97834">
        <ele>298</ele>
        <time>2011-04-10T08:28:54Z</time>
      </trkpt>
      <trkpt lat="49.20047" lon="6.97832">
        <ele>298</ele>
        <time>2011-04-10T08:28:55Z</time>
      </trkpt>
      <trkpt lat="49.20047" lon="6.9783">
        <ele>298</ele>
        <time>2011-04-10T08:28:56Z</time>
      </trkpt>
      <trkpt lat="49.20047" lon="6.97828">
        <ele>298</ele>
        <time>2011-04-10T08:28:57Z</time>
      </trkpt>
      <trkpt lat="49.20047" lon="6.97827">
        <ele>298</ele>
        <time>2011-04-10T08:28:58Z</time>
      </trkpt>
      <trkpt lat="49.20047" lon="6.97825">
        <ele>298</ele>
        <time>2011-04-10T08:28:59Z</time>
      </trkpt>
      <trkpt lat="49.20047" lon="6.97823">
        <ele>298</ele>
        <time>2011-04-10T08:29:00Z</time>
      </trkpt>
      <trkpt lat="49.20047" lon="6.97821">
        <ele>298</ele>
        <time>2011-04-10T08:29:01Z</time>
      </trkpt>
      <trkpt lat="49.20047" lon="6.97819">
        <ele>298</ele>
        <time>2011-04-10T08:29:02Z</time>
      </trkpt>
      <trkpt lat="49.20047" lon="6.97818">
        <ele>298</ele>
        <time>2011-04-10T08:29:03Z</time>
      </trkpt>
      <trkpt lat="49.20047" lon="6.97816">
        <ele>298</ele>
        <time>2011-04-10T08:29:04Z</time>
      </trkpt>
      <trkpt lat="49.20046" lon="6.97814">
        <ele>298</ele>
        <time>2011-04-10T08:29:05Z</time>
      </trkpt>
      <trkpt lat="49.20046" lon="6.97812">
        <ele>298</ele>
        <time>2011-04-10T08:29:06Z</time>
      </trkpt>
      <trkpt lat="49.20046" lon="6.9781">
        <ele>298</ele>
        <time>2011-04-10T08:29:07Z</time>
      </trkpt>
      <trkpt lat="49.20045" lon="6.97807">
        <ele>298</ele>
        <time>2011-04-10T08:29:09Z</time>
      </trkpt>
      <trkpt lat="49.20045" lon="6.97804">
        <ele>298</ele>
        <time>2011-04-10T08:29:11Z</time>
      </trkpt>
      <trkpt lat="49.20044" lon="6.97802">
        <ele>298</ele>
        <time>2011-04-10T08:29:13Z</time>
      </trkpt>
      <trkpt lat="49.20044" lon="6.978">
        <ele>297</ele>
        <time>2011-04-10T08:29:14Z</time>
      </trkpt>
      <trkpt lat="49.20044" lon="6.97798">
        <ele>296</ele>
        <time>2011-04-10T08:29:15Z</time>
      </trkpt>
      <trkpt lat="49.20044" lon="6.97797">
        <ele>295</ele>
        <time>2011-04-10T08:29:16Z</time>
      </trkpt>
      <trkpt lat="49.20044" lon="6.97795">
        <ele>295</ele>
        <time>2011-04-10T08:29:17Z</time>
      </trkpt>
      <trkpt lat="49.20044" lon="6.97793">
        <ele>294</ele>
        <time>2011-04-10T08:29:18Z</time>
      </trkpt>
      <trkpt lat="49.20043" lon="6.97791">
        <ele>294</ele>
        <time>2011-04-10T08:29:19Z</time>
      </trkpt>
      <trkpt lat="49.20043" lon="6.97789">
        <ele>293</ele>
        <time>2011-04-10T08:29:20Z</time>
      </trkpt>
      <trkpt lat="49.20044" lon="6.97787">
        <ele>293</ele>
        <time>2011-04-10T08:29:21Z</time>
      </trkpt>
      <trkpt lat="49.20044" lon="6.97784">
        <ele>292</ele>
        <time>2011-04-10T08:29:23Z</time>
      </trkpt>
      <trkpt lat="49.20044" lon="6.97782">
        <ele>291</ele>
        <time>2011-04-10T08:29:24Z</time>
      </trkpt>
      <trkpt lat="49.20044" lon="6.9778">
        <ele>291</ele>
        <time>2011-04-10T08:29:25Z</time>
      </trkpt>
      <trkpt lat="49.20044" lon="6.97777">
        <ele>291</ele>
        <time>2011-04-10T08:29:26Z</time>
      </trkpt>
      <trkpt lat="49.20044" lon="6.97774">
        <ele>291</ele>
        <time>2011-04-10T08:29:27Z</time>
      </trkpt>
      <trkpt lat="49.20045" lon="6.97772">
        <ele>291</ele>
        <time>2011-04-10T08:29:28Z</time>
      </trkpt>
      <trkpt lat="49.20045" lon="6.97769">
        <ele>291</ele>
        <time>2011-04-10T08:29:29Z</time>
      </trkpt>
      <trkpt lat="49.20045" lon="6.97768">
        <ele>291</ele>
        <time>2011-04-10T08:29:30Z</time>
      </trkpt>
      <trkpt lat="49.20045" lon="6.97766">
        <ele>291</ele>
        <time>2011-04-10T08:29:31Z</time>
      </trkpt>
      <trkpt lat="49.20045" lon="6.97764">
        <ele>291</ele>
        <time>2011-04-10T08:29:32Z</time>
      </trkpt>
      <trkpt lat="49.20045" lon="6.97762">
        <ele>291</ele>
        <time>2011-04-10T08:29:33Z</time>
      </trkpt>
      <trkpt lat="49.20045" lon="6.9776">
        <ele>291</ele>
        <time>2011-04-10T08:29:34Z</time>
      </trkpt>
      <trkpt lat="49.20045" lon="6.97759">
        <ele>291</ele>
        <time>2011-04-10T08:29:35Z</time>
      </trkpt>
      <trkpt lat="49.20045" lon="6.97756">
        <ele>291</ele>
        <time>2011-04-10T08:29:36Z</time>
      </trkpt>
      <trkpt lat="49.20045" lon="6.97754">
        <ele>291</ele>
        <time>2011-04-10T08:29:37Z</time>
      </trkpt>
      <trkpt lat="49.20045" lon="6.97752">
        <ele>291</ele>
        <time>2011-04-10T08:29:38Z</time>
      </trkpt>
      <trkpt lat="49.20045" lon="6.9775">
        <ele>291</ele>
        <time>2011-04-10T08:29:39Z</time>
      </trkpt>
      <trkpt lat="49.20045" lon="6.97748">
        <ele>291</ele>
        <time>2011-04-10T08:29:40Z</time>
      </trkpt>
      <trkpt lat="49.20045" lon="6.97746">
        <ele>291</ele>
        <time>2011-04-10T08:29:41Z</time>
      </trkpt>
      <trkpt lat="49.20045" lon="6.97744">
        <ele>291</ele>
        <time>2011-04-10T08:29:42Z</time>
      </trkpt>
      <trkpt lat="49.20045" lon="6.97742">
        <ele>291</ele>
        <time>2011-04-10T08:29:43Z</time>
      </trkpt>
      <trkpt lat="49.20045" lon="6.9774">
        <ele>291</ele>
        <time>2011-04-10T08:29:44Z</time>
      </trkpt>
      <trkpt lat="49.20045" lon="6.97739">
        <ele>291</ele>
        <time>2011-04-10T08:29:45Z</time>
      </trkpt>
      <trkpt lat="49.20045" lon="6.97737">
        <ele>291</ele>
        <time>2011-04-10T08:29:46Z</time>
      </trkpt>
      <trkpt lat="49.20045" lon="6.97735">
        <ele>291</ele>
        <time>2011-04-10T08:29:47Z</time>
      </trkpt>
      <trkpt lat="49.20045" lon="6.97733">
        <ele>291</ele>
        <time>2011-04-10T08:29:48Z</time>
      </trkpt>
      <trkpt lat="49.20045" lon="6.97731">
        <ele>291</ele>
        <time>2011-04-10T08:29:49Z</time>
      </trkpt>
      <trkpt lat="49.20045" lon="6.97728">
        <ele>291</ele>
        <time>2011-04-10T08:29:50Z</time>
      </trkpt>
      <trkpt lat="49.20045" lon="6.97726">
        <ele>291</ele>
        <time>2011-04-10T08:29:51Z</time>
      </trkpt>
      <trkpt lat="49.20045" lon="6.97724">
        <ele>291</ele>
        <time>2011-04-10T08:29:52Z</time>
      </trkpt>
      <trkpt lat="49.20045" lon="6.97722">
        <ele>291</ele>
        <time>2011-04-10T08:29:53Z</time>
      </trkpt>
      <trkpt lat="49.20045" lon="6.9772">
        <ele>291</ele>
        <time>2011-04-10T08:29:54Z</time>
      </trkpt>
      <trkpt lat="49.20045" lon="6.97718">
        <ele>291</ele>
        <time>2011-04-10T08:29:55Z</time>
      </trkpt>
      <trkpt lat="49.20044" lon="6.97715">
        <ele>291</ele>
        <time>2011-04-10T08:29:57Z</time>
      </trkpt>
      <trkpt lat="49.20044" lon="6.97713">
        <ele>291</ele>
        <time>2011-04-10T08:29:58Z</time>
      </trkpt>
      <trkpt lat="49.20044" lon="6.97711">
        <ele>291</ele>
        <time>2011-04-10T08:29:59Z</time>
      </trkpt>
      <trkpt lat="49.20043" lon="6.97709">
        <ele>291</ele>
        <time>2011-04-10T08:30:00Z</time>
      </trkpt>
      <trkpt lat="49.20044" lon="6.97706">
        <ele>291</ele>
        <time>2011-04-10T08:30:02Z</time>
      </trkpt>
      <trkpt lat="49.20043" lon="6.97704">
        <ele>290</ele>
        <time>2011-04-10T08:30:03Z</time>
      </trkpt>
      <trkpt lat="49.20043" lon="6.97701">
        <ele>289</ele>
        <time>2011-04-10T08:30:05Z</time>
      </trkpt>
      <trkpt lat="49.20043" lon="6.97698">
        <ele>288</ele>
        <time>2011-04-10T08:30:07Z</time>
      </trkpt>
      <trkpt lat="49.20044" lon="6.97694">
        <ele>287</ele>
        <time>2011-04-10T08:30:09Z</time>
      </trkpt>
      <trkpt lat="49.20044" lon="6.97692">
        <ele>287</ele>
        <time>2011-04-10T08:30:10Z</time>
      </trkpt>
      <trkpt lat="49.20044" lon="6.9769">
        <ele>287</ele>
        <time>2011-04-10T08:30:11Z</time>
      </trkpt>
      <trkpt lat="49.20044" lon="6.97688">
        <ele>287</ele>
        <time>2011-04-10T08:30:12Z</time>
      </trkpt>
      <trkpt lat="49.20044" lon="6.97686">
        <ele>287</ele>
        <time>2011-04-10T08:30:13Z</time>
      </trkpt>
      <trkpt lat="49.20044" lon="6.97684">
        <ele>287</ele>
        <time>2011-04-10T08:30:14Z</time>
      </trkpt>
      <trkpt lat="49.20043" lon="6.97681">
        <ele>286</ele>
        <time>2011-04-10T08:30:16Z</time>
      </trkpt>
      <trkpt lat="49.20043" lon="6.9768">
        <ele>286</ele>
        <time>2011-04-10T08:30:17Z</time>
      </trkpt>
      <trkpt lat="49.20043" lon="6.97678">
        <ele>286</ele>
        <time>2011-04-10T08:30:18Z</time>
      </trkpt>
      <trkpt lat="49.20042" lon="6.97676">
        <ele>285</ele>
        <time>2011-04-10T08:30:19Z</time>
      </trkpt>
      <trkpt lat="49.20042" lon="6.97674">
        <ele>284</ele>
        <time>2011-04-10T08:30:20Z</time>
      </trkpt>
      <trkpt lat="49.20043" lon="6.97672">
        <ele>284</ele>
        <time>2011-04-10T08:30:21Z</time>
      </trkpt>
      <trkpt lat="49.20042" lon="6.9767">
        <ele>284</ele>
        <time>2011-04-10T08:30:22Z</time>
      </trkpt>
      <trkpt lat="49.20042" lon="6.97668">
        <ele>283</ele>
        <time>2011-04-10T08:30:23Z</time>
      </trkpt>
      <trkpt lat="49.20042" lon="6.97666">
        <ele>283</ele>
        <time>2011-04-10T08:30:24Z</time>
      </trkpt>
      <trkpt lat="49.20042" lon="6.97663">
        <ele>283</ele>
        <time>2011-04-10T08:30:25Z</time>
      </trkpt>
      <trkpt lat="49.20042" lon="6.97662">
        <ele>283</ele>
        <time>2011-04-10T08:30:26Z</time>
      </trkpt>
      <trkpt lat="49.20042" lon="6.9766">
        <ele>282</ele>
        <time>2011-04-10T08:30:27Z</time>
      </trkpt>
      <trkpt lat="49.20042" lon="6.97658">
        <ele>282</ele>
        <time>2011-04-10T08:30:28Z</time>
      </trkpt>
      <trkpt lat="49.20042" lon="6.97656">
        <ele>282</ele>
        <time>2011-04-10T08:30:29Z</time>
      </trkpt>
      <trkpt lat="49.20042" lon="6.97654">
        <ele>282</ele>
        <time>2011-04-10T08:30:30Z</time>
      </trkpt>
      <trkpt lat="49.20042" lon="6.97652">
        <ele>282</ele>
        <time>2011-04-10T08:30:31Z</time>
      </trkpt>
      <trkpt lat="49.20042" lon="6.9765">
        <ele>281</ele>
        <time>2011-04-10T08:30:32Z</time>
      </trkpt>
      <trkpt lat="49.20042" lon="6.97648">
        <ele>281</ele>
        <time>2011-04-10T08:30:33Z</time>
      </trkpt>
      <trkpt lat="49.20042" lon="6.97646">
        <ele>281</ele>
        <time>2011-04-10T08:30:34Z</time>
      </trkpt>
      <trkpt lat="49.20042" lon="6.97644">
        <ele>281</ele>
        <time>2011-04-10T08:30:35Z</time>
      </trkpt>
      <trkpt lat="49.20042" lon="6.97642">
        <ele>281</ele>
        <time>2011-04-10T08:30:36Z</time>
      </trkpt>
      <trkpt lat="49.20042" lon="6.97641">
        <ele>281</ele>
        <time>2011-04-10T08:30:37Z</time>
      </trkpt>
      <trkpt lat="49.20042" lon="6.97637">
        <ele>281</ele>
        <time>2011-04-10T08:30:39Z</time>
      </trkpt>
      <trkpt lat="49.20042" lon="6.97635">
        <ele>281</ele>
        <time>2011-04-10T08:30:40Z</time>
      </trkpt>
      <trkpt lat="49.20042" lon="6.97633">
        <ele>281</ele>
        <time>2011-04-10T08:30:41Z</time>
      </trkpt>
      <trkpt lat="49.20042" lon="6.97629">
        <ele>281</ele>
        <time>2011-04-10T08:30:43Z</time>
      </trkpt>
      <trkpt lat="49.20042" lon="6.97626">
        <ele>281</ele>
        <time>2011-04-10T08:30:45Z</time>
      </trkpt>
      <trkpt lat="49.20042" lon="6.97624">
        <ele>281</ele>
        <time>2011-04-10T08:30:46Z</time>
      </trkpt>
      <trkpt lat="49.20042" lon="6.97622">
        <ele>281</ele>
        <time>2011-04-10T08:30:47Z</time>
      </trkpt>
      <trkpt lat="49.20042" lon="6.9762">
        <ele>281</ele>
        <time>2011-04-10T08:30:48Z</time>
      </trkpt>
      <trkpt lat="49.20042" lon="6.97618">
        <ele>280</ele>
        <time>2011-04-10T08:30:49Z</time>
      </trkpt>
      <trkpt lat="49.20043" lon="6.97615">
        <ele>280</ele>
        <time>2011-04-10T08:30:50Z</time>
      </trkpt>
      <trkpt lat="49.20043" lon="6.97612">
        <ele>280</ele>
        <time>2011-04-10T08:30:51Z</time>
      </trkpt>
      <trkpt lat="49.20042" lon="6.97611">
        <ele>280</ele>
        <time>2011-04-10T08:30:52Z</time>
      </trkpt>
      <trkpt lat="49.20042" lon="6.97609">
        <ele>280</ele>
        <time>2011-04-10T08:30:53Z</time>
      </trkpt>
      <trkpt lat="49.20042" lon="6.97607">
        <ele>280</ele>
        <time>2011-04-10T08:30:54Z</time>
      </trkpt>
      <trkpt lat="49.20042" lon="6.97605">
        <ele>280</ele>
        <time>2011-04-10T08:30:55Z</time>
      </trkpt>
      <trkpt lat="49.20042" lon="6.97603">
        <ele>280</ele>
        <time>2011-04-10T08:30:56Z</time>
      </trkpt>
      <trkpt lat="49.20042" lon="6.976">
        <ele>280</ele>
        <time>2011-04-10T08:30:57Z</time>
      </trkpt>
      <trkpt lat="49.20042" lon="6.97598">
        <ele>280</ele>
        <time>2011-04-10T08:30:58Z</time>
      </trkpt>
      <trkpt lat="49.20042" lon="6.97596">
        <ele>280</ele>
        <time>2011-04-10T08:30:59Z</time>
      </trkpt>
      <trkpt lat="49.20042" lon="6.97594">
        <ele>280</ele>
        <time>2011-04-10T08:31:00Z</time>
      </trkpt>
      <trkpt lat="49.20042" lon="6.97591">
        <ele>280</ele>
        <time>2011-04-10T08:31:01Z</time>
      </trkpt>
      <trkpt lat="49.20042" lon="6.97589">
        <ele>280</ele>
        <time>2011-04-10T08:31:02Z</time>
      </trkpt>
      <trkpt lat="49.20042" lon="6.97587">
        <ele>280</ele>
        <time>2011-04-10T08:31:03Z</time>
      </trkpt>
      <trkpt lat="49.20042" lon="6.97585">
        <ele>280</ele>
        <time>2011-04-10T08:31:04Z</time>
      </trkpt>
      <trkpt lat="49.20042" lon="6.97583">
        <ele>280</ele>
        <time>2011-04-10T08:31:05Z</time>
      </trkpt>
      <trkpt lat="49.20043" lon="6.97581">
        <ele>280</ele>
        <time>2011-04-10T08:31:06Z</time>
      </trkpt>
      <trkpt lat="49.20043" lon="6.97579">
        <ele>280</ele>
        <time>2011-04-10T08:31:07Z</time>
      </trkpt>
      <trkpt lat="49.20042" lon="6.97577">
        <ele>280</ele>
        <time>2011-04-10T08:31:08Z</time>
      </trkpt>
      <trkpt lat="49.20043" lon="6.97574">
        <ele>280</ele>
        <time>2011-04-10T08:31:09Z</time>
      </trkpt>
      <trkpt lat="49.20043" lon="6.97571">
        <ele>280</ele>
        <time>2011-04-10T08:31:10Z</time>
      </trkpt>
      <trkpt lat="49.20043" lon="6.97569">
        <ele>280</ele>
        <time>2011-04-10T08:31:11Z</time>
      </trkpt>
      <trkpt lat="49.20043" lon="6.97567">
        <ele>281</ele>
        <time>2011-04-10T08:31:12Z</time>
      </trkpt>
      <trkpt lat="49.20043" lon="6.97565">
        <ele>282</ele>
        <time>2011-04-10T08:31:13Z</time>
      </trkpt>
      <trkpt lat="49.20043" lon="6.97563">
        <ele>282</ele>
        <time>2011-04-10T08:31:14Z</time>
      </trkpt>
      <trkpt lat="49.20043" lon="6.97561">
        <ele>282</ele>
        <time>2011-04-10T08:31:15Z</time>
      </trkpt>
      <trkpt lat="49.20043" lon="6.97559">
        <ele>282</ele>
        <time>2011-04-10T08:31:16Z</time>
      </trkpt>
      <trkpt lat="49.20043" lon="6.97557">
        <ele>282</ele>
        <time>2011-04-10T08:31:17Z</time>
      </trkpt>
      <trkpt lat="49.20043" lon="6.97554">
        <ele>282</ele>
        <time>2011-04-10T08:31:18Z</time>
      </trkpt>
      <trkpt lat="49.20043" lon="6.97552">
        <ele>283</ele>
        <time>2011-04-10T08:31:19Z</time>
      </trkpt>
      <trkpt lat="49.20043" lon="6.9755">
        <ele>283</ele>
        <time>2011-04-10T08:31:20Z</time>
      </trkpt>
      <trkpt lat="49.20043" lon="6.97548">
        <ele>284</ele>
        <time>2011-04-10T08:31:21Z</time>
      </trkpt>
      <trkpt lat="49.20044" lon="6.97545">
        <ele>285</ele>
        <time>2011-04-10T08:31:22Z</time>
      </trkpt>
      <trkpt lat="49.20044" lon="6.97543">
        <ele>285</ele>
        <time>2011-04-10T08:31:23Z</time>
      </trkpt>
      <trkpt lat="49.20043" lon="6.97542">
        <ele>285</ele>
        <time>2011-04-10T08:31:24Z</time>
      </trkpt>
      <trkpt lat="49.20043" lon="6.9754">
        <ele>286</ele>
        <time>2011-04-10T08:31:25Z</time>
      </trkpt>
      <trkpt lat="49.20043" lon="6.97538">
        <ele>286</ele>
        <time>2011-04-10T08:31:26Z</time>
      </trkpt>
      <trkpt lat="49.20043" lon="6.97536">
        <ele>286</ele>
        <time>2011-04-10T08:31:27Z</time>
      </trkpt>
      <trkpt lat="49.20043" lon="6.97534">
        <ele>286</ele>
        <time>2011-04-10T08:31:28Z</time>
      </trkpt>
      <trkpt lat="49.20043" lon="6.97532">
        <ele>286</ele>
        <time>2011-04-10T08:31:29Z</time>
      </trkpt>
      <trkpt lat="49.20043" lon="6.9753">
        <ele>286</ele>
        <time>2011-04-10T08:31:30Z</time>
      </trkpt>
      <trkpt lat="49.20043" lon="6.97528">
        <ele>286</ele>
        <time>2011-04-10T08:31:31Z</time>
      </trkpt>
      <trkpt lat="49.20042" lon="6.97524">
        <ele>286</ele>
        <time>2011-04-10T08:31:32Z</time>
      </trkpt>
      <trkpt lat="49.20042" lon="6.97521">
        <ele>286</ele>
        <time>2011-04-10T08:31:33Z</time>
      </trkpt>
      <trkpt lat="49.20042" lon="6.97519">
        <ele>287</ele>
        <time>2011-04-10T08:31:34Z</time>
      </trkpt>
      <trkpt lat="49.20042" lon="6.97517">
        <ele>288</ele>
        <time>2011-04-10T08:31:35Z</time>
      </trkpt>
      <trkpt lat="49.20042" lon="6.97515">
        <ele>288</ele>
        <time>2011-04-10T08:31:36Z</time>
      </trkpt>
      <trkpt lat="49.20042" lon="6.97512">
        <ele>289</ele>
        <time>2011-04-10T08:31:38Z</time>
      </trkpt>
      <trkpt lat="49.20042" lon="6.9751">
        <ele>289</ele>
        <time>2011-04-10T08:31:39Z</time>
      </trkpt>
      <trkpt lat="49.20042" lon="6.97508">
        <ele>289</ele>
        <time>2011-04-10T08:31:40Z</time>
      </trkpt>
      <trkpt lat="49.20042" lon="6.97506">
        <ele>289</ele>
        <time>2011-04-10T08:31:41Z</time>
      </trkpt>
      <trkpt lat="49.20042" lon="6.97503">
        <ele>289</ele>
        <time>2011-04-10T08:31:43Z</time>
      </trkpt>
      <trkpt lat="49.20042" lon="6.975">
        <ele>289</ele>
        <time>2011-04-10T08:31:45Z</time>
      </trkpt>
      <trkpt lat="49.20042" lon="6.97498">
        <ele>289</ele>
        <time>2011-04-10T08:31:46Z</time>
      </trkpt>
      <trkpt lat="49.20042" lon="6.97496">
        <ele>289</ele>
        <time>2011-04-10T08:31:47Z</time>
      </trkpt>
      <trkpt lat="49.20042" lon="6.97494">
        <ele>289</ele>
        <time>2011-04-10T08:31:48Z</time>
      </trkpt>
      <trkpt lat="49.20042" lon="6.97491">
        <ele>289</ele>
        <time>2011-04-10T08:31:49Z</time>
      </trkpt>
      <trkpt lat="49.20043" lon="6.97488">
        <ele>289</ele>
        <time>2011-04-10T08:31:50Z</time>
      </trkpt>
      <trkpt lat="49.20043" lon="6.97486">
        <ele>289</ele>
        <time>2011-04-10T08:31:51Z</time>
      </trkpt>
      <trkpt lat="49.20042" lon="6.97484">
        <ele>289</ele>
        <time>2011-04-10T08:31:52Z</time>
      </trkpt>
      <trkpt lat="49.20043" lon="6.97482">
        <ele>289</ele>
        <time>2011-04-10T08:31:53Z</time>
      </trkpt>
      <trkpt lat="49.20043" lon="6.9748">
        <ele>289</ele>
        <time>2011-04-10T08:31:54Z</time>
      </trkpt>
      <trkpt lat="49.20043" lon="6.97478">
        <ele>289</ele>
        <time>2011-04-10T08:31:55Z</time>
      </trkpt>
      <trkpt lat="49.20043" lon="6.97476">
        <ele>289</ele>
        <time>2011-04-10T08:31:56Z</time>
      </trkpt>
      <trkpt lat="49.20042" lon="6.97474">
        <ele>289</ele>
        <time>2011-04-10T08:31:57Z</time>
      </trkpt>
      <trkpt lat="49.20042" lon="6.97472">
        <ele>289</ele>
        <time>2011-04-10T08:31:58Z</time>
      </trkpt>
      <trkpt lat="49.20043" lon="6.9747">
        <ele>289</ele>
        <time>2011-04-10T08:31:59Z</time>
      </trkpt>
      <trkpt lat="49.20043" lon="6.97468">
        <ele>289</ele>
        <time>2011-04-10T08:32:00Z</time>
      </trkpt>
      <trkpt lat="49.20043" lon="6.97466">
        <ele>289</ele>
        <time>2011-04-10T08:32:01Z</time>
      </trkpt>
      <trkpt lat="49.20043" lon="6.97464">
        <ele>289</ele>
        <time>2011-04-10T08:32:02Z</time>
      </trkpt>
      <trkpt lat="49.20043" lon="6.97463">
        <ele>289</ele>
        <time>2011-04-10T08:32:03Z</time>
      </trkpt>
      <trkpt lat="49.20043" lon="6.97461">
        <ele>289</ele>
        <time>2011-04-10T08:32:04Z</time>
      </trkpt>
      <trkpt lat="49.20043" lon="6.97459">
        <ele>289</ele>
        <time>2011-04-10T08:32:05Z</time>
      </trkpt>
      <trkpt lat="49.20042" lon="6.97457">
        <ele>289</ele>
        <time>2011-04-10T08:32:06Z</time>
      </trkpt>
      <trkpt lat="49.20043" lon="6.97455">
        <ele>289</ele>
        <time>2011-04-10T08:32:07Z</time>
      </trkpt>
      <trkpt lat="49.20043" lon="6.97453">
        <ele>289</ele>
        <time>2011-04-10T08:32:08Z</time>
      </trkpt>
      <trkpt lat="49.20043" lon="6.97451">
        <ele>289</ele>
        <time>2011-04-10T08:32:09Z</time>
      </trkpt>
      <trkpt lat="49.20043" lon="6.97448">
        <ele>289</ele>
        <time>2011-04-10T08:32:10Z</time>
      </trkpt>
      <trkpt lat="49.20043" lon="6.97447">
        <ele>289</ele>
        <time>2011-04-10T08:32:11Z</time>
      </trkpt>
      <trkpt lat="49.20042" lon="6.97444">
        <ele>289</ele>
        <time>2011-04-10T08:32:12Z</time>
      </trkpt>
      <trkpt lat="49.20042" lon="6.97442">
        <ele>289</ele>
        <time>2011-04-10T08:32:13Z</time>
      </trkpt>
      <trkpt lat="49.20042" lon="6.9744">
        <ele>289</ele>
        <time>2011-04-10T08:32:14Z</time>
      </trkpt>
      <trkpt lat="49.20042" lon="6.97437">
        <ele>290</ele>
        <time>2011-04-10T08:32:15Z</time>
      </trkpt>
      <trkpt lat="49.20041" lon="6.97435">
        <ele>290</ele>
        <time>2011-04-10T08:32:16Z</time>
      </trkpt>
      <trkpt lat="49.20041" lon="6.97433">
        <ele>290</ele>
        <time>2011-04-10T08:32:17Z</time>
      </trkpt>
      <trkpt lat="49.20041" lon="6.97431">
        <ele>291</ele>
        <time>2011-04-10T08:32:18Z</time>
      </trkpt>
      <trkpt lat="49.20042" lon="6.97429">
        <ele>291</ele>
        <time>2011-04-10T08:32:20Z</time>
      </trkpt>
      <trkpt lat="49.20042" lon="6.97427">
        <ele>291</ele>
        <time>2011-04-10T08:32:21Z</time>
      </trkpt>
      <trkpt lat="49.20042" lon="6.97425">
        <ele>291</ele>
        <time>2011-04-10T08:32:22Z</time>
      </trkpt>
      <trkpt lat="49.20042" lon="6.97423">
        <ele>291</ele>
        <time>2011-04-10T08:32:23Z</time>
      </trkpt>
      <trkpt lat="49.20042" lon="6.97421">
        <ele>291</ele>
        <time>2011-04-10T08:32:24Z</time>
      </trkpt>
      <trkpt lat="49.20042" lon="6.97419">
        <ele>291</ele>
        <time>2011-04-10T08:32:25Z</time>
      </trkpt>
      <trkpt lat="49.20042" lon="6.97417">
        <ele>291</ele>
        <time>2011-04-10T08:32:26Z</time>
      </trkpt>
      <trkpt lat="49.20042" lon="6.97416">
        <ele>291</ele>
        <time>2011-04-10T08:32:27Z</time>
      </trkpt>
      <trkpt lat="49.20042" lon="6.97414">
        <ele>291</ele>
        <time>2011-04-10T08:32:28Z</time>
      </trkpt>
      <trkpt lat="49.20042" lon="6.9741">
        <ele>291</ele>
        <time>2011-04-10T08:32:29Z</time>
      </trkpt>
      <trkpt lat="49.20042" lon="6.97407">
        <ele>291</ele>
        <time>2011-04-10T08:32:30Z</time>
      </trkpt>
      <trkpt lat="49.20042" lon="6.97405">
        <ele>291</ele>
        <time>2011-04-10T08:32:31Z</time>
      </trkpt>
      <trkpt lat="49.20042" lon="6.97403">
        <ele>291</ele>
        <time>2011-04-10T08:32:32Z</time>
      </trkpt>
      <trkpt lat="49.20042" lon="6.97402">
        <ele>291</ele>
        <time>2011-04-10T08:32:33Z</time>
      </trkpt>
      <trkpt lat="49.20042" lon="6.97399">
        <ele>291</ele>
        <time>2011-04-10T08:32:34Z</time>
      </trkpt>
      <trkpt lat="49.20043" lon="6.97396">
        <ele>291</ele>
        <time>2011-04-10T08:32:35Z</time>
      </trkpt>
      <trkpt lat="49.20043" lon="6.97394">
        <ele>291</ele>
        <time>2011-04-10T08:32:36Z</time>
      </trkpt>
      <trkpt lat="49.20043" lon="6.97393">
        <ele>291</ele>
        <time>2011-04-10T08:32:37Z</time>
      </trkpt>
      <trkpt lat="49.20042" lon="6.97391">
        <ele>291</ele>
        <time>2011-04-10T08:32:38Z</time>
      </trkpt>
      <trkpt lat="49.20042" lon="6.97389">
        <ele>292</ele>
        <time>2011-04-10T08:32:39Z</time>
      </trkpt>
      <trkpt lat="49.20042" lon="6.97387">
        <ele>292</ele>
        <time>2011-04-10T08:32:40Z</time>
      </trkpt>
      <trkpt lat="49.20042" lon="6.97385">
        <ele>292</ele>
        <time>2011-04-10T08:32:41Z</time>
      </trkpt>
      <trkpt lat="49.20042" lon="6.97383">
        <ele>292</ele>
        <time>2011-04-10T08:32:42Z</time>
      </trkpt>
      <trkpt lat="49.20042" lon="6.97381">
        <ele>292</ele>
        <time>2011-04-10T08:32:43Z</time>
      </trkpt>
      <trkpt lat="49.20042" lon="6.97379">
        <ele>292</ele>
        <time>2011-04-10T08:32:44Z</time>
      </trkpt>
      <trkpt lat="49.20042" lon="6.97377">
        <ele>292</ele>
        <time>2011-04-10T08:32:45Z</time>
      </trkpt>
      <trkpt lat="49.20043" lon="6.97375">
        <ele>292</ele>
        <time>2011-04-10T08:32:46Z</time>
      </trkpt>
      <trkpt lat="49.20043" lon="6.97373">
        <ele>292</ele>
        <time>2011-04-10T08:32:47Z</time>
      </trkpt>
      <trkpt lat="49.20043" lon="6.97371">
        <ele>292</ele>
        <time>2011-04-10T08:32:48Z</time>
      </trkpt>
      <trkpt lat="49.20043" lon="6.9737">
        <ele>292</ele>
        <time>2011-04-10T08:32:49Z</time>
      </trkpt>
      <trkpt lat="49.20043" lon="6.97368">
        <ele>292</ele>
        <time>2011-04-10T08:32:50Z</time>
      </trkpt>
      <trkpt lat="49.20043" lon="6.97366">
        <ele>292</ele>
        <time>2011-04-10T08:32:51Z</time>
      </trkpt>
      <trkpt lat="49.20043" lon="6.97364">
        <ele>292</ele>
        <time>2011-04-10T08:32:52Z</time>
      </trkpt>
      <trkpt lat="49.20043" lon="6.97362">
        <ele>292</ele>
        <time>2011-04-10T08:32:53Z</time>
      </trkpt>
      <trkpt lat="49.20044" lon="6.9736">
        <ele>292</ele>
        <time>2011-04-10T08:32:54Z</time>
      </trkpt>
      <trkpt lat="49.20044" lon="6.97359">
        <ele>292</ele>
        <time>2011-04-10T08:32:55Z</time>
      </trkpt>
      <trkpt lat="49.20044" lon="6.97357">
        <ele>292</ele>
        <time>2011-04-10T08:32:56Z</time>
      </trkpt>
      <trkpt lat="49.20045" lon="6.97355">
        <ele>292</ele>
        <time>2011-04-10T08:32:57Z</time>
      </trkpt>
      <trkpt lat="49.20045" lon="6.97352">
        <ele>292</ele>
        <time>2011-04-10T08:32:59Z</time>
      </trkpt>
      <trkpt lat="49.20045" lon="6.9735">
        <ele>292</ele>
        <time>2011-04-10T08:33:00Z</time>
      </trkpt>
      <trkpt lat="49.20045" lon="6.97348">
        <ele>292</ele>
        <time>2011-04-10T08:33:01Z</time>
      </trkpt>
      <trkpt lat="49.20046" lon="6.97346">
        <ele>292</ele>
        <time>2011-04-10T08:33:02Z</time>
      </trkpt>
      <trkpt lat="49.20046" lon="6.97344">
        <ele>292</ele>
        <time>2011-04-10T08:33:03Z</time>
      </trkpt>
      <trkpt lat="49.20046" lon="6.97343">
        <ele>292</ele>
        <time>2011-04-10T08:33:04Z</time>
      </trkpt>
      <trkpt lat="49.20046" lon="6.97341">
        <ele>292</ele>
        <time>2011-04-10T08:33:05Z</time>
      </trkpt>
      <trkpt lat="49.20047" lon="6.97339">
        <ele>292</ele>
        <time>2011-04-10T08:33:06Z</time>
      </trkpt>
      <trkpt lat="49.20047" lon="6.97337">
        <ele>292</ele>
        <time>2011-04-10T08:33:07Z</time>
      </trkpt>
      <trkpt lat="49.20047" lon="6.97335">
        <ele>292</ele>
        <time>2011-04-10T08:33:08Z</time>
      </trkpt>
      <trkpt lat="49.20047" lon="6.97334">
        <ele>292</ele>
        <time>2011-04-10T08:33:09Z</time>
      </trkpt>
      <trkpt lat="49.20047" lon="6.97332">
        <ele>292</ele>
        <time>2011-04-10T08:33:10Z</time>
      </trkpt>
      <trkpt lat="49.20048" lon="6.97329">
        <ele>291</ele>
        <time>2011-04-10T08:33:12Z</time>
      </trkpt>
      <trkpt lat="49.20048" lon="6.97327">
        <ele>290</ele>
        <time>2011-04-10T08:33:13Z</time>
      </trkpt>
      <trkpt lat="49.20049" lon="6.97324">
        <ele>290</ele>
        <time>2011-04-10T08:33:14Z</time>
      </trkpt>
      <trkpt lat="49.2005" lon="6.97322">
        <ele>290</ele>
        <time>2011-04-10T08:33:15Z</time>
      </trkpt>
      <trkpt lat="49.2005" lon="6.97319">
        <ele>290</ele>
        <time>2011-04-10T08:33:16Z</time>
      </trkpt>
      <trkpt lat="49.20051" lon="6.97317">
        <ele>290</ele>
        <time>2011-04-10T08:33:17Z</time>
      </trkpt>
      <trkpt lat="49.20052" lon="6.97315">
        <ele>290</ele>
        <time>2011-04-10T08:33:18Z</time>
      </trkpt>
      <trkpt lat="49.20052" lon="6.97313">
        <ele>290</ele>
        <time>2011-04-10T08:33:19Z</time>
      </trkpt>
      <trkpt lat="49.20052" lon="6.97311">
        <ele>290</ele>
        <time>2011-04-10T08:33:20Z</time>
      </trkpt>
      <trkpt lat="49.20052" lon="6.9731">
        <ele>290</ele>
        <time>2011-04-10T08:33:21Z</time>
      </trkpt>
      <trkpt lat="49.20052" lon="6.97308">
        <ele>290</ele>
        <time>2011-04-10T08:33:22Z</time>
      </trkpt>
      <trkpt lat="49.20052" lon="6.97306">
        <ele>290</ele>
        <time>2011-04-10T08:33:23Z</time>
      </trkpt>
      <trkpt lat="49.20052" lon="6.97304">
        <ele>290</ele>
        <time>2011-04-10T08:33:24Z</time>
      </trkpt>
      <trkpt lat="49.20053" lon="6.97301">
        <ele>290</ele>
        <time>2011-04-10T08:33:26Z</time>
      </trkpt>
      <trkpt lat="49.20053" lon="6.97299">
        <ele>290</ele>
        <time>2011-04-10T08:33:27Z</time>
      </trkpt>
      <trkpt lat="49.20052" lon="6.97297">
        <ele>290</ele>
        <time>2011-04-10T08:33:28Z</time>
      </trkpt>
      <trkpt lat="49.20052" lon="6.97295">
        <ele>290</ele>
        <time>2011-04-10T08:33:29Z</time>
      </trkpt>
      <trkpt lat="49.20052" lon="6.97293">
        <ele>290</ele>
        <time>2011-04-10T08:33:30Z</time>
      </trkpt>
      <trkpt lat="49.20052" lon="6.97292">
        <ele>290</ele>
        <time>2011-04-10T08:33:31Z</time>
      </trkpt>
      <trkpt lat="49.20052" lon="6.9729">
        <ele>290</ele>
        <time>2011-04-10T08:33:32Z</time>
      </trkpt>
      <trkpt lat="49.20053" lon="6.97288">
        <ele>290</ele>
        <time>2011-04-10T08:33:33Z</time>
      </trkpt>
      <trkpt lat="49.20052" lon="6.97286">
        <ele>290</ele>
        <time>2011-04-10T08:33:34Z</time>
      </trkpt>
      <trkpt lat="49.20053" lon="6.97283">
        <ele>290</ele>
        <time>2011-04-10T08:33:35Z</time>
      </trkpt>
      <trkpt lat="49.20053" lon="6.97281">
        <ele>290</ele>
        <time>2011-04-10T08:33:36Z</time>
      </trkpt>
      <trkpt lat="49.20054" lon="6.97277">
        <ele>290</ele>
        <time>2011-04-10T08:33:38Z</time>
      </trkpt>
      <trkpt lat="49.20055" lon="6.97276">
        <ele>290</ele>
        <time>2011-04-10T08:33:39Z</time>
      </trkpt>
      <trkpt lat="49.20055" lon="6.97274">
        <ele>290</ele>
        <time>2011-04-10T08:33:40Z</time>
      </trkpt>
      <trkpt lat="49.20055" lon="6.97272">
        <ele>290</ele>
        <time>2011-04-10T08:33:41Z</time>
      </trkpt>
      <trkpt lat="49.20055" lon="6.9727">
        <ele>290</ele>
        <time>2011-04-10T08:33:42Z</time>
      </trkpt>
      <trkpt lat="49.20055" lon="6.97268">
        <ele>290</ele>
        <time>2011-04-10T08:33:43Z</time>
      </trkpt>
      <trkpt lat="49.20055" lon="6.97266">
        <ele>290</ele>
        <time>2011-04-10T08:33:44Z</time>
      </trkpt>
      <trkpt lat="49.20055" lon="6.97263">
        <ele>290</ele>
        <time>2011-04-10T08:33:46Z</time>
      </trkpt>
      <trkpt lat="49.20055" lon="6.97259">
        <ele>290</ele>
        <time>2011-04-10T08:33:48Z</time>
      </trkpt>
      <trkpt lat="49.20055" lon="6.97257">
        <ele>290</ele>
        <time>2011-04-10T08:33:49Z</time>
      </trkpt>
      <trkpt lat="49.20056" lon="6.97255">
        <ele>290</ele>
        <time>2011-04-10T08:33:50Z</time>
      </trkpt>
      <trkpt lat="49.20056" lon="6.97253">
        <ele>290</ele>
        <time>2011-04-10T08:33:51Z</time>
      </trkpt>
      <trkpt lat="49.20057" lon="6.97251">
        <ele>290</ele>
        <time>2011-04-10T08:33:52Z</time>
      </trkpt>
      <trkpt lat="49.20057" lon="6.97249">
        <ele>290</ele>
        <time>2011-04-10T08:33:53Z</time>
      </trkpt>
      <trkpt lat="49.20058" lon="6.97247">
        <ele>290</ele>
        <time>2011-04-10T08:33:54Z</time>
      </trkpt>
      <trkpt lat="49.20058" lon="6.97244">
        <ele>290</ele>
        <time>2011-04-10T08:33:55Z</time>
      </trkpt>
      <trkpt lat="49.20058" lon="6.97242">
        <ele>290</ele>
        <time>2011-04-10T08:33:56Z</time>
      </trkpt>
      <trkpt lat="49.20059" lon="6.9724">
        <ele>290</ele>
        <time>2011-04-10T08:33:57Z</time>
      </trkpt>
      <trkpt lat="49.20059" lon="6.97238">
        <ele>290</ele>
        <time>2011-04-10T08:33:58Z</time>
      </trkpt>
      <trkpt lat="49.20059" lon="6.97235">
        <ele>290</ele>
        <time>2011-04-10T08:33:59Z</time>
      </trkpt>
      <trkpt lat="49.2006" lon="6.97233">
        <ele>290</ele>
        <time>2011-04-10T08:34:00Z</time>
      </trkpt>
      <trkpt lat="49.2006" lon="6.9723">
        <ele>291</ele>
        <time>2011-04-10T08:34:01Z</time>
      </trkpt>
      <trkpt lat="49.2006" lon="6.97228">
        <ele>291</ele>
        <time>2011-04-10T08:34:02Z</time>
      </trkpt>
      <trkpt lat="49.2006" lon="6.97226">
        <ele>292</ele>
        <time>2011-04-10T08:34:03Z</time>
      </trkpt>
      <trkpt lat="49.20061" lon="6.97224">
        <ele>293</ele>
        <time>2011-04-10T08:34:04Z</time>
      </trkpt>
      <trkpt lat="49.20061" lon="6.97222">
        <ele>293</ele>
        <time>2011-04-10T08:34:05Z</time>
      </trkpt>
      <trkpt lat="49.20062" lon="6.97219">
        <ele>294</ele>
        <time>2011-04-10T08:34:07Z</time>
      </trkpt>
      <trkpt lat="49.20062" lon="6.97216">
        <ele>294</ele>
        <time>2011-04-10T08:34:08Z</time>
      </trkpt>
      <trkpt lat="49.20063" lon="6.97215">
        <ele>294</ele>
        <time>2011-04-10T08:34:09Z</time>
      </trkpt>
      <trkpt lat="49.20063" lon="6.97212">
        <ele>294</ele>
        <time>2011-04-10T08:34:10Z</time>
      </trkpt>
      <trkpt lat="49.20063" lon="6.9721">
        <ele>294</ele>
        <time>2011-04-10T08:34:11Z</time>
      </trkpt>
      <trkpt lat="49.20063" lon="6.97208">
        <ele>294</ele>
        <time>2011-04-10T08:34:12Z</time>
      </trkpt>
      <trkpt lat="49.20063" lon="6.97206">
        <ele>295</ele>
        <time>2011-04-10T08:34:13Z</time>
      </trkpt>
      <trkpt lat="49.20064" lon="6.97205">
        <ele>295</ele>
        <time>2011-04-10T08:34:14Z</time>
      </trkpt>
      <trkpt lat="49.20064" lon="6.97202">
        <ele>295</ele>
        <time>2011-04-10T08:34:15Z</time>
      </trkpt>
      <trkpt lat="49.20064" lon="6.972">
        <ele>295</ele>
        <time>2011-04-10T08:34:16Z</time>
      </trkpt>
      <trkpt lat="49.20064" lon="6.97198">
        <ele>295</ele>
        <time>2011-04-10T08:34:17Z</time>
      </trkpt>
      <trkpt lat="49.20064" lon="6.97196">
        <ele>295</ele>
        <time>2011-04-10T08:34:18Z</time>
      </trkpt>
      <trkpt lat="49.20064" lon="6.97194">
        <ele>296</ele>
        <time>2011-04-10T08:34:19Z</time>
      </trkpt>
      <trkpt lat="49.20065" lon="6.97192">
        <ele>296</ele>
        <time>2011-04-10T08:34:20Z</time>
      </trkpt>
      <trkpt lat="49.20065" lon="6.97191">
        <ele>296</ele>
        <time>2011-04-10T08:34:21Z</time>
      </trkpt>
      <trkpt lat="49.20065" lon="6.97188">
        <ele>296</ele>
        <time>2011-04-10T08:34:22Z</time>
      </trkpt>
      <trkpt lat="49.20065" lon="6.97186">
        <ele>296</ele>
        <time>2011-04-10T08:34:23Z</time>
      </trkpt>
      <trkpt lat="49.20064" lon="6.97182">
        <ele>296</ele>
        <time>2011-04-10T08:34:25Z</time>
      </trkpt>
      <trkpt lat="49.20065" lon="6.97179">
        <ele>296</ele>
        <time>2011-04-10T08:34:27Z</time>
      </trkpt>
      <trkpt lat="49.20066" lon="6.97177">
        <ele>296</ele>
        <time>2011-04-10T08:34:28Z</time>
      </trkpt>
      <trkpt lat="49.20066" lon="6.97175">
        <ele>296</ele>
        <time>2011-04-10T08:34:29Z</time>
      </trkpt>
      <trkpt lat="49.20067" lon="6.97174">
        <ele>296</ele>
        <time>2011-04-10T08:34:30Z</time>
      </trkpt>
      <trkpt lat="49.20067" lon="6.97172">
        <ele>296</ele>
        <time>2011-04-10T08:34:31Z</time>
      </trkpt>
      <trkpt lat="49.20067" lon="6.9717">
        <ele>296</ele>
        <time>2011-04-10T08:34:32Z</time>
      </trkpt>
      <trkpt lat="49.20068" lon="6.97168">
        <ele>296</ele>
        <time>2011-04-10T08:34:34Z</time>
      </trkpt>
      <trkpt lat="49.20069" lon="6.97165">
        <ele>296</ele>
        <time>2011-04-10T08:34:36Z</time>
      </trkpt>
      <trkpt lat="49.20069" lon="6.97163">
        <ele>296</ele>
        <time>2011-04-10T08:34:38Z</time>
      </trkpt>
      <trkpt lat="49.20069" lon="6.97161">
        <ele>296</ele>
        <time>2011-04-10T08:34:39Z</time>
      </trkpt>
      <trkpt lat="49.20069" lon="6.97159">
        <ele>296</ele>
        <time>2011-04-10T08:34:41Z</time>
      </trkpt>
      <trkpt lat="49.20069" lon="6.97156">
        <ele>296</ele>
        <time>2011-04-10T08:34:43Z</time>
      </trkpt>
      <trkpt lat="49.20069" lon="6.97154">
        <ele>296</ele>
        <time>2011-04-10T08:34:44Z</time>
      </trkpt>
      <trkpt lat="49.20069" lon="6.97151">
        <ele>295</ele>
        <time>2011-04-10T08:34:46Z</time>
      </trkpt>
      <trkpt lat="49.2007" lon="6.97148">
        <ele>293</ele>
        <time>2011-04-10T08:34:48Z</time>
      </trkpt>
      <trkpt lat="49.2007" lon="6.97146">
        <ele>293</ele>
        <time>2011-04-10T08:34:49Z</time>
      </trkpt>
      <trkpt lat="49.2007" lon="6.97145">
        <ele>292</ele>
        <time>2011-04-10T08:34:50Z</time>
      </trkpt>
      <trkpt lat="49.20071" lon="6.97142">
        <ele>291</ele>
        <time>2011-04-10T08:34:52Z</time>
      </trkpt>
      <trkpt lat="49.20071" lon="6.97139">
        <ele>290</ele>
        <time>2011-04-10T08:34:54Z</time>
      </trkpt>
      <trkpt lat="49.20071" lon="6.97135">
        <ele>289</ele>
        <time>2011-04-10T08:34:56Z</time>
      </trkpt>
      <trkpt lat="49.20071" lon="6.97133">
        <ele>289</ele>
        <time>2011-04-10T08:34:57Z</time>
      </trkpt>
      <trkpt lat="49.20072" lon="6.9713">
        <ele>288</ele>
        <time>2011-04-10T08:34:59Z</time>
      </trkpt>
      <trkpt lat="49.20072" lon="6.97128">
        <ele>288</ele>
        <time>2011-04-10T08:35:01Z</time>
      </trkpt>
      <trkpt lat="49.20073" lon="6.97125">
        <ele>287</ele>
        <time>2011-04-10T08:35:03Z</time>
      </trkpt>
      <trkpt lat="49.20074" lon="6.97123">
        <ele>287</ele>
        <time>2011-04-10T08:35:05Z</time>
      </trkpt>
      <trkpt lat="49.20075" lon="6.97121">
        <ele>286</ele>
        <time>2011-04-10T08:35:07Z</time>
      </trkpt>
      <trkpt lat="49.20076" lon="6.97118">
        <ele>285</ele>
        <time>2011-04-10T08:35:09Z</time>
      </trkpt>
      <trkpt lat="49.20077" lon="6.97115">
        <ele>285</ele>
        <time>2011-04-10T08:35:11Z</time>
      </trkpt>
      <trkpt lat="49.20077" lon="6.97112">
        <ele>285</ele>
        <time>2011-04-10T08:35:12Z</time>
      </trkpt>
      <trkpt lat="49.20077" lon="6.97109">
        <ele>285</ele>
        <time>2011-04-10T08:35:13Z</time>
      </trkpt>
      <trkpt lat="49.20077" lon="6.97107">
        <ele>285</ele>
        <time>2011-04-10T08:35:14Z</time>
      </trkpt>
      <trkpt lat="49.20077" lon="6.97104">
        <ele>285</ele>
        <time>2011-04-10T08:35:15Z</time>
      </trkpt>
      <trkpt lat="49.20078" lon="6.97101">
        <ele>285</ele>
        <time>2011-04-10T08:35:16Z</time>
      </trkpt>
      <trkpt lat="49.20078" lon="6.97098">
        <ele>285</ele>
        <time>2011-04-10T08:35:17Z</time>
      </trkpt>
      <trkpt lat="49.20078" lon="6.97095">
        <ele>285</ele>
        <time>2011-04-10T08:35:18Z</time>
      </trkpt>
      <trkpt lat="49.20078" lon="6.97093">
        <ele>285</ele>
        <time>2011-04-10T08:35:19Z</time>
      </trkpt>
      <trkpt lat="49.20078" lon="6.9709">
        <ele>285</ele>
        <time>2011-04-10T08:35:20Z</time>
      </trkpt>
      <trkpt lat="49.20078" lon="6.97087">
        <ele>285</ele>
        <time>2011-04-10T08:35:21Z</time>
      </trkpt>
      <trkpt lat="49.20079" lon="6.97085">
        <ele>285</ele>
        <time>2011-04-10T08:35:22Z</time>
      </trkpt>
      <trkpt lat="49.20079" lon="6.97082">
        <ele>285</ele>
        <time>2011-04-10T08:35:23Z</time>
      </trkpt>
      <trkpt lat="49.20079" lon="6.9708">
        <ele>285</ele>
        <time>2011-04-10T08:35:24Z</time>
      </trkpt>
      <trkpt lat="49.20079" lon="6.97078">
        <ele>286</ele>
        <time>2011-04-10T08:35:25Z</time>
      </trkpt>
      <trkpt lat="49.2008" lon="6.97076">
        <ele>286</ele>
        <time>2011-04-10T08:35:26Z</time>
      </trkpt>
      <trkpt lat="49.2008" lon="6.97074">
        <ele>287</ele>
        <time>2011-04-10T08:35:27Z</time>
      </trkpt>
      <trkpt lat="49.20081" lon="6.97071">
        <ele>288</ele>
        <time>2011-04-10T08:35:28Z</time>
      </trkpt>
      <trkpt lat="49.20081" lon="6.97069">
        <ele>288</ele>
        <time>2011-04-10T08:35:29Z</time>
      </trkpt>
      <trkpt lat="49.20081" lon="6.97066">
        <ele>289</ele>
        <time>2011-04-10T08:35:30Z</time>
      </trkpt>
      <trkpt lat="49.20082" lon="6.97064">
        <ele>290</ele>
        <time>2011-04-10T08:35:31Z</time>
      </trkpt>
      <trkpt lat="49.20082" lon="6.97062">
        <ele>290</ele>
        <time>2011-04-10T08:35:32Z</time>
      </trkpt>
      <trkpt lat="49.20082" lon="6.9706">
        <ele>291</ele>
        <time>2011-04-10T08:35:33Z</time>
      </trkpt>
      <trkpt lat="49.20083" lon="6.97058">
        <ele>291</ele>
        <time>2011-04-10T08:35:34Z</time>
      </trkpt>
      <trkpt lat="49.20083" lon="6.97056">
        <ele>291</ele>
        <time>2011-04-10T08:35:35Z</time>
      </trkpt>
      <trkpt lat="49.20084" lon="6.97053">
        <ele>292</ele>
        <time>2011-04-10T08:35:36Z</time>
      </trkpt>
      <trkpt lat="49.20084" lon="6.97051">
        <ele>292</ele>
        <time>2011-04-10T08:35:37Z</time>
      </trkpt>
      <trkpt lat="49.20084" lon="6.97049">
        <ele>292</ele>
        <time>2011-04-10T08:35:38Z</time>
      </trkpt>
      <trkpt lat="49.20084" lon="6.97047">
        <ele>292</ele>
        <time>2011-04-10T08:35:39Z</time>
      </trkpt>
      <trkpt lat="49.20084" lon="6.97045">
        <ele>292</ele>
        <time>2011-04-10T08:35:40Z</time>
      </trkpt>
      <trkpt lat="49.20084" lon="6.97043">
        <ele>292</ele>
        <time>2011-04-10T08:35:41Z</time>
      </trkpt>
      <trkpt lat="49.20084" lon="6.97041">
        <ele>292</ele>
        <time>2011-04-10T08:35:42Z</time>
      </trkpt>
      <trkpt lat="49.20084" lon="6.97039">
        <ele>293</ele>
        <time>2011-04-10T08:35:43Z</time>
      </trkpt>
      <trkpt lat="49.20084" lon="6.97035">
        <ele>293</ele>
        <time>2011-04-10T08:35:44Z</time>
      </trkpt>
      <trkpt lat="49.20084" lon="6.97031">
        <ele>294</ele>
        <time>2011-04-10T08:35:45Z</time>
      </trkpt>
      <trkpt lat="49.20083" lon="6.97029">
        <ele>295</ele>
        <time>2011-04-10T08:35:46Z</time>
      </trkpt>
      <trkpt lat="49.20083" lon="6.97027">
        <ele>296</ele>
        <time>2011-04-10T08:35:47Z</time>
      </trkpt>
      <trkpt lat="49.20083" lon="6.97025">
        <ele>297</ele>
        <time>2011-04-10T08:35:48Z</time>
      </trkpt>
      <trkpt lat="49.20083" lon="6.97023">
        <ele>298</ele>
        <time>2011-04-10T08:35:49Z</time>
      </trkpt>
      <trkpt lat="49.20082" lon="6.97021">
        <ele>298</ele>
        <time>2011-04-10T08:35:50Z</time>
      </trkpt>
      <trkpt lat="49.20082" lon="6.97018">
        <ele>298</ele>
        <time>2011-04-10T08:35:51Z</time>
      </trkpt>
      <trkpt lat="49.20082" lon="6.97015">
        <ele>299</ele>
        <time>2011-04-10T08:35:52Z</time>
      </trkpt>
      <trkpt lat="49.20082" lon="6.97013">
        <ele>300</ele>
        <time>2011-04-10T08:35:53Z</time>
      </trkpt>
      <trkpt lat="49.20081" lon="6.9701">
        <ele>300</ele>
        <time>2011-04-10T08:35:54Z</time>
      </trkpt>
      <trkpt lat="49.20081" lon="6.97008">
        <ele>301</ele>
        <time>2011-04-10T08:35:55Z</time>
      </trkpt>
      <trkpt lat="49.20081" lon="6.97007">
        <ele>302</ele>
        <time>2011-04-10T08:35:56Z</time>
      </trkpt>
      <trkpt lat="49.2008" lon="6.97003">
        <ele>302</ele>
        <time>2011-04-10T08:35:58Z</time>
      </trkpt>
      <trkpt lat="49.20079" lon="6.97001">
        <ele>302</ele>
        <time>2011-04-10T08:35:59Z</time>
      </trkpt>
      <trkpt lat="49.20079" lon="6.97">
        <ele>302</ele>
        <time>2011-04-10T08:36:00Z</time>
      </trkpt>
      <trkpt lat="49.20078" lon="6.96997">
        <ele>302</ele>
        <time>2011-04-10T08:36:01Z</time>
      </trkpt>
      <trkpt lat="49.20078" lon="6.96995">
        <ele>302</ele>
        <time>2011-04-10T08:36:02Z</time>
      </trkpt>
      <trkpt lat="49.20077" lon="6.96993">
        <ele>303</ele>
        <time>2011-04-10T08:36:03Z</time>
      </trkpt>
      <trkpt lat="49.20077" lon="6.96992">
        <ele>303</ele>
        <time>2011-04-10T08:36:04Z</time>
      </trkpt>
      <trkpt lat="49.20076" lon="6.96988">
        <ele>303</ele>
        <time>2011-04-10T08:36:06Z</time>
      </trkpt>
      <trkpt lat="49.20075" lon="6.96987">
        <ele>303</ele>
        <time>2011-04-10T08:36:07Z</time>
      </trkpt>
      <trkpt lat="49.20075" lon="6.96985">
        <ele>303</ele>
        <time>2011-04-10T08:36:08Z</time>
      </trkpt>
      <trkpt lat="49.20074" lon="6.96982">
        <ele>303</ele>
        <time>2011-04-10T08:36:09Z</time>
      </trkpt>
      <trkpt lat="49.20074" lon="6.9698">
        <ele>303</ele>
        <time>2011-04-10T08:36:10Z</time>
      </trkpt>
      <trkpt lat="49.20073" lon="6.96978">
        <ele>304</ele>
        <time>2011-04-10T08:36:11Z</time>
      </trkpt>
      <trkpt lat="49.20073" lon="6.96977">
        <ele>304</ele>
        <time>2011-04-10T08:36:12Z</time>
      </trkpt>
      <trkpt lat="49.20072" lon="6.96974">
        <ele>304</ele>
        <time>2011-04-10T08:36:14Z</time>
      </trkpt>
      <trkpt lat="49.20072" lon="6.96972">
        <ele>304</ele>
        <time>2011-04-10T08:36:15Z</time>
      </trkpt>
      <trkpt lat="49.20071" lon="6.9697">
        <ele>304</ele>
        <time>2011-04-10T08:36:16Z</time>
      </trkpt>
      <trkpt lat="49.20071" lon="6.96968">
        <ele>304</ele>
        <time>2011-04-10T08:36:17Z</time>
      </trkpt>
      <trkpt lat="49.2007" lon="6.96967">
        <ele>304</ele>
        <time>2011-04-10T08:36:18Z</time>
      </trkpt>
      <trkpt lat="49.2007" lon="6.96965">
        <ele>304</ele>
        <time>2011-04-10T08:36:19Z</time>
      </trkpt>
      <trkpt lat="49.20069" lon="6.96962">
        <ele>304</ele>
        <time>2011-04-10T08:36:20Z</time>
      </trkpt>
      <trkpt lat="49.20069" lon="6.9696">
        <ele>305</ele>
        <time>2011-04-10T08:36:21Z</time>
      </trkpt>
      <trkpt lat="49.20069" lon="6.96957">
        <ele>305</ele>
        <time>2011-04-10T08:36:22Z</time>
      </trkpt>
      <trkpt lat="49.20068" lon="6.96955">
        <ele>306</ele>
        <time>2011-04-10T08:36:23Z</time>
      </trkpt>
      <trkpt lat="49.20068" lon="6.96952">
        <ele>307</ele>
        <time>2011-04-10T08:36:26Z</time>
      </trkpt>
      <trkpt lat="49.20067" lon="6.96949">
        <ele>307</ele>
        <time>2011-04-10T08:36:27Z</time>
      </trkpt>
      <trkpt lat="49.20066" lon="6.96947">
        <ele>307</ele>
        <time>2011-04-10T08:36:28Z</time>
      </trkpt>
      <trkpt lat="49.20066" lon="6.96945">
        <ele>307</ele>
        <time>2011-04-10T08:36:29Z</time>
      </trkpt>
      <trkpt lat="49.20066" lon="6.96943">
        <ele>307</ele>
        <time>2011-04-10T08:36:30Z</time>
      </trkpt>
      <trkpt lat="49.20066" lon="6.96941">
        <ele>307</ele>
        <time>2011-04-10T08:36:31Z</time>
      </trkpt>
      <trkpt lat="49.20065" lon="6.96939">
        <ele>307</ele>
        <time>2011-04-10T08:36:32Z</time>
      </trkpt>
      <trkpt lat="49.20065" lon="6.96938">
        <ele>307</ele>
        <time>2011-04-10T08:36:33Z</time>
      </trkpt>
      <trkpt lat="49.20064" lon="6.96936">
        <ele>307</ele>
        <time>2011-04-10T08:36:34Z</time>
      </trkpt>
      <trkpt lat="49.20064" lon="6.96934">
        <ele>307</ele>
        <time>2011-04-10T08:36:35Z</time>
      </trkpt>
      <trkpt lat="49.20063" lon="6.96932">
        <ele>307</ele>
        <time>2011-04-10T08:36:36Z</time>
      </trkpt>
      <trkpt lat="49.20063" lon="6.9693">
        <ele>307</ele>
        <time>2011-04-10T08:36:37Z</time>
      </trkpt>
      <trkpt lat="49.20063" lon="6.96928">
        <ele>307</ele>
        <time>2011-04-10T08:36:38Z</time>
      </trkpt>
      <trkpt lat="49.20062" lon="6.96926">
        <ele>307</ele>
        <time>2011-04-10T08:36:39Z</time>
      </trkpt>
      <trkpt lat="49.20062" lon="6.96925">
        <ele>307</ele>
        <time>2011-04-10T08:36:40Z</time>
      </trkpt>
      <trkpt lat="49.20062" lon="6.96923">
        <ele>307</ele>
        <time>2011-04-10T08:36:41Z</time>
      </trkpt>
      <trkpt lat="49.20061" lon="6.9692">
        <ele>307</ele>
        <time>2011-04-10T08:36:42Z</time>
      </trkpt>
      <trkpt lat="49.20061" lon="6.96918">
        <ele>307</ele>
        <time>2011-04-10T08:36:43Z</time>
      </trkpt>
      <trkpt lat="49.2006" lon="6.96916">
        <ele>307</ele>
        <time>2011-04-10T08:36:44Z</time>
      </trkpt>
      <trkpt lat="49.2006" lon="6.96914">
        <ele>307</ele>
        <time>2011-04-10T08:36:45Z</time>
      </trkpt>
      <trkpt lat="49.20059" lon="6.96912">
        <ele>307</ele>
        <time>2011-04-10T08:36:46Z</time>
      </trkpt>
      <trkpt lat="49.20058" lon="6.9691">
        <ele>307</ele>
        <time>2011-04-10T08:36:47Z</time>
      </trkpt>
      <trkpt lat="49.20058" lon="6.96907">
        <ele>308</ele>
        <time>2011-04-10T08:36:48Z</time>
      </trkpt>
      <trkpt lat="49.20058" lon="6.96906">
        <ele>308</ele>
        <time>2011-04-10T08:36:49Z</time>
      </trkpt>
      <trkpt lat="49.20057" lon="6.96902">
        <ele>308</ele>
        <time>2011-04-10T08:36:51Z</time>
      </trkpt>
      <trkpt lat="49.20057" lon="6.96901">
        <ele>309</ele>
        <time>2011-04-10T08:36:52Z</time>
      </trkpt>
      <trkpt lat="49.20056" lon="6.96899">
        <ele>309</ele>
        <time>2011-04-10T08:36:53Z</time>
      </trkpt>
      <trkpt lat="49.20054" lon="6.96895">
        <ele>309</ele>
        <time>2011-04-10T08:36:55Z</time>
      </trkpt>
      <trkpt lat="49.20053" lon="6.96893">
        <ele>309</ele>
        <time>2011-04-10T08:36:56Z</time>
      </trkpt>
      <trkpt lat="49.20053" lon="6.96891">
        <ele>309</ele>
        <time>2011-04-10T08:36:57Z</time>
      </trkpt>
      <trkpt lat="49.20052" lon="6.96889">
        <ele>310</ele>
        <time>2011-04-10T08:36:58Z</time>
      </trkpt>
      <trkpt lat="49.20052" lon="6.96887">
        <ele>310</ele>
        <time>2011-04-10T08:36:59Z</time>
      </trkpt>
      <trkpt lat="49.20051" lon="6.96885">
        <ele>310</ele>
        <time>2011-04-10T08:37:00Z</time>
      </trkpt>
      <trkpt lat="49.2005" lon="6.96883">
        <ele>311</ele>
        <time>2011-04-10T08:37:01Z</time>
      </trkpt>
      <trkpt lat="49.2005" lon="6.96881">
        <ele>311</ele>
        <time>2011-04-10T08:37:02Z</time>
      </trkpt>
      <trkpt lat="49.20049" lon="6.96879">
        <ele>311</ele>
        <time>2011-04-10T08:37:03Z</time>
      </trkpt>
      <trkpt lat="49.20047" lon="6.96875">
        <ele>312</ele>
        <time>2011-04-10T08:37:05Z</time>
      </trkpt>
      <trkpt lat="49.20047" lon="6.96874">
        <ele>312</ele>
        <time>2011-04-10T08:37:06Z</time>
      </trkpt>
      <trkpt lat="49.20046" lon="6.96872">
        <ele>312</ele>
        <time>2011-04-10T08:37:07Z</time>
      </trkpt>
      <trkpt lat="49.20045" lon="6.9687">
        <ele>312</ele>
        <time>2011-04-10T08:37:08Z</time>
      </trkpt>
      <trkpt lat="49.20045" lon="6.96869">
        <ele>312</ele>
        <time>2011-04-10T08:37:09Z</time>
      </trkpt>
      <trkpt lat="49.20044" lon="6.96865">
        <ele>312</ele>
        <time>2011-04-10T08:37:11Z</time>
      </trkpt>
      <trkpt lat="49.20043" lon="6.96863">
        <ele>312</ele>
        <time>2011-04-10T08:37:12Z</time>
      </trkpt>
      <trkpt lat="49.20042" lon="6.96861">
        <ele>312</ele>
        <time>2011-04-10T08:37:13Z</time>
      </trkpt>
      <trkpt lat="49.20042" lon="6.96859">
        <ele>312</ele>
        <time>2011-04-10T08:37:14Z</time>
      </trkpt>
      <trkpt lat="49.2004" lon="6.96856">
        <ele>312</ele>
        <time>2011-04-10T08:37:16Z</time>
      </trkpt>
      <trkpt lat="49.20039" lon="6.96854">
        <ele>312</ele>
        <time>2011-04-10T08:37:17Z</time>
      </trkpt>
      <trkpt lat="49.20039" lon="6.96852">
        <ele>312</ele>
        <time>2011-04-10T08:37:18Z</time>
      </trkpt>
      <trkpt lat="49.20038" lon="6.96849">
        <ele>312</ele>
        <time>2011-04-10T08:37:19Z</time>
      </trkpt>
      <trkpt lat="49.20036" lon="6.96846">
        <ele>312</ele>
        <time>2011-04-10T08:37:21Z</time>
      </trkpt>
      <trkpt lat="49.20036" lon="6.96844">
        <ele>313</ele>
        <time>2011-04-10T08:37:22Z</time>
      </trkpt>
      <trkpt lat="49.20036" lon="6.96842">
        <ele>313</ele>
        <time>2011-04-10T08:37:23Z</time>
      </trkpt>
      <trkpt lat="49.20036" lon="6.9684">
        <ele>313</ele>
        <time>2011-04-10T08:37:24Z</time>
      </trkpt>
      <trkpt lat="49.20036" lon="6.96838">
        <ele>313</ele>
        <time>2011-04-10T08:37:25Z</time>
      </trkpt>
      <trkpt lat="49.20035" lon="6.96836">
        <ele>314</ele>
        <time>2011-04-10T08:37:26Z</time>
      </trkpt>
      <trkpt lat="49.20034" lon="6.96835">
        <ele>314</ele>
        <time>2011-04-10T08:37:27Z</time>
      </trkpt>
      <trkpt lat="49.20034" lon="6.96833">
        <ele>314</ele>
        <time>2011-04-10T08:37:28Z</time>
      </trkpt>
      <trkpt lat="49.20034" lon="6.96831">
        <ele>314</ele>
        <time>2011-04-10T08:37:29Z</time>
      </trkpt>
      <trkpt lat="49.20033" lon="6.96829">
        <ele>314</ele>
        <time>2011-04-10T08:37:30Z</time>
      </trkpt>
      <trkpt lat="49.20032" lon="6.96826">
        <ele>314</ele>
        <time>2011-04-10T08:37:32Z</time>
      </trkpt>
      <trkpt lat="49.20031" lon="6.96824">
        <ele>314</ele>
        <time>2011-04-10T08:37:33Z</time>
      </trkpt>
      <trkpt lat="49.20031" lon="6.96822">
        <ele>315</ele>
        <time>2011-04-10T08:37:34Z</time>
      </trkpt>
      <trkpt lat="49.2003" lon="6.9682">
        <ele>315</ele>
        <time>2011-04-10T08:37:35Z</time>
      </trkpt>
      <trkpt lat="49.2003" lon="6.96818">
        <ele>316</ele>
        <time>2011-04-10T08:37:36Z</time>
      </trkpt>
      <trkpt lat="49.20028" lon="6.96817">
        <ele>316</ele>
        <time>2011-04-10T08:37:37Z</time>
      </trkpt>
      <trkpt lat="49.20027" lon="6.96815">
        <ele>316</ele>
        <time>2011-04-10T08:37:38Z</time>
      </trkpt>
      <trkpt lat="49.20026" lon="6.96814">
        <ele>316</ele>
        <time>2011-04-10T08:37:39Z</time>
      </trkpt>
      <trkpt lat="49.20026" lon="6.96812">
        <ele>316</ele>
        <time>2011-04-10T08:37:40Z</time>
      </trkpt>
      <trkpt lat="49.20024" lon="6.96809">
        <ele>317</ele>
        <time>2011-04-10T08:37:42Z</time>
      </trkpt>
      <trkpt lat="49.20024" lon="6.96807">
        <ele>317</ele>
        <time>2011-04-10T08:37:43Z</time>
      </trkpt>
      <trkpt lat="49.20024" lon="6.96804">
        <ele>317</ele>
        <time>2011-04-10T08:37:44Z</time>
      </trkpt>
      <trkpt lat="49.20023" lon="6.96801">
        <ele>317</ele>
        <time>2011-04-10T08:37:46Z</time>
      </trkpt>
      <trkpt lat="49.20021" lon="6.96798">
        <ele>317</ele>
        <time>2011-04-10T08:37:48Z</time>
      </trkpt>
      <trkpt lat="49.20021" lon="6.96796">
        <ele>317</ele>
        <time>2011-04-10T08:37:49Z</time>
      </trkpt>
      <trkpt lat="49.2002" lon="6.96794">
        <ele>317</ele>
        <time>2011-04-10T08:37:50Z</time>
      </trkpt>
      <trkpt lat="49.20019" lon="6.96792">
        <ele>317</ele>
        <time>2011-04-10T08:37:51Z</time>
      </trkpt>
      <trkpt lat="49.20019" lon="6.96791">
        <ele>317</ele>
        <time>2011-04-10T08:37:52Z</time>
      </trkpt>
      <trkpt lat="49.20018" lon="6.96789">
        <ele>317</ele>
        <time>2011-04-10T08:37:53Z</time>
      </trkpt>
      <trkpt lat="49.20017" lon="6.96786">
        <ele>317</ele>
        <time>2011-04-10T08:37:55Z</time>
      </trkpt>
      <trkpt lat="49.20016" lon="6.96784">
        <ele>317</ele>
        <time>2011-04-10T08:37:56Z</time>
      </trkpt>
      <trkpt lat="49.20016" lon="6.96782">
        <ele>317</ele>
        <time>2011-04-10T08:37:57Z</time>
      </trkpt>
      <trkpt lat="49.20015" lon="6.9678">
        <ele>317</ele>
        <time>2011-04-10T08:37:58Z</time>
      </trkpt>
      <trkpt lat="49.20015" lon="6.96778">
        <ele>317</ele>
        <time>2011-04-10T08:37:59Z</time>
      </trkpt>
      <trkpt lat="49.20013" lon="6.96775">
        <ele>317</ele>
        <time>2011-04-10T08:38:01Z</time>
      </trkpt>
      <trkpt lat="49.20012" lon="6.96772">
        <ele>317</ele>
        <time>2011-04-10T08:38:03Z</time>
      </trkpt>
      <trkpt lat="49.20011" lon="6.9677">
        <ele>317</ele>
        <time>2011-04-10T08:38:04Z</time>
      </trkpt>
      <trkpt lat="49.20011" lon="6.96768">
        <ele>317</ele>
        <time>2011-04-10T08:38:05Z</time>
      </trkpt>
      <trkpt lat="49.2001" lon="6.96766">
        <ele>317</ele>
        <time>2011-04-10T08:38:06Z</time>
      </trkpt>
      <trkpt lat="49.2001" lon="6.96764">
        <ele>317</ele>
        <time>2011-04-10T08:38:07Z</time>
      </trkpt>
      <trkpt lat="49.2001" lon="6.96763">
        <ele>317</ele>
        <time>2011-04-10T08:38:08Z</time>
      </trkpt>
      <trkpt lat="49.20009" lon="6.96761">
        <ele>317</ele>
        <time>2011-04-10T08:38:09Z</time>
      </trkpt>
      <trkpt lat="49.20008" lon="6.96759">
        <ele>317</ele>
        <time>2011-04-10T08:38:10Z</time>
      </trkpt>
      <trkpt lat="49.20008" lon="6.96758">
        <ele>317</ele>
        <time>2011-04-10T08:38:11Z</time>
      </trkpt>
      <trkpt lat="49.20007" lon="6.96756">
        <ele>317</ele>
        <time>2011-04-10T08:38:12Z</time>
      </trkpt>
      <trkpt lat="49.20007" lon="6.96754">
        <ele>317</ele>
        <time>2011-04-10T08:38:13Z</time>
      </trkpt>
      <trkpt lat="49.20007" lon="6.96751">
        <ele>317</ele>
        <time>2011-04-10T08:38:14Z</time>
      </trkpt>
      <trkpt lat="49.20006" lon="6.96749">
        <ele>318</ele>
        <time>2011-04-10T08:38:15Z</time>
      </trkpt>
      <trkpt lat="49.20006" lon="6.96748">
        <ele>318</ele>
        <time>2011-04-10T08:38:16Z</time>
      </trkpt>
      <trkpt lat="49.20005" lon="6.96746">
        <ele>318</ele>
        <time>2011-04-10T08:38:17Z</time>
      </trkpt>
      <trkpt lat="49.20005" lon="6.96744">
        <ele>318</ele>
        <time>2011-04-10T08:38:18Z</time>
      </trkpt>
      <trkpt lat="49.20004" lon="6.96742">
        <ele>319</ele>
        <time>2011-04-10T08:38:19Z</time>
      </trkpt>
      <trkpt lat="49.20004" lon="6.9674">
        <ele>319</ele>
        <time>2011-04-10T08:38:20Z</time>
      </trkpt>
      <trkpt lat="49.20003" lon="6.96738">
        <ele>319</ele>
        <time>2011-04-10T08:38:21Z</time>
      </trkpt>
      <trkpt lat="49.20003" lon="6.96736">
        <ele>319</ele>
        <time>2011-04-10T08:38:22Z</time>
      </trkpt>
      <trkpt lat="49.20002" lon="6.96735">
        <ele>319</ele>
        <time>2011-04-10T08:38:23Z</time>
      </trkpt>
      <trkpt lat="49.20002" lon="6.96733">
        <ele>319</ele>
        <time>2011-04-10T08:38:24Z</time>
      </trkpt>
      <trkpt lat="49.20001" lon="6.96731">
        <ele>319</ele>
        <time>2011-04-10T08:38:25Z</time>
      </trkpt>
      <trkpt lat="49.2" lon="6.96728">
        <ele>320</ele>
        <time>2011-04-10T08:38:27Z</time>
      </trkpt>
      <trkpt lat="49.19999" lon="6.96726">
        <ele>320</ele>
        <time>2011-04-10T08:38:29Z</time>
      </trkpt>
      <trkpt lat="49.19998" lon="6.96723">
        <ele>320</ele>
        <time>2011-04-10T08:38:31Z</time>
      </trkpt>
      <trkpt lat="49.19996" lon="6.9672">
        <ele>320</ele>
        <time>2011-04-10T08:38:33Z</time>
      </trkpt>
      <trkpt lat="49.19995" lon="6.96718">
        <ele>320</ele>
        <time>2011-04-10T08:38:34Z</time>
      </trkpt>
      <trkpt lat="49.19995" lon="6.96716">
        <ele>320</ele>
        <time>2011-04-10T08:38:35Z</time>
      </trkpt>
      <trkpt lat="49.19994" lon="6.96713">
        <ele>320</ele>
        <time>2011-04-10T08:38:37Z</time>
      </trkpt>
      <trkpt lat="49.19993" lon="6.96712">
        <ele>320</ele>
        <time>2011-04-10T08:38:38Z</time>
      </trkpt>
      <trkpt lat="49.19993" lon="6.9671">
        <ele>320</ele>
        <time>2011-04-10T08:38:39Z</time>
      </trkpt>
      <trkpt lat="49.19992" lon="6.96708">
        <ele>320</ele>
        <time>2011-04-10T08:38:40Z</time>
      </trkpt>
      <trkpt lat="49.19992" lon="6.96706">
        <ele>320</ele>
        <time>2011-04-10T08:38:41Z</time>
      </trkpt>
      <trkpt lat="49.19991" lon="6.96704">
        <ele>320</ele>
        <time>2011-04-10T08:38:43Z</time>
      </trkpt>
      <trkpt lat="49.19989" lon="6.96701">
        <ele>320</ele>
        <time>2011-04-10T08:38:45Z</time>
      </trkpt>
      <trkpt lat="49.19989" lon="6.96698">
        <ele>320</ele>
        <time>2011-04-10T08:38:47Z</time>
      </trkpt>
      <trkpt lat="49.19988" lon="6.96695">
        <ele>320</ele>
        <time>2011-04-10T08:38:49Z</time>
      </trkpt>
      <trkpt lat="49.19988" lon="6.96693">
        <ele>320</ele>
        <time>2011-04-10T08:38:50Z</time>
      </trkpt>
      <trkpt lat="49.19988" lon="6.96692">
        <ele>320</ele>
        <time>2011-04-10T08:38:51Z</time>
      </trkpt>
      <trkpt lat="49.19988" lon="6.9669">
        <ele>320</ele>
        <time>2011-04-10T08:38:52Z</time>
      </trkpt>
      <trkpt lat="49.19987" lon="6.96688">
        <ele>320</ele>
        <time>2011-04-10T08:38:53Z</time>
      </trkpt>
      <trkpt lat="49.19987" lon="6.96685">
        <ele>320</ele>
        <time>2011-04-10T08:38:55Z</time>
      </trkpt>
      <trkpt lat="49.19986" lon="6.96683">
        <ele>320</ele>
        <time>2011-04-10T08:38:56Z</time>
      </trkpt>
      <trkpt lat="49.19985" lon="6.9668">
        <ele>320</ele>
        <time>2011-04-10T08:38:58Z</time>
      </trkpt>
      <trkpt lat="49.19984" lon="6.96677">
        <ele>320</ele>
        <time>2011-04-10T08:39:00Z</time>
      </trkpt>
      <trkpt lat="49.19983" lon="6.96674">
        <ele>320</ele>
        <time>2011-04-10T08:39:02Z</time>
      </trkpt>
      <trkpt lat="49.19981" lon="6.96671">
        <ele>320</ele>
        <time>2011-04-10T08:39:04Z</time>
      </trkpt>
      <trkpt lat="49.19981" lon="6.96669">
        <ele>320</ele>
        <time>2011-04-10T08:39:05Z</time>
      </trkpt>
      <trkpt lat="49.19979" lon="6.96667">
        <ele>320</ele>
        <time>2011-04-10T08:39:07Z</time>
      </trkpt>
      <trkpt lat="49.19978" lon="6.96666">
        <ele>320</ele>
        <time>2011-04-10T08:39:08Z</time>
      </trkpt>
      <trkpt lat="49.19976" lon="6.96665">
        <ele>320</ele>
        <time>2011-04-10T08:39:09Z</time>
      </trkpt>
      <trkpt lat="49.19974" lon="6.96664">
        <ele>320</ele>
        <time>2011-04-10T08:39:11Z</time>
      </trkpt>
      <trkpt lat="49.19972" lon="6.96663">
        <ele>320</ele>
        <time>2011-04-10T08:39:13Z</time>
      </trkpt>
      <trkpt lat="49.1997" lon="6.96661">
        <ele>320</ele>
        <time>2011-04-10T08:39:15Z</time>
      </trkpt>
      <trkpt lat="49.19968" lon="6.96659">
        <ele>320</ele>
        <time>2011-04-10T08:39:17Z</time>
      </trkpt>
      <trkpt lat="49.19967" lon="6.96658">
        <ele>320</ele>
        <time>2011-04-10T08:39:18Z</time>
      </trkpt>
      <trkpt lat="49.19965" lon="6.96656">
        <ele>320</ele>
        <time>2011-04-10T08:39:20Z</time>
      </trkpt>
      <trkpt lat="49.19963" lon="6.96654">
        <ele>320</ele>
        <time>2011-04-10T08:39:22Z</time>
      </trkpt>
      <trkpt lat="49.19961" lon="6.96654">
        <ele>320</ele>
        <time>2011-04-10T08:39:24Z</time>
      </trkpt>
      <trkpt lat="49.19959" lon="6.96652">
        <ele>320</ele>
        <time>2011-04-10T08:39:26Z</time>
      </trkpt>
      <trkpt lat="49.19957" lon="6.96651">
        <ele>320</ele>
        <time>2011-04-10T08:39:28Z</time>
      </trkpt>
      <trkpt lat="49.19955" lon="6.96649">
        <ele>320</ele>
        <time>2011-04-10T08:39:30Z</time>
      </trkpt>
      <trkpt lat="49.19953" lon="6.96648">
        <ele>320</ele>
        <time>2011-04-10T08:39:31Z</time>
      </trkpt>
      <trkpt lat="49.19952" lon="6.96648">
        <ele>320</ele>
        <time>2011-04-10T08:39:32Z</time>
      </trkpt>
      <trkpt lat="49.1995" lon="6.96646">
        <ele>320</ele>
        <time>2011-04-10T08:39:34Z</time>
      </trkpt>
      <trkpt lat="49.19949" lon="6.96644">
        <ele>320</ele>
        <time>2011-04-10T08:39:36Z</time>
      </trkpt>
      <trkpt lat="49.19947" lon="6.96642">
        <ele>320</ele>
        <time>2011-04-10T08:39:38Z</time>
      </trkpt>
      <trkpt lat="49.19945" lon="6.96641">
        <ele>320</ele>
        <time>2011-04-10T08:39:39Z</time>
      </trkpt>
      <trkpt lat="49.19944" lon="6.96641">
        <ele>320</ele>
        <time>2011-04-10T08:39:40Z</time>
      </trkpt>
      <trkpt lat="49.19943" lon="6.9664">
        <ele>320</ele>
        <time>2011-04-10T08:39:41Z</time>
      </trkpt>
      <trkpt lat="49.19941" lon="6.96638">
        <ele>320</ele>
        <time>2011-04-10T08:39:43Z</time>
      </trkpt>
      <trkpt lat="49.1994" lon="6.96638">
        <ele>320</ele>
        <time>2011-04-10T08:39:44Z</time>
      </trkpt>
      <trkpt lat="49.19939" lon="6.96637">
        <ele>320</ele>
        <time>2011-04-10T08:39:45Z</time>
      </trkpt>
      <trkpt lat="49.19938" lon="6.96636">
        <ele>320</ele>
        <time>2011-04-10T08:39:46Z</time>
      </trkpt>
      <trkpt lat="49.19936" lon="6.96635">
        <ele>320</ele>
        <time>2011-04-10T08:39:47Z</time>
      </trkpt>
      <trkpt lat="49.19935" lon="6.96635">
        <ele>320</ele>
        <time>2011-04-10T08:39:48Z</time>
      </trkpt>
      <trkpt lat="49.19933" lon="6.96634">
        <ele>320</ele>
        <time>2011-04-10T08:39:50Z</time>
      </trkpt>
      <trkpt lat="49.19931" lon="6.96632">
        <ele>320</ele>
        <time>2011-04-10T08:39:52Z</time>
      </trkpt>
      <trkpt lat="49.19929" lon="6.9663">
        <ele>320</ele>
        <time>2011-04-10T08:39:54Z</time>
      </trkpt>
      <trkpt lat="49.19928" lon="6.96629">
        <ele>320</ele>
        <time>2011-04-10T08:39:55Z</time>
      </trkpt>
      <trkpt lat="49.19926" lon="6.96627">
        <ele>320</ele>
        <time>2011-04-10T08:39:57Z</time>
      </trkpt>
      <trkpt lat="49.19925" lon="6.96626">
        <ele>320</ele>
        <time>2011-04-10T08:39:58Z</time>
      </trkpt>
      <trkpt lat="49.19923" lon="6.96625">
        <ele>320</ele>
        <time>2011-04-10T08:39:59Z</time>
      </trkpt>
      <trkpt lat="49.19922" lon="6.96624">
        <ele>320</ele>
        <time>2011-04-10T08:40:00Z</time>
      </trkpt>
      <trkpt lat="49.1992" lon="6.96622">
        <ele>320</ele>
        <time>2011-04-10T08:40:02Z</time>
      </trkpt>
      <trkpt lat="49.19918" lon="6.96621">
        <ele>320</ele>
        <time>2011-04-10T08:40:03Z</time>
      </trkpt>
      <trkpt lat="49.19917" lon="6.9662">
        <ele>320</ele>
        <time>2011-04-10T08:40:04Z</time>
      </trkpt>
      <trkpt lat="49.19916" lon="6.96619">
        <ele>320</ele>
        <time>2011-04-10T08:40:05Z</time>
      </trkpt>
      <trkpt lat="49.19914" lon="6.96618">
        <ele>320</ele>
        <time>2011-04-10T08:40:07Z</time>
      </trkpt>
      <trkpt lat="49.19912" lon="6.96617">
        <ele>320</ele>
        <time>2011-04-10T08:40:08Z</time>
      </trkpt>
      <trkpt lat="49.19911" lon="6.96617">
        <ele>320</ele>
        <time>2011-04-10T08:40:09Z</time>
      </trkpt>
      <trkpt lat="49.19909" lon="6.96616">
        <ele>320</ele>
        <time>2011-04-10T08:40:10Z</time>
      </trkpt>
      <trkpt lat="49.19908" lon="6.96615">
        <ele>320</ele>
        <time>2011-04-10T08:40:11Z</time>
      </trkpt>
      <trkpt lat="49.19907" lon="6.96615">
        <ele>320</ele>
        <time>2011-04-10T08:40:12Z</time>
      </trkpt>
      <trkpt lat="49.19905" lon="6.96614">
        <ele>319</ele>
        <time>2011-04-10T08:40:13Z</time>
      </trkpt>
      <trkpt lat="49.19904" lon="6.96614">
        <ele>319</ele>
        <time>2011-04-10T08:40:14Z</time>
      </trkpt>
      <trkpt lat="49.19903" lon="6.96613">
        <ele>319</ele>
        <time>2011-04-10T08:40:15Z</time>
      </trkpt>
      <trkpt lat="49.19902" lon="6.96612">
        <ele>319</ele>
        <time>2011-04-10T08:40:16Z</time>
      </trkpt>
      <trkpt lat="49.199" lon="6.96611">
        <ele>319</ele>
        <time>2011-04-10T08:40:17Z</time>
      </trkpt>
      <trkpt lat="49.19899" lon="6.9661">
        <ele>319</ele>
        <time>2011-04-10T08:40:18Z</time>
      </trkpt>
      <trkpt lat="49.19898" lon="6.96609">
        <ele>319</ele>
        <time>2011-04-10T08:40:19Z</time>
      </trkpt>
      <trkpt lat="49.19896" lon="6.96609">
        <ele>319</ele>
        <time>2011-04-10T08:40:20Z</time>
      </trkpt>
      <trkpt lat="49.19895" lon="6.96608">
        <ele>319</ele>
        <time>2011-04-10T08:40:21Z</time>
      </trkpt>
      <trkpt lat="49.19894" lon="6.96607">
        <ele>319</ele>
        <time>2011-04-10T08:40:22Z</time>
      </trkpt>
      <trkpt lat="49.19891" lon="6.96606">
        <ele>319</ele>
        <time>2011-04-10T08:40:24Z</time>
      </trkpt>
      <trkpt lat="49.1989" lon="6.96605">
        <ele>319</ele>
        <time>2011-04-10T08:40:25Z</time>
      </trkpt>
      <trkpt lat="49.19889" lon="6.96604">
        <ele>319</ele>
        <time>2011-04-10T08:40:26Z</time>
      </trkpt>
      <trkpt lat="49.19887" lon="6.96603">
        <ele>319</ele>
        <time>2011-04-10T08:40:27Z</time>
      </trkpt>
      <trkpt lat="49.19886" lon="6.96602">
        <ele>319</ele>
        <time>2011-04-10T08:40:28Z</time>
      </trkpt>
      <trkpt lat="49.19885" lon="6.96602">
        <ele>319</ele>
        <time>2011-04-10T08:40:29Z</time>
      </trkpt>
      <trkpt lat="49.19883" lon="6.966">
        <ele>319</ele>
        <time>2011-04-10T08:40:31Z</time>
      </trkpt>
      <trkpt lat="49.19882" lon="6.96599">
        <ele>319</ele>
        <time>2011-04-10T08:40:32Z</time>
      </trkpt>
      <trkpt lat="49.19881" lon="6.96598">
        <ele>319</ele>
        <time>2011-04-10T08:40:33Z</time>
      </trkpt>
      <trkpt lat="49.19879" lon="6.96598">
        <ele>319</ele>
        <time>2011-04-10T08:40:34Z</time>
      </trkpt>
      <trkpt lat="49.19878" lon="6.96597">
        <ele>319</ele>
        <time>2011-04-10T08:40:35Z</time>
      </trkpt>
      <trkpt lat="49.19877" lon="6.96596">
        <ele>319</ele>
        <time>2011-04-10T08:40:36Z</time>
      </trkpt>
      <trkpt lat="49.19875" lon="6.96595">
        <ele>319</ele>
        <time>2011-04-10T08:40:37Z</time>
      </trkpt>
      <trkpt lat="49.19874" lon="6.96593">
        <ele>319</ele>
        <time>2011-04-10T08:40:38Z</time>
      </trkpt>
      <trkpt lat="49.19873" lon="6.96592">
        <ele>319</ele>
        <time>2011-04-10T08:40:39Z</time>
      </trkpt>
      <trkpt lat="49.19871" lon="6.9659">
        <ele>319</ele>
        <time>2011-04-10T08:40:41Z</time>
      </trkpt>
      <trkpt lat="49.1987" lon="6.96589">
        <ele>319</ele>
        <time>2011-04-10T08:40:42Z</time>
      </trkpt>
      <trkpt lat="49.19868" lon="6.96588">
        <ele>319</ele>
        <time>2011-04-10T08:40:43Z</time>
      </trkpt>
      <trkpt lat="49.19867" lon="6.96588">
        <ele>319</ele>
        <time>2011-04-10T08:40:44Z</time>
      </trkpt>
      <trkpt lat="49.19865" lon="6.96587">
        <ele>319</ele>
        <time>2011-04-10T08:40:45Z</time>
      </trkpt>
      <trkpt lat="49.19864" lon="6.96586">
        <ele>319</ele>
        <time>2011-04-10T08:40:46Z</time>
      </trkpt>
      <trkpt lat="49.19862" lon="6.96585">
        <ele>319</ele>
        <time>2011-04-10T08:40:47Z</time>
      </trkpt>
      <trkpt lat="49.19861" lon="6.96585">
        <ele>319</ele>
        <time>2011-04-10T08:40:48Z</time>
      </trkpt>
      <trkpt lat="49.19859" lon="6.96584">
        <ele>319</ele>
        <time>2011-04-10T08:40:49Z</time>
      </trkpt>
      <trkpt lat="49.19858" lon="6.96583">
        <ele>319</ele>
        <time>2011-04-10T08:40:50Z</time>
      </trkpt>
      <trkpt lat="49.19857" lon="6.96583">
        <ele>319</ele>
        <time>2011-04-10T08:40:51Z</time>
      </trkpt>
      <trkpt lat="49.19855" lon="6.96582">
        <ele>319</ele>
        <time>2011-04-10T08:40:52Z</time>
      </trkpt>
      <trkpt lat="49.19854" lon="6.96581">
        <ele>319</ele>
        <time>2011-04-10T08:40:53Z</time>
      </trkpt>
      <trkpt lat="49.19853" lon="6.96581">
        <ele>319</ele>
        <time>2011-04-10T08:40:54Z</time>
      </trkpt>
      <trkpt lat="49.19852" lon="6.9658">
        <ele>319</ele>
        <time>2011-04-10T08:40:55Z</time>
      </trkpt>
      <trkpt lat="49.19851" lon="6.9658">
        <ele>319</ele>
        <time>2011-04-10T08:40:56Z</time>
      </trkpt>
      <trkpt lat="49.19849" lon="6.96579">
        <ele>319</ele>
        <time>2011-04-10T08:40:57Z</time>
      </trkpt>
      <trkpt lat="49.19848" lon="6.96578">
        <ele>319</ele>
        <time>2011-04-10T08:40:58Z</time>
      </trkpt>
      <trkpt lat="49.19847" lon="6.96577">
        <ele>319</ele>
        <time>2011-04-10T08:40:59Z</time>
      </trkpt>
      <trkpt lat="49.19845" lon="6.96576">
        <ele>319</ele>
        <time>2011-04-10T08:41:01Z</time>
      </trkpt>
      <trkpt lat="49.19844" lon="6.96575">
        <ele>319</ele>
        <time>2011-04-10T08:41:02Z</time>
      </trkpt>
      <trkpt lat="49.19842" lon="6.96574">
        <ele>319</ele>
        <time>2011-04-10T08:41:03Z</time>
      </trkpt>
      <trkpt lat="49.19841" lon="6.96573">
        <ele>319</ele>
        <time>2011-04-10T08:41:04Z</time>
      </trkpt>
      <trkpt lat="49.19839" lon="6.96573">
        <ele>319</ele>
        <time>2011-04-10T08:41:05Z</time>
      </trkpt>
      <trkpt lat="49.19838" lon="6.96572">
        <ele>319</ele>
        <time>2011-04-10T08:41:06Z</time>
      </trkpt>
      <trkpt lat="49.19837" lon="6.96571">
        <ele>319</ele>
        <time>2011-04-10T08:41:07Z</time>
      </trkpt>
      <trkpt lat="49.19835" lon="6.96571">
        <ele>319</ele>
        <time>2011-04-10T08:41:08Z</time>
      </trkpt>
      <trkpt lat="49.19834" lon="6.9657">
        <ele>319</ele>
        <time>2011-04-10T08:41:09Z</time>
      </trkpt>
      <trkpt lat="49.19833" lon="6.96569">
        <ele>319</ele>
        <time>2011-04-10T08:41:10Z</time>
      </trkpt>
      <trkpt lat="49.19831" lon="6.96568">
        <ele>319</ele>
        <time>2011-04-10T08:41:11Z</time>
      </trkpt>
      <trkpt lat="49.19829" lon="6.96567">
        <ele>319</ele>
        <time>2011-04-10T08:41:13Z</time>
      </trkpt>
      <trkpt lat="49.19828" lon="6.96566">
        <ele>319</ele>
        <time>2011-04-10T08:41:14Z</time>
      </trkpt>
      <trkpt lat="49.19827" lon="6.96565">
        <ele>319</ele>
        <time>2011-04-10T08:41:15Z</time>
      </trkpt>
      <trkpt lat="49.19825" lon="6.96565">
        <ele>319</ele>
        <time>2011-04-10T08:41:16Z</time>
      </trkpt>
      <trkpt lat="49.19824" lon="6.96564">
        <ele>319</ele>
        <time>2011-04-10T08:41:17Z</time>
      </trkpt>
      <trkpt lat="49.19822" lon="6.96564">
        <ele>319</ele>
        <time>2011-04-10T08:41:18Z</time>
      </trkpt>
      <trkpt lat="49.19821" lon="6.96563">
        <ele>319</ele>
        <time>2011-04-10T08:41:19Z</time>
      </trkpt>
      <trkpt lat="49.1982" lon="6.96562">
        <ele>319</ele>
        <time>2011-04-10T08:41:20Z</time>
      </trkpt>
      <trkpt lat="49.19819" lon="6.96562">
        <ele>319</ele>
        <time>2011-04-10T08:41:21Z</time>
      </trkpt>
      <trkpt lat="49.19817" lon="6.96561">
        <ele>319</ele>
        <time>2011-04-10T08:41:22Z</time>
      </trkpt>
      <trkpt lat="49.19816" lon="6.96559">
        <ele>319</ele>
        <time>2011-04-10T08:41:24Z</time>
      </trkpt>
      <trkpt lat="49.19813" lon="6.96557">
        <ele>319</ele>
        <time>2011-04-10T08:41:26Z</time>
      </trkpt>
      <trkpt lat="49.19812" lon="6.96556">
        <ele>319</ele>
        <time>2011-04-10T08:41:27Z</time>
      </trkpt>
      <trkpt lat="49.19811" lon="6.96555">
        <ele>319</ele>
        <time>2011-04-10T08:41:28Z</time>
      </trkpt>
      <trkpt lat="49.1981" lon="6.96554">
        <ele>319</ele>
        <time>2011-04-10T08:41:29Z</time>
      </trkpt>
      <trkpt lat="49.19807" lon="6.96552">
        <ele>319</ele>
        <time>2011-04-10T08:41:31Z</time>
      </trkpt>
      <trkpt lat="49.19806" lon="6.96552">
        <ele>319</ele>
        <time>2011-04-10T08:41:32Z</time>
      </trkpt>
      <trkpt lat="49.19805" lon="6.96552">
        <ele>319</ele>
        <time>2011-04-10T08:41:33Z</time>
      </trkpt>
      <trkpt lat="49.19804" lon="6.96551">
        <ele>319</ele>
        <time>2011-04-10T08:41:34Z</time>
      </trkpt>
      <trkpt lat="49.19801" lon="6.9655">
        <ele>319</ele>
        <time>2011-04-10T08:41:36Z</time>
      </trkpt>
      <trkpt lat="49.198" lon="6.96549">
        <ele>319</ele>
        <time>2011-04-10T08:41:37Z</time>
      </trkpt>
      <trkpt lat="49.19799" lon="6.96549">
        <ele>319</ele>
        <time>2011-04-10T08:41:38Z</time>
      </trkpt>
      <trkpt lat="49.19798" lon="6.96548">
        <ele>319</ele>
        <time>2011-04-10T08:41:39Z</time>
      </trkpt>
      <trkpt lat="49.19796" lon="6.96547">
        <ele>319</ele>
        <time>2011-04-10T08:41:40Z</time>
      </trkpt>
      <trkpt lat="49.19795" lon="6.96546">
        <ele>319</ele>
        <time>2011-04-10T08:41:41Z</time>
      </trkpt>
      <trkpt lat="49.19794" lon="6.96546">
        <ele>319</ele>
        <time>2011-04-10T08:41:42Z</time>
      </trkpt>
      <trkpt lat="49.19792" lon="6.96545">
        <ele>319</ele>
        <time>2011-04-10T08:41:43Z</time>
      </trkpt>
      <trkpt lat="49.19791" lon="6.96545">
        <ele>319</ele>
        <time>2011-04-10T08:41:44Z</time>
      </trkpt>
      <trkpt lat="49.1979" lon="6.96544">
        <ele>319</ele>
        <time>2011-04-10T08:41:45Z</time>
      </trkpt>
      <trkpt lat="49.19789" lon="6.96544">
        <ele>319</ele>
        <time>2011-04-10T08:41:46Z</time>
      </trkpt>
      <trkpt lat="49.19787" lon="6.96544">
        <ele>319</ele>
        <time>2011-04-10T08:41:47Z</time>
      </trkpt>
      <trkpt lat="49.19786" lon="6.96543">
        <ele>319</ele>
        <time>2011-04-10T08:41:48Z</time>
      </trkpt>
      <trkpt lat="49.19785" lon="6.96543">
        <ele>319</ele>
        <time>2011-04-10T08:41:49Z</time>
      </trkpt>
      <trkpt lat="49.19783" lon="6.96543">
        <ele>319</ele>
        <time>2011-04-10T08:41:50Z</time>
      </trkpt>
      <trkpt lat="49.19782" lon="6.96542">
        <ele>319</ele>
        <time>2011-04-10T08:41:51Z</time>
      </trkpt>
      <trkpt lat="49.1978" lon="6.96542">
        <ele>319</ele>
        <time>2011-04-10T08:41:52Z</time>
      </trkpt>
      <trkpt lat="49.19779" lon="6.96541">
        <ele>319</ele>
        <time>2011-04-10T08:41:53Z</time>
      </trkpt>
      <trkpt lat="49.19778" lon="6.96541">
        <ele>319</ele>
        <time>2011-04-10T08:41:54Z</time>
      </trkpt>
      <trkpt lat="49.19776" lon="6.96541">
        <ele>319</ele>
        <time>2011-04-10T08:41:55Z</time>
      </trkpt>
      <trkpt lat="49.19775" lon="6.9654">
        <ele>319</ele>
        <time>2011-04-10T08:41:56Z</time>
      </trkpt>
      <trkpt lat="49.19773" lon="6.9654">
        <ele>319</ele>
        <time>2011-04-10T08:41:57Z</time>
      </trkpt>
      <trkpt lat="49.19772" lon="6.9654">
        <ele>319</ele>
        <time>2011-04-10T08:41:58Z</time>
      </trkpt>
      <trkpt lat="49.19771" lon="6.9654">
        <ele>319</ele>
        <time>2011-04-10T08:41:59Z</time>
      </trkpt>
      <trkpt lat="49.1977" lon="6.9654">
        <ele>319</ele>
        <time>2011-04-10T08:42:00Z</time>
      </trkpt>
      <trkpt lat="49.19768" lon="6.96539">
        <ele>319</ele>
        <time>2011-04-10T08:42:01Z</time>
      </trkpt>
      <trkpt lat="49.19767" lon="6.96539">
        <ele>319</ele>
        <time>2011-04-10T08:42:02Z</time>
      </trkpt>
      <trkpt lat="49.19766" lon="6.96539">
        <ele>319</ele>
        <time>2011-04-10T08:42:03Z</time>
      </trkpt>
      <trkpt lat="49.19764" lon="6.9654">
        <ele>319</ele>
        <time>2011-04-10T08:42:04Z</time>
      </trkpt>
      <trkpt lat="49.19763" lon="6.9654">
        <ele>319</ele>
        <time>2011-04-10T08:42:05Z</time>
      </trkpt>
      <trkpt lat="49.19762" lon="6.96539">
        <ele>319</ele>
        <time>2011-04-10T08:42:06Z</time>
      </trkpt>
      <trkpt lat="49.1976" lon="6.96539">
        <ele>319</ele>
        <time>2011-04-10T08:42:07Z</time>
      </trkpt>
      <trkpt lat="49.19759" lon="6.96539">
        <ele>319</ele>
        <time>2011-04-10T08:42:08Z</time>
      </trkpt>
      <trkpt lat="49.19758" lon="6.96539">
        <ele>319</ele>
        <time>2011-04-10T08:42:09Z</time>
      </trkpt>
      <trkpt lat="49.19756" lon="6.9654">
        <ele>319</ele>
        <time>2011-04-10T08:42:10Z</time>
      </trkpt>
      <trkpt lat="49.19755" lon="6.9654">
        <ele>319</ele>
        <time>2011-04-10T08:42:11Z</time>
      </trkpt>
      <trkpt lat="49.19754" lon="6.9654">
        <ele>319</ele>
        <time>2011-04-10T08:42:12Z</time>
      </trkpt>
      <trkpt lat="49.19753" lon="6.9654">
        <ele>319</ele>
        <time>2011-04-10T08:42:13Z</time>
      </trkpt>
      <trkpt lat="49.19751" lon="6.9654">
        <ele>319</ele>
        <time>2011-04-10T08:42:14Z</time>
      </trkpt>
      <trkpt lat="49.1975" lon="6.96541">
        <ele>319</ele>
        <time>2011-04-10T08:42:15Z</time>
      </trkpt>
      <trkpt lat="49.19748" lon="6.96541">
        <ele>319</ele>
        <time>2011-04-10T08:42:16Z</time>
      </trkpt>
      <trkpt lat="49.19746" lon="6.96541">
        <ele>319</ele>
        <time>2011-04-10T08:42:18Z</time>
      </trkpt>
      <trkpt lat="49.19744" lon="6.96541">
        <ele>319</ele>
        <time>2011-04-10T08:42:19Z</time>
      </trkpt>
      <trkpt lat="49.19743" lon="6.96542">
        <ele>319</ele>
        <time>2011-04-10T08:42:20Z</time>
      </trkpt>
      <trkpt lat="49.19742" lon="6.96542">
        <ele>319</ele>
        <time>2011-04-10T08:42:21Z</time>
      </trkpt>
      <trkpt lat="49.1974" lon="6.96542">
        <ele>319</ele>
        <time>2011-04-10T08:42:22Z</time>
      </trkpt>
      <trkpt lat="49.19739" lon="6.96543">
        <ele>319</ele>
        <time>2011-04-10T08:42:23Z</time>
      </trkpt>
      <trkpt lat="49.19738" lon="6.96544">
        <ele>319</ele>
        <time>2011-04-10T08:42:24Z</time>
      </trkpt>
      <trkpt lat="49.19735" lon="6.96545">
        <ele>319</ele>
        <time>2011-04-10T08:42:26Z</time>
      </trkpt>
      <trkpt lat="49.19734" lon="6.96545">
        <ele>319</ele>
        <time>2011-04-10T08:42:27Z</time>
      </trkpt>
      <trkpt lat="49.19733" lon="6.96545">
        <ele>319</ele>
        <time>2011-04-10T08:42:28Z</time>
      </trkpt>
      <trkpt lat="49.19731" lon="6.96546">
        <ele>319</ele>
        <time>2011-04-10T08:42:29Z</time>
      </trkpt>
      <trkpt lat="49.19729" lon="6.96547">
        <ele>319</ele>
        <time>2011-04-10T08:42:31Z</time>
      </trkpt>
      <trkpt lat="49.19727" lon="6.96547">
        <ele>319</ele>
        <time>2011-04-10T08:42:32Z</time>
      </trkpt>
      <trkpt lat="49.19726" lon="6.96548">
        <ele>319</ele>
        <time>2011-04-10T08:42:33Z</time>
      </trkpt>
      <trkpt lat="49.19724" lon="6.96549">
        <ele>319</ele>
        <time>2011-04-10T08:42:34Z</time>
      </trkpt>
      <trkpt lat="49.19723" lon="6.96549">
        <ele>319</ele>
        <time>2011-04-10T08:42:35Z</time>
      </trkpt>
      <trkpt lat="49.19722" lon="6.9655">
        <ele>319</ele>
        <time>2011-04-10T08:42:36Z</time>
      </trkpt>
      <trkpt lat="49.19719" lon="6.9655">
        <ele>319</ele>
        <time>2011-04-10T08:42:38Z</time>
      </trkpt>
      <trkpt lat="49.19718" lon="6.96551">
        <ele>319</ele>
        <time>2011-04-10T08:42:39Z</time>
      </trkpt>
      <trkpt lat="49.19716" lon="6.96551">
        <ele>319</ele>
        <time>2011-04-10T08:42:41Z</time>
      </trkpt>
      <trkpt lat="49.19714" lon="6.96551">
        <ele>319</ele>
        <time>2011-04-10T08:42:43Z</time>
      </trkpt>
      <trkpt lat="49.19712" lon="6.96552">
        <ele>319</ele>
        <time>2011-04-10T08:42:44Z</time>
      </trkpt>
      <trkpt lat="49.19711" lon="6.96552">
        <ele>319</ele>
        <time>2011-04-10T08:42:45Z</time>
      </trkpt>
      <trkpt lat="49.1971" lon="6.96553">
        <ele>319</ele>
        <time>2011-04-10T08:42:46Z</time>
      </trkpt>
      <trkpt lat="49.19709" lon="6.96553">
        <ele>319</ele>
        <time>2011-04-10T08:42:47Z</time>
      </trkpt>
      <trkpt lat="49.19706" lon="6.96554">
        <ele>319</ele>
        <time>2011-04-10T08:42:49Z</time>
      </trkpt>
      <trkpt lat="49.19705" lon="6.96555">
        <ele>319</ele>
        <time>2011-04-10T08:42:50Z</time>
      </trkpt>
      <trkpt lat="49.19704" lon="6.96556">
        <ele>319</ele>
        <time>2011-04-10T08:42:51Z</time>
      </trkpt>
      <trkpt lat="49.19702" lon="6.96556">
        <ele>319</ele>
        <time>2011-04-10T08:42:52Z</time>
      </trkpt>
      <trkpt lat="49.19701" lon="6.96557">
        <ele>319</ele>
        <time>2011-04-10T08:42:53Z</time>
      </trkpt>
      <trkpt lat="49.19699" lon="6.96558">
        <ele>319</ele>
        <time>2011-04-10T08:42:54Z</time>
      </trkpt>
      <trkpt lat="49.19698" lon="6.96559">
        <ele>319</ele>
        <time>2011-04-10T08:42:55Z</time>
      </trkpt>
      <trkpt lat="49.19696" lon="6.96561">
        <ele>319</ele>
        <time>2011-04-10T08:42:57Z</time>
      </trkpt>
      <trkpt lat="49.19695" lon="6.96562">
        <ele>319</ele>
        <time>2011-04-10T08:42:58Z</time>
      </trkpt>
      <trkpt lat="49.19693" lon="6.96563">
        <ele>319</ele>
        <time>2011-04-10T08:42:59Z</time>
      </trkpt>
      <trkpt lat="49.19692" lon="6.96564">
        <ele>319</ele>
        <time>2011-04-10T08:43:00Z</time>
      </trkpt>
      <trkpt lat="49.1969" lon="6.96565">
        <ele>319</ele>
        <time>2011-04-10T08:43:01Z</time>
      </trkpt>
      <trkpt lat="49.19689" lon="6.96566">
        <ele>319</ele>
        <time>2011-04-10T08:43:02Z</time>
      </trkpt>
      <trkpt lat="49.19688" lon="6.96568">
        <ele>319</ele>
        <time>2011-04-10T08:43:04Z</time>
      </trkpt>
      <trkpt lat="49.19686" lon="6.9657">
        <ele>319</ele>
        <time>2011-04-10T08:43:06Z</time>
      </trkpt>
      <trkpt lat="49.19683" lon="6.96573">
        <ele>319</ele>
        <time>2011-04-10T08:43:08Z</time>
      </trkpt>
      <trkpt lat="49.19682" lon="6.96575">
        <ele>319</ele>
        <time>2011-04-10T08:43:09Z</time>
      </trkpt>
      <trkpt lat="49.1968" lon="6.96577">
        <ele>319</ele>
        <time>2011-04-10T08:43:11Z</time>
      </trkpt>
      <trkpt lat="49.19678" lon="6.9658">
        <ele>319</ele>
        <time>2011-04-10T08:43:13Z</time>
      </trkpt>
      <trkpt lat="49.19677" lon="6.96582">
        <ele>319</ele>
        <time>2011-04-10T08:43:14Z</time>
      </trkpt>
      <trkpt lat="49.19675" lon="6.96584">
        <ele>319</ele>
        <time>2011-04-10T08:43:15Z</time>
      </trkpt>
      <trkpt lat="49.19675" lon="6.96585">
        <ele>319</ele>
        <time>2011-04-10T08:43:16Z</time>
      </trkpt>
      <trkpt lat="49.19674" lon="6.96587">
        <ele>319</ele>
        <time>2011-04-10T08:43:17Z</time>
      </trkpt>
      <trkpt lat="49.19672" lon="6.96589">
        <ele>319</ele>
        <time>2011-04-10T08:43:18Z</time>
      </trkpt>
      <trkpt lat="49.19672" lon="6.9659">
        <ele>319</ele>
        <time>2011-04-10T08:43:19Z</time>
      </trkpt>
      <trkpt lat="49.19671" lon="6.96592">
        <ele>319</ele>
        <time>2011-04-10T08:43:20Z</time>
      </trkpt>
      <trkpt lat="49.1967" lon="6.96594">
        <ele>319</ele>
        <time>2011-04-10T08:43:21Z</time>
      </trkpt>
      <trkpt lat="49.19669" lon="6.96595">
        <ele>319</ele>
        <time>2011-04-10T08:43:22Z</time>
      </trkpt>
      <trkpt lat="49.19669" lon="6.96597">
        <ele>319</ele>
        <time>2011-04-10T08:43:23Z</time>
      </trkpt>
      <trkpt lat="49.19668" lon="6.96599">
        <ele>319</ele>
        <time>2011-04-10T08:43:24Z</time>
      </trkpt>
      <trkpt lat="49.19668" lon="6.96601">
        <ele>319</ele>
        <time>2011-04-10T08:43:25Z</time>
      </trkpt>
      <trkpt lat="49.19667" lon="6.96603">
        <ele>319</ele>
        <time>2011-04-10T08:43:26Z</time>
      </trkpt>
      <trkpt lat="49.19667" lon="6.96605">
        <ele>319</ele>
        <time>2011-04-10T08:43:27Z</time>
      </trkpt>
      <trkpt lat="49.19667" lon="6.96606">
        <ele>319</ele>
        <time>2011-04-10T08:43:28Z</time>
      </trkpt>
      <trkpt lat="49.19666" lon="6.96608">
        <ele>319</ele>
        <time>2011-04-10T08:43:29Z</time>
      </trkpt>
      <trkpt lat="49.19666" lon="6.9661">
        <ele>319</ele>
        <time>2011-04-10T08:43:30Z</time>
      </trkpt>
      <trkpt lat="49.19666" lon="6.96612">
        <ele>319</ele>
        <time>2011-04-10T08:43:31Z</time>
      </trkpt>
      <trkpt lat="49.19665" lon="6.96614">
        <ele>319</ele>
        <time>2011-04-10T08:43:32Z</time>
      </trkpt>
      <trkpt lat="49.19665" lon="6.96616">
        <ele>319</ele>
        <time>2011-04-10T08:43:33Z</time>
      </trkpt>
      <trkpt lat="49.19664" lon="6.96618">
        <ele>319</ele>
        <time>2011-04-10T08:43:34Z</time>
      </trkpt>
      <trkpt lat="49.19664" lon="6.9662">
        <ele>319</ele>
        <time>2011-04-10T08:43:35Z</time>
      </trkpt>
      <trkpt lat="49.19664" lon="6.96621">
        <ele>319</ele>
        <time>2011-04-10T08:43:36Z</time>
      </trkpt>
      <trkpt lat="49.19664" lon="6.96623">
        <ele>319</ele>
        <time>2011-04-10T08:43:37Z</time>
      </trkpt>
      <trkpt lat="49.19663" lon="6.96625">
        <ele>319</ele>
        <time>2011-04-10T08:43:38Z</time>
      </trkpt>
      <trkpt lat="49.19662" lon="6.96627">
        <ele>319</ele>
        <time>2011-04-10T08:43:39Z</time>
      </trkpt>
      <trkpt lat="49.19662" lon="6.96629">
        <ele>319</ele>
        <time>2011-04-10T08:43:40Z</time>
      </trkpt>
      <trkpt lat="49.19661" lon="6.96631">
        <ele>319</ele>
        <time>2011-04-10T08:43:41Z</time>
      </trkpt>
      <trkpt lat="49.19661" lon="6.96633">
        <ele>319</ele>
        <time>2011-04-10T08:43:42Z</time>
      </trkpt>
      <trkpt lat="49.1966" lon="6.96635">
        <ele>319</ele>
        <time>2011-04-10T08:43:43Z</time>
      </trkpt>
      <trkpt lat="49.19659" lon="6.96637">
        <ele>319</ele>
        <time>2011-04-10T08:43:44Z</time>
      </trkpt>
      <trkpt lat="49.19659" lon="6.96639">
        <ele>319</ele>
        <time>2011-04-10T08:43:45Z</time>
      </trkpt>
      <trkpt lat="49.19658" lon="6.96641">
        <ele>319</ele>
        <time>2011-04-10T08:43:46Z</time>
      </trkpt>
      <trkpt lat="49.19658" lon="6.96643">
        <ele>319</ele>
        <time>2011-04-10T08:43:47Z</time>
      </trkpt>
      <trkpt lat="49.19658" lon="6.96645">
        <ele>319</ele>
        <time>2011-04-10T08:43:48Z</time>
      </trkpt>
      <trkpt lat="49.19657" lon="6.96647">
        <ele>319</ele>
        <time>2011-04-10T08:43:49Z</time>
      </trkpt>
      <trkpt lat="49.19656" lon="6.96649">
        <ele>319</ele>
        <time>2011-04-10T08:43:50Z</time>
      </trkpt>
      <trkpt lat="49.19656" lon="6.96651">
        <ele>319</ele>
        <time>2011-04-10T08:43:51Z</time>
      </trkpt>
      <trkpt lat="49.19655" lon="6.96653">
        <ele>319</ele>
        <time>2011-04-10T08:43:52Z</time>
      </trkpt>
      <trkpt lat="49.19655" lon="6.96655">
        <ele>319</ele>
        <time>2011-04-10T08:43:53Z</time>
      </trkpt>
      <trkpt lat="49.19654" lon="6.96658">
        <ele>319</ele>
        <time>2011-04-10T08:43:54Z</time>
      </trkpt>
      <trkpt lat="49.19654" lon="6.9666">
        <ele>319</ele>
        <time>2011-04-10T08:43:55Z</time>
      </trkpt>
      <trkpt lat="49.19653" lon="6.96661">
        <ele>319</ele>
        <time>2011-04-10T08:43:56Z</time>
      </trkpt>
      <trkpt lat="49.19653" lon="6.96663">
        <ele>319</ele>
        <time>2011-04-10T08:43:57Z</time>
      </trkpt>
      <trkpt lat="49.19653" lon="6.96665">
        <ele>319</ele>
        <time>2011-04-10T08:43:58Z</time>
      </trkpt>
      <trkpt lat="49.19652" lon="6.96667">
        <ele>319</ele>
        <time>2011-04-10T08:43:59Z</time>
      </trkpt>
      <trkpt lat="49.19652" lon="6.96669">
        <ele>319</ele>
        <time>2011-04-10T08:44:00Z</time>
      </trkpt>
      <trkpt lat="49.19652" lon="6.96671">
        <ele>319</ele>
        <time>2011-04-10T08:44:01Z</time>
      </trkpt>
      <trkpt lat="49.19651" lon="6.96673">
        <ele>319</ele>
        <time>2011-04-10T08:44:02Z</time>
      </trkpt>
      <trkpt lat="49.1965" lon="6.96674">
        <ele>319</ele>
        <time>2011-04-10T08:44:03Z</time>
      </trkpt>
      <trkpt lat="49.1965" lon="6.96676">
        <ele>319</ele>
        <time>2011-04-10T08:44:04Z</time>
      </trkpt>
      <trkpt lat="49.19649" lon="6.96678">
        <ele>319</ele>
        <time>2011-04-10T08:44:05Z</time>
      </trkpt>
      <trkpt lat="49.19649" lon="6.9668">
        <ele>319</ele>
        <time>2011-04-10T08:44:06Z</time>
      </trkpt>
      <trkpt lat="49.19648" lon="6.96682">
        <ele>319</ele>
        <time>2011-04-10T08:44:07Z</time>
      </trkpt>
      <trkpt lat="49.19648" lon="6.96684">
        <ele>319</ele>
        <time>2011-04-10T08:44:08Z</time>
      </trkpt>
      <trkpt lat="49.19648" lon="6.96686">
        <ele>319</ele>
        <time>2011-04-10T08:44:09Z</time>
      </trkpt>
      <trkpt lat="49.19647" lon="6.96688">
        <ele>319</ele>
        <time>2011-04-10T08:44:10Z</time>
      </trkpt>
      <trkpt lat="49.19647" lon="6.96689">
        <ele>319</ele>
        <time>2011-04-10T08:44:11Z</time>
      </trkpt>
      <trkpt lat="49.19646" lon="6.96691">
        <ele>319</ele>
        <time>2011-04-10T08:44:12Z</time>
      </trkpt>
      <trkpt lat="49.19645" lon="6.96693">
        <ele>319</ele>
        <time>2011-04-10T08:44:13Z</time>
      </trkpt>
      <trkpt lat="49.19645" lon="6.96695">
        <ele>319</ele>
        <time>2011-04-10T08:44:14Z</time>
      </trkpt>
      <trkpt lat="49.19644" lon="6.96696">
        <ele>319</ele>
        <time>2011-04-10T08:44:15Z</time>
      </trkpt>
      <trkpt lat="49.19643" lon="6.96698">
        <ele>319</ele>
        <time>2011-04-10T08:44:16Z</time>
      </trkpt>
      <trkpt lat="49.19643" lon="6.96701">
        <ele>319</ele>
        <time>2011-04-10T08:44:18Z</time>
      </trkpt>
      <trkpt lat="49.19642" lon="6.96704">
        <ele>319</ele>
        <time>2011-04-10T08:44:20Z</time>
      </trkpt>
      <trkpt lat="49.19642" lon="6.96706">
        <ele>319</ele>
        <time>2011-04-10T08:44:21Z</time>
      </trkpt>
      <trkpt lat="49.19642" lon="6.96708">
        <ele>319</ele>
        <time>2011-04-10T08:44:22Z</time>
      </trkpt>
      <trkpt lat="49.19641" lon="6.9671">
        <ele>319</ele>
        <time>2011-04-10T08:44:23Z</time>
      </trkpt>
      <trkpt lat="49.1964" lon="6.96712">
        <ele>319</ele>
        <time>2011-04-10T08:44:24Z</time>
      </trkpt>
      <trkpt lat="49.1964" lon="6.96714">
        <ele>319</ele>
        <time>2011-04-10T08:44:25Z</time>
      </trkpt>
      <trkpt lat="49.19638" lon="6.96717">
        <ele>319</ele>
        <time>2011-04-10T08:44:27Z</time>
      </trkpt>
      <trkpt lat="49.19637" lon="6.96719">
        <ele>319</ele>
        <time>2011-04-10T08:44:28Z</time>
      </trkpt>
      <trkpt lat="49.19636" lon="6.96721">
        <ele>319</ele>
        <time>2011-04-10T08:44:29Z</time>
      </trkpt>
      <trkpt lat="49.19635" lon="6.96722">
        <ele>319</ele>
        <time>2011-04-10T08:44:30Z</time>
      </trkpt>
      <trkpt lat="49.19635" lon="6.96724">
        <ele>319</ele>
        <time>2011-04-10T08:44:31Z</time>
      </trkpt>
      <trkpt lat="49.19634" lon="6.96726">
        <ele>319</ele>
        <time>2011-04-10T08:44:32Z</time>
      </trkpt>
      <trkpt lat="49.19633" lon="6.96727">
        <ele>319</ele>
        <time>2011-04-10T08:44:33Z</time>
      </trkpt>
      <trkpt lat="49.19632" lon="6.9673">
        <ele>319</ele>
        <time>2011-04-10T08:44:35Z</time>
      </trkpt>
      <trkpt lat="49.1963" lon="6.96733">
        <ele>319</ele>
        <time>2011-04-10T08:44:37Z</time>
      </trkpt>
      <trkpt lat="49.19628" lon="6.96735">
        <ele>318</ele>
        <time>2011-04-10T08:44:39Z</time>
      </trkpt>
      <trkpt lat="49.19626" lon="6.96738">
        <ele>318</ele>
        <time>2011-04-10T08:44:41Z</time>
      </trkpt>
      <trkpt lat="49.19624" lon="6.9674">
        <ele>317</ele>
        <time>2011-04-10T08:44:43Z</time>
      </trkpt>
      <trkpt lat="49.19623" lon="6.96742">
        <ele>317</ele>
        <time>2011-04-10T08:44:44Z</time>
      </trkpt>
      <trkpt lat="49.19622" lon="6.96743">
        <ele>317</ele>
        <time>2011-04-10T08:44:45Z</time>
      </trkpt>
      <trkpt lat="49.1962" lon="6.96745">
        <ele>316</ele>
        <time>2011-04-10T08:44:47Z</time>
      </trkpt>
      <trkpt lat="49.19619" lon="6.96746">
        <ele>316</ele>
        <time>2011-04-10T08:44:48Z</time>
      </trkpt>
      <trkpt lat="49.19617" lon="6.96747">
        <ele>316</ele>
        <time>2011-04-10T08:44:49Z</time>
      </trkpt>
      <trkpt lat="49.19616" lon="6.96748">
        <ele>316</ele>
        <time>2011-04-10T08:44:50Z</time>
      </trkpt>
      <trkpt lat="49.19615" lon="6.96748">
        <ele>316</ele>
        <time>2011-04-10T08:44:51Z</time>
      </trkpt>
      <trkpt lat="49.19614" lon="6.96749">
        <ele>316</ele>
        <time>2011-04-10T08:44:52Z</time>
      </trkpt>
      <trkpt lat="49.19612" lon="6.9675">
        <ele>316</ele>
        <time>2011-04-10T08:44:54Z</time>
      </trkpt>
      <trkpt lat="49.1961" lon="6.96751">
        <ele>316</ele>
        <time>2011-04-10T08:44:55Z</time>
      </trkpt>
      <trkpt lat="49.19609" lon="6.96752">
        <ele>316</ele>
        <time>2011-04-10T08:44:56Z</time>
      </trkpt>
      <trkpt lat="49.19608" lon="6.96753">
        <ele>316</ele>
        <time>2011-04-10T08:44:57Z</time>
      </trkpt>
      <trkpt lat="49.19606" lon="6.96754">
        <ele>316</ele>
        <time>2011-04-10T08:44:58Z</time>
      </trkpt>
      <trkpt lat="49.19605" lon="6.96754">
        <ele>316</ele>
        <time>2011-04-10T08:44:59Z</time>
      </trkpt>
      <trkpt lat="49.19603" lon="6.96755">
        <ele>316</ele>
        <time>2011-04-10T08:45:00Z</time>
      </trkpt>
      <trkpt lat="49.19602" lon="6.96756">
        <ele>316</ele>
        <time>2011-04-10T08:45:01Z</time>
      </trkpt>
      <trkpt lat="49.19601" lon="6.96757">
        <ele>316</ele>
        <time>2011-04-10T08:45:02Z</time>
      </trkpt>
      <trkpt lat="49.19599" lon="6.96757">
        <ele>316</ele>
        <time>2011-04-10T08:45:03Z</time>
      </trkpt>
      <trkpt lat="49.19598" lon="6.96757">
        <ele>316</ele>
        <time>2011-04-10T08:45:04Z</time>
      </trkpt>
      <trkpt lat="49.19597" lon="6.96758">
        <ele>316</ele>
        <time>2011-04-10T08:45:05Z</time>
      </trkpt>
      <trkpt lat="49.19596" lon="6.96758">
        <ele>316</ele>
        <time>2011-04-10T08:45:06Z</time>
      </trkpt>
      <trkpt lat="49.19594" lon="6.96758">
        <ele>316</ele>
        <time>2011-04-10T08:45:07Z</time>
      </trkpt>
      <trkpt lat="49.19593" lon="6.96759">
        <ele>316</ele>
        <time>2011-04-10T08:45:08Z</time>
      </trkpt>
      <trkpt lat="49.19592" lon="6.96759">
        <ele>316</ele>
        <time>2011-04-10T08:45:09Z</time>
      </trkpt>
      <trkpt lat="49.1959" lon="6.96759">
        <ele>316</ele>
        <time>2011-04-10T08:45:10Z</time>
      </trkpt>
      <trkpt lat="49.19589" lon="6.96759">
        <ele>316</ele>
        <time>2011-04-10T08:45:11Z</time>
      </trkpt>
      <trkpt lat="49.19588" lon="6.96759">
        <ele>316</ele>
        <time>2011-04-10T08:45:12Z</time>
      </trkpt>
      <trkpt lat="49.19587" lon="6.9676">
        <ele>316</ele>
        <time>2011-04-10T08:45:13Z</time>
      </trkpt>
      <trkpt lat="49.19585" lon="6.9676">
        <ele>316</ele>
        <time>2011-04-10T08:45:14Z</time>
      </trkpt>
      <trkpt lat="49.19584" lon="6.9676">
        <ele>316</ele>
        <time>2011-04-10T08:45:15Z</time>
      </trkpt>
      <trkpt lat="49.19582" lon="6.96761">
        <ele>316</ele>
        <time>2011-04-10T08:45:16Z</time>
      </trkpt>
      <trkpt lat="49.19581" lon="6.96761">
        <ele>316</ele>
        <time>2011-04-10T08:45:17Z</time>
      </trkpt>
      <trkpt lat="49.19579" lon="6.96761">
        <ele>316</ele>
        <time>2011-04-10T08:45:18Z</time>
      </trkpt>
      <trkpt lat="49.19578" lon="6.96761">
        <ele>316</ele>
        <time>2011-04-10T08:45:19Z</time>
      </trkpt>
      <trkpt lat="49.19577" lon="6.96761">
        <ele>316</ele>
        <time>2011-04-10T08:45:20Z</time>
      </trkpt>
      <trkpt lat="49.19575" lon="6.96762">
        <ele>316</ele>
        <time>2011-04-10T08:45:21Z</time>
      </trkpt>
      <trkpt lat="49.19574" lon="6.96762">
        <ele>316</ele>
        <time>2011-04-10T08:45:22Z</time>
      </trkpt>
      <trkpt lat="49.19572" lon="6.96762">
        <ele>316</ele>
        <time>2011-04-10T08:45:23Z</time>
      </trkpt>
      <trkpt lat="49.19571" lon="6.96762">
        <ele>316</ele>
        <time>2011-04-10T08:45:24Z</time>
      </trkpt>
      <trkpt lat="49.1957" lon="6.96762">
        <ele>316</ele>
        <time>2011-04-10T08:45:25Z</time>
      </trkpt>
      <trkpt lat="49.19568" lon="6.96762">
        <ele>316</ele>
        <time>2011-04-10T08:45:26Z</time>
      </trkpt>
      <trkpt lat="49.19567" lon="6.96762">
        <ele>316</ele>
        <time>2011-04-10T08:45:27Z</time>
      </trkpt>
      <trkpt lat="49.19566" lon="6.96763">
        <ele>316</ele>
        <time>2011-04-10T08:45:28Z</time>
      </trkpt>
      <trkpt lat="49.19564" lon="6.96763">
        <ele>316</ele>
        <time>2011-04-10T08:45:29Z</time>
      </trkpt>
      <trkpt lat="49.19563" lon="6.96763">
        <ele>316</ele>
        <time>2011-04-10T08:45:30Z</time>
      </trkpt>
      <trkpt lat="49.19562" lon="6.96763">
        <ele>316</ele>
        <time>2011-04-10T08:45:31Z</time>
      </trkpt>
      <trkpt lat="49.1956" lon="6.96763">
        <ele>316</ele>
        <time>2011-04-10T08:45:32Z</time>
      </trkpt>
      <trkpt lat="49.19559" lon="6.96763">
        <ele>316</ele>
        <time>2011-04-10T08:45:33Z</time>
      </trkpt>
      <trkpt lat="49.19558" lon="6.96763">
        <ele>316</ele>
        <time>2011-04-10T08:45:34Z</time>
      </trkpt>
      <trkpt lat="49.19556" lon="6.96764">
        <ele>316</ele>
        <time>2011-04-10T08:45:35Z</time>
      </trkpt>
      <trkpt lat="49.19555" lon="6.96764">
        <ele>316</ele>
        <time>2011-04-10T08:45:36Z</time>
      </trkpt>
      <trkpt lat="49.19553" lon="6.96764">
        <ele>316</ele>
        <time>2011-04-10T08:45:37Z</time>
      </trkpt>
      <trkpt lat="49.19552" lon="6.96764">
        <ele>316</ele>
        <time>2011-04-10T08:45:38Z</time>
      </trkpt>
      <trkpt lat="49.1955" lon="6.96764">
        <ele>316</ele>
        <time>2011-04-10T08:45:39Z</time>
      </trkpt>
      <trkpt lat="49.19549" lon="6.96764">
        <ele>316</ele>
        <time>2011-04-10T08:45:40Z</time>
      </trkpt>
      <trkpt lat="49.19548" lon="6.96764">
        <ele>316</ele>
        <time>2011-04-10T08:45:41Z</time>
      </trkpt>
      <trkpt lat="49.19547" lon="6.96765">
        <ele>316</ele>
        <time>2011-04-10T08:45:42Z</time>
      </trkpt>
      <trkpt lat="49.19545" lon="6.96765">
        <ele>316</ele>
        <time>2011-04-10T08:45:43Z</time>
      </trkpt>
      <trkpt lat="49.19543" lon="6.96765">
        <ele>316</ele>
        <time>2011-04-10T08:45:44Z</time>
      </trkpt>
      <trkpt lat="49.19542" lon="6.96765">
        <ele>316</ele>
        <time>2011-04-10T08:45:45Z</time>
      </trkpt>
      <trkpt lat="49.19541" lon="6.96765">
        <ele>316</ele>
        <time>2011-04-10T08:45:46Z</time>
      </trkpt>
      <trkpt lat="49.1954" lon="6.96766">
        <ele>316</ele>
        <time>2011-04-10T08:45:47Z</time>
      </trkpt>
      <trkpt lat="49.19538" lon="6.96766">
        <ele>316</ele>
        <time>2011-04-10T08:45:48Z</time>
      </trkpt>
      <trkpt lat="49.19537" lon="6.96766">
        <ele>316</ele>
        <time>2011-04-10T08:45:49Z</time>
      </trkpt>
      <trkpt lat="49.19535" lon="6.96766">
        <ele>316</ele>
        <time>2011-04-10T08:45:50Z</time>
      </trkpt>
      <trkpt lat="49.19534" lon="6.96766">
        <ele>316</ele>
        <time>2011-04-10T08:45:51Z</time>
      </trkpt>
      <trkpt lat="49.19532" lon="6.96766">
        <ele>316</ele>
        <time>2011-04-10T08:45:52Z</time>
      </trkpt>
      <trkpt lat="49.19531" lon="6.96766">
        <ele>316</ele>
        <time>2011-04-10T08:45:53Z</time>
      </trkpt>
      <trkpt lat="49.1953" lon="6.96766">
        <ele>316</ele>
        <time>2011-04-10T08:45:54Z</time>
      </trkpt>
      <trkpt lat="49.19529" lon="6.96766">
        <ele>316</ele>
        <time>2011-04-10T08:45:55Z</time>
      </trkpt>
      <trkpt lat="49.19527" lon="6.96766">
        <ele>316</ele>
        <time>2011-04-10T08:45:56Z</time>
      </trkpt>
      <trkpt lat="49.19526" lon="6.96767">
        <ele>316</ele>
        <time>2011-04-10T08:45:57Z</time>
      </trkpt>
      <trkpt lat="49.19525" lon="6.96767">
        <ele>316</ele>
        <time>2011-04-10T08:45:58Z</time>
      </trkpt>
      <trkpt lat="49.19523" lon="6.96767">
        <ele>316</ele>
        <time>2011-04-10T08:45:59Z</time>
      </trkpt>
      <trkpt lat="49.19522" lon="6.96767">
        <ele>316</ele>
        <time>2011-04-10T08:46:00Z</time>
      </trkpt>
      <trkpt lat="49.19521" lon="6.96767">
        <ele>316</ele>
        <time>2011-04-10T08:46:01Z</time>
      </trkpt>
      <trkpt lat="49.19519" lon="6.96767">
        <ele>316</ele>
        <time>2011-04-10T08:46:03Z</time>
      </trkpt>
      <trkpt lat="49.19517" lon="6.96767">
        <ele>316</ele>
        <time>2011-04-10T08:46:04Z</time>
      </trkpt>
      <trkpt lat="49.19516" lon="6.96767">
        <ele>316</ele>
        <time>2011-04-10T08:46:05Z</time>
      </trkpt>
      <trkpt lat="49.19514" lon="6.96766">
        <ele>316</ele>
        <time>2011-04-10T08:46:06Z</time>
      </trkpt>
      <trkpt lat="49.19513" lon="6.96766">
        <ele>316</ele>
        <time>2011-04-10T08:46:07Z</time>
      </trkpt>
      <trkpt lat="49.19512" lon="6.96766">
        <ele>316</ele>
        <time>2011-04-10T08:46:08Z</time>
      </trkpt>
      <trkpt lat="49.1951" lon="6.96766">
        <ele>316</ele>
        <time>2011-04-10T08:46:09Z</time>
      </trkpt>
      <trkpt lat="49.19509" lon="6.96767">
        <ele>316</ele>
        <time>2011-04-10T08:46:10Z</time>
      </trkpt>
      <trkpt lat="49.19507" lon="6.96767">
        <ele>316</ele>
        <time>2011-04-10T08:46:11Z</time>
      </trkpt>
      <trkpt lat="49.19506" lon="6.96766">
        <ele>316</ele>
        <time>2011-04-10T08:46:12Z</time>
      </trkpt>
      <trkpt lat="49.19504" lon="6.96766">
        <ele>316</ele>
        <time>2011-04-10T08:46:13Z</time>
      </trkpt>
      <trkpt lat="49.19503" lon="6.96766">
        <ele>316</ele>
        <time>2011-04-10T08:46:14Z</time>
      </trkpt>
      <trkpt lat="49.19501" lon="6.96766">
        <ele>315</ele>
        <time>2011-04-10T08:46:15Z</time>
      </trkpt>
      <trkpt lat="49.195" lon="6.96766">
        <ele>315</ele>
        <time>2011-04-10T08:46:16Z</time>
      </trkpt>
      <trkpt lat="49.19499" lon="6.96765">
        <ele>315</ele>
        <time>2011-04-10T08:46:17Z</time>
      </trkpt>
      <trkpt lat="49.19497" lon="6.96765">
        <ele>315</ele>
        <time>2011-04-10T08:46:18Z</time>
      </trkpt>
      <trkpt lat="49.19495" lon="6.96764">
        <ele>315</ele>
        <time>2011-04-10T08:46:20Z</time>
      </trkpt>
      <trkpt lat="49.19494" lon="6.96763">
        <ele>315</ele>
        <time>2011-04-10T08:46:21Z</time>
      </trkpt>
      <trkpt lat="49.19492" lon="6.96763">
        <ele>315</ele>
        <time>2011-04-10T08:46:22Z</time>
      </trkpt>
      <trkpt lat="49.19491" lon="6.96763">
        <ele>315</ele>
        <time>2011-04-10T08:46:23Z</time>
      </trkpt>
      <trkpt lat="49.1949" lon="6.96762">
        <ele>315</ele>
        <time>2011-04-10T08:46:24Z</time>
      </trkpt>
      <trkpt lat="49.19489" lon="6.96762">
        <ele>315</ele>
        <time>2011-04-10T08:46:25Z</time>
      </trkpt>
      <trkpt lat="49.19487" lon="6.9676">
        <ele>315</ele>
        <time>2011-04-10T08:46:27Z</time>
      </trkpt>
      <trkpt lat="49.19485" lon="6.9676">
        <ele>314</ele>
        <time>2011-04-10T08:46:28Z</time>
      </trkpt>
      <trkpt lat="49.19484" lon="6.96759">
        <ele>314</ele>
        <time>2011-04-10T08:46:29Z</time>
      </trkpt>
      <trkpt lat="49.19482" lon="6.96759">
        <ele>314</ele>
        <time>2011-04-10T08:46:30Z</time>
      </trkpt>
      <trkpt lat="49.19481" lon="6.96759">
        <ele>314</ele>
        <time>2011-04-10T08:46:31Z</time>
      </trkpt>
      <trkpt lat="49.19479" lon="6.96758">
        <ele>314</ele>
        <time>2011-04-10T08:46:32Z</time>
      </trkpt>
      <trkpt lat="49.19477" lon="6.96757">
        <ele>314</ele>
        <time>2011-04-10T08:46:34Z</time>
      </trkpt>
      <trkpt lat="49.19476" lon="6.96757">
        <ele>314</ele>
        <time>2011-04-10T08:46:35Z</time>
      </trkpt>
      <trkpt lat="49.19474" lon="6.96756">
        <ele>314</ele>
        <time>2011-04-10T08:46:36Z</time>
      </trkpt>
      <trkpt lat="49.19472" lon="6.96755">
        <ele>314</ele>
        <time>2011-04-10T08:46:38Z</time>
      </trkpt>
      <trkpt lat="49.19471" lon="6.96754">
        <ele>314</ele>
        <time>2011-04-10T08:46:39Z</time>
      </trkpt>
      <trkpt lat="49.1947" lon="6.96754">
        <ele>314</ele>
        <time>2011-04-10T08:46:40Z</time>
      </trkpt>
      <trkpt lat="49.19469" lon="6.96753">
        <ele>314</ele>
        <time>2011-04-10T08:46:41Z</time>
      </trkpt>
      <trkpt lat="49.19467" lon="6.96752">
        <ele>314</ele>
        <time>2011-04-10T08:46:42Z</time>
      </trkpt>
      <trkpt lat="49.19466" lon="6.96752">
        <ele>314</ele>
        <time>2011-04-10T08:46:43Z</time>
      </trkpt>
      <trkpt lat="49.19465" lon="6.96751">
        <ele>314</ele>
        <time>2011-04-10T08:46:44Z</time>
      </trkpt>
      <trkpt lat="49.19463" lon="6.9675">
        <ele>314</ele>
        <time>2011-04-10T08:46:45Z</time>
      </trkpt>
      <trkpt lat="49.19462" lon="6.96749">
        <ele>314</ele>
        <time>2011-04-10T08:46:46Z</time>
      </trkpt>
      <trkpt lat="49.19461" lon="6.96749">
        <ele>314</ele>
        <time>2011-04-10T08:46:47Z</time>
      </trkpt>
      <trkpt lat="49.1946" lon="6.96748">
        <ele>314</ele>
        <time>2011-04-10T08:46:48Z</time>
      </trkpt>
      <trkpt lat="49.19458" lon="6.96748">
        <ele>314</ele>
        <time>2011-04-10T08:46:49Z</time>
      </trkpt>
      <trkpt lat="49.19456" lon="6.96746">
        <ele>313</ele>
        <time>2011-04-10T08:46:51Z</time>
      </trkpt>
      <trkpt lat="49.19455" lon="6.96745">
        <ele>313</ele>
        <time>2011-04-10T08:46:52Z</time>
      </trkpt>
      <trkpt lat="49.19454" lon="6.96744">
        <ele>313</ele>
        <time>2011-04-10T08:46:53Z</time>
      </trkpt>
      <trkpt lat="49.19452" lon="6.96743">
        <ele>312</ele>
        <time>2011-04-10T08:46:55Z</time>
      </trkpt>
      <trkpt lat="49.1945" lon="6.96742">
        <ele>312</ele>
        <time>2011-04-10T08:46:56Z</time>
      </trkpt>
      <trkpt lat="49.19448" lon="6.96742">
        <ele>312</ele>
        <time>2011-04-10T08:46:57Z</time>
      </trkpt>
      <trkpt lat="49.19447" lon="6.96741">
        <ele>312</ele>
        <time>2011-04-10T08:46:58Z</time>
      </trkpt>
      <trkpt lat="49.19445" lon="6.96741">
        <ele>312</ele>
        <time>2011-04-10T08:46:59Z</time>
      </trkpt>
      <trkpt lat="49.19444" lon="6.9674">
        <ele>312</ele>
        <time>2011-04-10T08:47:00Z</time>
      </trkpt>
      <trkpt lat="49.19442" lon="6.96739">
        <ele>312</ele>
        <time>2011-04-10T08:47:02Z</time>
      </trkpt>
      <trkpt lat="49.19441" lon="6.96738">
        <ele>312</ele>
        <time>2011-04-10T08:47:03Z</time>
      </trkpt>
      <trkpt lat="49.1944" lon="6.96737">
        <ele>312</ele>
        <time>2011-04-10T08:47:04Z</time>
      </trkpt>
      <trkpt lat="49.19439" lon="6.96737">
        <ele>311</ele>
        <time>2011-04-10T08:47:05Z</time>
      </trkpt>
      <trkpt lat="49.19437" lon="6.96736">
        <ele>311</ele>
        <time>2011-04-10T08:47:06Z</time>
      </trkpt>
      <trkpt lat="49.19436" lon="6.96736">
        <ele>311</ele>
        <time>2011-04-10T08:47:07Z</time>
      </trkpt>
      <trkpt lat="49.19435" lon="6.96735">
        <ele>310</ele>
        <time>2011-04-10T08:47:08Z</time>
      </trkpt>
      <trkpt lat="49.19434" lon="6.96735">
        <ele>310</ele>
        <time>2011-04-10T08:47:09Z</time>
      </trkpt>
      <trkpt lat="49.19432" lon="6.96735">
        <ele>310</ele>
        <time>2011-04-10T08:47:10Z</time>
      </trkpt>
      <trkpt lat="49.1943" lon="6.96734">
        <ele>310</ele>
        <time>2011-04-10T08:47:11Z</time>
      </trkpt>
      <trkpt lat="49.19429" lon="6.96734">
        <ele>310</ele>
        <time>2011-04-10T08:47:12Z</time>
      </trkpt>
      <trkpt lat="49.19427" lon="6.96733">
        <ele>310</ele>
        <time>2011-04-10T08:47:13Z</time>
      </trkpt>
      <trkpt lat="49.19426" lon="6.96733">
        <ele>310</ele>
        <time>2011-04-10T08:47:14Z</time>
      </trkpt>
      <trkpt lat="49.19424" lon="6.96732">
        <ele>310</ele>
        <time>2011-04-10T08:47:15Z</time>
      </trkpt>
      <trkpt lat="49.19423" lon="6.96731">
        <ele>310</ele>
        <time>2011-04-10T08:47:16Z</time>
      </trkpt>
      <trkpt lat="49.19421" lon="6.96731">
        <ele>310</ele>
        <time>2011-04-10T08:47:17Z</time>
      </trkpt>
      <trkpt lat="49.1942" lon="6.9673">
        <ele>310</ele>
        <time>2011-04-10T08:47:18Z</time>
      </trkpt>
      <trkpt lat="49.19419" lon="6.9673">
        <ele>310</ele>
        <time>2011-04-10T08:47:19Z</time>
      </trkpt>
      <trkpt lat="49.19418" lon="6.96729">
        <ele>310</ele>
        <time>2011-04-10T08:47:20Z</time>
      </trkpt>
      <trkpt lat="49.19416" lon="6.96728">
        <ele>310</ele>
        <time>2011-04-10T08:47:21Z</time>
      </trkpt>
      <trkpt lat="49.19415" lon="6.96728">
        <ele>310</ele>
        <time>2011-04-10T08:47:22Z</time>
      </trkpt>
      <trkpt lat="49.19414" lon="6.96727">
        <ele>310</ele>
        <time>2011-04-10T08:47:23Z</time>
      </trkpt>
      <trkpt lat="49.19412" lon="6.96726">
        <ele>310</ele>
        <time>2011-04-10T08:47:24Z</time>
      </trkpt>
      <trkpt lat="49.19411" lon="6.96726">
        <ele>310</ele>
        <time>2011-04-10T08:47:25Z</time>
      </trkpt>
      <trkpt lat="49.19409" lon="6.96725">
        <ele>310</ele>
        <time>2011-04-10T08:47:26Z</time>
      </trkpt>
      <trkpt lat="49.19408" lon="6.96725">
        <ele>310</ele>
        <time>2011-04-10T08:47:27Z</time>
      </trkpt>
      <trkpt lat="49.19407" lon="6.96724">
        <ele>310</ele>
        <time>2011-04-10T08:47:28Z</time>
      </trkpt>
      <trkpt lat="49.19406" lon="6.96723">
        <ele>310</ele>
        <time>2011-04-10T08:47:29Z</time>
      </trkpt>
      <trkpt lat="49.19405" lon="6.96722">
        <ele>310</ele>
        <time>2011-04-10T08:47:30Z</time>
      </trkpt>
      <trkpt lat="49.19403" lon="6.96722">
        <ele>310</ele>
        <time>2011-04-10T08:47:31Z</time>
      </trkpt>
      <trkpt lat="49.19402" lon="6.96721">
        <ele>310</ele>
        <time>2011-04-10T08:47:32Z</time>
      </trkpt>
      <trkpt lat="49.19401" lon="6.9672">
        <ele>310</ele>
        <time>2011-04-10T08:47:33Z</time>
      </trkpt>
      <trkpt lat="49.19399" lon="6.96719">
        <ele>309</ele>
        <time>2011-04-10T08:47:35Z</time>
      </trkpt>
      <trkpt lat="49.19397" lon="6.96718">
        <ele>309</ele>
        <time>2011-04-10T08:47:36Z</time>
      </trkpt>
      <trkpt lat="49.19396" lon="6.96718">
        <ele>309</ele>
        <time>2011-04-10T08:47:37Z</time>
      </trkpt>
      <trkpt lat="49.19395" lon="6.96718">
        <ele>309</ele>
        <time>2011-04-10T08:47:38Z</time>
      </trkpt>
      <trkpt lat="49.19394" lon="6.96717">
        <ele>309</ele>
        <time>2011-04-10T08:47:39Z</time>
      </trkpt>
      <trkpt lat="49.19392" lon="6.96717">
        <ele>309</ele>
        <time>2011-04-10T08:47:40Z</time>
      </trkpt>
      <trkpt lat="49.1939" lon="6.96715">
        <ele>308</ele>
        <time>2011-04-10T08:47:42Z</time>
      </trkpt>
      <trkpt lat="49.19389" lon="6.96715">
        <ele>308</ele>
        <time>2011-04-10T08:47:43Z</time>
      </trkpt>
      <trkpt lat="49.19388" lon="6.96714">
        <ele>308</ele>
        <time>2011-04-10T08:47:44Z</time>
      </trkpt>
      <trkpt lat="49.19387" lon="6.96714">
        <ele>308</ele>
        <time>2011-04-10T08:47:45Z</time>
      </trkpt>
      <trkpt lat="49.19385" lon="6.96713">
        <ele>308</ele>
        <time>2011-04-10T08:47:46Z</time>
      </trkpt>
      <trkpt lat="49.19384" lon="6.96713">
        <ele>308</ele>
        <time>2011-04-10T08:47:47Z</time>
      </trkpt>
      <trkpt lat="49.19382" lon="6.96712">
        <ele>308</ele>
        <time>2011-04-10T08:47:48Z</time>
      </trkpt>
      <trkpt lat="49.19381" lon="6.96712">
        <ele>308</ele>
        <time>2011-04-10T08:47:49Z</time>
      </trkpt>
      <trkpt lat="49.1938" lon="6.96711">
        <ele>308</ele>
        <time>2011-04-10T08:47:50Z</time>
      </trkpt>
      <trkpt lat="49.19379" lon="6.96711">
        <ele>308</ele>
        <time>2011-04-10T08:47:51Z</time>
      </trkpt>
      <trkpt lat="49.19378" lon="6.9671">
        <ele>308</ele>
        <time>2011-04-10T08:47:52Z</time>
      </trkpt>
      <trkpt lat="49.19377" lon="6.96709">
        <ele>308</ele>
        <time>2011-04-10T08:47:53Z</time>
      </trkpt>
      <trkpt lat="49.19375" lon="6.96709">
        <ele>308</ele>
        <time>2011-04-10T08:47:54Z</time>
      </trkpt>
      <trkpt lat="49.19374" lon="6.96708">
        <ele>308</ele>
        <time>2011-04-10T08:47:55Z</time>
      </trkpt>
      <trkpt lat="49.19373" lon="6.96708">
        <ele>308</ele>
        <time>2011-04-10T08:47:56Z</time>
      </trkpt>
      <trkpt lat="49.19371" lon="6.96706">
        <ele>308</ele>
        <time>2011-04-10T08:47:57Z</time>
      </trkpt>
      <trkpt lat="49.1937" lon="6.96706">
        <ele>308</ele>
        <time>2011-04-10T08:47:58Z</time>
      </trkpt>
      <trkpt lat="49.19369" lon="6.96705">
        <ele>308</ele>
        <time>2011-04-10T08:47:59Z</time>
      </trkpt>
      <trkpt lat="49.19368" lon="6.96705">
        <ele>308</ele>
        <time>2011-04-10T08:48:00Z</time>
      </trkpt>
      <trkpt lat="49.19366" lon="6.96704">
        <ele>308</ele>
        <time>2011-04-10T08:48:01Z</time>
      </trkpt>
      <trkpt lat="49.19365" lon="6.96704">
        <ele>308</ele>
        <time>2011-04-10T08:48:02Z</time>
      </trkpt>
      <trkpt lat="49.19364" lon="6.96704">
        <ele>307</ele>
        <time>2011-04-10T08:48:03Z</time>
      </trkpt>
      <trkpt lat="49.19362" lon="6.96704">
        <ele>307</ele>
        <time>2011-04-10T08:48:04Z</time>
      </trkpt>
      <trkpt lat="49.1936" lon="6.96704">
        <ele>307</ele>
        <time>2011-04-10T08:48:05Z</time>
      </trkpt>
      <trkpt lat="49.19359" lon="6.96703">
        <ele>307</ele>
        <time>2011-04-10T08:48:06Z</time>
      </trkpt>
      <trkpt lat="49.19358" lon="6.96702">
        <ele>307</ele>
        <time>2011-04-10T08:48:07Z</time>
      </trkpt>
      <trkpt lat="49.19357" lon="6.96701">
        <ele>307</ele>
        <time>2011-04-10T08:48:08Z</time>
      </trkpt>
      <trkpt lat="49.19355" lon="6.96701">
        <ele>307</ele>
        <time>2011-04-10T08:48:09Z</time>
      </trkpt>
      <trkpt lat="49.19354" lon="6.967">
        <ele>307</ele>
        <time>2011-04-10T08:48:10Z</time>
      </trkpt>
      <trkpt lat="49.19352" lon="6.96699">
        <ele>307</ele>
        <time>2011-04-10T08:48:12Z</time>
      </trkpt>
      <trkpt lat="49.1935" lon="6.96699">
        <ele>307</ele>
        <time>2011-04-10T08:48:13Z</time>
      </trkpt>
      <trkpt lat="49.19349" lon="6.96699">
        <ele>307</ele>
        <time>2011-04-10T08:48:14Z</time>
      </trkpt>
      <trkpt lat="49.19347" lon="6.96698">
        <ele>307</ele>
        <time>2011-04-10T08:48:15Z</time>
      </trkpt>
      <trkpt lat="49.19346" lon="6.96697">
        <ele>307</ele>
        <time>2011-04-10T08:48:16Z</time>
      </trkpt>
      <trkpt lat="49.19345" lon="6.96697">
        <ele>307</ele>
        <time>2011-04-10T08:48:17Z</time>
      </trkpt>
      <trkpt lat="49.19344" lon="6.96696">
        <ele>307</ele>
        <time>2011-04-10T08:48:18Z</time>
      </trkpt>
      <trkpt lat="49.19342" lon="6.96695">
        <ele>307</ele>
        <time>2011-04-10T08:48:19Z</time>
      </trkpt>
      <trkpt lat="49.19341" lon="6.96694">
        <ele>307</ele>
        <time>2011-04-10T08:48:20Z</time>
      </trkpt>
      <trkpt lat="49.1934" lon="6.96693">
        <ele>307</ele>
        <time>2011-04-10T08:48:21Z</time>
      </trkpt>
      <trkpt lat="49.19339" lon="6.96693">
        <ele>307</ele>
        <time>2011-04-10T08:48:22Z</time>
      </trkpt>
      <trkpt lat="49.19337" lon="6.96692">
        <ele>307</ele>
        <time>2011-04-10T08:48:23Z</time>
      </trkpt>
      <trkpt lat="49.19336" lon="6.96692">
        <ele>307</ele>
        <time>2011-04-10T08:48:24Z</time>
      </trkpt>
      <trkpt lat="49.19334" lon="6.9669">
        <ele>307</ele>
        <time>2011-04-10T08:48:26Z</time>
      </trkpt>
      <trkpt lat="49.19333" lon="6.96689">
        <ele>307</ele>
        <time>2011-04-10T08:48:28Z</time>
      </trkpt>
      <trkpt lat="49.19331" lon="6.96687">
        <ele>307</ele>
        <time>2011-04-10T08:48:30Z</time>
      </trkpt>
      <trkpt lat="49.19329" lon="6.96686">
        <ele>307</ele>
        <time>2011-04-10T08:48:31Z</time>
      </trkpt>
      <trkpt lat="49.19328" lon="6.96685">
        <ele>307</ele>
        <time>2011-04-10T08:48:32Z</time>
      </trkpt>
      <trkpt lat="49.19327" lon="6.96685">
        <ele>307</ele>
        <time>2011-04-10T08:48:33Z</time>
      </trkpt>
      <trkpt lat="49.19324" lon="6.96683">
        <ele>307</ele>
        <time>2011-04-10T08:48:35Z</time>
      </trkpt>
      <trkpt lat="49.19322" lon="6.96682">
        <ele>307</ele>
        <time>2011-04-10T08:48:36Z</time>
      </trkpt>
      <trkpt lat="49.1932" lon="6.96681">
        <ele>307</ele>
        <time>2011-04-10T08:48:38Z</time>
      </trkpt>
      <trkpt lat="49.19319" lon="6.9668">
        <ele>307</ele>
        <time>2011-04-10T08:48:39Z</time>
      </trkpt>
      <trkpt lat="49.19318" lon="6.9668">
        <ele>307</ele>
        <time>2011-04-10T08:48:40Z</time>
      </trkpt>
      <trkpt lat="49.19316" lon="6.96679">
        <ele>307</ele>
        <time>2011-04-10T08:48:41Z</time>
      </trkpt>
      <trkpt lat="49.19315" lon="6.96678">
        <ele>307</ele>
        <time>2011-04-10T08:48:42Z</time>
      </trkpt>
      <trkpt lat="49.19313" lon="6.96678">
        <ele>307</ele>
        <time>2011-04-10T08:48:43Z</time>
      </trkpt>
      <trkpt lat="49.19312" lon="6.96677">
        <ele>307</ele>
        <time>2011-04-10T08:48:44Z</time>
      </trkpt>
      <trkpt lat="49.19311" lon="6.96677">
        <ele>308</ele>
        <time>2011-04-10T08:48:45Z</time>
      </trkpt>
      <trkpt lat="49.19309" lon="6.96676">
        <ele>308</ele>
        <time>2011-04-10T08:48:46Z</time>
      </trkpt>
      <trkpt lat="49.19308" lon="6.96675">
        <ele>308</ele>
        <time>2011-04-10T08:48:47Z</time>
      </trkpt>
      <trkpt lat="49.19306" lon="6.96675">
        <ele>308</ele>
        <time>2011-04-10T08:48:48Z</time>
      </trkpt>
      <trkpt lat="49.19305" lon="6.96675">
        <ele>308</ele>
        <time>2011-04-10T08:48:49Z</time>
      </trkpt>
      <trkpt lat="49.19303" lon="6.96675">
        <ele>308</ele>
        <time>2011-04-10T08:48:50Z</time>
      </trkpt>
      <trkpt lat="49.19302" lon="6.96675">
        <ele>308</ele>
        <time>2011-04-10T08:48:51Z</time>
      </trkpt>
      <trkpt lat="49.193" lon="6.96674">
        <ele>308</ele>
        <time>2011-04-10T08:48:52Z</time>
      </trkpt>
      <trkpt lat="49.19299" lon="6.96674">
        <ele>308</ele>
        <time>2011-04-10T08:48:53Z</time>
      </trkpt>
      <trkpt lat="49.19298" lon="6.96673">
        <ele>308</ele>
        <time>2011-04-10T08:48:54Z</time>
      </trkpt>
      <trkpt lat="49.19297" lon="6.96672">
        <ele>308</ele>
        <time>2011-04-10T08:48:55Z</time>
      </trkpt>
      <trkpt lat="49.19296" lon="6.96671">
        <ele>308</ele>
        <time>2011-04-10T08:48:56Z</time>
      </trkpt>
      <trkpt lat="49.19294" lon="6.96671">
        <ele>308</ele>
        <time>2011-04-10T08:48:57Z</time>
      </trkpt>
      <trkpt lat="49.19293" lon="6.9667">
        <ele>308</ele>
        <time>2011-04-10T08:48:58Z</time>
      </trkpt>
      <trkpt lat="49.19292" lon="6.96669">
        <ele>308</ele>
        <time>2011-04-10T08:48:59Z</time>
      </trkpt>
      <trkpt lat="49.19291" lon="6.96668">
        <ele>308</ele>
        <time>2011-04-10T08:49:00Z</time>
      </trkpt>
      <trkpt lat="49.19289" lon="6.96668">
        <ele>308</ele>
        <time>2011-04-10T08:49:01Z</time>
      </trkpt>
      <trkpt lat="49.19288" lon="6.96667">
        <ele>308</ele>
        <time>2011-04-10T08:49:02Z</time>
      </trkpt>
      <trkpt lat="49.19287" lon="6.96667">
        <ele>308</ele>
        <time>2011-04-10T08:49:03Z</time>
      </trkpt>
      <trkpt lat="49.19285" lon="6.96666">
        <ele>308</ele>
        <time>2011-04-10T08:49:04Z</time>
      </trkpt>
      <trkpt lat="49.19284" lon="6.96666">
        <ele>308</ele>
        <time>2011-04-10T08:49:05Z</time>
      </trkpt>
      <trkpt lat="49.19282" lon="6.96665">
        <ele>308</ele>
        <time>2011-04-10T08:49:06Z</time>
      </trkpt>
      <trkpt lat="49.19281" lon="6.96664">
        <ele>308</ele>
        <time>2011-04-10T08:49:07Z</time>
      </trkpt>
      <trkpt lat="49.1928" lon="6.96663">
        <ele>308</ele>
        <time>2011-04-10T08:49:08Z</time>
      </trkpt>
      <trkpt lat="49.19278" lon="6.96662">
        <ele>308</ele>
        <time>2011-04-10T08:49:09Z</time>
      </trkpt>
      <trkpt lat="49.19277" lon="6.96661">
        <ele>308</ele>
        <time>2011-04-10T08:49:10Z</time>
      </trkpt>
      <trkpt lat="49.19276" lon="6.9666">
        <ele>308</ele>
        <time>2011-04-10T08:49:11Z</time>
      </trkpt>
      <trkpt lat="49.19274" lon="6.96657">
        <ele>308</ele>
        <time>2011-04-10T08:49:13Z</time>
      </trkpt>
      <trkpt lat="49.19273" lon="6.96656">
        <ele>308</ele>
        <time>2011-04-10T08:49:14Z</time>
      </trkpt>
      <trkpt lat="49.1927" lon="6.96654">
        <ele>308</ele>
        <time>2011-04-10T08:49:16Z</time>
      </trkpt>
      <trkpt lat="49.19268" lon="6.96654">
        <ele>308</ele>
        <time>2011-04-10T08:49:17Z</time>
      </trkpt>
      <trkpt lat="49.19267" lon="6.96653">
        <ele>308</ele>
        <time>2011-04-10T08:49:18Z</time>
      </trkpt>
      <trkpt lat="49.19265" lon="6.96652">
        <ele>308</ele>
        <time>2011-04-10T08:49:19Z</time>
      </trkpt>
      <trkpt lat="49.19263" lon="6.9665">
        <ele>308</ele>
        <time>2011-04-10T08:49:21Z</time>
      </trkpt>
      <trkpt lat="49.19262" lon="6.96648">
        <ele>308</ele>
        <time>2011-04-10T08:49:22Z</time>
      </trkpt>
      <trkpt lat="49.1926" lon="6.96647">
        <ele>308</ele>
        <time>2011-04-10T08:49:23Z</time>
      </trkpt>
      <trkpt lat="49.19259" lon="6.96646">
        <ele>308</ele>
        <time>2011-04-10T08:49:24Z</time>
      </trkpt>
      <trkpt lat="49.19257" lon="6.96644">
        <ele>308</ele>
        <time>2011-04-10T08:49:26Z</time>
      </trkpt>
      <trkpt lat="49.19256" lon="6.96643">
        <ele>308</ele>
        <time>2011-04-10T08:49:27Z</time>
      </trkpt>
      <trkpt lat="49.19255" lon="6.96642">
        <ele>308</ele>
        <time>2011-04-10T08:49:28Z</time>
      </trkpt>
      <trkpt lat="49.19253" lon="6.96641">
        <ele>308</ele>
        <time>2011-04-10T08:49:29Z</time>
      </trkpt>
      <trkpt lat="49.19252" lon="6.96641">
        <ele>308</ele>
        <time>2011-04-10T08:49:30Z</time>
      </trkpt>
      <trkpt lat="49.1925" lon="6.9664">
        <ele>308</ele>
        <time>2011-04-10T08:49:31Z</time>
      </trkpt>
      <trkpt lat="49.19249" lon="6.96639">
        <ele>308</ele>
        <time>2011-04-10T08:49:32Z</time>
      </trkpt>
      <trkpt lat="49.19248" lon="6.96638">
        <ele>308</ele>
        <time>2011-04-10T08:49:33Z</time>
      </trkpt>
      <trkpt lat="49.19247" lon="6.96638">
        <ele>308</ele>
        <time>2011-04-10T08:49:34Z</time>
      </trkpt>
      <trkpt lat="49.19245" lon="6.96637">
        <ele>308</ele>
        <time>2011-04-10T08:49:35Z</time>
      </trkpt>
      <trkpt lat="49.19244" lon="6.96637">
        <ele>308</ele>
        <time>2011-04-10T08:49:36Z</time>
      </trkpt>
      <trkpt lat="49.19243" lon="6.96637">
        <ele>308</ele>
        <time>2011-04-10T08:49:37Z</time>
      </trkpt>
      <trkpt lat="49.19241" lon="6.96636">
        <ele>308</ele>
        <time>2011-04-10T08:49:38Z</time>
      </trkpt>
      <trkpt lat="49.1924" lon="6.96635">
        <ele>308</ele>
        <time>2011-04-10T08:49:39Z</time>
      </trkpt>
      <trkpt lat="49.19239" lon="6.96634">
        <ele>308</ele>
        <time>2011-04-10T08:49:40Z</time>
      </trkpt>
      <trkpt lat="49.19237" lon="6.96632">
        <ele>308</ele>
        <time>2011-04-10T08:49:42Z</time>
      </trkpt>
      <trkpt lat="49.19235" lon="6.96631">
        <ele>308</ele>
        <time>2011-04-10T08:49:43Z</time>
      </trkpt>
      <trkpt lat="49.19234" lon="6.9663">
        <ele>308</ele>
        <time>2011-04-10T08:49:44Z</time>
      </trkpt>
      <trkpt lat="49.19232" lon="6.9663">
        <ele>308</ele>
        <time>2011-04-10T08:49:45Z</time>
      </trkpt>
      <trkpt lat="49.19231" lon="6.96629">
        <ele>308</ele>
        <time>2011-04-10T08:49:46Z</time>
      </trkpt>
      <trkpt lat="49.19229" lon="6.96629">
        <ele>308</ele>
        <time>2011-04-10T08:49:47Z</time>
      </trkpt>
      <trkpt lat="49.19228" lon="6.96628">
        <ele>308</ele>
        <time>2011-04-10T08:49:48Z</time>
      </trkpt>
      <trkpt lat="49.19226" lon="6.96628">
        <ele>308</ele>
        <time>2011-04-10T08:49:49Z</time>
      </trkpt>
      <trkpt lat="49.19224" lon="6.96628">
        <ele>308</ele>
        <time>2011-04-10T08:49:50Z</time>
      </trkpt>
      <trkpt lat="49.19223" lon="6.96627">
        <ele>308</ele>
        <time>2011-04-10T08:49:51Z</time>
      </trkpt>
      <trkpt lat="49.19222" lon="6.96627">
        <ele>308</ele>
        <time>2011-04-10T08:49:52Z</time>
      </trkpt>
      <trkpt lat="49.1922" lon="6.96627">
        <ele>308</ele>
        <time>2011-04-10T08:49:53Z</time>
      </trkpt>
      <trkpt lat="49.19218" lon="6.96625">
        <ele>308</ele>
        <time>2011-04-10T08:49:55Z</time>
      </trkpt>
      <trkpt lat="49.19216" lon="6.96624">
        <ele>308</ele>
        <time>2011-04-10T08:49:57Z</time>
      </trkpt>
      <trkpt lat="49.19215" lon="6.96624">
        <ele>308</ele>
        <time>2011-04-10T08:49:58Z</time>
      </trkpt>
      <trkpt lat="49.19213" lon="6.96623">
        <ele>308</ele>
        <time>2011-04-10T08:50:00Z</time>
      </trkpt>
      <trkpt lat="49.19211" lon="6.96622">
        <ele>308</ele>
        <time>2011-04-10T08:50:02Z</time>
      </trkpt>
      <trkpt lat="49.19209" lon="6.96621">
        <ele>308</ele>
        <time>2011-04-10T08:50:03Z</time>
      </trkpt>
      <trkpt lat="49.19207" lon="6.96621">
        <ele>308</ele>
        <time>2011-04-10T08:50:05Z</time>
      </trkpt>
      <trkpt lat="49.19205" lon="6.9662">
        <ele>308</ele>
        <time>2011-04-10T08:50:07Z</time>
      </trkpt>
      <trkpt lat="49.19204" lon="6.9662">
        <ele>308</ele>
        <time>2011-04-10T08:50:08Z</time>
      </trkpt>
      <trkpt lat="49.19202" lon="6.96619">
        <ele>308</ele>
        <time>2011-04-10T08:50:09Z</time>
      </trkpt>
      <trkpt lat="49.19201" lon="6.96619">
        <ele>308</ele>
        <time>2011-04-10T08:50:10Z</time>
      </trkpt>
      <trkpt lat="49.19199" lon="6.96619">
        <ele>308</ele>
        <time>2011-04-10T08:50:11Z</time>
      </trkpt>
      <trkpt lat="49.19198" lon="6.96618">
        <ele>308</ele>
        <time>2011-04-10T08:50:12Z</time>
      </trkpt>
      <trkpt lat="49.19196" lon="6.96617">
        <ele>308</ele>
        <time>2011-04-10T08:50:13Z</time>
      </trkpt>
      <trkpt lat="49.19195" lon="6.96616">
        <ele>308</ele>
        <time>2011-04-10T08:50:14Z</time>
      </trkpt>
      <trkpt lat="49.19194" lon="6.96616">
        <ele>308</ele>
        <time>2011-04-10T08:50:15Z</time>
      </trkpt>
      <trkpt lat="49.19193" lon="6.96616">
        <ele>308</ele>
        <time>2011-04-10T08:50:16Z</time>
      </trkpt>
      <trkpt lat="49.19191" lon="6.96615">
        <ele>308</ele>
        <time>2011-04-10T08:50:17Z</time>
      </trkpt>
      <trkpt lat="49.1919" lon="6.96616">
        <ele>308</ele>
        <time>2011-04-10T08:50:18Z</time>
      </trkpt>
      <trkpt lat="49.19188" lon="6.96616">
        <ele>308</ele>
        <time>2011-04-10T08:50:19Z</time>
      </trkpt>
      <trkpt lat="49.19186" lon="6.96617">
        <ele>308</ele>
        <time>2011-04-10T08:50:20Z</time>
      </trkpt>
      <trkpt lat="49.19184" lon="6.96617">
        <ele>308</ele>
        <time>2011-04-10T08:50:21Z</time>
      </trkpt>
      <trkpt lat="49.19183" lon="6.96616">
        <ele>308</ele>
        <time>2011-04-10T08:50:22Z</time>
      </trkpt>
      <trkpt lat="49.19181" lon="6.96617">
        <ele>308</ele>
        <time>2011-04-10T08:50:23Z</time>
      </trkpt>
      <trkpt lat="49.1918" lon="6.96617">
        <ele>308</ele>
        <time>2011-04-10T08:50:24Z</time>
      </trkpt>
      <trkpt lat="49.19178" lon="6.96617">
        <ele>308</ele>
        <time>2011-04-10T08:50:25Z</time>
      </trkpt>
      <trkpt lat="49.19177" lon="6.96618">
        <ele>308</ele>
        <time>2011-04-10T08:50:26Z</time>
      </trkpt>
      <trkpt lat="49.19175" lon="6.96617">
        <ele>308</ele>
        <time>2011-04-10T08:50:27Z</time>
      </trkpt>
      <trkpt lat="49.19174" lon="6.96617">
        <ele>308</ele>
        <time>2011-04-10T08:50:28Z</time>
      </trkpt>
      <trkpt lat="49.19173" lon="6.96618">
        <ele>308</ele>
        <time>2011-04-10T08:50:29Z</time>
      </trkpt>
      <trkpt lat="49.19171" lon="6.96618">
        <ele>308</ele>
        <time>2011-04-10T08:50:31Z</time>
      </trkpt>
      <trkpt lat="49.1917" lon="6.96618">
        <ele>308</ele>
        <time>2011-04-10T08:50:32Z</time>
      </trkpt>
      <trkpt lat="49.19168" lon="6.96618">
        <ele>308</ele>
        <time>2011-04-10T08:50:33Z</time>
      </trkpt>
      <trkpt lat="49.19167" lon="6.96618">
        <ele>308</ele>
        <time>2011-04-10T08:50:34Z</time>
      </trkpt>
      <trkpt lat="49.19166" lon="6.96618">
        <ele>308</ele>
        <time>2011-04-10T08:50:35Z</time>
      </trkpt>
      <trkpt lat="49.19164" lon="6.96618">
        <ele>308</ele>
        <time>2011-04-10T08:50:36Z</time>
      </trkpt>
      <trkpt lat="49.19163" lon="6.96618">
        <ele>308</ele>
        <time>2011-04-10T08:50:37Z</time>
      </trkpt>
      <trkpt lat="49.19162" lon="6.96617">
        <ele>308</ele>
        <time>2011-04-10T08:50:38Z</time>
      </trkpt>
      <trkpt lat="49.1916" lon="6.96615">
        <ele>308</ele>
        <time>2011-04-10T08:50:39Z</time>
      </trkpt>
      <trkpt lat="49.1916" lon="6.96612">
        <ele>308</ele>
        <time>2011-04-10T08:50:41Z</time>
      </trkpt>
      <trkpt lat="49.19158" lon="6.96609">
        <ele>308</ele>
        <time>2011-04-10T08:50:43Z</time>
      </trkpt>
      <trkpt lat="49.19157" lon="6.96607">
        <ele>308</ele>
        <time>2011-04-10T08:50:44Z</time>
      </trkpt>
      <trkpt lat="49.19157" lon="6.96605">
        <ele>308</ele>
        <time>2011-04-10T08:50:45Z</time>
      </trkpt>
      <trkpt lat="49.19156" lon="6.96604">
        <ele>308</ele>
        <time>2011-04-10T08:50:46Z</time>
      </trkpt>
      <trkpt lat="49.19156" lon="6.96602">
        <ele>308</ele>
        <time>2011-04-10T08:50:47Z</time>
      </trkpt>
      <trkpt lat="49.19156" lon="6.966">
        <ele>308</ele>
        <time>2011-04-10T08:50:48Z</time>
      </trkpt>
      <trkpt lat="49.19156" lon="6.96598">
        <ele>308</ele>
        <time>2011-04-10T08:50:49Z</time>
      </trkpt>
      <trkpt lat="49.19156" lon="6.96596">
        <ele>308</ele>
        <time>2011-04-10T08:50:50Z</time>
      </trkpt>
      <trkpt lat="49.19156" lon="6.96595">
        <ele>308</ele>
        <time>2011-04-10T08:50:51Z</time>
      </trkpt>
      <trkpt lat="49.19156" lon="6.96593">
        <ele>308</ele>
        <time>2011-04-10T08:50:52Z</time>
      </trkpt>
      <trkpt lat="49.19156" lon="6.96591">
        <ele>308</ele>
        <time>2011-04-10T08:50:53Z</time>
      </trkpt>
      <trkpt lat="49.19156" lon="6.96589">
        <ele>308</ele>
        <time>2011-04-10T08:50:54Z</time>
      </trkpt>
      <trkpt lat="49.19156" lon="6.96587">
        <ele>308</ele>
        <time>2011-04-10T08:50:55Z</time>
      </trkpt>
      <trkpt lat="49.19156" lon="6.96584">
        <ele>308</ele>
        <time>2011-04-10T08:50:57Z</time>
      </trkpt>
      <trkpt lat="49.19155" lon="6.96582">
        <ele>308</ele>
        <time>2011-04-10T08:50:59Z</time>
      </trkpt>
      <trkpt lat="49.19152" lon="6.96581">
        <ele>308</ele>
        <time>2011-04-10T08:51:01Z</time>
      </trkpt>
      <trkpt lat="49.19151" lon="6.9658">
        <ele>308</ele>
        <time>2011-04-10T08:51:02Z</time>
      </trkpt>
      <trkpt lat="49.1915" lon="6.96576">
        <ele>308</ele>
        <time>2011-04-10T08:51:04Z</time>
      </trkpt>
      <trkpt lat="49.19149" lon="6.96575">
        <ele>308</ele>
        <time>2011-04-10T08:51:05Z</time>
      </trkpt>
      <trkpt lat="49.19149" lon="6.96573">
        <ele>308</ele>
        <time>2011-04-10T08:51:06Z</time>
      </trkpt>
      <trkpt lat="49.19149" lon="6.96571">
        <ele>308</ele>
        <time>2011-04-10T08:51:07Z</time>
      </trkpt>
      <trkpt lat="49.19148" lon="6.96568">
        <ele>308</ele>
        <time>2011-04-10T08:51:09Z</time>
      </trkpt>
      <trkpt lat="49.19146" lon="6.96567">
        <ele>308</ele>
        <time>2011-04-10T08:51:11Z</time>
      </trkpt>
      <trkpt lat="49.19145" lon="6.96566">
        <ele>308</ele>
        <time>2011-04-10T08:51:14Z</time>
      </trkpt>
      <trkpt lat="49.19146" lon="6.96564">
        <ele>309</ele>
        <time>2011-04-10T08:51:29Z</time>
      </trkpt>
      <trkpt lat="49.19146" lon="6.96562">
        <ele>309</ele>
        <time>2011-04-10T08:51:30Z</time>
      </trkpt>
      <trkpt lat="49.19147" lon="6.9656">
        <ele>309</ele>
        <time>2011-04-10T08:51:31Z</time>
      </trkpt>
      <trkpt lat="49.19149" lon="6.96559">
        <ele>309</ele>
        <time>2011-04-10T08:51:32Z</time>
      </trkpt>
      <trkpt lat="49.1915" lon="6.96558">
        <ele>309</ele>
        <time>2011-04-10T08:51:33Z</time>
      </trkpt>
      <trkpt lat="49.19151" lon="6.96556">
        <ele>309</ele>
        <time>2011-04-10T08:51:34Z</time>
      </trkpt>
      <trkpt lat="49.19151" lon="6.96553">
        <ele>309</ele>
        <time>2011-04-10T08:51:35Z</time>
      </trkpt>
      <trkpt lat="49.19152" lon="6.9655">
        <ele>309</ele>
        <time>2011-04-10T08:51:36Z</time>
      </trkpt>
      <trkpt lat="49.19152" lon="6.96548">
        <ele>309</ele>
        <time>2011-04-10T08:51:37Z</time>
      </trkpt>
      <trkpt lat="49.19153" lon="6.96546">
        <ele>309</ele>
        <time>2011-04-10T08:51:38Z</time>
      </trkpt>
      <trkpt lat="49.19153" lon="6.96543">
        <ele>309</ele>
        <time>2011-04-10T08:51:39Z</time>
      </trkpt>
      <trkpt lat="49.19154" lon="6.96541">
        <ele>309</ele>
        <time>2011-04-10T08:51:40Z</time>
      </trkpt>
      <trkpt lat="49.19154" lon="6.96538">
        <ele>309</ele>
        <time>2011-04-10T08:51:41Z</time>
      </trkpt>
      <trkpt lat="49.19154" lon="6.96535">
        <ele>309</ele>
        <time>2011-04-10T08:51:42Z</time>
      </trkpt>
      <trkpt lat="49.19155" lon="6.96533">
        <ele>309</ele>
        <time>2011-04-10T08:51:43Z</time>
      </trkpt>
      <trkpt lat="49.19155" lon="6.96531">
        <ele>309</ele>
        <time>2011-04-10T08:51:44Z</time>
      </trkpt>
      <trkpt lat="49.19155" lon="6.96529">
        <ele>309</ele>
        <time>2011-04-10T08:51:45Z</time>
      </trkpt>
      <trkpt lat="49.19155" lon="6.96527">
        <ele>309</ele>
        <time>2011-04-10T08:51:46Z</time>
      </trkpt>
      <trkpt lat="49.19155" lon="6.96525">
        <ele>309</ele>
        <time>2011-04-10T08:51:47Z</time>
      </trkpt>
      <trkpt lat="49.19156" lon="6.96522">
        <ele>309</ele>
        <time>2011-04-10T08:51:48Z</time>
      </trkpt>
      <trkpt lat="49.19156" lon="6.9652">
        <ele>309</ele>
        <time>2011-04-10T08:51:49Z</time>
      </trkpt>
      <trkpt lat="49.19155" lon="6.96518">
        <ele>309</ele>
        <time>2011-04-10T08:51:50Z</time>
      </trkpt>
      <trkpt lat="49.19155" lon="6.96515">
        <ele>309</ele>
        <time>2011-04-10T08:51:51Z</time>
      </trkpt>
      <trkpt lat="49.19155" lon="6.96513">
        <ele>309</ele>
        <time>2011-04-10T08:51:52Z</time>
      </trkpt>
      <trkpt lat="49.19155" lon="6.9651">
        <ele>309</ele>
        <time>2011-04-10T08:51:53Z</time>
      </trkpt>
      <trkpt lat="49.19154" lon="6.96508">
        <ele>309</ele>
        <time>2011-04-10T08:51:54Z</time>
      </trkpt>
      <trkpt lat="49.19154" lon="6.96505">
        <ele>309</ele>
        <time>2011-04-10T08:51:55Z</time>
      </trkpt>
      <trkpt lat="49.19154" lon="6.96503">
        <ele>309</ele>
        <time>2011-04-10T08:51:56Z</time>
      </trkpt>
      <trkpt lat="49.19155" lon="6.965">
        <ele>309</ele>
        <time>2011-04-10T08:51:57Z</time>
      </trkpt>
      <trkpt lat="49.19155" lon="6.96498">
        <ele>309</ele>
        <time>2011-04-10T08:51:58Z</time>
      </trkpt>
      <trkpt lat="49.19155" lon="6.96496">
        <ele>309</ele>
        <time>2011-04-10T08:51:59Z</time>
      </trkpt>
      <trkpt lat="49.19155" lon="6.96493">
        <ele>309</ele>
        <time>2011-04-10T08:52:00Z</time>
      </trkpt>
      <trkpt lat="49.19155" lon="6.96491">
        <ele>309</ele>
        <time>2011-04-10T08:52:01Z</time>
      </trkpt>
      <trkpt lat="49.19155" lon="6.96488">
        <ele>309</ele>
        <time>2011-04-10T08:52:02Z</time>
      </trkpt>
      <trkpt lat="49.19155" lon="6.96486">
        <ele>309</ele>
        <time>2011-04-10T08:52:03Z</time>
      </trkpt>
      <trkpt lat="49.19155" lon="6.96483">
        <ele>309</ele>
        <time>2011-04-10T08:52:04Z</time>
      </trkpt>
      <trkpt lat="49.19155" lon="6.96481">
        <ele>309</ele>
        <time>2011-04-10T08:52:05Z</time>
      </trkpt>
      <trkpt lat="49.19156" lon="6.96479">
        <ele>309</ele>
        <time>2011-04-10T08:52:06Z</time>
      </trkpt>
      <trkpt lat="49.19156" lon="6.96476">
        <ele>309</ele>
        <time>2011-04-10T08:52:07Z</time>
      </trkpt>
      <trkpt lat="49.19156" lon="6.96474">
        <ele>309</ele>
        <time>2011-04-10T08:52:08Z</time>
      </trkpt>
      <trkpt lat="49.19156" lon="6.96472">
        <ele>309</ele>
        <time>2011-04-10T08:52:09Z</time>
      </trkpt>
      <trkpt lat="49.19156" lon="6.96469">
        <ele>309</ele>
        <time>2011-04-10T08:52:10Z</time>
      </trkpt>
      <trkpt lat="49.19156" lon="6.96466">
        <ele>309</ele>
        <time>2011-04-10T08:52:11Z</time>
      </trkpt>
      <trkpt lat="49.19155" lon="6.96464">
        <ele>309</ele>
        <time>2011-04-10T08:52:12Z</time>
      </trkpt>
      <trkpt lat="49.19154" lon="6.96461">
        <ele>309</ele>
        <time>2011-04-10T08:52:13Z</time>
      </trkpt>
      <trkpt lat="49.19154" lon="6.96458">
        <ele>309</ele>
        <time>2011-04-10T08:52:14Z</time>
      </trkpt>
      <trkpt lat="49.19154" lon="6.96456">
        <ele>309</ele>
        <time>2011-04-10T08:52:15Z</time>
      </trkpt>
      <trkpt lat="49.19154" lon="6.96454">
        <ele>309</ele>
        <time>2011-04-10T08:52:16Z</time>
      </trkpt>
      <trkpt lat="49.19154" lon="6.96452">
        <ele>309</ele>
        <time>2011-04-10T08:52:17Z</time>
      </trkpt>
      <trkpt lat="49.19154" lon="6.9645">
        <ele>309</ele>
        <time>2011-04-10T08:52:18Z</time>
      </trkpt>
      <trkpt lat="49.19154" lon="6.96448">
        <ele>309</ele>
        <time>2011-04-10T08:52:19Z</time>
      </trkpt>
      <trkpt lat="49.19154" lon="6.96446">
        <ele>309</ele>
        <time>2011-04-10T08:52:20Z</time>
      </trkpt>
      <trkpt lat="49.19154" lon="6.96443">
        <ele>309</ele>
        <time>2011-04-10T08:52:21Z</time>
      </trkpt>
      <trkpt lat="49.19154" lon="6.96441">
        <ele>309</ele>
        <time>2011-04-10T08:52:22Z</time>
      </trkpt>
      <trkpt lat="49.19154" lon="6.96438">
        <ele>309</ele>
        <time>2011-04-10T08:52:23Z</time>
      </trkpt>
      <trkpt lat="49.19154" lon="6.96436">
        <ele>309</ele>
        <time>2011-04-10T08:52:24Z</time>
      </trkpt>
      <trkpt lat="49.19154" lon="6.96434">
        <ele>309</ele>
        <time>2011-04-10T08:52:25Z</time>
      </trkpt>
      <trkpt lat="49.19154" lon="6.96432">
        <ele>309</ele>
        <time>2011-04-10T08:52:26Z</time>
      </trkpt>
      <trkpt lat="49.19155" lon="6.9643">
        <ele>309</ele>
        <time>2011-04-10T08:52:27Z</time>
      </trkpt>
      <trkpt lat="49.19155" lon="6.96428">
        <ele>309</ele>
        <time>2011-04-10T08:52:28Z</time>
      </trkpt>
      <trkpt lat="49.19155" lon="6.96426">
        <ele>309</ele>
        <time>2011-04-10T08:52:29Z</time>
      </trkpt>
      <trkpt lat="49.19156" lon="6.96424">
        <ele>309</ele>
        <time>2011-04-10T08:52:30Z</time>
      </trkpt>
      <trkpt lat="49.19156" lon="6.96422">
        <ele>309</ele>
        <time>2011-04-10T08:52:31Z</time>
      </trkpt>
      <trkpt lat="49.19156" lon="6.9642">
        <ele>309</ele>
        <time>2011-04-10T08:52:32Z</time>
      </trkpt>
      <trkpt lat="49.19157" lon="6.96418">
        <ele>309</ele>
        <time>2011-04-10T08:52:33Z</time>
      </trkpt>
      <trkpt lat="49.19157" lon="6.96417">
        <ele>309</ele>
        <time>2011-04-10T08:52:34Z</time>
      </trkpt>
      <trkpt lat="49.19157" lon="6.96415">
        <ele>309</ele>
        <time>2011-04-10T08:52:35Z</time>
      </trkpt>
      <trkpt lat="49.19158" lon="6.96413">
        <ele>309</ele>
        <time>2011-04-10T08:52:36Z</time>
      </trkpt>
      <trkpt lat="49.19158" lon="6.96411">
        <ele>309</ele>
        <time>2011-04-10T08:52:37Z</time>
      </trkpt>
      <trkpt lat="49.19158" lon="6.96409">
        <ele>309</ele>
        <time>2011-04-10T08:52:38Z</time>
      </trkpt>
      <trkpt lat="49.19158" lon="6.96406">
        <ele>309</ele>
        <time>2011-04-10T08:52:39Z</time>
      </trkpt>
      <trkpt lat="49.19158" lon="6.96404">
        <ele>309</ele>
        <time>2011-04-10T08:52:40Z</time>
      </trkpt>
      <trkpt lat="49.19157" lon="6.96401">
        <ele>309</ele>
        <time>2011-04-10T08:52:41Z</time>
      </trkpt>
      <trkpt lat="49.19157" lon="6.96398">
        <ele>309</ele>
        <time>2011-04-10T08:52:42Z</time>
      </trkpt>
      <trkpt lat="49.19156" lon="6.96395">
        <ele>309</ele>
        <time>2011-04-10T08:52:43Z</time>
      </trkpt>
      <trkpt lat="49.19156" lon="6.96393">
        <ele>309</ele>
        <time>2011-04-10T08:52:44Z</time>
      </trkpt>
      <trkpt lat="49.19156" lon="6.96391">
        <ele>309</ele>
        <time>2011-04-10T08:52:45Z</time>
      </trkpt>
      <trkpt lat="49.19156" lon="6.96388">
        <ele>309</ele>
        <time>2011-04-10T08:52:46Z</time>
      </trkpt>
      <trkpt lat="49.19156" lon="6.96386">
        <ele>309</ele>
        <time>2011-04-10T08:52:47Z</time>
      </trkpt>
      <trkpt lat="49.19156" lon="6.96383">
        <ele>309</ele>
        <time>2011-04-10T08:52:48Z</time>
      </trkpt>
      <trkpt lat="49.19157" lon="6.96381">
        <ele>309</ele>
        <time>2011-04-10T08:52:49Z</time>
      </trkpt>
      <trkpt lat="49.19157" lon="6.96379">
        <ele>309</ele>
        <time>2011-04-10T08:52:50Z</time>
      </trkpt>
      <trkpt lat="49.19157" lon="6.96377">
        <ele>309</ele>
        <time>2011-04-10T08:52:51Z</time>
      </trkpt>
      <trkpt lat="49.19157" lon="6.96375">
        <ele>309</ele>
        <time>2011-04-10T08:52:52Z</time>
      </trkpt>
      <trkpt lat="49.19157" lon="6.96372">
        <ele>309</ele>
        <time>2011-04-10T08:52:53Z</time>
      </trkpt>
      <trkpt lat="49.19157" lon="6.9637">
        <ele>309</ele>
        <time>2011-04-10T08:52:54Z</time>
      </trkpt>
      <trkpt lat="49.19157" lon="6.96368">
        <ele>309</ele>
        <time>2011-04-10T08:52:55Z</time>
      </trkpt>
      <trkpt lat="49.19158" lon="6.96365">
        <ele>309</ele>
        <time>2011-04-10T08:52:56Z</time>
      </trkpt>
      <trkpt lat="49.19158" lon="6.96363">
        <ele>309</ele>
        <time>2011-04-10T08:52:57Z</time>
      </trkpt>
      <trkpt lat="49.19158" lon="6.9636">
        <ele>309</ele>
        <time>2011-04-10T08:52:58Z</time>
      </trkpt>
      <trkpt lat="49.19158" lon="6.96358">
        <ele>309</ele>
        <time>2011-04-10T08:52:59Z</time>
      </trkpt>
      <trkpt lat="49.19159" lon="6.96355">
        <ele>309</ele>
        <time>2011-04-10T08:53:00Z</time>
      </trkpt>
      <trkpt lat="49.19159" lon="6.96353">
        <ele>309</ele>
        <time>2011-04-10T08:53:01Z</time>
      </trkpt>
      <trkpt lat="49.19159" lon="6.96351">
        <ele>309</ele>
        <time>2011-04-10T08:53:02Z</time>
      </trkpt>
      <trkpt lat="49.19159" lon="6.96349">
        <ele>309</ele>
        <time>2011-04-10T08:53:03Z</time>
      </trkpt>
      <trkpt lat="49.19159" lon="6.96347">
        <ele>310</ele>
        <time>2011-04-10T08:53:04Z</time>
      </trkpt>
      <trkpt lat="49.19159" lon="6.96345">
        <ele>310</ele>
        <time>2011-04-10T08:53:05Z</time>
      </trkpt>
      <trkpt lat="49.1916" lon="6.96343">
        <ele>310</ele>
        <time>2011-04-10T08:53:06Z</time>
      </trkpt>
      <trkpt lat="49.1916" lon="6.9634">
        <ele>310</ele>
        <time>2011-04-10T08:53:07Z</time>
      </trkpt>
      <trkpt lat="49.1916" lon="6.96338">
        <ele>310</ele>
        <time>2011-04-10T08:53:08Z</time>
      </trkpt>
      <trkpt lat="49.1916" lon="6.96336">
        <ele>310</ele>
        <time>2011-04-10T08:53:09Z</time>
      </trkpt>
      <trkpt lat="49.1916" lon="6.96334">
        <ele>310</ele>
        <time>2011-04-10T08:53:10Z</time>
      </trkpt>
      <trkpt lat="49.1916" lon="6.96332">
        <ele>311</ele>
        <time>2011-04-10T08:53:11Z</time>
      </trkpt>
      <trkpt lat="49.1916" lon="6.9633">
        <ele>311</ele>
        <time>2011-04-10T08:53:12Z</time>
      </trkpt>
      <trkpt lat="49.19161" lon="6.96328">
        <ele>311</ele>
        <time>2011-04-10T08:53:13Z</time>
      </trkpt>
      <trkpt lat="49.1916" lon="6.96326">
        <ele>311</ele>
        <time>2011-04-10T08:53:14Z</time>
      </trkpt>
      <trkpt lat="49.1916" lon="6.96323">
        <ele>311</ele>
        <time>2011-04-10T08:53:15Z</time>
      </trkpt>
      <trkpt lat="49.1916" lon="6.96321">
        <ele>311</ele>
        <time>2011-04-10T08:53:16Z</time>
      </trkpt>
      <trkpt lat="49.19159" lon="6.96318">
        <ele>311</ele>
        <time>2011-04-10T08:53:17Z</time>
      </trkpt>
      <trkpt lat="49.19159" lon="6.96316">
        <ele>311</ele>
        <time>2011-04-10T08:53:18Z</time>
      </trkpt>
      <trkpt lat="49.19159" lon="6.96314">
        <ele>311</ele>
        <time>2011-04-10T08:53:19Z</time>
      </trkpt>
      <trkpt lat="49.1916" lon="6.96311">
        <ele>311</ele>
        <time>2011-04-10T08:53:20Z</time>
      </trkpt>
      <trkpt lat="49.1916" lon="6.96309">
        <ele>311</ele>
        <time>2011-04-10T08:53:21Z</time>
      </trkpt>
      <trkpt lat="49.19161" lon="6.96307">
        <ele>311</ele>
        <time>2011-04-10T08:53:22Z</time>
      </trkpt>
      <trkpt lat="49.19162" lon="6.96305">
        <ele>311</ele>
        <time>2011-04-10T08:53:23Z</time>
      </trkpt>
      <trkpt lat="49.19162" lon="6.96303">
        <ele>312</ele>
        <time>2011-04-10T08:53:24Z</time>
      </trkpt>
      <trkpt lat="49.19162" lon="6.96301">
        <ele>312</ele>
        <time>2011-04-10T08:53:25Z</time>
      </trkpt>
      <trkpt lat="49.19162" lon="6.96299">
        <ele>312</ele>
        <time>2011-04-10T08:53:26Z</time>
      </trkpt>
      <trkpt lat="49.19162" lon="6.96296">
        <ele>313</ele>
        <time>2011-04-10T08:53:27Z</time>
      </trkpt>
      <trkpt lat="49.19162" lon="6.96294">
        <ele>313</ele>
        <time>2011-04-10T08:53:28Z</time>
      </trkpt>
      <trkpt lat="49.19162" lon="6.96291">
        <ele>314</ele>
        <time>2011-04-10T08:53:29Z</time>
      </trkpt>
      <trkpt lat="49.19162" lon="6.96288">
        <ele>314</ele>
        <time>2011-04-10T08:53:30Z</time>
      </trkpt>
      <trkpt lat="49.19163" lon="6.96286">
        <ele>314</ele>
        <time>2011-04-10T08:53:31Z</time>
      </trkpt>
      <trkpt lat="49.19163" lon="6.96284">
        <ele>314</ele>
        <time>2011-04-10T08:53:32Z</time>
      </trkpt>
      <trkpt lat="49.19164" lon="6.96282">
        <ele>315</ele>
        <time>2011-04-10T08:53:33Z</time>
      </trkpt>
      <trkpt lat="49.19164" lon="6.9628">
        <ele>315</ele>
        <time>2011-04-10T08:53:34Z</time>
      </trkpt>
      <trkpt lat="49.19164" lon="6.96278">
        <ele>315</ele>
        <time>2011-04-10T08:53:35Z</time>
      </trkpt>
      <trkpt lat="49.19164" lon="6.96275">
        <ele>315</ele>
        <time>2011-04-10T08:53:36Z</time>
      </trkpt>
      <trkpt lat="49.19164" lon="6.96273">
        <ele>315</ele>
        <time>2011-04-10T08:53:37Z</time>
      </trkpt>
      <trkpt lat="49.19164" lon="6.96271">
        <ele>315</ele>
        <time>2011-04-10T08:53:38Z</time>
      </trkpt>
      <trkpt lat="49.19164" lon="6.96269">
        <ele>315</ele>
        <time>2011-04-10T08:53:39Z</time>
      </trkpt>
      <trkpt lat="49.19164" lon="6.96266">
        <ele>315</ele>
        <time>2011-04-10T08:53:40Z</time>
      </trkpt>
      <trkpt lat="49.19163" lon="6.96264">
        <ele>315</ele>
        <time>2011-04-10T08:53:41Z</time>
      </trkpt>
      <trkpt lat="49.19162" lon="6.96262">
        <ele>315</ele>
        <time>2011-04-10T08:53:42Z</time>
      </trkpt>
      <trkpt lat="49.19162" lon="6.96259">
        <ele>315</ele>
        <time>2011-04-10T08:53:43Z</time>
      </trkpt>
      <trkpt lat="49.19162" lon="6.96257">
        <ele>315</ele>
        <time>2011-04-10T08:53:44Z</time>
      </trkpt>
      <trkpt lat="49.19163" lon="6.96255">
        <ele>315</ele>
        <time>2011-04-10T08:53:45Z</time>
      </trkpt>
      <trkpt lat="49.19163" lon="6.96253">
        <ele>315</ele>
        <time>2011-04-10T08:53:46Z</time>
      </trkpt>
      <trkpt lat="49.19163" lon="6.96251">
        <ele>315</ele>
        <time>2011-04-10T08:53:47Z</time>
      </trkpt>
      <trkpt lat="49.19164" lon="6.96248">
        <ele>316</ele>
        <time>2011-04-10T08:53:48Z</time>
      </trkpt>
      <trkpt lat="49.19164" lon="6.96245">
        <ele>316</ele>
        <time>2011-04-10T08:53:49Z</time>
      </trkpt>
      <trkpt lat="49.19164" lon="6.96243">
        <ele>316</ele>
        <time>2011-04-10T08:53:50Z</time>
      </trkpt>
      <trkpt lat="49.19164" lon="6.96241">
        <ele>316</ele>
        <time>2011-04-10T08:53:51Z</time>
      </trkpt>
      <trkpt lat="49.19164" lon="6.96239">
        <ele>316</ele>
        <time>2011-04-10T08:53:52Z</time>
      </trkpt>
      <trkpt lat="49.19164" lon="6.96237">
        <ele>316</ele>
        <time>2011-04-10T08:53:53Z</time>
      </trkpt>
      <trkpt lat="49.19165" lon="6.96235">
        <ele>316</ele>
        <time>2011-04-10T08:53:54Z</time>
      </trkpt>
      <trkpt lat="49.19165" lon="6.96232">
        <ele>316</ele>
        <time>2011-04-10T08:53:55Z</time>
      </trkpt>
      <trkpt lat="49.19165" lon="6.9623">
        <ele>316</ele>
        <time>2011-04-10T08:53:56Z</time>
      </trkpt>
      <trkpt lat="49.19165" lon="6.96228">
        <ele>316</ele>
        <time>2011-04-10T08:53:57Z</time>
      </trkpt>
      <trkpt lat="49.19165" lon="6.96226">
        <ele>316</ele>
        <time>2011-04-10T08:53:58Z</time>
      </trkpt>
      <trkpt lat="49.19166" lon="6.96223">
        <ele>316</ele>
        <time>2011-04-10T08:53:59Z</time>
      </trkpt>
      <trkpt lat="49.19166" lon="6.96221">
        <ele>316</ele>
        <time>2011-04-10T08:54:00Z</time>
      </trkpt>
      <trkpt lat="49.19166" lon="6.96219">
        <ele>316</ele>
        <time>2011-04-10T08:54:01Z</time>
      </trkpt>
      <trkpt lat="49.19166" lon="6.96217">
        <ele>317</ele>
        <time>2011-04-10T08:54:02Z</time>
      </trkpt>
      <trkpt lat="49.19166" lon="6.96215">
        <ele>317</ele>
        <time>2011-04-10T08:54:03Z</time>
      </trkpt>
      <trkpt lat="49.19166" lon="6.96213">
        <ele>317</ele>
        <time>2011-04-10T08:54:04Z</time>
      </trkpt>
      <trkpt lat="49.19166" lon="6.9621">
        <ele>317</ele>
        <time>2011-04-10T08:54:05Z</time>
      </trkpt>
      <trkpt lat="49.19166" lon="6.96208">
        <ele>317</ele>
        <time>2011-04-10T08:54:06Z</time>
      </trkpt>
      <trkpt lat="49.19165" lon="6.96206">
        <ele>317</ele>
        <time>2011-04-10T08:54:07Z</time>
      </trkpt>
      <trkpt lat="49.19165" lon="6.96204">
        <ele>317</ele>
        <time>2011-04-10T08:54:08Z</time>
      </trkpt>
      <trkpt lat="49.19165" lon="6.96202">
        <ele>317</ele>
        <time>2011-04-10T08:54:09Z</time>
      </trkpt>
      <trkpt lat="49.19165" lon="6.962">
        <ele>317</ele>
        <time>2011-04-10T08:54:10Z</time>
      </trkpt>
      <trkpt lat="49.19165" lon="6.96197">
        <ele>317</ele>
        <time>2011-04-10T08:54:11Z</time>
      </trkpt>
      <trkpt lat="49.19165" lon="6.96196">
        <ele>317</ele>
        <time>2011-04-10T08:54:12Z</time>
      </trkpt>
      <trkpt lat="49.19165" lon="6.96194">
        <ele>317</ele>
        <time>2011-04-10T08:54:13Z</time>
      </trkpt>
      <trkpt lat="49.19166" lon="6.96192">
        <ele>317</ele>
        <time>2011-04-10T08:54:14Z</time>
      </trkpt>
      <trkpt lat="49.19166" lon="6.9619">
        <ele>317</ele>
        <time>2011-04-10T08:54:15Z</time>
      </trkpt>
      <trkpt lat="49.19167" lon="6.96188">
        <ele>317</ele>
        <time>2011-04-10T08:54:16Z</time>
      </trkpt>
      <trkpt lat="49.19167" lon="6.96186">
        <ele>317</ele>
        <time>2011-04-10T08:54:17Z</time>
      </trkpt>
      <trkpt lat="49.19167" lon="6.96184">
        <ele>317</ele>
        <time>2011-04-10T08:54:18Z</time>
      </trkpt>
      <trkpt lat="49.19167" lon="6.96182">
        <ele>317</ele>
        <time>2011-04-10T08:54:19Z</time>
      </trkpt>
      <trkpt lat="49.19167" lon="6.9618">
        <ele>317</ele>
        <time>2011-04-10T08:54:20Z</time>
      </trkpt>
      <trkpt lat="49.19167" lon="6.96178">
        <ele>317</ele>
        <time>2011-04-10T08:54:21Z</time>
      </trkpt>
      <trkpt lat="49.19167" lon="6.96176">
        <ele>317</ele>
        <time>2011-04-10T08:54:22Z</time>
      </trkpt>
      <trkpt lat="49.19167" lon="6.96174">
        <ele>317</ele>
        <time>2011-04-10T08:54:23Z</time>
      </trkpt>
      <trkpt lat="49.19167" lon="6.96172">
        <ele>317</ele>
        <time>2011-04-10T08:54:24Z</time>
      </trkpt>
      <trkpt lat="49.19168" lon="6.96169">
        <ele>317</ele>
        <time>2011-04-10T08:54:25Z</time>
      </trkpt>
      <trkpt lat="49.19168" lon="6.96167">
        <ele>317</ele>
        <time>2011-04-10T08:54:26Z</time>
      </trkpt>
      <trkpt lat="49.19168" lon="6.96165">
        <ele>317</ele>
        <time>2011-04-10T08:54:27Z</time>
      </trkpt>
      <trkpt lat="49.19168" lon="6.96162">
        <ele>317</ele>
        <time>2011-04-10T08:54:28Z</time>
      </trkpt>
      <trkpt lat="49.19168" lon="6.9616">
        <ele>317</ele>
        <time>2011-04-10T08:54:29Z</time>
      </trkpt>
      <trkpt lat="49.19169" lon="6.96158">
        <ele>317</ele>
        <time>2011-04-10T08:54:30Z</time>
      </trkpt>
      <trkpt lat="49.19169" lon="6.96156">
        <ele>317</ele>
        <time>2011-04-10T08:54:31Z</time>
      </trkpt>
      <trkpt lat="49.19169" lon="6.96154">
        <ele>317</ele>
        <time>2011-04-10T08:54:32Z</time>
      </trkpt>
      <trkpt lat="49.19169" lon="6.96152">
        <ele>317</ele>
        <time>2011-04-10T08:54:33Z</time>
      </trkpt>
      <trkpt lat="49.19168" lon="6.96151">
        <ele>317</ele>
        <time>2011-04-10T08:54:34Z</time>
      </trkpt>
      <trkpt lat="49.19168" lon="6.96149">
        <ele>317</ele>
        <time>2011-04-10T08:54:35Z</time>
      </trkpt>
      <trkpt lat="49.19166" lon="6.96147">
        <ele>317</ele>
        <time>2011-04-10T08:54:36Z</time>
      </trkpt>
      <trkpt lat="49.19165" lon="6.96145">
        <ele>317</ele>
        <time>2011-04-10T08:54:37Z</time>
      </trkpt>
      <trkpt lat="49.19164" lon="6.96144">
        <ele>317</ele>
        <time>2011-04-10T08:54:38Z</time>
      </trkpt>
      <trkpt lat="49.19162" lon="6.96142">
        <ele>317</ele>
        <time>2011-04-10T08:54:40Z</time>
      </trkpt>
      <trkpt lat="49.19162" lon="6.9614">
        <ele>317</ele>
        <time>2011-04-10T08:54:42Z</time>
      </trkpt>
      <trkpt lat="49.1916" lon="6.96137">
        <ele>318</ele>
        <time>2011-04-10T08:54:44Z</time>
      </trkpt>
      <trkpt lat="49.19159" lon="6.96136">
        <ele>319</ele>
        <time>2011-04-10T08:54:46Z</time>
      </trkpt>
      <trkpt lat="49.19158" lon="6.96135">
        <ele>320</ele>
        <time>2011-04-10T08:54:48Z</time>
      </trkpt>
      <trkpt lat="49.1916" lon="6.96135">
        <ele>321</ele>
        <time>2011-04-10T08:54:52Z</time>
      </trkpt>
      <trkpt lat="49.19161" lon="6.96135">
        <ele>321</ele>
        <time>2011-04-10T08:54:53Z</time>
      </trkpt>
      <trkpt lat="49.19163" lon="6.96135">
        <ele>322</ele>
        <time>2011-04-10T08:54:55Z</time>
      </trkpt>
      <trkpt lat="49.19164" lon="6.96137">
        <ele>326</ele>
        <time>2011-04-10T08:55:00Z</time>
      </trkpt>
      <trkpt lat="49.19163" lon="6.96138">
        <ele>329</ele>
        <time>2011-04-10T08:55:10Z</time>
      </trkpt>
      <trkpt lat="49.19162" lon="6.96138">
        <ele>329</ele>
        <time>2011-04-10T08:55:11Z</time>
      </trkpt>
      <trkpt lat="49.19159" lon="6.9614">
        <ele>329</ele>
        <time>2011-04-10T08:55:16Z</time>
      </trkpt>
      <trkpt lat="49.19159" lon="6.9614">
        <ele>329</ele>
        <time>2011-04-10T08:55:17Z</time>
      </trkpt>
    </trkseg>
  </trk>
</gpx>